<?xml version='1.0' encoding='UTF-8'?><gpx version="1.1" creator="JPX - https://github.com/jenetics/jpx" xmlns="http://www.topografix.com/GPX/1/1"><trk><trkseg><trkpt lat="40.7379885" lon="14.795436"><ele>305.0</ele><time>2026-04-25T07:48:57.59Z</time></trkpt><trkpt lat="40.7380115" lon="14.7955717"><ele>305.0</ele><time>2026-04-25T07:48:59.588Z</time></trkpt><trkpt lat="40.7380251" lon="14.7957086"><ele>305.0</ele><time>2026-04-25T07:49:01.588Z</time></trkpt><trkpt lat="40.7379856" lon="14.7958218"><ele>305.0</ele><time>2026-04-25T07:49:03.59Z</time></trkpt><trkpt lat="40.7379092" lon="14.7958129"><ele>305.0</ele><time>2026-04-25T07:49:05.589Z</time></trkpt><trkpt lat="40.7378977" lon="14.7956926"><ele>305.0</ele><time>2026-04-25T07:49:07.588Z</time></trkpt><trkpt lat="40.7378915" lon="14.7955277"><ele>305.0</ele><time>2026-04-25T07:49:09.588Z</time></trkpt><trkpt lat="40.7378666" lon="14.7954454"><ele>305.0</ele><time>2026-04-25T07:49:10.588Z</time></trkpt><trkpt lat="40.7378225" lon="14.795381"><ele>305.0</ele><time>2026-04-25T07:49:11.589Z</time></trkpt><trkpt lat="40.7377655" lon="14.7953378"><ele>305.0</ele><time>2026-04-25T07:49:12.588Z</time></trkpt><trkpt lat="40.7376933" lon="14.7953257"><ele>305.0</ele><time>2026-04-25T07:49:13.589Z</time></trkpt><trkpt lat="40.7376207" lon="14.7953259"><ele>305.0</ele><time>2026-04-25T07:49:14.589Z</time></trkpt><trkpt lat="40.737555" lon="14.7953291"><ele>305.0</ele><time>2026-04-25T07:49:15.589Z</time></trkpt><trkpt lat="40.7374897" lon="14.7953277"><ele>305.0</ele><time>2026-04-25T07:49:16.589Z</time></trkpt><trkpt lat="40.7374235" lon="14.7953155"><ele>305.0</ele><time>2026-04-25T07:49:17.59Z</time></trkpt><trkpt lat="40.737329" lon="14.7952311"><ele>305.0</ele><time>2026-04-25T07:49:19.588Z</time></trkpt><trkpt lat="40.7373111" lon="14.7951504"><ele>305.0</ele><time>2026-04-25T07:49:20.59Z</time></trkpt><trkpt lat="40.7373027" lon="14.795051"><ele>305.0</ele><time>2026-04-25T07:49:21.588Z</time></trkpt><trkpt lat="40.7372838" lon="14.7949465"><ele>305.0</ele><time>2026-04-25T07:49:22.588Z</time></trkpt><trkpt lat="40.7372326" lon="14.7948549"><ele>305.0</ele><time>2026-04-25T07:49:23.588Z</time></trkpt><trkpt lat="40.7371782" lon="14.7947787"><ele>305.0</ele><time>2026-04-25T07:49:24.588Z</time></trkpt><trkpt lat="40.7371304" lon="14.7947078"><ele>305.0</ele><time>2026-04-25T07:49:25.589Z</time></trkpt><trkpt lat="40.7370814" lon="14.7946399"><ele>305.0</ele><time>2026-04-25T07:49:26.589Z</time></trkpt><trkpt lat="40.7370357" lon="14.7945714"><ele>305.0</ele><time>2026-04-25T07:49:27.589Z</time></trkpt><trkpt lat="40.7369855" lon="14.7945036"><ele>305.0</ele><time>2026-04-25T07:49:28.589Z</time></trkpt><trkpt lat="40.7369294" lon="14.7944426"><ele>305.0</ele><time>2026-04-25T07:49:29.588Z</time></trkpt><trkpt lat="40.7368738" lon="14.7943945"><ele>305.0</ele><time>2026-04-25T07:49:30.589Z</time></trkpt><trkpt lat="40.7367632" lon="14.7943804"><ele>305.0</ele><time>2026-04-25T07:49:32.59Z</time></trkpt><trkpt lat="40.7366826" lon="14.7944813"><ele>305.0</ele><time>2026-04-25T07:49:34.59Z</time></trkpt><trkpt lat="40.7366494" lon="14.7945539"><ele>307.0</ele><time>2026-04-25T07:49:35.59Z</time></trkpt><trkpt lat="40.7366182" lon="14.7946317"><ele>309.0</ele><time>2026-04-25T07:49:36.59Z</time></trkpt><trkpt lat="40.7365884" lon="14.7947134"><ele>311.0</ele><time>2026-04-25T07:49:37.589Z</time></trkpt><trkpt lat="40.7365547" lon="14.7947971"><ele>313.0</ele><time>2026-04-25T07:49:38.59Z</time></trkpt><trkpt lat="40.7365226" lon="14.794884"><ele>315.0</ele><time>2026-04-25T07:49:39.59Z</time></trkpt><trkpt lat="40.7364891" lon="14.7949682"><ele>317.0</ele><time>2026-04-25T07:49:40.59Z</time></trkpt><trkpt lat="40.7364564" lon="14.7950523"><ele>319.0</ele><time>2026-04-25T07:49:41.59Z</time></trkpt><trkpt lat="40.7364221" lon="14.7951349"><ele>320.0</ele><time>2026-04-25T07:49:42.589Z</time></trkpt><trkpt lat="40.7363863" lon="14.7952164"><ele>321.0</ele><time>2026-04-25T07:49:43.59Z</time></trkpt><trkpt lat="40.7363527" lon="14.7952958"><ele>322.0</ele><time>2026-04-25T07:49:44.59Z</time></trkpt><trkpt lat="40.7363188" lon="14.795375"><ele>323.0</ele><time>2026-04-25T07:49:45.59Z</time></trkpt><trkpt lat="40.7362891" lon="14.7954575"><ele>324.0</ele><time>2026-04-25T07:49:46.589Z</time></trkpt><trkpt lat="40.7362661" lon="14.7955476"><ele>325.0</ele><time>2026-04-25T07:49:47.59Z</time></trkpt><trkpt lat="40.7362495" lon="14.7956438"><ele>326.0</ele><time>2026-04-25T07:49:48.589Z</time></trkpt><trkpt lat="40.7362366" lon="14.7957459"><ele>326.0</ele><time>2026-04-25T07:49:49.589Z</time></trkpt><trkpt lat="40.7362202" lon="14.7958466"><ele>326.0</ele><time>2026-04-25T07:49:50.589Z</time></trkpt><trkpt lat="40.7362045" lon="14.7959479"><ele>326.0</ele><time>2026-04-25T07:49:51.589Z</time></trkpt><trkpt lat="40.7361867" lon="14.796048"><ele>326.0</ele><time>2026-04-25T07:49:52.589Z</time></trkpt><trkpt lat="40.7361698" lon="14.7961465"><ele>326.0</ele><time>2026-04-25T07:49:53.59Z</time></trkpt><trkpt lat="40.7361497" lon="14.7962397"><ele>326.0</ele><time>2026-04-25T07:49:54.589Z</time></trkpt><trkpt lat="40.7361254" lon="14.7963184"><ele>326.0</ele><time>2026-04-25T07:49:55.589Z</time></trkpt><trkpt lat="40.7360367" lon="14.7963951"><ele>328.6</ele><time>2026-04-25T07:49:57.59Z</time></trkpt><trkpt lat="40.7359236" lon="14.7963546"><ele>331.20000000000005</ele><time>2026-04-25T07:49:59.59Z</time></trkpt><trkpt lat="40.7358638" lon="14.7963247"><ele>333.79999999999995</ele><time>2026-04-25T07:50:00.59Z</time></trkpt><trkpt lat="40.7358015" lon="14.7962957"><ele>336.4</ele><time>2026-04-25T07:50:01.589Z</time></trkpt><trkpt lat="40.7356961" lon="14.7962276"><ele>339.0</ele><time>2026-04-25T07:50:03.589Z</time></trkpt><trkpt lat="40.7356133" lon="14.7961283"><ele>339.0</ele><time>2026-04-25T07:50:05.59Z</time></trkpt><trkpt lat="40.7355647" lon="14.7960741"><ele>339.0</ele><time>2026-04-25T07:50:06.59Z</time></trkpt><trkpt lat="40.7355143" lon="14.7960181"><ele>339.0</ele><time>2026-04-25T07:50:07.59Z</time></trkpt><trkpt lat="40.7354598" lon="14.7959716"><ele>339.0</ele><time>2026-04-25T07:50:08.589Z</time></trkpt><trkpt lat="40.7353459" lon="14.7959462"><ele>339.0</ele><time>2026-04-25T07:50:10.589Z</time></trkpt><trkpt lat="40.7352415" lon="14.7960095"><ele>339.0</ele><time>2026-04-25T07:50:12.589Z</time></trkpt><trkpt lat="40.7351417" lon="14.7960941"><ele>339.79999999999995</ele><time>2026-04-25T07:50:14.59Z</time></trkpt><trkpt lat="40.7350337" lon="14.7961723"><ele>340.59999999999997</ele><time>2026-04-25T07:50:16.589Z</time></trkpt><trkpt lat="40.7349233" lon="14.7962457"><ele>341.4</ele><time>2026-04-25T07:50:18.59Z</time></trkpt><trkpt lat="40.7348093" lon="14.79632"><ele>342.2</ele><time>2026-04-25T07:50:20.589Z</time></trkpt><trkpt lat="40.7347543" lon="14.7963613"><ele>343.0</ele><time>2026-04-25T07:50:21.589Z</time></trkpt><trkpt lat="40.7346495" lon="14.7964395"><ele>343.0</ele><time>2026-04-25T07:50:23.59Z</time></trkpt><trkpt lat="40.7345496" lon="14.7965234"><ele>343.0</ele><time>2026-04-25T07:50:25.59Z</time></trkpt><trkpt lat="40.7344861" lon="14.7965844"><ele>343.0</ele><time>2026-04-25T07:50:27.589Z</time></trkpt><trkpt lat="40.7344195" lon="14.7966007"><ele>343.0</ele><time>2026-04-25T07:50:30.59Z</time></trkpt><trkpt lat="40.7343579" lon="14.7966451"><ele>343.0</ele><time>2026-04-25T07:50:34.59Z</time></trkpt><trkpt lat="40.7343126" lon="14.7967084"><ele>343.0</ele><time>2026-04-25T07:50:38.589Z</time></trkpt><trkpt lat="40.7342443" lon="14.7968003"><ele>345.5</ele><time>2026-04-25T07:50:57.589Z</time></trkpt><trkpt lat="40.7341935" lon="14.7968703"><ele>348.0</ele><time>2026-04-25T07:50:58.589Z</time></trkpt><trkpt lat="40.7341412" lon="14.79694"><ele>350.5</ele><time>2026-04-25T07:50:59.589Z</time></trkpt><trkpt lat="40.7340836" lon="14.7970132"><ele>353.0</ele><time>2026-04-25T07:51:00.589Z</time></trkpt><trkpt lat="40.7340152" lon="14.7970946"><ele>355.5</ele><time>2026-04-25T07:51:01.59Z</time></trkpt><trkpt lat="40.7339321" lon="14.7971797"><ele>358.0</ele><time>2026-04-25T07:51:02.59Z</time></trkpt><trkpt lat="40.7338357" lon="14.7972629"><ele>358.0</ele><time>2026-04-25T07:51:03.589Z</time></trkpt><trkpt lat="40.7337314" lon="14.7973333"><ele>358.0</ele><time>2026-04-25T07:51:04.59Z</time></trkpt><trkpt lat="40.7336348" lon="14.7973912"><ele>358.0</ele><time>2026-04-25T07:51:05.589Z</time></trkpt><trkpt lat="40.7335426" lon="14.7974267"><ele>358.0</ele><time>2026-04-25T07:51:06.59Z</time></trkpt><trkpt lat="40.7334487" lon="14.7974588"><ele>358.0</ele><time>2026-04-25T07:51:07.589Z</time></trkpt><trkpt lat="40.7333595" lon="14.7974995"><ele>358.75</ele><time>2026-04-25T07:51:08.59Z</time></trkpt><trkpt lat="40.7332654" lon="14.7975562"><ele>359.5</ele><time>2026-04-25T07:51:09.588Z</time></trkpt><trkpt lat="40.7331671" lon="14.797647"><ele>360.25</ele><time>2026-04-25T07:51:10.589Z</time></trkpt><trkpt lat="40.7330642" lon="14.7977294"><ele>361.0</ele><time>2026-04-25T07:51:11.589Z</time></trkpt><trkpt lat="40.7329667" lon="14.7978117"><ele>362.8333333333333</ele><time>2026-04-25T07:51:12.589Z</time></trkpt><trkpt lat="40.7328982" lon="14.7979013"><ele>364.66666666666663</ele><time>2026-04-25T07:51:13.59Z</time></trkpt><trkpt lat="40.7328255" lon="14.7979489"><ele>366.5</ele><time>2026-04-25T07:51:14.589Z</time></trkpt><trkpt lat="40.7327579" lon="14.7979646"><ele>368.3333333333333</ele><time>2026-04-25T07:51:15.589Z</time></trkpt><trkpt lat="40.7326908" lon="14.7979561"><ele>370.1666666666667</ele><time>2026-04-25T07:51:16.589Z</time></trkpt><trkpt lat="40.7326251" lon="14.7979177"><ele>372.0</ele><time>2026-04-25T07:51:17.59Z</time></trkpt><trkpt lat="40.732554" lon="14.7978594"><ele>373.0</ele><time>2026-04-25T07:51:18.59Z</time></trkpt><trkpt lat="40.7324734" lon="14.7977958"><ele>374.0</ele><time>2026-04-25T07:51:19.59Z</time></trkpt><trkpt lat="40.7324087" lon="14.7977142"><ele>375.0</ele><time>2026-04-25T07:51:20.589Z</time></trkpt><trkpt lat="40.7323534" lon="14.797636"><ele>376.0</ele><time>2026-04-25T07:51:21.589Z</time></trkpt><trkpt lat="40.7322987" lon="14.7975724"><ele>377.0</ele><time>2026-04-25T07:51:22.59Z</time></trkpt><trkpt lat="40.7322275" lon="14.7975372"><ele>378.0</ele><time>2026-04-25T07:51:23.589Z</time></trkpt><trkpt lat="40.7321547" lon="14.7974863"><ele>378.0</ele><time>2026-04-25T07:51:24.589Z</time></trkpt><trkpt lat="40.7320661" lon="14.7974569"><ele>378.0</ele><time>2026-04-25T07:51:25.59Z</time></trkpt><trkpt lat="40.7319786" lon="14.7974303"><ele>378.0</ele><time>2026-04-25T07:51:26.59Z</time></trkpt><trkpt lat="40.7318799" lon="14.7974068"><ele>378.0</ele><time>2026-04-25T07:51:27.589Z</time></trkpt><trkpt lat="40.7317993" lon="14.7973684"><ele>378.0</ele><time>2026-04-25T07:51:28.59Z</time></trkpt><trkpt lat="40.7317401" lon="14.7973115"><ele>378.0</ele><time>2026-04-25T07:51:29.59Z</time></trkpt><trkpt lat="40.7316994" lon="14.7972416"><ele>380.1666666666667</ele><time>2026-04-25T07:51:30.589Z</time></trkpt><trkpt lat="40.7316685" lon="14.7971535"><ele>382.33333333333337</ele><time>2026-04-25T07:51:31.59Z</time></trkpt><trkpt lat="40.7316356" lon="14.7970622"><ele>384.5</ele><time>2026-04-25T07:51:32.589Z</time></trkpt><trkpt lat="40.7316072" lon="14.7969763"><ele>386.6666666666667</ele><time>2026-04-25T07:51:33.59Z</time></trkpt><trkpt lat="40.7315713" lon="14.7968688"><ele>388.83333333333337</ele><time>2026-04-25T07:51:35.59Z</time></trkpt><trkpt lat="40.7315604" lon="14.7967645"><ele>391.0</ele><time>2026-04-25T07:51:51.588Z</time></trkpt><trkpt lat="40.73158" lon="14.7966594"><ele>390.99999999999994</ele><time>2026-04-25T07:51:54.589Z</time></trkpt><trkpt lat="40.7315361" lon="14.7967424"><ele>391.0</ele><time>2026-04-25T07:53:07.59Z</time></trkpt><trkpt lat="40.7315145" lon="14.7968262"><ele>391.0</ele><time>2026-04-25T07:53:09.589Z</time></trkpt><trkpt lat="40.7314477" lon="14.796876"><ele>391.0</ele><time>2026-04-25T07:53:12.589Z</time></trkpt><trkpt lat="40.7314182" lon="14.7969652"><ele>391.0</ele><time>2026-04-25T07:53:20.59Z</time></trkpt><trkpt lat="40.7314113" lon="14.7970587"><ele>390.99999999999994</ele><time>2026-04-25T07:53:41.589Z</time></trkpt><trkpt lat="40.7313865" lon="14.79714"><ele>391.0</ele><time>2026-04-25T07:53:43.589Z</time></trkpt><trkpt lat="40.7313293" lon="14.7972397"><ele>392.0</ele><time>2026-04-25T07:53:45.59Z</time></trkpt><trkpt lat="40.7312791" lon="14.797356"><ele>393.0</ele><time>2026-04-25T07:53:47.59Z</time></trkpt><trkpt lat="40.7312467" lon="14.7974874"><ele>394.0</ele><time>2026-04-25T07:53:49.59Z</time></trkpt><trkpt lat="40.7312106" lon="14.7976109"><ele>395.0</ele><time>2026-04-25T07:53:51.59Z</time></trkpt><trkpt lat="40.7311942" lon="14.7977085"><ele>396.0</ele><time>2026-04-25T07:54:04.589Z</time></trkpt><trkpt lat="40.7312218" lon="14.7978178"><ele>397.5</ele><time>2026-04-25T07:54:07.59Z</time></trkpt><trkpt lat="40.7312111" lon="14.7979367"><ele>399.0</ele><time>2026-04-25T07:54:09.588Z</time></trkpt><trkpt lat="40.7311412" lon="14.7979931"><ele>400.5</ele><time>2026-04-25T07:54:11.589Z</time></trkpt><trkpt lat="40.7310508" lon="14.7979943"><ele>402.0</ele><time>2026-04-25T07:54:13.59Z</time></trkpt><trkpt lat="40.7309562" lon="14.7979691"><ele>403.5</ele><time>2026-04-25T07:54:15.589Z</time></trkpt><trkpt lat="40.7308853" lon="14.7979883"><ele>405.0</ele><time>2026-04-25T07:54:17.588Z</time></trkpt><trkpt lat="40.7308647" lon="14.7980687"><ele>408.6</ele><time>2026-04-25T07:54:19.588Z</time></trkpt><trkpt lat="40.7308635" lon="14.7981757"><ele>412.2</ele><time>2026-04-25T07:54:21.589Z</time></trkpt><trkpt lat="40.7308662" lon="14.7982911"><ele>415.79999999999995</ele><time>2026-04-25T07:54:23.59Z</time></trkpt><trkpt lat="40.7308347" lon="14.7984104"><ele>419.4</ele><time>2026-04-25T07:54:25.588Z</time></trkpt><trkpt lat="40.7307425" lon="14.7984472"><ele>423.0</ele><time>2026-04-25T07:54:27.589Z</time></trkpt><trkpt lat="40.7306363" lon="14.798472"><ele>424.4</ele><time>2026-04-25T07:54:29.588Z</time></trkpt><trkpt lat="40.7305328" lon="14.7985329"><ele>425.79999999999995</ele><time>2026-04-25T07:54:31.59Z</time></trkpt><trkpt lat="40.7304597" lon="14.7986517"><ele>427.2</ele><time>2026-04-25T07:54:33.589Z</time></trkpt><trkpt lat="40.7304123" lon="14.798798"><ele>428.6</ele><time>2026-04-25T07:54:35.59Z</time></trkpt><trkpt lat="40.7303797" lon="14.7988765"><ele>430.0</ele><time>2026-04-25T07:54:36.589Z</time></trkpt><trkpt lat="40.7303409" lon="14.7990256"><ele>430.0</ele><time>2026-04-25T07:54:38.59Z</time></trkpt><trkpt lat="40.7303121" lon="14.7991771"><ele>430.0</ele><time>2026-04-25T07:54:40.589Z</time></trkpt><trkpt lat="40.730281" lon="14.7992912"><ele>430.0</ele><time>2026-04-25T07:54:42.589Z</time></trkpt><trkpt lat="40.7302443" lon="14.7994049"><ele>430.0</ele><time>2026-04-25T07:54:44.589Z</time></trkpt><trkpt lat="40.7302003" lon="14.7995222"><ele>430.0</ele><time>2026-04-25T07:54:46.59Z</time></trkpt><trkpt lat="40.7301265" lon="14.7996024"><ele>434.0</ele><time>2026-04-25T07:54:48.588Z</time></trkpt><trkpt lat="40.7300413" lon="14.7996522"><ele>438.0</ele><time>2026-04-25T07:54:50.59Z</time></trkpt><trkpt lat="40.7299601" lon="14.7996882"><ele>442.0</ele><time>2026-04-25T07:54:52.589Z</time></trkpt><trkpt lat="40.7298734" lon="14.7997419"><ele>446.0</ele><time>2026-04-25T07:54:54.588Z</time></trkpt><trkpt lat="40.729797" lon="14.7998187"><ele>450.0</ele><time>2026-04-25T07:54:56.589Z</time></trkpt><trkpt lat="40.729738" lon="14.7999009"><ele>450.0</ele><time>2026-04-25T07:54:58.589Z</time></trkpt><trkpt lat="40.7297293" lon="14.8000165"><ele>450.0</ele><time>2026-04-25T07:55:00.589Z</time></trkpt><trkpt lat="40.7297798" lon="14.8001134"><ele>450.0</ele><time>2026-04-25T07:55:02.59Z</time></trkpt><trkpt lat="40.7298254" lon="14.8002206"><ele>450.0</ele><time>2026-04-25T07:55:04.59Z</time></trkpt><trkpt lat="40.729848" lon="14.8003525"><ele>450.0</ele><time>2026-04-25T07:55:06.59Z</time></trkpt><trkpt lat="40.729886" lon="14.8004943"><ele>451.8</ele><time>2026-04-25T07:55:08.589Z</time></trkpt><trkpt lat="40.7299106" lon="14.8005713"><ele>453.6</ele><time>2026-04-25T07:55:09.59Z</time></trkpt><trkpt lat="40.7299521" lon="14.800713"><ele>455.4</ele><time>2026-04-25T07:55:11.59Z</time></trkpt><trkpt lat="40.7299812" lon="14.8008464"><ele>457.2</ele><time>2026-04-25T07:55:13.589Z</time></trkpt><trkpt lat="40.73" lon="14.8009883"><ele>459.0</ele><time>2026-04-25T07:55:15.589Z</time></trkpt><trkpt lat="40.7299811" lon="14.801109"><ele>460.2</ele><time>2026-04-25T07:55:17.59Z</time></trkpt><trkpt lat="40.7299243" lon="14.8012361"><ele>461.4</ele><time>2026-04-25T07:55:19.588Z</time></trkpt><trkpt lat="40.7298661" lon="14.8013642"><ele>462.6</ele><time>2026-04-25T07:55:21.59Z</time></trkpt><trkpt lat="40.7298252" lon="14.8014784"><ele>463.8</ele><time>2026-04-25T07:55:23.589Z</time></trkpt><trkpt lat="40.7297624" lon="14.8015968"><ele>465.0</ele><time>2026-04-25T07:55:25.588Z</time></trkpt><trkpt lat="40.7296924" lon="14.8016959"><ele>465.0</ele><time>2026-04-25T07:55:27.589Z</time></trkpt><trkpt lat="40.7296613" lon="14.8017977"><ele>465.0</ele><time>2026-04-25T07:55:29.588Z</time></trkpt><trkpt lat="40.7296817" lon="14.8019222"><ele>465.0</ele><time>2026-04-25T07:55:32.59Z</time></trkpt><trkpt lat="40.7297609" lon="14.8019676"><ele>465.0</ele><time>2026-04-25T07:55:34.589Z</time></trkpt><trkpt lat="40.7298415" lon="14.8020479"><ele>465.0</ele><time>2026-04-25T07:55:36.59Z</time></trkpt><trkpt lat="40.7299286" lon="14.8021437"><ele>464.8</ele><time>2026-04-25T07:55:38.589Z</time></trkpt><trkpt lat="40.7300052" lon="14.8022515"><ele>464.6</ele><time>2026-04-25T07:55:40.589Z</time></trkpt><trkpt lat="40.7300819" lon="14.8023598"><ele>464.4</ele><time>2026-04-25T07:55:42.589Z</time></trkpt><trkpt lat="40.7301623" lon="14.8024612"><ele>464.2</ele><time>2026-04-25T07:55:44.589Z</time></trkpt><trkpt lat="40.7302264" lon="14.8025843"><ele>464.0</ele><time>2026-04-25T07:55:46.589Z</time></trkpt><trkpt lat="40.7302738" lon="14.8027238"><ele>464.0</ele><time>2026-04-25T07:55:48.59Z</time></trkpt><trkpt lat="40.730301" lon="14.8028837"><ele>464.0</ele><time>2026-04-25T07:55:50.589Z</time></trkpt><trkpt lat="40.7303071" lon="14.8030406"><ele>464.0</ele><time>2026-04-25T07:55:52.59Z</time></trkpt><trkpt lat="40.7303391" lon="14.8031967"><ele>464.0</ele><time>2026-04-25T07:55:54.59Z</time></trkpt><trkpt lat="40.730362" lon="14.8033472"><ele>464.0</ele><time>2026-04-25T07:55:56.589Z</time></trkpt><trkpt lat="40.7303826" lon="14.8034953"><ele>464.0</ele><time>2026-04-25T07:55:58.588Z</time></trkpt><trkpt lat="40.7304188" lon="14.8036528"><ele>464.0</ele><time>2026-04-25T07:56:00.59Z</time></trkpt><trkpt lat="40.7304403" lon="14.8037931"><ele>464.0</ele><time>2026-04-25T07:56:02.589Z</time></trkpt><trkpt lat="40.7304476" lon="14.8038924"><ele>464.0</ele><time>2026-04-25T07:56:04.59Z</time></trkpt><trkpt lat="40.7304537" lon="14.8039784"><ele>465.0</ele><time>2026-04-25T07:58:45.591Z</time></trkpt><trkpt lat="40.7304377" lon="14.8040966"><ele>466.0</ele><time>2026-04-25T07:58:48.59Z</time></trkpt><trkpt lat="40.7304542" lon="14.804225"><ele>467.0</ele><time>2026-04-25T07:58:50.589Z</time></trkpt><trkpt lat="40.7305" lon="14.8043413"><ele>468.0</ele><time>2026-04-25T07:58:52.589Z</time></trkpt><trkpt lat="40.7305489" lon="14.8044535"><ele>469.0</ele><time>2026-04-25T07:58:54.59Z</time></trkpt><trkpt lat="40.7305419" lon="14.8045381"><ele>471.00000000000006</ele><time>2026-04-25T07:58:55.59Z</time></trkpt><trkpt lat="40.7305411" lon="14.8046261"><ele>473.0</ele><time>2026-04-25T07:58:56.591Z</time></trkpt><trkpt lat="40.73055" lon="14.804713"><ele>475.0</ele><time>2026-04-25T07:58:57.589Z</time></trkpt><trkpt lat="40.7305502" lon="14.8047976"><ele>477.0</ele><time>2026-04-25T07:58:58.59Z</time></trkpt><trkpt lat="40.7305431" lon="14.8048828"><ele>479.00000000000006</ele><time>2026-04-25T07:58:59.589Z</time></trkpt><trkpt lat="40.730547" lon="14.8050371"><ele>481.0</ele><time>2026-04-25T07:59:01.59Z</time></trkpt><trkpt lat="40.7305411" lon="14.8051325"><ele>483.42857142857133</ele><time>2026-04-25T07:59:02.591Z</time></trkpt><trkpt lat="40.7305398" lon="14.8052197"><ele>485.85714285714283</ele><time>2026-04-25T07:59:03.591Z</time></trkpt><trkpt lat="40.7305404" lon="14.8053069"><ele>488.2857142857142</ele><time>2026-04-25T07:59:04.59Z</time></trkpt><trkpt lat="40.730544" lon="14.8053943"><ele>490.71428571428567</ele><time>2026-04-25T07:59:05.591Z</time></trkpt><trkpt lat="40.730545" lon="14.8054905"><ele>493.1428571428571</ele><time>2026-04-25T07:59:06.591Z</time></trkpt><trkpt lat="40.7305546" lon="14.805577"><ele>495.57142857142856</ele><time>2026-04-25T07:59:07.59Z</time></trkpt><trkpt lat="40.7305699" lon="14.8056987"><ele>498.0</ele><time>2026-04-25T07:59:09.591Z</time></trkpt><trkpt lat="40.7306282" lon="14.8057364"><ele>498.0</ele><time>2026-04-25T08:03:50.588Z</time></trkpt><trkpt lat="40.7306949" lon="14.8057851"><ele>498.0</ele><time>2026-04-25T08:03:53.59Z</time></trkpt><trkpt lat="40.7307745" lon="14.8057702"><ele>498.0</ele><time>2026-04-25T08:03:55.589Z</time></trkpt><trkpt lat="40.7308526" lon="14.8057371"><ele>498.0</ele><time>2026-04-25T08:03:57.589Z</time></trkpt><trkpt lat="40.7309276" lon="14.8057043"><ele>498.0</ele><time>2026-04-25T08:03:59.59Z</time></trkpt><trkpt lat="40.7310118" lon="14.8057263"><ele>498.0</ele><time>2026-04-25T08:04:01.59Z</time></trkpt><trkpt lat="40.7310881" lon="14.8058005"><ele>500.6666666666667</ele><time>2026-04-25T08:04:03.589Z</time></trkpt><trkpt lat="40.7311457" lon="14.8058732"><ele>503.33333333333337</ele><time>2026-04-25T08:04:05.588Z</time></trkpt><trkpt lat="40.73119" lon="14.8059568"><ele>506.0</ele><time>2026-04-25T08:04:07.589Z</time></trkpt><trkpt lat="40.7312488" lon="14.8060378"><ele>508.6666666666667</ele><time>2026-04-25T08:04:09.59Z</time></trkpt><trkpt lat="40.7313007" lon="14.8061246"><ele>511.33333333333337</ele><time>2026-04-25T08:04:11.59Z</time></trkpt><trkpt lat="40.7313563" lon="14.8061977"><ele>514.0</ele><time>2026-04-25T08:04:13.588Z</time></trkpt><trkpt lat="40.7314138" lon="14.8062834"><ele>515.5</ele><time>2026-04-25T08:04:15.588Z</time></trkpt><trkpt lat="40.7314607" lon="14.8063702"><ele>517.0</ele><time>2026-04-25T08:04:17.59Z</time></trkpt><trkpt lat="40.7315054" lon="14.8064724"><ele>518.5</ele><time>2026-04-25T08:04:19.589Z</time></trkpt><trkpt lat="40.731561" lon="14.8065771"><ele>520.0</ele><time>2026-04-25T08:04:21.589Z</time></trkpt><trkpt lat="40.7316053" lon="14.8066584"><ele>521.5</ele><time>2026-04-25T08:04:23.588Z</time></trkpt><trkpt lat="40.7316612" lon="14.8067496"><ele>523.0</ele><time>2026-04-25T08:04:25.589Z</time></trkpt><trkpt lat="40.7317148" lon="14.8068343"><ele>528.0</ele><time>2026-04-25T08:04:27.59Z</time></trkpt><trkpt lat="40.7317769" lon="14.8069175"><ele>533.0</ele><time>2026-04-25T08:04:29.589Z</time></trkpt><trkpt lat="40.7318314" lon="14.807001"><ele>538.0</ele><time>2026-04-25T08:04:31.589Z</time></trkpt><trkpt lat="40.7318807" lon="14.8070904"><ele>543.0</ele><time>2026-04-25T08:04:33.589Z</time></trkpt><trkpt lat="40.7319334" lon="14.807158"><ele>548.0</ele><time>2026-04-25T08:04:35.59Z</time></trkpt><trkpt lat="40.7320097" lon="14.807175"><ele>553.0</ele><time>2026-04-25T08:04:37.59Z</time></trkpt><trkpt lat="40.7320725" lon="14.8070913"><ele>553.3333333333334</ele><time>2026-04-25T08:04:39.59Z</time></trkpt><trkpt lat="40.7321223" lon="14.8070239"><ele>553.6666666666667</ele><time>2026-04-25T08:04:41.59Z</time></trkpt><trkpt lat="40.73219" lon="14.8070127"><ele>554.0</ele><time>2026-04-25T08:04:43.59Z</time></trkpt><trkpt lat="40.7322667" lon="14.8070383"><ele>554.3333333333334</ele><time>2026-04-25T08:04:45.59Z</time></trkpt><trkpt lat="40.7323366" lon="14.8070749"><ele>554.6666666666666</ele><time>2026-04-25T08:04:47.59Z</time></trkpt><trkpt lat="40.7324041" lon="14.8070918"><ele>555.0</ele><time>2026-04-25T08:04:49.59Z</time></trkpt><trkpt lat="40.7324513" lon="14.8069951"><ele>555.0</ele><time>2026-04-25T08:04:52.59Z</time></trkpt><trkpt lat="40.7324231" lon="14.8069098"><ele>555.0</ele><time>2026-04-25T08:04:54.59Z</time></trkpt><trkpt lat="40.7323879" lon="14.8068237"><ele>555.0</ele><time>2026-04-25T08:04:56.59Z</time></trkpt><trkpt lat="40.732379" lon="14.8067241"><ele>555.0</ele><time>2026-04-25T08:04:58.589Z</time></trkpt><trkpt lat="40.7323573" lon="14.8066389"><ele>555.0</ele><time>2026-04-25T08:05:00.589Z</time></trkpt><trkpt lat="40.7323107" lon="14.8065492"><ele>555.0</ele><time>2026-04-25T08:05:02.59Z</time></trkpt><trkpt lat="40.7322898" lon="14.8064428"><ele>554.5</ele><time>2026-04-25T08:05:04.589Z</time></trkpt><trkpt lat="40.7322977" lon="14.8063302"><ele>554.0</ele><time>2026-04-25T08:05:06.59Z</time></trkpt><trkpt lat="40.7323134" lon="14.8062309"><ele>553.5</ele><time>2026-04-25T08:05:08.589Z</time></trkpt><trkpt lat="40.7322869" lon="14.8061411"><ele>553.0</ele><time>2026-04-25T08:05:10.589Z</time></trkpt><trkpt lat="40.7322527" lon="14.8060528"><ele>552.5</ele><time>2026-04-25T08:05:12.589Z</time></trkpt><trkpt lat="40.7322534" lon="14.8059554"><ele>552.0</ele><time>2026-04-25T08:05:14.59Z</time></trkpt><trkpt lat="40.7322504" lon="14.8058512"><ele>552.0</ele><time>2026-04-25T08:05:16.589Z</time></trkpt><trkpt lat="40.7322326" lon="14.8057426"><ele>552.0</ele><time>2026-04-25T08:05:18.59Z</time></trkpt><trkpt lat="40.7322478" lon="14.8056436"><ele>552.0</ele><time>2026-04-25T08:05:20.589Z</time></trkpt><trkpt lat="40.7323073" lon="14.8055707"><ele>552.0</ele><time>2026-04-25T08:05:22.59Z</time></trkpt><trkpt lat="40.7323825" lon="14.8055194"><ele>552.0</ele><time>2026-04-25T08:05:24.59Z</time></trkpt><trkpt lat="40.7324484" lon="14.8054656"><ele>552.0</ele><time>2026-04-25T08:05:26.59Z</time></trkpt><trkpt lat="40.7324994" lon="14.8054051"><ele>552.0</ele><time>2026-04-25T08:05:28.588Z</time></trkpt><trkpt lat="40.7325486" lon="14.8053372"><ele>552.0</ele><time>2026-04-25T08:05:30.588Z</time></trkpt><trkpt lat="40.7326206" lon="14.8053027"><ele>552.0</ele><time>2026-04-25T08:05:32.59Z</time></trkpt><trkpt lat="40.7326924" lon="14.805281"><ele>552.0</ele><time>2026-04-25T08:05:34.59Z</time></trkpt><trkpt lat="40.7327721" lon="14.8053063"><ele>552.0</ele><time>2026-04-25T08:05:36.59Z</time></trkpt><trkpt lat="40.732839" lon="14.805357"><ele>552.0</ele><time>2026-04-25T08:05:38.589Z</time></trkpt><trkpt lat="40.7328848" lon="14.8054429"><ele>553.7142857142858</ele><time>2026-04-25T08:05:40.588Z</time></trkpt><trkpt lat="40.7329426" lon="14.8055144"><ele>555.4285714285714</ele><time>2026-04-25T08:05:42.589Z</time></trkpt><trkpt lat="40.7329912" lon="14.8055688"><ele>557.1428571428571</ele><time>2026-04-25T08:05:44.59Z</time></trkpt><trkpt lat="40.7330455" lon="14.805618"><ele>558.8571428571429</ele><time>2026-04-25T08:05:47.59Z</time></trkpt><trkpt lat="40.7331041" lon="14.8056673"><ele>560.5714285714286</ele><time>2026-04-25T08:05:49.589Z</time></trkpt><trkpt lat="40.7331758" lon="14.8057161"><ele>562.2857142857143</ele><time>2026-04-25T08:05:51.59Z</time></trkpt><trkpt lat="40.7332437" lon="14.8057832"><ele>564.0</ele><time>2026-04-25T08:05:53.589Z</time></trkpt><trkpt lat="40.7333282" lon="14.8058567"><ele>564.0</ele><time>2026-04-25T08:05:55.589Z</time></trkpt><trkpt lat="40.7334198" lon="14.8059218"><ele>564.0</ele><time>2026-04-25T08:05:57.59Z</time></trkpt><trkpt lat="40.7335266" lon="14.8059742"><ele>564.0</ele><time>2026-04-25T08:05:59.59Z</time></trkpt><trkpt lat="40.7336373" lon="14.8060264"><ele>564.0</ele><time>2026-04-25T08:06:01.589Z</time></trkpt><trkpt lat="40.7337272" lon="14.8060702"><ele>564.0</ele><time>2026-04-25T08:06:03.59Z</time></trkpt><trkpt lat="40.7338148" lon="14.8060935"><ele>566.8333333333334</ele><time>2026-04-25T08:06:05.589Z</time></trkpt><trkpt lat="40.7338857" lon="14.8060597"><ele>569.6666666666666</ele><time>2026-04-25T08:06:07.59Z</time></trkpt><trkpt lat="40.7339266" lon="14.8059883"><ele>572.5</ele><time>2026-04-25T08:06:09.59Z</time></trkpt><trkpt lat="40.7339434" lon="14.8058709"><ele>575.3333333333333</ele><time>2026-04-25T08:06:11.59Z</time></trkpt><trkpt lat="40.7339521" lon="14.8057379"><ele>578.1666666666666</ele><time>2026-04-25T08:06:13.589Z</time></trkpt><trkpt lat="40.7339904" lon="14.8056057"><ele>581.0</ele><time>2026-04-25T08:06:15.589Z</time></trkpt><trkpt lat="40.7340124" lon="14.8054754"><ele>581.0</ele><time>2026-04-25T08:06:17.588Z</time></trkpt><trkpt lat="40.7340436" lon="14.8053476"><ele>581.0</ele><time>2026-04-25T08:06:19.59Z</time></trkpt><trkpt lat="40.734068" lon="14.8052086"><ele>581.0</ele><time>2026-04-25T08:06:21.589Z</time></trkpt><trkpt lat="40.7340841" lon="14.8050641"><ele>581.0</ele><time>2026-04-25T08:06:23.589Z</time></trkpt><trkpt lat="40.7341221" lon="14.8049531"><ele>581.0</ele><time>2026-04-25T08:06:25.59Z</time></trkpt><trkpt lat="40.7341722" lon="14.8048485"><ele>581.0</ele><time>2026-04-25T08:06:27.589Z</time></trkpt><trkpt lat="40.7342356" lon="14.8047712"><ele>581.0</ele><time>2026-04-25T08:06:29.59Z</time></trkpt><trkpt lat="40.7343249" lon="14.8047696"><ele>581.0</ele><time>2026-04-25T08:06:32.589Z</time></trkpt><trkpt lat="40.7343535" lon="14.8048535"><ele>581.0</ele><time>2026-04-25T08:06:35.588Z</time></trkpt><trkpt lat="40.7342982" lon="14.8049535"><ele>581.0</ele><time>2026-04-25T08:06:38.59Z</time></trkpt><trkpt lat="40.7342406" lon="14.8050375"><ele>581.0</ele><time>2026-04-25T08:06:40.588Z</time></trkpt><trkpt lat="40.734217" lon="14.8051705"><ele>581.0</ele><time>2026-04-25T08:06:42.589Z</time></trkpt><trkpt lat="40.734228" lon="14.805293"><ele>581.0</ele><time>2026-04-25T08:06:44.589Z</time></trkpt><trkpt lat="40.734251" lon="14.8054161"><ele>581.0</ele><time>2026-04-25T08:06:46.589Z</time></trkpt><trkpt lat="40.7342531" lon="14.8055737"><ele>581.0</ele><time>2026-04-25T08:06:48.589Z</time></trkpt><trkpt lat="40.7342501" lon="14.8056628"><ele>581.0</ele><time>2026-04-25T08:06:49.589Z</time></trkpt><trkpt lat="40.7342547" lon="14.8057525"><ele>581.0</ele><time>2026-04-25T08:06:50.59Z</time></trkpt><trkpt lat="40.7342622" lon="14.8059155"><ele>586.6</ele><time>2026-04-25T08:06:52.589Z</time></trkpt><trkpt lat="40.7342585" lon="14.8060596"><ele>592.2</ele><time>2026-04-25T08:06:54.59Z</time></trkpt><trkpt lat="40.734255" lon="14.8061973"><ele>597.8</ele><time>2026-04-25T08:06:56.59Z</time></trkpt><trkpt lat="40.7342674" lon="14.8063171"><ele>603.4</ele><time>2026-04-25T08:06:58.59Z</time></trkpt><trkpt lat="40.7342845" lon="14.8064187"><ele>609.0</ele><time>2026-04-25T08:07:00.588Z</time></trkpt><trkpt lat="40.734274" lon="14.8065412"><ele>609.0</ele><time>2026-04-25T08:07:02.589Z</time></trkpt><trkpt lat="40.7342246" lon="14.8066304"><ele>609.0</ele><time>2026-04-25T08:07:04.59Z</time></trkpt><trkpt lat="40.7341341" lon="14.8067092"><ele>609.0</ele><time>2026-04-25T08:07:07.589Z</time></trkpt><trkpt lat="40.7340324" lon="14.8066854"><ele>609.0</ele><time>2026-04-25T08:07:09.59Z</time></trkpt><trkpt lat="40.7339704" lon="14.8066562"><ele>609.0</ele><time>2026-04-25T08:07:10.59Z</time></trkpt><trkpt lat="40.7338786" lon="14.8066754"><ele>609.0</ele><time>2026-04-25T08:07:12.59Z</time></trkpt><trkpt lat="40.7337892" lon="14.8066957"><ele>609.0</ele><time>2026-04-25T08:07:14.59Z</time></trkpt><trkpt lat="40.7336925" lon="14.8067016"><ele>609.0</ele><time>2026-04-25T08:07:16.589Z</time></trkpt><trkpt lat="40.7335892" lon="14.8067011"><ele>609.0</ele><time>2026-04-25T08:07:18.59Z</time></trkpt><trkpt lat="40.733503" lon="14.8066985"><ele>609.0</ele><time>2026-04-25T08:07:20.589Z</time></trkpt><trkpt lat="40.7334485" lon="14.8067663"><ele>606.4</ele><time>2026-04-25T08:07:22.589Z</time></trkpt><trkpt lat="40.7334667" lon="14.8068793"><ele>603.8</ele><time>2026-04-25T08:07:24.59Z</time></trkpt><trkpt lat="40.7335154" lon="14.8069901"><ele>601.2</ele><time>2026-04-25T08:07:26.59Z</time></trkpt><trkpt lat="40.7335649" lon="14.8071007"><ele>598.6</ele><time>2026-04-25T08:07:28.588Z</time></trkpt><trkpt lat="40.7336176" lon="14.8072074"><ele>596.0</ele><time>2026-04-25T08:07:30.589Z</time></trkpt><trkpt lat="40.7336724" lon="14.8073172"><ele>604.0</ele><time>2026-04-25T08:07:32.589Z</time></trkpt><trkpt lat="40.7337178" lon="14.8074255"><ele>612.0</ele><time>2026-04-25T08:07:34.589Z</time></trkpt><trkpt lat="40.7337732" lon="14.8075407"><ele>620.0</ele><time>2026-04-25T08:07:36.59Z</time></trkpt><trkpt lat="40.7338093" lon="14.8076619"><ele>628.0</ele><time>2026-04-25T08:07:38.588Z</time></trkpt><trkpt lat="40.7337871" lon="14.8077792"><ele>636.0</ele><time>2026-04-25T08:07:40.589Z</time></trkpt><trkpt lat="40.7337094" lon="14.807861"><ele>633.0</ele><time>2026-04-25T08:07:42.59Z</time></trkpt><trkpt lat="40.7336533" lon="14.807956"><ele>630.0</ele><time>2026-04-25T08:07:44.59Z</time></trkpt><trkpt lat="40.7336291" lon="14.8081001"><ele>627.0</ele><time>2026-04-25T08:07:46.59Z</time></trkpt><trkpt lat="40.7335806" lon="14.8082057"><ele>624.0</ele><time>2026-04-25T08:07:48.59Z</time></trkpt><trkpt lat="40.7334957" lon="14.8082752"><ele>621.0</ele><time>2026-04-25T08:07:50.589Z</time></trkpt><trkpt lat="40.7333968" lon="14.8083064"><ele>621.0</ele><time>2026-04-25T08:07:52.59Z</time></trkpt><trkpt lat="40.7332944" lon="14.8083313"><ele>621.0</ele><time>2026-04-25T08:07:54.59Z</time></trkpt><trkpt lat="40.7331881" lon="14.8083411"><ele>621.0</ele><time>2026-04-25T08:07:56.589Z</time></trkpt><trkpt lat="40.7330906" lon="14.808384"><ele>621.0</ele><time>2026-04-25T08:07:58.59Z</time></trkpt><trkpt lat="40.7330269" lon="14.808477"><ele>621.0</ele><time>2026-04-25T08:08:00.59Z</time></trkpt><trkpt lat="40.7329921" lon="14.8086018"><ele>627.4</ele><time>2026-04-25T08:08:02.589Z</time></trkpt><trkpt lat="40.7329927" lon="14.8087377"><ele>633.8</ele><time>2026-04-25T08:08:04.59Z</time></trkpt><trkpt lat="40.7330306" lon="14.8088668"><ele>640.1999999999999</ele><time>2026-04-25T08:08:06.589Z</time></trkpt><trkpt lat="40.7330618" lon="14.808991"><ele>646.6</ele><time>2026-04-25T08:08:08.589Z</time></trkpt><trkpt lat="40.7330711" lon="14.8091274"><ele>653.0</ele><time>2026-04-25T08:08:10.59Z</time></trkpt><trkpt lat="40.7330301" lon="14.8092607"><ele>655.8</ele><time>2026-04-25T08:08:12.59Z</time></trkpt><trkpt lat="40.7329585" lon="14.8093638"><ele>658.5999999999999</ele><time>2026-04-25T08:08:14.589Z</time></trkpt><trkpt lat="40.7329208" lon="14.8094974"><ele>661.4000000000001</ele><time>2026-04-25T08:08:16.59Z</time></trkpt><trkpt lat="40.7328881" lon="14.8096354"><ele>664.2</ele><time>2026-04-25T08:08:18.59Z</time></trkpt><trkpt lat="40.732822" lon="14.8097669"><ele>667.0</ele><time>2026-04-25T08:08:20.59Z</time></trkpt><trkpt lat="40.7327281" lon="14.8098532"><ele>662.5</ele><time>2026-04-25T08:08:22.589Z</time></trkpt><trkpt lat="40.7326188" lon="14.8098832"><ele>658.0</ele><time>2026-04-25T08:08:24.59Z</time></trkpt><trkpt lat="40.7325027" lon="14.8098708"><ele>653.5</ele><time>2026-04-25T08:08:26.59Z</time></trkpt><trkpt lat="40.7323774" lon="14.8098813"><ele>649.0</ele><time>2026-04-25T08:08:28.59Z</time></trkpt><trkpt lat="40.7322719" lon="14.8099289"><ele>649.0</ele><time>2026-04-25T08:08:30.589Z</time></trkpt><trkpt lat="40.7321646" lon="14.8099877"><ele>649.0</ele><time>2026-04-25T08:08:32.589Z</time></trkpt><trkpt lat="40.732055" lon="14.8100699"><ele>649.0</ele><time>2026-04-25T08:08:34.589Z</time></trkpt><trkpt lat="40.7319591" lon="14.810144"><ele>649.0</ele><time>2026-04-25T08:08:36.59Z</time></trkpt><trkpt lat="40.731877" lon="14.8102282"><ele>648.2</ele><time>2026-04-25T08:08:38.589Z</time></trkpt><trkpt lat="40.731793" lon="14.810294"><ele>647.4000000000001</ele><time>2026-04-25T08:08:40.589Z</time></trkpt><trkpt lat="40.7317159" lon="14.810339"><ele>646.6</ele><time>2026-04-25T08:08:42.589Z</time></trkpt><trkpt lat="40.7316262" lon="14.810314"><ele>645.8</ele><time>2026-04-25T08:08:44.59Z</time></trkpt><trkpt lat="40.731552" lon="14.8102012"><ele>645.0</ele><time>2026-04-25T08:08:46.589Z</time></trkpt><trkpt lat="40.7315011" lon="14.810072"><ele>645.0</ele><time>2026-04-25T08:08:48.589Z</time></trkpt><trkpt lat="40.7314589" lon="14.8099797"><ele>645.0</ele><time>2026-04-25T08:08:50.59Z</time></trkpt><trkpt lat="40.7313696" lon="14.8099684"><ele>645.0</ele><time>2026-04-25T08:08:52.59Z</time></trkpt><trkpt lat="40.7313308" lon="14.8100372"><ele>645.0</ele><time>2026-04-25T08:08:54.59Z</time></trkpt><trkpt lat="40.7313195" lon="14.8101495"><ele>645.0</ele><time>2026-04-25T08:10:55.59Z</time></trkpt><trkpt lat="40.7312773" lon="14.8102451"><ele>645.0</ele><time>2026-04-25T08:10:58.59Z</time></trkpt><trkpt lat="40.7312448" lon="14.8103165"><ele>649.6666666666666</ele><time>2026-04-25T08:11:00.59Z</time></trkpt><trkpt lat="40.731187" lon="14.8104163"><ele>654.3333333333334</ele><time>2026-04-25T08:11:03.59Z</time></trkpt><trkpt lat="40.7311331" lon="14.8104888"><ele>659.0</ele><time>2026-04-25T08:11:05.589Z</time></trkpt><trkpt lat="40.7310736" lon="14.8105443"><ele>663.6666666666667</ele><time>2026-04-25T08:11:07.589Z</time></trkpt><trkpt lat="40.7309965" lon="14.8105944"><ele>668.3333333333334</ele><time>2026-04-25T08:11:09.59Z</time></trkpt><trkpt lat="40.7309325" lon="14.8106526"><ele>673.0</ele><time>2026-04-25T08:11:11.589Z</time></trkpt><trkpt lat="40.730856" lon="14.8107014"><ele>673.0</ele><time>2026-04-25T08:11:13.589Z</time></trkpt><trkpt lat="40.7307719" lon="14.8107265"><ele>673.0</ele><time>2026-04-25T08:11:15.59Z</time></trkpt><trkpt lat="40.7306955" lon="14.8107495"><ele>673.0</ele><time>2026-04-25T08:11:17.59Z</time></trkpt><trkpt lat="40.7306062" lon="14.8107944"><ele>673.0</ele><time>2026-04-25T08:11:19.589Z</time></trkpt><trkpt lat="40.73052" lon="14.8108339"><ele>673.0</ele><time>2026-04-25T08:11:21.589Z</time></trkpt><trkpt lat="40.7304309" lon="14.8108625"><ele>673.0</ele><time>2026-04-25T08:11:23.59Z</time></trkpt><trkpt lat="40.7303371" lon="14.8108914"><ele>673.0</ele><time>2026-04-25T08:11:25.59Z</time></trkpt><trkpt lat="40.7302528" lon="14.8109371"><ele>673.0</ele><time>2026-04-25T08:11:27.59Z</time></trkpt><trkpt lat="40.7301832" lon="14.8110024"><ele>673.0</ele><time>2026-04-25T08:11:29.59Z</time></trkpt><trkpt lat="40.7301116" lon="14.8110715"><ele>673.0</ele><time>2026-04-25T08:11:31.59Z</time></trkpt><trkpt lat="40.7300196" lon="14.8110936"><ele>673.0</ele><time>2026-04-25T08:11:33.59Z</time></trkpt><trkpt lat="40.7299322" lon="14.8111257"><ele>673.0</ele><time>2026-04-25T08:11:35.59Z</time></trkpt><trkpt lat="40.7298557" lon="14.8111649"><ele>673.6666666666667</ele><time>2026-04-25T08:11:37.59Z</time></trkpt><trkpt lat="40.7297909" lon="14.8112259"><ele>674.3333333333334</ele><time>2026-04-25T08:11:39.588Z</time></trkpt><trkpt lat="40.7297268" lon="14.8113053"><ele>675.0</ele><time>2026-04-25T08:11:41.589Z</time></trkpt><trkpt lat="40.7296812" lon="14.8113802"><ele>675.6666666666666</ele><time>2026-04-25T08:11:43.59Z</time></trkpt><trkpt lat="40.7296517" lon="14.8114946"><ele>676.3333333333333</ele><time>2026-04-25T08:11:46.589Z</time></trkpt><trkpt lat="40.7296883" lon="14.8115622"><ele>677.0</ele><time>2026-04-25T08:11:48.589Z</time></trkpt><trkpt lat="40.7297705" lon="14.8115534"><ele>677.0</ele><time>2026-04-25T08:11:55.59Z</time></trkpt><trkpt lat="40.7298285" lon="14.8114735"><ele>677.0</ele><time>2026-04-25T08:11:57.589Z</time></trkpt><trkpt lat="40.7298875" lon="14.8113987"><ele>677.0</ele><time>2026-04-25T08:11:59.59Z</time></trkpt><trkpt lat="40.7299424" lon="14.811357"><ele>677.0</ele><time>2026-04-25T08:12:02.59Z</time></trkpt><trkpt lat="40.7300012" lon="14.8113057"><ele>677.0</ele><time>2026-04-25T08:12:05.589Z</time></trkpt></trkseg><trkseg><trkpt lat="40.7300825" lon="14.8112352"><ele>677.0</ele><time>2026-04-25T08:22:29.59Z</time></trkpt><trkpt lat="40.7301633" lon="14.8112736"><ele>677.0</ele><time>2026-04-25T08:22:39.59Z</time></trkpt><trkpt lat="40.7302607" lon="14.8112406"><ele>677.0</ele><time>2026-04-25T08:22:41.589Z</time></trkpt><trkpt lat="40.7303463" lon="14.8112185"><ele>677.0</ele><time>2026-04-25T08:22:43.589Z</time></trkpt><trkpt lat="40.7304359" lon="14.8111952"><ele>677.0</ele><time>2026-04-25T08:22:45.589Z</time></trkpt><trkpt lat="40.7305416" lon="14.8111594"><ele>676.6</ele><time>2026-04-25T08:22:47.59Z</time></trkpt><trkpt lat="40.7306374" lon="14.81114"><ele>676.2</ele><time>2026-04-25T08:22:49.588Z</time></trkpt><trkpt lat="40.7307399" lon="14.8111169"><ele>675.8</ele><time>2026-04-25T08:22:51.59Z</time></trkpt><trkpt lat="40.7308492" lon="14.8111064"><ele>675.4</ele><time>2026-04-25T08:22:53.588Z</time></trkpt><trkpt lat="40.7309637" lon="14.8110845"><ele>675.0</ele><time>2026-04-25T08:22:55.59Z</time></trkpt><trkpt lat="40.7310688" lon="14.8110498"><ele>676.2</ele><time>2026-04-25T08:22:57.589Z</time></trkpt><trkpt lat="40.7311685" lon="14.8109847"><ele>677.4</ele><time>2026-04-25T08:22:59.59Z</time></trkpt><trkpt lat="40.7312691" lon="14.8109537"><ele>678.5999999999999</ele><time>2026-04-25T08:23:01.59Z</time></trkpt><trkpt lat="40.7313642" lon="14.8109492"><ele>679.8</ele><time>2026-04-25T08:23:03.59Z</time></trkpt><trkpt lat="40.7314732" lon="14.8109674"><ele>681.0</ele><time>2026-04-25T08:23:05.589Z</time></trkpt><trkpt lat="40.7315883" lon="14.8109894"><ele>681.0</ele><time>2026-04-25T08:23:07.589Z</time></trkpt><trkpt lat="40.7317068" lon="14.8109793"><ele>681.0</ele><time>2026-04-25T08:23:09.589Z</time></trkpt><trkpt lat="40.731782" lon="14.8109358"><ele>681.0</ele><time>2026-04-25T08:23:11.589Z</time></trkpt><trkpt lat="40.7318639" lon="14.8109058"><ele>681.0</ele><time>2026-04-25T08:23:13.588Z</time></trkpt><trkpt lat="40.7319376" lon="14.8108981"><ele>681.0</ele><time>2026-04-25T08:23:15.59Z</time></trkpt><trkpt lat="40.73202" lon="14.8108692"><ele>681.0</ele><time>2026-04-25T08:23:18.588Z</time></trkpt><trkpt lat="40.7320808" lon="14.8108444"><ele>679.5</ele><time>2026-04-25T08:23:21.59Z</time></trkpt><trkpt lat="40.7321626" lon="14.8108175"><ele>678.0</ele><time>2026-04-25T08:23:25.59Z</time></trkpt><trkpt lat="40.7322342" lon="14.8107823"><ele>676.5</ele><time>2026-04-25T08:23:28.59Z</time></trkpt><trkpt lat="40.7323129" lon="14.810731"><ele>675.0</ele><time>2026-04-25T08:23:31.588Z</time></trkpt><trkpt lat="40.7323882" lon="14.8107056"><ele>673.5</ele><time>2026-04-25T08:23:34.59Z</time></trkpt><trkpt lat="40.732466" lon="14.8107019"><ele>672.0</ele><time>2026-04-25T08:23:37.588Z</time></trkpt><trkpt lat="40.732558" lon="14.8107166"><ele>672.0</ele><time>2026-04-25T08:23:40.589Z</time></trkpt><trkpt lat="40.7326213" lon="14.8107095"><ele>672.0</ele><time>2026-04-25T08:23:42.59Z</time></trkpt><trkpt lat="40.7326903" lon="14.8106942"><ele>672.0</ele><time>2026-04-25T08:23:44.589Z</time></trkpt><trkpt lat="40.732754" lon="14.8106816"><ele>672.0</ele><time>2026-04-25T08:23:46.589Z</time></trkpt><trkpt lat="40.7328446" lon="14.8106583"><ele>672.0</ele><time>2026-04-25T08:23:49.59Z</time></trkpt><trkpt lat="40.732938" lon="14.8106496"><ele>672.0</ele><time>2026-04-25T08:23:52.589Z</time></trkpt><trkpt lat="40.733003" lon="14.810664"><ele>671.1428571428571</ele><time>2026-04-25T08:23:54.589Z</time></trkpt><trkpt lat="40.7330647" lon="14.8106844"><ele>670.2857142857142</ele><time>2026-04-25T08:23:56.589Z</time></trkpt><trkpt lat="40.7331554" lon="14.8107045"><ele>669.4285714285714</ele><time>2026-04-25T08:23:59.588Z</time></trkpt><trkpt lat="40.7332208" lon="14.8106872"><ele>668.5714285714286</ele><time>2026-04-25T08:24:01.588Z</time></trkpt><trkpt lat="40.7333106" lon="14.810686"><ele>667.7142857142857</ele><time>2026-04-25T08:24:04.588Z</time></trkpt><trkpt lat="40.7333764" lon="14.8106759"><ele>666.8571428571429</ele><time>2026-04-25T08:24:06.589Z</time></trkpt><trkpt lat="40.7334433" lon="14.8106472"><ele>666.0</ele><time>2026-04-25T08:24:08.587Z</time></trkpt><trkpt lat="40.7335093" lon="14.8105975"><ele>664.4285714285714</ele><time>2026-04-25T08:24:10.589Z</time></trkpt><trkpt lat="40.733561" lon="14.8105287"><ele>662.8571428571428</ele><time>2026-04-25T08:24:12.588Z</time></trkpt><trkpt lat="40.7336056" lon="14.8104639"><ele>661.2857142857142</ele><time>2026-04-25T08:24:14.589Z</time></trkpt><trkpt lat="40.7336648" lon="14.8104175"><ele>659.7142857142858</ele><time>2026-04-25T08:24:16.589Z</time></trkpt><trkpt lat="40.7337549" lon="14.8104184"><ele>658.1428571428571</ele><time>2026-04-25T08:24:19.589Z</time></trkpt><trkpt lat="40.7338201" lon="14.8104235"><ele>656.5714285714286</ele><time>2026-04-25T08:24:22.588Z</time></trkpt><trkpt lat="40.7338947" lon="14.8104375"><ele>655.0</ele><time>2026-04-25T08:24:23.588Z</time></trkpt><trkpt lat="40.7339642" lon="14.8104378"><ele>655.0</ele><time>2026-04-25T08:24:24.588Z</time></trkpt><trkpt lat="40.7340285" lon="14.8104339"><ele>655.0</ele><time>2026-04-25T08:24:25.588Z</time></trkpt><trkpt lat="40.7341162" lon="14.810427"><ele>655.0</ele><time>2026-04-25T08:24:26.589Z</time></trkpt><trkpt lat="40.7341823" lon="14.8104246"><ele>655.0</ele><time>2026-04-25T08:24:27.588Z</time></trkpt><trkpt lat="40.7342609" lon="14.8104042"><ele>655.0</ele><time>2026-04-25T08:24:28.588Z</time></trkpt><trkpt lat="40.7343294" lon="14.8104104"><ele>655.0</ele><time>2026-04-25T08:24:29.589Z</time></trkpt><trkpt lat="40.7344157" lon="14.8104453"><ele>653.3333333333334</ele><time>2026-04-25T08:24:31.588Z</time></trkpt><trkpt lat="40.7345047" lon="14.8104926"><ele>651.6666666666667</ele><time>2026-04-25T08:24:33.589Z</time></trkpt><trkpt lat="40.7345912" lon="14.81053"><ele>650.0</ele><time>2026-04-25T08:24:35.589Z</time></trkpt><trkpt lat="40.7346595" lon="14.8105047"><ele>648.3333333333334</ele><time>2026-04-25T08:24:37.588Z</time></trkpt><trkpt lat="40.7347444" lon="14.8104534"><ele>646.6666666666666</ele><time>2026-04-25T08:24:40.588Z</time></trkpt><trkpt lat="40.7347696" lon="14.8103655"><ele>645.0</ele><time>2026-04-25T08:24:42.588Z</time></trkpt><trkpt lat="40.7347891" lon="14.8102688"><ele>645.0</ele><time>2026-04-25T08:24:44.589Z</time></trkpt><trkpt lat="40.7348156" lon="14.8101583"><ele>645.0</ele><time>2026-04-25T08:24:47.588Z</time></trkpt><trkpt lat="40.7348361" lon="14.8100355"><ele>645.0</ele><time>2026-04-25T08:24:50.589Z</time></trkpt><trkpt lat="40.7348727" lon="14.8099566"><ele>645.0</ele><time>2026-04-25T08:24:52.589Z</time></trkpt><trkpt lat="40.7349406" lon="14.8099182"><ele>645.0</ele><time>2026-04-25T08:24:54.589Z</time></trkpt><trkpt lat="40.7350182" lon="14.8099331"><ele>645.0</ele><time>2026-04-25T08:24:56.588Z</time></trkpt><trkpt lat="40.7350886" lon="14.8100237"><ele>644.4</ele><time>2026-04-25T08:24:58.588Z</time></trkpt><trkpt lat="40.73517" lon="14.8100632"><ele>643.8</ele><time>2026-04-25T08:25:00.589Z</time></trkpt><trkpt lat="40.7352249" lon="14.8101562"><ele>643.2</ele><time>2026-04-25T08:25:02.589Z</time></trkpt><trkpt lat="40.7353201" lon="14.8102359"><ele>642.6</ele><time>2026-04-25T08:25:04.589Z</time></trkpt><trkpt lat="40.7354246" lon="14.8103212"><ele>642.0</ele><time>2026-04-25T08:25:06.589Z</time></trkpt><trkpt lat="40.7355021" lon="14.8104054"><ele>642.0</ele><time>2026-04-25T08:25:08.589Z</time></trkpt><trkpt lat="40.7355685" lon="14.8105174"><ele>642.0</ele><time>2026-04-25T08:25:10.589Z</time></trkpt><trkpt lat="40.7356202" lon="14.8106067"><ele>642.0</ele><time>2026-04-25T08:25:12.588Z</time></trkpt><trkpt lat="40.7356965" lon="14.8106776"><ele>642.0</ele><time>2026-04-25T08:25:14.587Z</time></trkpt><trkpt lat="40.7357586" lon="14.8107211"><ele>642.0</ele><time>2026-04-25T08:25:16.589Z</time></trkpt><trkpt lat="40.7358321" lon="14.8107507"><ele>642.0</ele><time>2026-04-25T08:25:19.588Z</time></trkpt><trkpt lat="40.7359184" lon="14.8107382"><ele>642.0</ele><time>2026-04-25T08:25:47.588Z</time></trkpt><trkpt lat="40.7359814" lon="14.810731"><ele>642.0</ele><time>2026-04-25T08:25:50.588Z</time></trkpt><trkpt lat="40.736055" lon="14.8107359"><ele>642.0</ele><time>2026-04-25T08:25:53.589Z</time></trkpt><trkpt lat="40.7361516" lon="14.8107295"><ele>642.0</ele><time>2026-04-25T08:25:56.589Z</time></trkpt><trkpt lat="40.7362321" lon="14.8107092"><ele>642.0</ele><time>2026-04-25T08:25:59.589Z</time></trkpt><trkpt lat="40.7363194" lon="14.8106774"><ele>642.0</ele><time>2026-04-25T08:26:02.589Z</time></trkpt><trkpt lat="40.7364046" lon="14.8106464"><ele>641.2857142857142</ele><time>2026-04-25T08:26:05.589Z</time></trkpt><trkpt lat="40.7364725" lon="14.8106124"><ele>640.5714285714286</ele><time>2026-04-25T08:26:07.589Z</time></trkpt><trkpt lat="40.7365387" lon="14.810579"><ele>639.8571428571429</ele><time>2026-04-25T08:26:09.589Z</time></trkpt><trkpt lat="40.7366055" lon="14.8105568"><ele>639.1428571428571</ele><time>2026-04-25T08:26:11.588Z</time></trkpt><trkpt lat="40.7366753" lon="14.8105293"><ele>638.4285714285714</ele><time>2026-04-25T08:26:13.589Z</time></trkpt><trkpt lat="40.7367495" lon="14.8105082"><ele>637.7142857142857</ele><time>2026-04-25T08:26:15.589Z</time></trkpt><trkpt lat="40.7368129" lon="14.8105037"><ele>637.0</ele><time>2026-04-25T08:26:16.589Z</time></trkpt><trkpt lat="40.7368922" lon="14.8104778"><ele>637.0</ele><time>2026-04-25T08:26:18.587Z</time></trkpt><trkpt lat="40.736968" lon="14.8104666"><ele>637.0</ele><time>2026-04-25T08:26:20.587Z</time></trkpt><trkpt lat="40.73706" lon="14.8105065"><ele>637.0</ele><time>2026-04-25T08:26:22.588Z</time></trkpt><trkpt lat="40.7371117" lon="14.8105584"><ele>637.0</ele><time>2026-04-25T08:26:23.588Z</time></trkpt><trkpt lat="40.7371963" lon="14.810628"><ele>637.0</ele><time>2026-04-25T08:26:25.589Z</time></trkpt><trkpt lat="40.7372477" lon="14.8107286"><ele>637.0</ele><time>2026-04-25T08:26:28.589Z</time></trkpt><trkpt lat="40.7372932" lon="14.8108264"><ele>637.0</ele><time>2026-04-25T08:26:31.589Z</time></trkpt><trkpt lat="40.7373636" lon="14.8109112"><ele>637.0</ele><time>2026-04-25T08:26:34.589Z</time></trkpt><trkpt lat="40.7374257" lon="14.8109649"><ele>637.0</ele><time>2026-04-25T08:26:37.589Z</time></trkpt><trkpt lat="40.7374928" lon="14.8109738"><ele>637.0</ele><time>2026-04-25T08:26:40.588Z</time></trkpt><trkpt lat="40.7375574" lon="14.8109659"><ele>637.0</ele><time>2026-04-25T08:26:44.588Z</time></trkpt><trkpt lat="40.7376442" lon="14.8109619"><ele>637.0</ele><time>2026-04-25T08:26:48.589Z</time></trkpt><trkpt lat="40.7377405" lon="14.8109644"><ele>637.1666666666667</ele><time>2026-04-25T08:26:51.589Z</time></trkpt><trkpt lat="40.7378101" lon="14.8109839"><ele>637.3333333333334</ele><time>2026-04-25T08:26:53.588Z</time></trkpt><trkpt lat="40.737889" lon="14.8110202"><ele>637.5</ele><time>2026-04-25T08:26:56.589Z</time></trkpt><trkpt lat="40.7379757" lon="14.8110465"><ele>637.6666666666666</ele><time>2026-04-25T08:26:59.589Z</time></trkpt><trkpt lat="40.7380448" lon="14.8110525"><ele>637.8333333333333</ele><time>2026-04-25T08:27:02.589Z</time></trkpt><trkpt lat="40.7381128" lon="14.8110749"><ele>638.0</ele><time>2026-04-25T08:27:04.587Z</time></trkpt><trkpt lat="40.7382072" lon="14.811077"><ele>634.8333333333333</ele><time>2026-04-25T08:27:07.587Z</time></trkpt><trkpt lat="40.7382707" lon="14.811087"><ele>631.6666666666666</ele><time>2026-04-25T08:27:09.589Z</time></trkpt><trkpt lat="40.7383571" lon="14.8111027"><ele>628.5</ele><time>2026-04-25T08:27:12.589Z</time></trkpt><trkpt lat="40.7384379" lon="14.8110919"><ele>625.3333333333334</ele><time>2026-04-25T08:27:15.587Z</time></trkpt><trkpt lat="40.7385514" lon="14.8110868"><ele>622.1666666666667</ele><time>2026-04-25T08:27:17.587Z</time></trkpt><trkpt lat="40.7386227" lon="14.8111186"><ele>619.0</ele><time>2026-04-25T08:27:19.588Z</time></trkpt><trkpt lat="40.7387037" lon="14.8111692"><ele>619.0</ele><time>2026-04-25T08:27:21.589Z</time></trkpt><trkpt lat="40.738794" lon="14.8112209"><ele>619.0</ele><time>2026-04-25T08:27:23.589Z</time></trkpt><trkpt lat="40.7388741" lon="14.8112599"><ele>619.0</ele><time>2026-04-25T08:27:25.589Z</time></trkpt><trkpt lat="40.7389492" lon="14.8112799"><ele>619.0</ele><time>2026-04-25T08:27:27.588Z</time></trkpt><trkpt lat="40.7390275" lon="14.8112992"><ele>619.0</ele><time>2026-04-25T08:27:29.588Z</time></trkpt><trkpt lat="40.7391083" lon="14.8113329"><ele>619.0</ele><time>2026-04-25T08:27:31.589Z</time></trkpt><trkpt lat="40.7391748" lon="14.8113926"><ele>619.0</ele><time>2026-04-25T08:27:33.589Z</time></trkpt><trkpt lat="40.739262" lon="14.8114088"><ele>619.0</ele><time>2026-04-25T08:27:35.588Z</time></trkpt><trkpt lat="40.7393378" lon="14.8114385"><ele>619.0</ele><time>2026-04-25T08:27:37.589Z</time></trkpt><trkpt lat="40.7394249" lon="14.8114529"><ele>619.0</ele><time>2026-04-25T08:27:40.587Z</time></trkpt><trkpt lat="40.7394901" lon="14.8114957"><ele>619.0</ele><time>2026-04-25T08:27:44.589Z</time></trkpt><trkpt lat="40.7394385" lon="14.811601"><ele>619.0</ele><time>2026-04-25T08:27:47.589Z</time></trkpt><trkpt lat="40.7393733" lon="14.8116764"><ele>619.0</ele><time>2026-04-25T08:27:49.589Z</time></trkpt><trkpt lat="40.7393035" lon="14.8117277"><ele>619.0</ele><time>2026-04-25T08:27:51.587Z</time></trkpt><trkpt lat="40.7392439" lon="14.8117837"><ele>619.0</ele><time>2026-04-25T08:27:53.588Z</time></trkpt><trkpt lat="40.7392028" lon="14.8118484"><ele>619.0</ele><time>2026-04-25T08:27:56.589Z</time></trkpt><trkpt lat="40.7392086" lon="14.8119407"><ele>619.0</ele><time>2026-04-25T08:28:08.589Z</time></trkpt><trkpt lat="40.7392952" lon="14.8118898"><ele>619.0</ele><time>2026-04-25T08:28:12.589Z</time></trkpt><trkpt lat="40.7393553" lon="14.8118596"><ele>619.0</ele><time>2026-04-25T08:28:14.588Z</time></trkpt><trkpt lat="40.7394181" lon="14.8119018"><ele>621.5</ele><time>2026-04-25T08:28:16.589Z</time></trkpt><trkpt lat="40.7394957" lon="14.811905"><ele>624.0</ele><time>2026-04-25T08:28:18.588Z</time></trkpt><trkpt lat="40.73956" lon="14.8118508"><ele>626.5</ele><time>2026-04-25T08:28:20.587Z</time></trkpt><trkpt lat="40.7395758" lon="14.8119415"><ele>629.0</ele><time>2026-04-25T08:28:24.587Z</time></trkpt><trkpt lat="40.7394777" lon="14.8119793"><ele>631.5</ele><time>2026-04-25T08:28:26.589Z</time></trkpt><trkpt lat="40.7393887" lon="14.8120164"><ele>634.0</ele><time>2026-04-25T08:28:28.589Z</time></trkpt><trkpt lat="40.7393295" lon="14.8120895"><ele>634.0</ele><time>2026-04-25T08:28:30.589Z</time></trkpt><trkpt lat="40.7392846" lon="14.8121947"><ele>634.0</ele><time>2026-04-25T08:28:32.589Z</time></trkpt><trkpt lat="40.7392434" lon="14.8122931"><ele>634.0</ele><time>2026-04-25T08:28:34.588Z</time></trkpt><trkpt lat="40.7391617" lon="14.8123963"><ele>634.0</ele><time>2026-04-25T08:28:36.589Z</time></trkpt><trkpt lat="40.7391219" lon="14.8124612"><ele>634.0</ele><time>2026-04-25T08:28:37.589Z</time></trkpt><trkpt lat="40.7390642" lon="14.8125902"><ele>638.8333333333334</ele><time>2026-04-25T08:28:39.588Z</time></trkpt><trkpt lat="40.7390469" lon="14.8127183"><ele>643.6666666666667</ele><time>2026-04-25T08:28:41.588Z</time></trkpt><trkpt lat="40.7390481" lon="14.8128326"><ele>648.5</ele><time>2026-04-25T08:28:43.587Z</time></trkpt><trkpt lat="40.7390209" lon="14.8129293"><ele>653.3333333333334</ele><time>2026-04-25T08:28:45.589Z</time></trkpt><trkpt lat="40.738956" lon="14.8129591"><ele>658.1666666666666</ele><time>2026-04-25T08:28:47.588Z</time></trkpt><trkpt lat="40.7388807" lon="14.8129179"><ele>663.0</ele><time>2026-04-25T08:28:49.588Z</time></trkpt><trkpt lat="40.738797" lon="14.812886"><ele>663.0</ele><time>2026-04-25T08:28:51.588Z</time></trkpt><trkpt lat="40.7387014" lon="14.8128745"><ele>663.0</ele><time>2026-04-25T08:28:53.589Z</time></trkpt><trkpt lat="40.7386202" lon="14.812891"><ele>663.0</ele><time>2026-04-25T08:28:55.589Z</time></trkpt><trkpt lat="40.738543" lon="14.8129279"><ele>663.0</ele><time>2026-04-25T08:28:57.589Z</time></trkpt><trkpt lat="40.7384664" lon="14.8129605"><ele>663.0</ele><time>2026-04-25T08:28:59.588Z</time></trkpt><trkpt lat="40.7383845" lon="14.8130237"><ele>663.0</ele><time>2026-04-25T08:29:01.587Z</time></trkpt><trkpt lat="40.738303" lon="14.8131044"><ele>663.0</ele><time>2026-04-25T08:29:03.588Z</time></trkpt><trkpt lat="40.7382405" lon="14.8131888"><ele>663.0</ele><time>2026-04-25T08:29:05.588Z</time></trkpt><trkpt lat="40.7382114" lon="14.8132808"><ele>663.0</ele><time>2026-04-25T08:29:07.588Z</time></trkpt><trkpt lat="40.7382192" lon="14.8133743"><ele>663.0</ele><time>2026-04-25T08:29:09.588Z</time></trkpt><trkpt lat="40.7382406" lon="14.813474"><ele>663.0</ele><time>2026-04-25T08:29:11.588Z</time></trkpt><trkpt lat="40.7382575" lon="14.8135732"><ele>663.0</ele><time>2026-04-25T08:29:13.589Z</time></trkpt><trkpt lat="40.738231" lon="14.8136743"><ele>663.0</ele><time>2026-04-25T08:29:15.589Z</time></trkpt><trkpt lat="40.7382972" lon="14.8137196"><ele>663.0</ele><time>2026-04-25T08:29:19.587Z</time></trkpt><trkpt lat="40.7382853" lon="14.8136349"><ele>663.0</ele><time>2026-04-25T08:29:20.589Z</time></trkpt><trkpt lat="40.7383039" lon="14.8135303"><ele>663.0</ele><time>2026-04-25T08:29:22.588Z</time></trkpt><trkpt lat="40.7382803" lon="14.8134129"><ele>663.0</ele><time>2026-04-25T08:29:24.588Z</time></trkpt><trkpt lat="40.7382961" lon="14.8133235"><ele>663.0</ele><time>2026-04-25T08:29:26.588Z</time></trkpt><trkpt lat="40.7383378" lon="14.8132509"><ele>663.0</ele><time>2026-04-25T08:29:28.589Z</time></trkpt><trkpt lat="40.7384023" lon="14.8131985"><ele>663.0</ele><time>2026-04-25T08:29:30.589Z</time></trkpt><trkpt lat="40.7384925" lon="14.8131562"><ele>663.0</ele><time>2026-04-25T08:29:33.588Z</time></trkpt><trkpt lat="40.7385649" lon="14.8131266"><ele>663.0</ele><time>2026-04-25T08:29:35.589Z</time></trkpt><trkpt lat="40.738648" lon="14.8131068"><ele>663.0</ele><time>2026-04-25T08:29:38.587Z</time></trkpt><trkpt lat="40.7386288" lon="14.8131883"><ele>663.0</ele><time>2026-04-25T08:29:52.588Z</time></trkpt><trkpt lat="40.7385492" lon="14.8132026"><ele>663.0</ele><time>2026-04-25T08:29:55.588Z</time></trkpt><trkpt lat="40.7385035" lon="14.8132625"><ele>663.0</ele><time>2026-04-25T08:29:57.588Z</time></trkpt><trkpt lat="40.7384538" lon="14.8133388"><ele>663.0</ele><time>2026-04-25T08:29:59.589Z</time></trkpt><trkpt lat="40.7384455" lon="14.8134587"><ele>663.0</ele><time>2026-04-25T08:30:01.588Z</time></trkpt><trkpt lat="40.7384597" lon="14.8135863"><ele>663.0</ele><time>2026-04-25T08:30:03.589Z</time></trkpt><trkpt lat="40.7384546" lon="14.8137229"><ele>663.0</ele><time>2026-04-25T08:30:05.587Z</time></trkpt><trkpt lat="40.7384454" lon="14.8138602"><ele>663.0</ele><time>2026-04-25T08:30:07.588Z</time></trkpt><trkpt lat="40.7384386" lon="14.8139892"><ele>663.0</ele><time>2026-04-25T08:30:09.588Z</time></trkpt><trkpt lat="40.7384212" lon="14.8140935"><ele>663.0</ele><time>2026-04-25T08:30:11.588Z</time></trkpt><trkpt lat="40.7384783" lon="14.814159"><ele>663.0</ele><time>2026-04-25T08:30:14.588Z</time></trkpt><trkpt lat="40.7384783" lon="14.8140339"><ele>663.0</ele><time>2026-04-25T08:30:16.589Z</time></trkpt><trkpt lat="40.7384981" lon="14.8139063"><ele>663.0</ele><time>2026-04-25T08:30:18.589Z</time></trkpt><trkpt lat="40.7385367" lon="14.8138006"><ele>667.0</ele><time>2026-04-25T08:30:20.589Z</time></trkpt><trkpt lat="40.7385892" lon="14.8137111"><ele>671.0</ele><time>2026-04-25T08:30:22.588Z</time></trkpt><trkpt lat="40.738656" lon="14.8136433"><ele>675.0</ele><time>2026-04-25T08:30:24.589Z</time></trkpt><trkpt lat="40.7387314" lon="14.8135795"><ele>679.0</ele><time>2026-04-25T08:30:26.588Z</time></trkpt><trkpt lat="40.7388195" lon="14.8135727"><ele>683.0</ele><time>2026-04-25T08:30:28.589Z</time></trkpt><trkpt lat="40.7388953" lon="14.8136257"><ele>687.0</ele><time>2026-04-25T08:30:30.588Z</time></trkpt><trkpt lat="40.7389449" lon="14.8137318"><ele>687.0</ele><time>2026-04-25T08:30:32.589Z</time></trkpt><trkpt lat="40.7390018" lon="14.8138008"><ele>687.0</ele><time>2026-04-25T08:30:34.588Z</time></trkpt><trkpt lat="40.7390896" lon="14.8137272"><ele>687.0</ele><time>2026-04-25T08:30:36.588Z</time></trkpt><trkpt lat="40.7391748" lon="14.8136691"><ele>687.0</ele><time>2026-04-25T08:30:38.588Z</time></trkpt><trkpt lat="40.7392666" lon="14.8136431"><ele>687.0</ele><time>2026-04-25T08:30:40.587Z</time></trkpt><trkpt lat="40.7393653" lon="14.8136134"><ele>688.0</ele><time>2026-04-25T08:30:42.588Z</time></trkpt><trkpt lat="40.7394594" lon="14.8135763"><ele>689.0</ele><time>2026-04-25T08:30:44.588Z</time></trkpt><trkpt lat="40.7395497" lon="14.8135271"><ele>690.0</ele><time>2026-04-25T08:30:46.589Z</time></trkpt><trkpt lat="40.7396302" lon="14.8134948"><ele>691.0</ele><time>2026-04-25T08:30:48.589Z</time></trkpt><trkpt lat="40.7397061" lon="14.8134796"><ele>692.0</ele><time>2026-04-25T08:30:50.589Z</time></trkpt><trkpt lat="40.7397768" lon="14.8135015"><ele>693.0</ele><time>2026-04-25T08:30:52.588Z</time></trkpt><trkpt lat="40.7398413" lon="14.8135434"><ele>693.0</ele><time>2026-04-25T08:30:54.589Z</time></trkpt><trkpt lat="40.7398967" lon="14.8135919"><ele>693.0</ele><time>2026-04-25T08:30:56.588Z</time></trkpt><trkpt lat="40.7399631" lon="14.8136251"><ele>693.0</ele><time>2026-04-25T08:30:58.589Z</time></trkpt><trkpt lat="40.740024" lon="14.8136717"><ele>693.0</ele><time>2026-04-25T08:31:00.588Z</time></trkpt><trkpt lat="40.7400922" lon="14.8137186"><ele>693.0</ele><time>2026-04-25T08:31:02.588Z</time></trkpt><trkpt lat="40.7401619" lon="14.8137575"><ele>693.0</ele><time>2026-04-25T08:31:04.588Z</time></trkpt><trkpt lat="40.7402552" lon="14.8137662"><ele>693.1666666666666</ele><time>2026-04-25T08:31:06.589Z</time></trkpt><trkpt lat="40.7403426" lon="14.8137511"><ele>693.3333333333334</ele><time>2026-04-25T08:31:08.589Z</time></trkpt><trkpt lat="40.740439" lon="14.8137423"><ele>693.5</ele><time>2026-04-25T08:31:10.589Z</time></trkpt><trkpt lat="40.7405339" lon="14.8137125"><ele>693.6666666666667</ele><time>2026-04-25T08:31:12.589Z</time></trkpt><trkpt lat="40.7406182" lon="14.8136765"><ele>693.8333333333334</ele><time>2026-04-25T08:31:14.588Z</time></trkpt><trkpt lat="40.7406692" lon="14.813742"><ele>694.0</ele><time>2026-04-25T08:31:17.588Z</time></trkpt><trkpt lat="40.7405925" lon="14.8138079"><ele>694.0</ele><time>2026-04-25T08:31:20.589Z</time></trkpt><trkpt lat="40.7405212" lon="14.8138611"><ele>694.0</ele><time>2026-04-25T08:31:22.589Z</time></trkpt><trkpt lat="40.7404484" lon="14.8139318"><ele>694.0</ele><time>2026-04-25T08:31:24.589Z</time></trkpt><trkpt lat="40.7403712" lon="14.8139643"><ele>694.0</ele><time>2026-04-25T08:31:26.588Z</time></trkpt><trkpt lat="40.7402849" lon="14.8140289"><ele>694.0</ele><time>2026-04-25T08:31:28.589Z</time></trkpt><trkpt lat="40.740197" lon="14.8140803"><ele>694.0</ele><time>2026-04-25T08:31:30.589Z</time></trkpt><trkpt lat="40.7401375" lon="14.8141527"><ele>694.0</ele><time>2026-04-25T08:31:32.587Z</time></trkpt><trkpt lat="40.7401663" lon="14.8142485"><ele>694.0</ele><time>2026-04-25T08:31:34.588Z</time></trkpt><trkpt lat="40.7402369" lon="14.8142877"><ele>694.0</ele><time>2026-04-25T08:31:36.588Z</time></trkpt><trkpt lat="40.7403207" lon="14.8143198"><ele>694.0</ele><time>2026-04-25T08:31:38.587Z</time></trkpt><trkpt lat="40.7403958" lon="14.8143213"><ele>694.0</ele><time>2026-04-25T08:31:40.589Z</time></trkpt><trkpt lat="40.7404891" lon="14.8143133"><ele>694.0</ele><time>2026-04-25T08:31:42.589Z</time></trkpt><trkpt lat="40.7405803" lon="14.8142904"><ele>694.0</ele><time>2026-04-25T08:31:44.588Z</time></trkpt><trkpt lat="40.7406473" lon="14.8142812"><ele>694.0</ele><time>2026-04-25T08:33:36.588Z</time></trkpt><trkpt lat="40.7407384" lon="14.8142883"><ele>694.0</ele><time>2026-04-25T08:33:39.589Z</time></trkpt><trkpt lat="40.7408117" lon="14.8143674"><ele>694.0</ele><time>2026-04-25T08:33:42.587Z</time></trkpt><trkpt lat="40.7408768" lon="14.8144495"><ele>694.0</ele><time>2026-04-25T08:33:45.588Z</time></trkpt><trkpt lat="40.7409338" lon="14.8145455"><ele>694.0</ele><time>2026-04-25T08:33:48.587Z</time></trkpt><trkpt lat="40.7409702" lon="14.8146167"><ele>691.6666666666667</ele><time>2026-04-25T08:33:50.513Z</time></trkpt><trkpt lat="40.7410232" lon="14.8146751"><ele>689.3333333333334</ele><time>2026-04-25T08:33:52.543Z</time></trkpt><trkpt lat="40.7410619" lon="14.8147621"><ele>687.0</ele><time>2026-04-25T08:33:54.588Z</time></trkpt><trkpt lat="40.7410841" lon="14.814855"><ele>684.6666666666666</ele><time>2026-04-25T08:33:56.575Z</time></trkpt><trkpt lat="40.7410883" lon="14.8149582"><ele>682.3333333333333</ele><time>2026-04-25T08:33:58.589Z</time></trkpt><trkpt lat="40.7411042" lon="14.8150449"><ele>680.0</ele><time>2026-04-25T08:34:00.588Z</time></trkpt><trkpt lat="40.7411379" lon="14.8151585"><ele>677.6666666666666</ele><time>2026-04-25T08:34:03.589Z</time></trkpt><trkpt lat="40.7411703" lon="14.8152465"><ele>675.3333333333333</ele><time>2026-04-25T08:34:05.588Z</time></trkpt><trkpt lat="40.7412075" lon="14.8153271"><ele>673.0</ele><time>2026-04-25T08:34:07.588Z</time></trkpt><trkpt lat="40.7412734" lon="14.8154194"><ele>670.6666666666666</ele><time>2026-04-25T08:34:10.589Z</time></trkpt><trkpt lat="40.7412953" lon="14.8155076"><ele>668.3333333333334</ele><time>2026-04-25T08:34:12.589Z</time></trkpt><trkpt lat="40.7412906" lon="14.8156085"><ele>666.0</ele><time>2026-04-25T08:34:14.589Z</time></trkpt><trkpt lat="40.7412873" lon="14.8156964"><ele>666.0</ele><time>2026-04-25T08:34:16.589Z</time></trkpt><trkpt lat="40.7412897" lon="14.8157881"><ele>666.0</ele><time>2026-04-25T08:34:18.588Z</time></trkpt><trkpt lat="40.7413043" lon="14.8158769"><ele>666.0</ele><time>2026-04-25T08:34:20.589Z</time></trkpt><trkpt lat="40.74134" lon="14.8159821"><ele>666.0</ele><time>2026-04-25T08:34:23.589Z</time></trkpt><trkpt lat="40.7413939" lon="14.816057"><ele>666.0</ele><time>2026-04-25T08:34:26.589Z</time></trkpt><trkpt lat="40.7414591" lon="14.8161476"><ele>666.0</ele><time>2026-04-25T08:34:29.589Z</time></trkpt><trkpt lat="40.7415252" lon="14.8162252"><ele>664.8333333333334</ele><time>2026-04-25T08:34:32.588Z</time></trkpt><trkpt lat="40.7415858" lon="14.816281"><ele>663.6666666666666</ele><time>2026-04-25T08:34:34.587Z</time></trkpt><trkpt lat="40.7416605" lon="14.8163374"><ele>662.5</ele><time>2026-04-25T08:34:36.589Z</time></trkpt><trkpt lat="40.7417413" lon="14.8163966"><ele>661.3333333333333</ele><time>2026-04-25T08:34:38.588Z</time></trkpt><trkpt lat="40.7418296" lon="14.8164523"><ele>660.1666666666666</ele><time>2026-04-25T08:34:40.589Z</time></trkpt><trkpt lat="40.741916" lon="14.8164875"><ele>659.0</ele><time>2026-04-25T08:34:42.589Z</time></trkpt><trkpt lat="40.7420055" lon="14.8165318"><ele>659.0</ele><time>2026-04-25T08:34:44.587Z</time></trkpt><trkpt lat="40.7420799" lon="14.8166141"><ele>659.0</ele><time>2026-04-25T08:34:46.589Z</time></trkpt><trkpt lat="40.7421475" lon="14.8167115"><ele>659.0</ele><time>2026-04-25T08:34:48.588Z</time></trkpt><trkpt lat="40.7422092" lon="14.8168193"><ele>659.0</ele><time>2026-04-25T08:34:50.588Z</time></trkpt><trkpt lat="40.7422643" lon="14.816939"><ele>659.0</ele><time>2026-04-25T08:34:52.587Z</time></trkpt><trkpt lat="40.7423103" lon="14.8170691"><ele>661.8333333333333</ele><time>2026-04-25T08:34:54.589Z</time></trkpt><trkpt lat="40.7423596" lon="14.8171766"><ele>664.6666666666666</ele><time>2026-04-25T08:34:56.589Z</time></trkpt><trkpt lat="40.7424218" lon="14.8172616"><ele>667.5</ele><time>2026-04-25T08:34:58.589Z</time></trkpt><trkpt lat="40.7424593" lon="14.8173364"><ele>670.3333333333334</ele><time>2026-04-25T08:35:01.589Z</time></trkpt><trkpt lat="40.7424895" lon="14.8174116"><ele>673.1666666666667</ele><time>2026-04-25T08:35:12.589Z</time></trkpt><trkpt lat="40.7425112" lon="14.8175369"><ele>676.0</ele><time>2026-04-25T08:35:15.589Z</time></trkpt><trkpt lat="40.7424984" lon="14.8176438"><ele>678.0</ele><time>2026-04-25T08:35:17.589Z</time></trkpt><trkpt lat="40.7424488" lon="14.8177069"><ele>680.0</ele><time>2026-04-25T08:35:19.589Z</time></trkpt><trkpt lat="40.7424104" lon="14.8177816"><ele>682.0</ele><time>2026-04-25T08:35:21.589Z</time></trkpt><trkpt lat="40.7423749" lon="14.8178731"><ele>684.0</ele><time>2026-04-25T08:35:23.587Z</time></trkpt><trkpt lat="40.7423359" lon="14.8179654"><ele>686.0</ele><time>2026-04-25T08:35:25.589Z</time></trkpt><trkpt lat="40.7423129" lon="14.818086"><ele>688.0</ele><time>2026-04-25T08:35:27.588Z</time></trkpt><trkpt lat="40.7423214" lon="14.8182086"><ele>688.0</ele><time>2026-04-25T08:35:29.588Z</time></trkpt><trkpt lat="40.7423547" lon="14.818313"><ele>688.0</ele><time>2026-04-25T08:35:31.587Z</time></trkpt><trkpt lat="40.7424019" lon="14.8184273"><ele>688.0</ele><time>2026-04-25T08:35:33.588Z</time></trkpt><trkpt lat="40.7424399" lon="14.818531"><ele>688.0</ele><time>2026-04-25T08:35:35.589Z</time></trkpt><trkpt lat="40.7424832" lon="14.8186409"><ele>688.0</ele><time>2026-04-25T08:35:37.588Z</time></trkpt><trkpt lat="40.7425354" lon="14.8187421"><ele>689.4</ele><time>2026-04-25T08:35:39.589Z</time></trkpt><trkpt lat="40.7425842" lon="14.818848"><ele>690.8</ele><time>2026-04-25T08:35:41.589Z</time></trkpt><trkpt lat="40.7426121" lon="14.8189616"><ele>692.2</ele><time>2026-04-25T08:35:43.588Z</time></trkpt><trkpt lat="40.7426013" lon="14.8190803"><ele>693.6</ele><time>2026-04-25T08:35:45.589Z</time></trkpt><trkpt lat="40.7425184" lon="14.8191669"><ele>695.0</ele><time>2026-04-25T08:35:47.589Z</time></trkpt><trkpt lat="40.742418" lon="14.8192223"><ele>695.0</ele><time>2026-04-25T08:35:49.589Z</time></trkpt><trkpt lat="40.7423198" lon="14.8192969"><ele>695.0</ele><time>2026-04-25T08:35:51.589Z</time></trkpt><trkpt lat="40.7422711" lon="14.8193543"><ele>695.0</ele><time>2026-04-25T08:35:52.588Z</time></trkpt><trkpt lat="40.7421808" lon="14.8194592"><ele>695.0</ele><time>2026-04-25T08:35:54.588Z</time></trkpt><trkpt lat="40.7420888" lon="14.8195639"><ele>695.0</ele><time>2026-04-25T08:35:56.587Z</time></trkpt><trkpt lat="40.7420399" lon="14.8196229"><ele>694.2</ele><time>2026-04-25T08:35:57.587Z</time></trkpt><trkpt lat="40.7420025" lon="14.8196935"><ele>693.4</ele><time>2026-04-25T08:35:58.588Z</time></trkpt><trkpt lat="40.7419148" lon="14.8197966"><ele>692.5999999999999</ele><time>2026-04-25T08:36:00.589Z</time></trkpt><trkpt lat="40.7418646" lon="14.8198469"><ele>691.8</ele><time>2026-04-25T08:36:01.589Z</time></trkpt><trkpt lat="40.7417744" lon="14.8199347"><ele>691.0</ele><time>2026-04-25T08:36:03.588Z</time></trkpt><trkpt lat="40.7416868" lon="14.8200002"><ele>691.0</ele><time>2026-04-25T08:36:05.588Z</time></trkpt><trkpt lat="40.7416426" lon="14.8200828"><ele>691.0</ele><time>2026-04-25T08:36:07.588Z</time></trkpt><trkpt lat="40.7416898" lon="14.8201679"><ele>691.0</ele><time>2026-04-25T08:36:10.588Z</time></trkpt><trkpt lat="40.7417536" lon="14.8201424"><ele>691.0</ele><time>2026-04-25T08:36:12.587Z</time></trkpt><trkpt lat="40.7418287" lon="14.8200877"><ele>691.0</ele><time>2026-04-25T08:36:14.588Z</time></trkpt><trkpt lat="40.7419172" lon="14.8200844"><ele>691.0</ele><time>2026-04-25T08:36:16.588Z</time></trkpt><trkpt lat="40.7420035" lon="14.8201235"><ele>694.5999999999999</ele><time>2026-04-25T08:36:18.589Z</time></trkpt><trkpt lat="40.742073" lon="14.8201771"><ele>698.2</ele><time>2026-04-25T08:36:20.588Z</time></trkpt><trkpt lat="40.7421201" lon="14.8202827"><ele>701.8</ele><time>2026-04-25T08:36:22.588Z</time></trkpt><trkpt lat="40.7421895" lon="14.8203903"><ele>705.4000000000001</ele><time>2026-04-25T08:36:24.587Z</time></trkpt><trkpt lat="40.7422543" lon="14.8204838"><ele>709.0</ele><time>2026-04-25T08:36:26.589Z</time></trkpt><trkpt lat="40.7423371" lon="14.8205308"><ele>709.0</ele><time>2026-04-25T08:36:28.588Z</time></trkpt><trkpt lat="40.7424316" lon="14.8205614"><ele>709.0</ele><time>2026-04-25T08:36:30.589Z</time></trkpt><trkpt lat="40.7425213" lon="14.8206079"><ele>709.0</ele><time>2026-04-25T08:36:32.588Z</time></trkpt><trkpt lat="40.742614" lon="14.8206881"><ele>709.0</ele><time>2026-04-25T08:36:34.588Z</time></trkpt><trkpt lat="40.7426949" lon="14.820808"><ele>709.0</ele><time>2026-04-25T08:36:36.588Z</time></trkpt><trkpt lat="40.7427822" lon="14.820936"><ele>711.5714285714287</ele><time>2026-04-25T08:36:38.588Z</time></trkpt><trkpt lat="40.7428201" lon="14.8210121"><ele>714.1428571428571</ele><time>2026-04-25T08:36:39.588Z</time></trkpt><trkpt lat="40.7428505" lon="14.8210957"><ele>716.7142857142858</ele><time>2026-04-25T08:36:40.589Z</time></trkpt><trkpt lat="40.7428872" lon="14.8211792"><ele>719.2857142857143</ele><time>2026-04-25T08:36:41.589Z</time></trkpt><trkpt lat="40.7429232" lon="14.8212635"><ele>721.8571428571429</ele><time>2026-04-25T08:36:42.588Z</time></trkpt><trkpt lat="40.7429538" lon="14.8213644"><ele>724.4285714285714</ele><time>2026-04-25T08:36:43.587Z</time></trkpt><trkpt lat="40.7429826" lon="14.8214536"><ele>727.0</ele><time>2026-04-25T08:36:44.587Z</time></trkpt><trkpt lat="40.7430059" lon="14.8215341"><ele>727.0</ele><time>2026-04-25T08:36:45.588Z</time></trkpt><trkpt lat="40.74302" lon="14.8216153"><ele>727.0</ele><time>2026-04-25T08:36:46.587Z</time></trkpt><trkpt lat="40.7430343" lon="14.821777"><ele>727.0</ele><time>2026-04-25T08:36:48.589Z</time></trkpt><trkpt lat="40.7430497" lon="14.821931"><ele>727.0</ele><time>2026-04-25T08:36:50.587Z</time></trkpt><trkpt lat="40.7430548" lon="14.8220733"><ele>727.0</ele><time>2026-04-25T08:36:52.588Z</time></trkpt><trkpt lat="40.7430231" lon="14.8222022"><ele>727.0</ele><time>2026-04-25T08:36:54.588Z</time></trkpt><trkpt lat="40.7429971" lon="14.8223606"><ele>727.0</ele><time>2026-04-25T08:36:56.588Z</time></trkpt><trkpt lat="40.7429723" lon="14.8225183"><ele>727.0</ele><time>2026-04-25T08:36:58.588Z</time></trkpt><trkpt lat="40.7429199" lon="14.8226645"><ele>727.0</ele><time>2026-04-25T08:37:00.587Z</time></trkpt><trkpt lat="40.7428842" lon="14.8228078"><ele>721.2</ele><time>2026-04-25T08:37:02.587Z</time></trkpt><trkpt lat="40.7429293" lon="14.8229096"><ele>715.4000000000001</ele><time>2026-04-25T08:37:04.588Z</time></trkpt><trkpt lat="40.7430168" lon="14.8229436"><ele>709.5999999999999</ele><time>2026-04-25T08:37:06.588Z</time></trkpt><trkpt lat="40.7431264" lon="14.8229602"><ele>703.8</ele><time>2026-04-25T08:37:08.589Z</time></trkpt><trkpt lat="40.7432335" lon="14.8229653"><ele>698.0</ele><time>2026-04-25T08:37:10.588Z</time></trkpt><trkpt lat="40.7432963" lon="14.8229588"><ele>698.0</ele><time>2026-04-25T08:37:11.588Z</time></trkpt><trkpt lat="40.7434146" lon="14.8229673"><ele>698.0</ele><time>2026-04-25T08:37:13.589Z</time></trkpt><trkpt lat="40.7435339" lon="14.8229504"><ele>698.0</ele><time>2026-04-25T08:37:15.589Z</time></trkpt><trkpt lat="40.7436364" lon="14.8229579"><ele>698.0</ele><time>2026-04-25T08:37:17.588Z</time></trkpt><trkpt lat="40.7437272" lon="14.8230114"><ele>698.0</ele><time>2026-04-25T08:37:19.587Z</time></trkpt><trkpt lat="40.7438086" lon="14.8231056"><ele>696.75</ele><time>2026-04-25T08:37:21.589Z</time></trkpt><trkpt lat="40.743904" lon="14.8231935"><ele>695.5</ele><time>2026-04-25T08:37:23.589Z</time></trkpt><trkpt lat="40.7440016" lon="14.8232853"><ele>694.25</ele><time>2026-04-25T08:37:25.589Z</time></trkpt><trkpt lat="40.7440503" lon="14.8234131"><ele>693.0</ele><time>2026-04-25T08:37:27.589Z</time></trkpt><trkpt lat="40.7441086" lon="14.8235338"><ele>693.0</ele><time>2026-04-25T08:37:29.589Z</time></trkpt><trkpt lat="40.7441938" lon="14.8236158"><ele>693.0</ele><time>2026-04-25T08:37:31.589Z</time></trkpt><trkpt lat="40.7442936" lon="14.8236574"><ele>693.0</ele><time>2026-04-25T08:37:33.588Z</time></trkpt><trkpt lat="40.7443915" lon="14.8236918"><ele>693.0</ele><time>2026-04-25T08:37:35.589Z</time></trkpt><trkpt lat="40.7444915" lon="14.823738"><ele>693.0</ele><time>2026-04-25T08:37:37.589Z</time></trkpt><trkpt lat="40.7445713" lon="14.8238071"><ele>700.0</ele><time>2026-04-25T08:37:39.589Z</time></trkpt><trkpt lat="40.7446057" lon="14.823918"><ele>707.0</ele><time>2026-04-25T08:37:41.589Z</time></trkpt><trkpt lat="40.7446572" lon="14.8240295"><ele>714.0</ele><time>2026-04-25T08:37:43.587Z</time></trkpt><trkpt lat="40.7447427" lon="14.824095"><ele>721.0</ele><time>2026-04-25T08:37:45.588Z</time></trkpt><trkpt lat="40.7448389" lon="14.8241161"><ele>728.0</ele><time>2026-04-25T08:37:47.588Z</time></trkpt><trkpt lat="40.7449271" lon="14.8241864"><ele>728.0</ele><time>2026-04-25T08:37:49.589Z</time></trkpt><trkpt lat="40.744979" lon="14.8242404"><ele>728.0</ele><time>2026-04-25T08:37:50.589Z</time></trkpt><trkpt lat="40.7450142" lon="14.8243115"><ele>728.0</ele><time>2026-04-25T08:37:51.588Z</time></trkpt><trkpt lat="40.7450641" lon="14.8244623"><ele>728.0</ele><time>2026-04-25T08:37:53.588Z</time></trkpt><trkpt lat="40.745109" lon="14.8245886"><ele>728.0</ele><time>2026-04-25T08:37:55.588Z</time></trkpt><trkpt lat="40.74519" lon="14.8246867"><ele>727.8333333333333</ele><time>2026-04-25T08:37:57.588Z</time></trkpt><trkpt lat="40.7452488" lon="14.8247428"><ele>727.6666666666666</ele><time>2026-04-25T08:37:58.588Z</time></trkpt><trkpt lat="40.7453062" lon="14.8247961"><ele>727.5</ele><time>2026-04-25T08:37:59.589Z</time></trkpt><trkpt lat="40.7453686" lon="14.8248354"><ele>727.3333333333334</ele><time>2026-04-25T08:38:00.589Z</time></trkpt><trkpt lat="40.7454699" lon="14.8248788"><ele>727.1666666666667</ele><time>2026-04-25T08:38:02.589Z</time></trkpt><trkpt lat="40.7455489" lon="14.8249958"><ele>727.0</ele><time>2026-04-25T08:38:04.589Z</time></trkpt><trkpt lat="40.7456145" lon="14.8251236"><ele>725.5</ele><time>2026-04-25T08:38:06.588Z</time></trkpt><trkpt lat="40.7456974" lon="14.8252272"><ele>724.0</ele><time>2026-04-25T08:38:08.589Z</time></trkpt><trkpt lat="40.7457548" lon="14.8252737"><ele>722.5</ele><time>2026-04-25T08:38:09.589Z</time></trkpt><trkpt lat="40.7458024" lon="14.8253353"><ele>721.0</ele><time>2026-04-25T08:38:10.589Z</time></trkpt><trkpt lat="40.7458444" lon="14.8253983"><ele>719.5</ele><time>2026-04-25T08:38:11.589Z</time></trkpt><trkpt lat="40.7458709" lon="14.8254865"><ele>718.0</ele><time>2026-04-25T08:38:12.589Z</time></trkpt><trkpt lat="40.7458735" lon="14.8255775"><ele>718.0</ele><time>2026-04-25T08:38:13.589Z</time></trkpt><trkpt lat="40.7458815" lon="14.8256701"><ele>718.0</ele><time>2026-04-25T08:38:14.588Z</time></trkpt><trkpt lat="40.7458961" lon="14.8257558"><ele>718.0</ele><time>2026-04-25T08:38:15.589Z</time></trkpt><trkpt lat="40.7459208" lon="14.8258435"><ele>718.0</ele><time>2026-04-25T08:38:16.589Z</time></trkpt><trkpt lat="40.7459462" lon="14.8259343"><ele>718.0</ele><time>2026-04-25T08:38:17.588Z</time></trkpt><trkpt lat="40.7459838" lon="14.8260192"><ele>718.0</ele><time>2026-04-25T08:38:18.589Z</time></trkpt><trkpt lat="40.7460199" lon="14.8261036"><ele>718.0</ele><time>2026-04-25T08:38:19.589Z</time></trkpt><trkpt lat="40.7460604" lon="14.8261788"><ele>717.6666666666667</ele><time>2026-04-25T08:38:20.587Z</time></trkpt><trkpt lat="40.7461065" lon="14.8262628"><ele>717.3333333333334</ele><time>2026-04-25T08:38:21.587Z</time></trkpt><trkpt lat="40.7461459" lon="14.826329"><ele>717.0</ele><time>2026-04-25T08:38:22.589Z</time></trkpt><trkpt lat="40.7462246" lon="14.8264321"><ele>716.6666666666666</ele><time>2026-04-25T08:38:24.588Z</time></trkpt><trkpt lat="40.7462745" lon="14.8265291"><ele>716.3333333333333</ele><time>2026-04-25T08:38:26.589Z</time></trkpt><trkpt lat="40.7463011" lon="14.8266312"><ele>716.0</ele><time>2026-04-25T08:38:28.588Z</time></trkpt><trkpt lat="40.7463092" lon="14.826732"><ele>719.0</ele><time>2026-04-25T08:38:30.588Z</time></trkpt><trkpt lat="40.7463057" lon="14.8268641"><ele>722.0</ele><time>2026-04-25T08:38:32.588Z</time></trkpt><trkpt lat="40.7463106" lon="14.826972"><ele>725.0</ele><time>2026-04-25T08:38:34.588Z</time></trkpt><trkpt lat="40.7462848" lon="14.8270608"><ele>728.0</ele><time>2026-04-25T08:38:36.588Z</time></trkpt><trkpt lat="40.7462475" lon="14.8271483"><ele>731.0</ele><time>2026-04-25T08:38:38.587Z</time></trkpt><trkpt lat="40.7462092" lon="14.82725"><ele>734.0</ele><time>2026-04-25T08:38:40.588Z</time></trkpt><trkpt lat="40.7461553" lon="14.8273415"><ele>734.0</ele><time>2026-04-25T08:38:42.588Z</time></trkpt><trkpt lat="40.7460739" lon="14.8274119"><ele>734.0</ele><time>2026-04-25T08:38:44.589Z</time></trkpt><trkpt lat="40.7459907" lon="14.8274766"><ele>734.0</ele><time>2026-04-25T08:38:46.588Z</time></trkpt><trkpt lat="40.7459493" lon="14.8275705"><ele>734.0</ele><time>2026-04-25T08:38:48.589Z</time></trkpt><trkpt lat="40.7459448" lon="14.8277046"><ele>734.0</ele><time>2026-04-25T08:38:50.587Z</time></trkpt><trkpt lat="40.7459207" lon="14.8278427"><ele>739.6</ele><time>2026-04-25T08:38:52.589Z</time></trkpt><trkpt lat="40.7458659" lon="14.8279794"><ele>745.2</ele><time>2026-04-25T08:38:54.589Z</time></trkpt><trkpt lat="40.745823" lon="14.8280816"><ele>750.8000000000001</ele><time>2026-04-25T08:38:56.589Z</time></trkpt><trkpt lat="40.7457684" lon="14.828169"><ele>756.4000000000001</ele><time>2026-04-25T08:38:58.588Z</time></trkpt><trkpt lat="40.7456834" lon="14.8282017"><ele>762.0</ele><time>2026-04-25T08:39:00.588Z</time></trkpt><trkpt lat="40.7455927" lon="14.8282235"><ele>762.0</ele><time>2026-04-25T08:39:02.588Z</time></trkpt><trkpt lat="40.7455228" lon="14.8282897"><ele>762.0</ele><time>2026-04-25T08:39:04.589Z</time></trkpt><trkpt lat="40.7455081" lon="14.8284322"><ele>762.0</ele><time>2026-04-25T08:39:06.588Z</time></trkpt><trkpt lat="40.7455133" lon="14.8285544"><ele>762.0</ele><time>2026-04-25T08:39:08.589Z</time></trkpt><trkpt lat="40.745509" lon="14.8286742"><ele>762.0</ele><time>2026-04-25T08:39:10.588Z</time></trkpt><trkpt lat="40.7454782" lon="14.8287666"><ele>764.6</ele><time>2026-04-25T08:39:12.589Z</time></trkpt><trkpt lat="40.7453949" lon="14.828814"><ele>767.2</ele><time>2026-04-25T08:39:14.589Z</time></trkpt><trkpt lat="40.7452844" lon="14.8288458"><ele>769.8</ele><time>2026-04-25T08:39:16.588Z</time></trkpt><trkpt lat="40.7451637" lon="14.8288756"><ele>772.4</ele><time>2026-04-25T08:39:18.589Z</time></trkpt><trkpt lat="40.7450497" lon="14.8288626"><ele>775.0</ele><time>2026-04-25T08:39:20.589Z</time></trkpt><trkpt lat="40.7449363" lon="14.8288557"><ele>774.9999999999999</ele><time>2026-04-25T08:39:22.589Z</time></trkpt><trkpt lat="40.7448716" lon="14.8288496"><ele>775.0</ele><time>2026-04-25T08:39:23.589Z</time></trkpt><trkpt lat="40.7448059" lon="14.8288361"><ele>775.0</ele><time>2026-04-25T08:39:24.588Z</time></trkpt><trkpt lat="40.7447345" lon="14.8288237"><ele>775.0</ele><time>2026-04-25T08:39:25.588Z</time></trkpt><trkpt lat="40.744662" lon="14.8288131"><ele>775.0</ele><time>2026-04-25T08:39:26.588Z</time></trkpt><trkpt lat="40.7445842" lon="14.8288163"><ele>774.9999999999999</ele><time>2026-04-25T08:39:27.588Z</time></trkpt><trkpt lat="40.7445179" lon="14.8288163"><ele>775.0</ele><time>2026-04-25T08:39:28.588Z</time></trkpt><trkpt lat="40.7444548" lon="14.8288181"><ele>773.5</ele><time>2026-04-25T08:39:29.588Z</time></trkpt><trkpt lat="40.7443177" lon="14.8288148"><ele>772.0</ele><time>2026-04-25T08:39:31.589Z</time></trkpt><trkpt lat="40.7441874" lon="14.8288459"><ele>770.5</ele><time>2026-04-25T08:39:33.587Z</time></trkpt><trkpt lat="40.7440596" lon="14.828849"><ele>769.0</ele><time>2026-04-25T08:39:35.587Z</time></trkpt><trkpt lat="40.7439941" lon="14.8288388"><ele>768.9999999999999</ele><time>2026-04-25T08:39:36.589Z</time></trkpt><trkpt lat="40.7439282" lon="14.8288185"><ele>769.0</ele><time>2026-04-25T08:39:37.589Z</time></trkpt><trkpt lat="40.7438199" lon="14.8287677"><ele>769.0</ele><time>2026-04-25T08:39:39.588Z</time></trkpt><trkpt lat="40.7437219" lon="14.8287405"><ele>769.0</ele><time>2026-04-25T08:39:41.589Z</time></trkpt><trkpt lat="40.7436698" lon="14.8287959"><ele>768.9999999999999</ele><time>2026-04-25T08:39:44.589Z</time></trkpt><trkpt lat="40.7437268" lon="14.828863"><ele>769.0</ele><time>2026-04-25T08:47:33.587Z</time></trkpt><trkpt lat="40.7437779" lon="14.8289301"><ele>768.9999999999999</ele><time>2026-04-25T08:47:35.589Z</time></trkpt><trkpt lat="40.7438249" lon="14.8290055"><ele>769.0</ele><time>2026-04-25T08:47:37.589Z</time></trkpt><trkpt lat="40.7438648" lon="14.8290872"><ele>769.0</ele><time>2026-04-25T08:47:39.589Z</time></trkpt><trkpt lat="40.7439036" lon="14.8291837"><ele>769.0</ele><time>2026-04-25T08:47:41.589Z</time></trkpt><trkpt lat="40.7439459" lon="14.8292708"><ele>768.9999999999999</ele><time>2026-04-25T08:47:43.587Z</time></trkpt><trkpt lat="40.7439871" lon="14.8293717"><ele>769.0</ele><time>2026-04-25T08:47:45.589Z</time></trkpt><trkpt lat="40.744021" lon="14.8294822"><ele>767.8333333333333</ele><time>2026-04-25T08:47:47.587Z</time></trkpt><trkpt lat="40.7440608" lon="14.8296004"><ele>766.6666666666666</ele><time>2026-04-25T08:47:49.588Z</time></trkpt><trkpt lat="40.7440974" lon="14.8297085"><ele>765.5</ele><time>2026-04-25T08:47:51.588Z</time></trkpt><trkpt lat="40.744125" lon="14.8297973"><ele>764.3333333333333</ele><time>2026-04-25T08:47:53.587Z</time></trkpt><trkpt lat="40.7441646" lon="14.8298963"><ele>763.1666666666666</ele><time>2026-04-25T08:47:56.589Z</time></trkpt><trkpt lat="40.7442148" lon="14.8299907"><ele>762.0</ele><time>2026-04-25T08:47:59.588Z</time></trkpt><trkpt lat="40.7442797" lon="14.8300777"><ele>764.6</ele><time>2026-04-25T08:48:02.588Z</time></trkpt><trkpt lat="40.7443335" lon="14.8301422"><ele>767.2</ele><time>2026-04-25T08:48:04.588Z</time></trkpt><trkpt lat="40.7443963" lon="14.8301895"><ele>769.8</ele><time>2026-04-25T08:48:06.504Z</time></trkpt><trkpt lat="40.7444803" lon="14.8302529"><ele>772.4</ele><time>2026-04-25T08:48:08.588Z</time></trkpt><trkpt lat="40.7445599" lon="14.8303344"><ele>775.0</ele><time>2026-04-25T08:48:10.588Z</time></trkpt><trkpt lat="40.744647" lon="14.830445"><ele>774.9999999999999</ele><time>2026-04-25T08:48:12.588Z</time></trkpt><trkpt lat="40.7446979" lon="14.8305163"><ele>775.0</ele><time>2026-04-25T08:48:13.587Z</time></trkpt><trkpt lat="40.7447463" lon="14.8305909"><ele>775.0</ele><time>2026-04-25T08:48:14.587Z</time></trkpt><trkpt lat="40.7447903" lon="14.8306629"><ele>775.0</ele><time>2026-04-25T08:48:15.588Z</time></trkpt><trkpt lat="40.7448656" lon="14.8307814"><ele>774.9999999999999</ele><time>2026-04-25T08:48:17.589Z</time></trkpt><trkpt lat="40.7449314" lon="14.8308821"><ele>775.0</ele><time>2026-04-25T08:48:19.589Z</time></trkpt><trkpt lat="40.7449932" lon="14.8309775"><ele>773.6666666666666</ele><time>2026-04-25T08:48:21.588Z</time></trkpt><trkpt lat="40.7450554" lon="14.8310593"><ele>772.3333333333333</ele><time>2026-04-25T08:48:23.588Z</time></trkpt><trkpt lat="40.7451313" lon="14.8311099"><ele>771.0</ele><time>2026-04-25T08:48:25.588Z</time></trkpt><trkpt lat="40.7452197" lon="14.8311284"><ele>769.6666666666666</ele><time>2026-04-25T08:48:27.588Z</time></trkpt><trkpt lat="40.7453177" lon="14.8311442"><ele>768.3333333333333</ele><time>2026-04-25T08:48:29.588Z</time></trkpt><trkpt lat="40.7454058" lon="14.8311516"><ele>767.0</ele><time>2026-04-25T08:48:31.589Z</time></trkpt><trkpt lat="40.7454934" lon="14.8311424"><ele>767.0</ele><time>2026-04-25T08:48:33.588Z</time></trkpt><trkpt lat="40.745573" lon="14.8311421"><ele>767.0</ele><time>2026-04-25T08:48:35.589Z</time></trkpt><trkpt lat="40.7456429" lon="14.8311663"><ele>767.0</ele><time>2026-04-25T08:48:37.588Z</time></trkpt><trkpt lat="40.7456945" lon="14.8312467"><ele>767.0</ele><time>2026-04-25T08:48:39.588Z</time></trkpt><trkpt lat="40.7457401" lon="14.831375"><ele>767.0</ele><time>2026-04-25T08:48:41.589Z</time></trkpt><trkpt lat="40.745787" lon="14.8315172"><ele>767.0</ele><time>2026-04-25T08:48:43.589Z</time></trkpt><trkpt lat="40.7458239" lon="14.831591"><ele>767.0</ele><time>2026-04-25T08:48:44.589Z</time></trkpt><trkpt lat="40.7458605" lon="14.8316593"><ele>767.0</ele><time>2026-04-25T08:48:45.588Z</time></trkpt><trkpt lat="40.7459397" lon="14.8317514"><ele>767.0</ele><time>2026-04-25T08:48:47.588Z</time></trkpt><trkpt lat="40.7460755" lon="14.8318056"><ele>767.0</ele><time>2026-04-25T08:48:49.588Z</time></trkpt><trkpt lat="40.7461619" lon="14.8318235"><ele>764.8571428571429</ele><time>2026-04-25T08:48:50.589Z</time></trkpt><trkpt lat="40.7462338" lon="14.8318409"><ele>762.7142857142858</ele><time>2026-04-25T08:48:51.589Z</time></trkpt><trkpt lat="40.7463022" lon="14.8318591"><ele>760.5714285714286</ele><time>2026-04-25T08:48:52.588Z</time></trkpt><trkpt lat="40.7463665" lon="14.8318807"><ele>758.4285714285714</ele><time>2026-04-25T08:48:53.589Z</time></trkpt><trkpt lat="40.7464364" lon="14.8319108"><ele>756.2857142857142</ele><time>2026-04-25T08:48:54.589Z</time></trkpt><trkpt lat="40.7465086" lon="14.8319515"><ele>754.1428571428571</ele><time>2026-04-25T08:48:55.588Z</time></trkpt><trkpt lat="40.746579" lon="14.832002"><ele>752.0</ele><time>2026-04-25T08:48:56.589Z</time></trkpt><trkpt lat="40.7466443" lon="14.8320519"><ele>752.0</ele><time>2026-04-25T08:48:57.588Z</time></trkpt><trkpt lat="40.7467033" lon="14.832082"><ele>752.0</ele><time>2026-04-25T08:48:58.588Z</time></trkpt><trkpt lat="40.7468049" lon="14.8321581"><ele>752.0</ele><time>2026-04-25T08:49:00.588Z</time></trkpt><trkpt lat="40.7469204" lon="14.8321873"><ele>752.0</ele><time>2026-04-25T08:49:02.589Z</time></trkpt><trkpt lat="40.7470026" lon="14.8321531"><ele>752.0</ele><time>2026-04-25T08:49:04.588Z</time></trkpt><trkpt lat="40.7470627" lon="14.8320561"><ele>751.8</ele><time>2026-04-25T08:49:06.589Z</time></trkpt><trkpt lat="40.747111" lon="14.8318859"><ele>751.6</ele><time>2026-04-25T08:49:08.587Z</time></trkpt><trkpt lat="40.7471386" lon="14.8317995"><ele>751.4</ele><time>2026-04-25T08:49:09.589Z</time></trkpt><trkpt lat="40.7471656" lon="14.8317139"><ele>751.1999999999999</ele><time>2026-04-25T08:49:10.589Z</time></trkpt><trkpt lat="40.747182" lon="14.8316288"><ele>751.0</ele><time>2026-04-25T08:49:11.587Z</time></trkpt><trkpt lat="40.747197" lon="14.831473"><ele>751.0</ele><time>2026-04-25T08:49:13.587Z</time></trkpt><trkpt lat="40.7472459" lon="14.8313338"><ele>751.0</ele><time>2026-04-25T08:49:15.588Z</time></trkpt><trkpt lat="40.7472828" lon="14.8312633"><ele>751.0</ele><time>2026-04-25T08:49:16.588Z</time></trkpt><trkpt lat="40.7473224" lon="14.8311944"><ele>751.0</ele><time>2026-04-25T08:49:17.588Z</time></trkpt><trkpt lat="40.7473755" lon="14.831051"><ele>751.0</ele><time>2026-04-25T08:49:19.588Z</time></trkpt><trkpt lat="40.7473891" lon="14.8309083"><ele>755.6666666666667</ele><time>2026-04-25T08:49:21.588Z</time></trkpt><trkpt lat="40.7474139" lon="14.8308007"><ele>760.3333333333334</ele><time>2026-04-25T08:49:23.589Z</time></trkpt><trkpt lat="40.7474563" lon="14.8307387"><ele>765.0</ele><time>2026-04-25T08:49:25.589Z</time></trkpt><trkpt lat="40.7475199" lon="14.8307343"><ele>769.6666666666667</ele><time>2026-04-25T08:49:26.588Z</time></trkpt><trkpt lat="40.7476319" lon="14.8307499"><ele>774.3333333333334</ele><time>2026-04-25T08:49:28.587Z</time></trkpt><trkpt lat="40.7477336" lon="14.8308103"><ele>779.0</ele><time>2026-04-25T08:49:30.588Z</time></trkpt><trkpt lat="40.7478397" lon="14.830859"><ele>779.0000000000001</ele><time>2026-04-25T08:49:32.588Z</time></trkpt><trkpt lat="40.7478992" lon="14.8308883"><ele>779.0</ele><time>2026-04-25T08:49:33.589Z</time></trkpt><trkpt lat="40.7479598" lon="14.8309285"><ele>779.0</ele><time>2026-04-25T08:49:34.588Z</time></trkpt><trkpt lat="40.7480156" lon="14.8309674"><ele>779.0</ele><time>2026-04-25T08:49:35.588Z</time></trkpt><trkpt lat="40.7480849" lon="14.8310146"><ele>779.0000000000001</ele><time>2026-04-25T08:49:36.588Z</time></trkpt><trkpt lat="40.7481512" lon="14.831068"><ele>779.0</ele><time>2026-04-25T08:49:37.589Z</time></trkpt><trkpt lat="40.748252" lon="14.8311412"><ele>773.0</ele><time>2026-04-25T08:49:39.588Z</time></trkpt><trkpt lat="40.748329" lon="14.8312326"><ele>767.0</ele><time>2026-04-25T08:49:41.589Z</time></trkpt><trkpt lat="40.7484099" lon="14.8313256"><ele>761.0</ele><time>2026-04-25T08:49:43.588Z</time></trkpt><trkpt lat="40.7485184" lon="14.8313874"><ele>755.0</ele><time>2026-04-25T08:49:45.589Z</time></trkpt><trkpt lat="40.7486402" lon="14.8314109"><ele>755.0</ele><time>2026-04-25T08:49:47.589Z</time></trkpt><trkpt lat="40.7487171" lon="14.8314172"><ele>755.0</ele><time>2026-04-25T08:49:48.588Z</time></trkpt><trkpt lat="40.748796" lon="14.8314359"><ele>755.0</ele><time>2026-04-25T08:49:49.589Z</time></trkpt><trkpt lat="40.7489103" lon="14.8314718"><ele>755.0</ele><time>2026-04-25T08:49:51.589Z</time></trkpt><trkpt lat="40.7490092" lon="14.831482"><ele>755.0</ele><time>2026-04-25T08:49:53.588Z</time></trkpt><trkpt lat="40.7490779" lon="14.8315266"><ele>755.0</ele><time>2026-04-25T08:49:55.588Z</time></trkpt><trkpt lat="40.7491218" lon="14.8315961"><ele>755.0</ele><time>2026-04-25T08:49:57.589Z</time></trkpt><trkpt lat="40.7491763" lon="14.8316839"><ele>755.0</ele><time>2026-04-25T08:50:00.587Z</time></trkpt><trkpt lat="40.749217" lon="14.8318059"><ele>755.0</ele><time>2026-04-25T08:50:02.589Z</time></trkpt><trkpt lat="40.7492756" lon="14.831915"><ele>755.0</ele><time>2026-04-25T08:50:04.589Z</time></trkpt><trkpt lat="40.749325" lon="14.8320089"><ele>755.0</ele><time>2026-04-25T08:50:06.587Z</time></trkpt><trkpt lat="40.7493688" lon="14.8321108"><ele>752.3333333333333</ele><time>2026-04-25T08:50:08.588Z</time></trkpt><trkpt lat="40.7494101" lon="14.8321852"><ele>749.6666666666666</ele><time>2026-04-25T08:50:10.587Z</time></trkpt><trkpt lat="40.7494753" lon="14.832219"><ele>747.0</ele><time>2026-04-25T08:50:12.589Z</time></trkpt><trkpt lat="40.7495554" lon="14.8321519"><ele>744.3333333333334</ele><time>2026-04-25T08:50:14.588Z</time></trkpt><trkpt lat="40.7496323" lon="14.8320895"><ele>741.6666666666667</ele><time>2026-04-25T08:50:16.588Z</time></trkpt><trkpt lat="40.7496949" lon="14.8320711"><ele>739.0</ele><time>2026-04-25T08:50:18.589Z</time></trkpt><trkpt lat="40.7497727" lon="14.8320845"><ele>739.0</ele><time>2026-04-25T08:50:21.589Z</time></trkpt><trkpt lat="40.7498423" lon="14.8321051"><ele>739.0</ele><time>2026-04-25T08:50:23.589Z</time></trkpt><trkpt lat="40.7499124" lon="14.8321108"><ele>739.0</ele><time>2026-04-25T08:50:25.589Z</time></trkpt><trkpt lat="40.7499777" lon="14.8320932"><ele>739.0</ele><time>2026-04-25T08:50:28.589Z</time></trkpt><trkpt lat="40.7500466" lon="14.8321042"><ele>739.0</ele><time>2026-04-25T08:50:31.589Z</time></trkpt><trkpt lat="40.7501173" lon="14.8321294"><ele>739.0</ele><time>2026-04-25T08:50:34.587Z</time></trkpt><trkpt lat="40.7502146" lon="14.832143"><ele>739.0</ele><time>2026-04-25T08:50:37.587Z</time></trkpt><trkpt lat="40.7502886" lon="14.8321657"><ele>737.8571428571429</ele><time>2026-04-25T08:50:39.589Z</time></trkpt><trkpt lat="40.7503682" lon="14.8321856"><ele>736.7142857142858</ele><time>2026-04-25T08:50:41.588Z</time></trkpt><trkpt lat="40.7504431" lon="14.8322065"><ele>735.5714285714286</ele><time>2026-04-25T08:50:43.587Z</time></trkpt><trkpt lat="40.7505243" lon="14.8322186"><ele>734.4285714285714</ele><time>2026-04-25T08:50:45.564Z</time></trkpt><trkpt lat="40.7505918" lon="14.83222"><ele>733.2857142857142</ele><time>2026-04-25T08:50:46.588Z</time></trkpt><trkpt lat="40.7506593" lon="14.8322314"><ele>732.1428571428571</ele><time>2026-04-25T08:50:47.588Z</time></trkpt><trkpt lat="40.7507218" lon="14.8322537"><ele>731.0</ele><time>2026-04-25T08:50:48.589Z</time></trkpt><trkpt lat="40.7507841" lon="14.83229"><ele>731.0</ele><time>2026-04-25T08:50:49.589Z</time></trkpt><trkpt lat="40.7508446" lon="14.8323393"><ele>731.0</ele><time>2026-04-25T08:50:50.589Z</time></trkpt><trkpt lat="40.7508984" lon="14.8323991"><ele>731.0</ele><time>2026-04-25T08:50:51.589Z</time></trkpt><trkpt lat="40.7509459" lon="14.8324822"><ele>731.0</ele><time>2026-04-25T08:50:52.588Z</time></trkpt><trkpt lat="40.7509966" lon="14.8325333"><ele>731.0</ele><time>2026-04-25T08:50:53.589Z</time></trkpt><trkpt lat="40.7511066" lon="14.832579"><ele>731.0</ele><time>2026-04-25T08:50:55.589Z</time></trkpt><trkpt lat="40.7512186" lon="14.8326104"><ele>730.5999999999999</ele><time>2026-04-25T08:50:57.589Z</time></trkpt><trkpt lat="40.7513171" lon="14.8326775"><ele>730.2</ele><time>2026-04-25T08:50:59.588Z</time></trkpt><trkpt lat="40.7513807" lon="14.8327793"><ele>729.8</ele><time>2026-04-25T08:51:01.589Z</time></trkpt><trkpt lat="40.7514123" lon="14.832907"><ele>729.4000000000001</ele><time>2026-04-25T08:51:03.589Z</time></trkpt><trkpt lat="40.7514427" lon="14.8330273"><ele>729.0</ele><time>2026-04-25T08:51:05.588Z</time></trkpt><trkpt lat="40.7514768" lon="14.8331339"><ele>729.0</ele><time>2026-04-25T08:51:07.588Z</time></trkpt><trkpt lat="40.7515149" lon="14.8332172"><ele>729.0</ele><time>2026-04-25T08:51:09.589Z</time></trkpt><trkpt lat="40.7515637" lon="14.8333247"><ele>729.0</ele><time>2026-04-25T08:51:11.588Z</time></trkpt><trkpt lat="40.7516235" lon="14.8334246"><ele>729.0</ele><time>2026-04-25T08:51:13.589Z</time></trkpt><trkpt lat="40.7516643" lon="14.8335071"><ele>729.0</ele><time>2026-04-25T08:51:15.589Z</time></trkpt><trkpt lat="40.7517089" lon="14.8336185"><ele>729.0</ele><time>2026-04-25T08:51:17.589Z</time></trkpt><trkpt lat="40.7517495" lon="14.8337485"><ele>727.1666666666666</ele><time>2026-04-25T08:51:19.588Z</time></trkpt><trkpt lat="40.7517734" lon="14.8338579"><ele>725.3333333333334</ele><time>2026-04-25T08:51:21.589Z</time></trkpt><trkpt lat="40.7518188" lon="14.8339476"><ele>723.5</ele><time>2026-04-25T08:51:23.589Z</time></trkpt><trkpt lat="40.7518649" lon="14.8340268"><ele>721.6666666666667</ele><time>2026-04-25T08:51:25.589Z</time></trkpt><trkpt lat="40.7519349" lon="14.8340994"><ele>719.8333333333334</ele><time>2026-04-25T08:51:27.588Z</time></trkpt><trkpt lat="40.7520305" lon="14.8341648"><ele>718.0</ele><time>2026-04-25T08:51:29.589Z</time></trkpt><trkpt lat="40.7520865" lon="14.8342042"><ele>718.0</ele><time>2026-04-25T08:51:30.589Z</time></trkpt><trkpt lat="40.7521954" lon="14.8342734"><ele>718.0</ele><time>2026-04-25T08:51:32.588Z</time></trkpt><trkpt lat="40.7522933" lon="14.83432"><ele>718.0</ele><time>2026-04-25T08:51:34.589Z</time></trkpt><trkpt lat="40.7523913" lon="14.8343379"><ele>718.0</ele><time>2026-04-25T08:51:36.588Z</time></trkpt><trkpt lat="40.7524659" lon="14.8343815"><ele>718.0</ele><time>2026-04-25T08:51:38.589Z</time></trkpt><trkpt lat="40.7525247" lon="14.8344679"><ele>719.2</ele><time>2026-04-25T08:51:40.589Z</time></trkpt><trkpt lat="40.7525654" lon="14.8345844"><ele>720.4</ele><time>2026-04-25T08:51:42.588Z</time></trkpt><trkpt lat="40.7526028" lon="14.8347196"><ele>721.6</ele><time>2026-04-25T08:51:44.587Z</time></trkpt><trkpt lat="40.7526385" lon="14.8348343"><ele>722.8000000000001</ele><time>2026-04-25T08:51:46.589Z</time></trkpt><trkpt lat="40.7526884" lon="14.8349431"><ele>724.0</ele><time>2026-04-25T08:51:48.588Z</time></trkpt><trkpt lat="40.7527551" lon="14.8350389"><ele>725.0</ele><time>2026-04-25T08:51:50.589Z</time></trkpt><trkpt lat="40.7528412" lon="14.8350868"><ele>726.0</ele><time>2026-04-25T08:51:52.587Z</time></trkpt><trkpt lat="40.7529422" lon="14.8351056"><ele>727.0</ele><time>2026-04-25T08:51:54.589Z</time></trkpt><trkpt lat="40.7530587" lon="14.8351147"><ele>728.0</ele><time>2026-04-25T08:51:56.587Z</time></trkpt><trkpt lat="40.7531204" lon="14.8351327"><ele>729.0</ele><time>2026-04-25T08:51:57.587Z</time></trkpt><trkpt lat="40.7531921" lon="14.8351501"><ele>730.0</ele><time>2026-04-25T08:51:58.589Z</time></trkpt><trkpt lat="40.7532986" lon="14.8352032"><ele>730.0</ele><time>2026-04-25T08:52:00.587Z</time></trkpt><trkpt lat="40.7533926" lon="14.8352654"><ele>730.0</ele><time>2026-04-25T08:52:02.588Z</time></trkpt><trkpt lat="40.7534736" lon="14.8353472"><ele>730.0</ele><time>2026-04-25T08:52:04.589Z</time></trkpt><trkpt lat="40.7535239" lon="14.8354509"><ele>730.0</ele><time>2026-04-25T08:52:06.589Z</time></trkpt><trkpt lat="40.7535506" lon="14.8355795"><ele>730.0</ele><time>2026-04-25T08:52:08.588Z</time></trkpt><trkpt lat="40.7535665" lon="14.8357147"><ele>729.4</ele><time>2026-04-25T08:52:10.588Z</time></trkpt><trkpt lat="40.7535767" lon="14.8358403"><ele>728.8</ele><time>2026-04-25T08:52:12.588Z</time></trkpt><trkpt lat="40.7536094" lon="14.8359389"><ele>728.2</ele><time>2026-04-25T08:52:14.589Z</time></trkpt><trkpt lat="40.7536825" lon="14.836042"><ele>727.6</ele><time>2026-04-25T08:52:16.588Z</time></trkpt><trkpt lat="40.7537781" lon="14.836115"><ele>727.0</ele><time>2026-04-25T08:52:18.588Z</time></trkpt><trkpt lat="40.7538815" lon="14.8361687"><ele>727.0</ele><time>2026-04-25T08:52:20.588Z</time></trkpt><trkpt lat="40.7539834" lon="14.8361935"><ele>727.0</ele><time>2026-04-25T08:52:22.589Z</time></trkpt><trkpt lat="40.7540871" lon="14.8362033"><ele>727.0</ele><time>2026-04-25T08:52:24.589Z</time></trkpt><trkpt lat="40.7542051" lon="14.8361806"><ele>727.0</ele><time>2026-04-25T08:52:26.588Z</time></trkpt><trkpt lat="40.7542643" lon="14.8361469"><ele>727.0</ele><time>2026-04-25T08:52:27.588Z</time></trkpt><trkpt lat="40.75433" lon="14.8361266"><ele>728.8333333333334</ele><time>2026-04-25T08:52:28.589Z</time></trkpt><trkpt lat="40.7543975" lon="14.8361145"><ele>730.6666666666667</ele><time>2026-04-25T08:52:29.589Z</time></trkpt><trkpt lat="40.7544631" lon="14.8360992"><ele>732.5</ele><time>2026-04-25T08:52:30.589Z</time></trkpt><trkpt lat="40.7545282" lon="14.8360802"><ele>734.3333333333334</ele><time>2026-04-25T08:52:31.589Z</time></trkpt><trkpt lat="40.7545998" lon="14.8360661"><ele>736.1666666666666</ele><time>2026-04-25T08:52:32.589Z</time></trkpt><trkpt lat="40.7547225" lon="14.8360336"><ele>738.0</ele><time>2026-04-25T08:52:34.588Z</time></trkpt><trkpt lat="40.7548244" lon="14.8360106"><ele>738.0</ele><time>2026-04-25T08:52:36.588Z</time></trkpt><trkpt lat="40.7549024" lon="14.8360428"><ele>738.0</ele><time>2026-04-25T08:52:38.588Z</time></trkpt><trkpt lat="40.7549635" lon="14.8361431"><ele>738.0</ele><time>2026-04-25T08:52:40.588Z</time></trkpt><trkpt lat="40.7549967" lon="14.8362785"><ele>738.0</ele><time>2026-04-25T08:52:42.589Z</time></trkpt><trkpt lat="40.7550698" lon="14.8363677"><ele>738.0</ele><time>2026-04-25T08:52:44.588Z</time></trkpt><trkpt lat="40.7551937" lon="14.8364108"><ele>739.5999999999999</ele><time>2026-04-25T08:52:46.587Z</time></trkpt><trkpt lat="40.7553623" lon="14.8364338"><ele>741.1999999999999</ele><time>2026-04-25T08:52:48.588Z</time></trkpt><trkpt lat="40.7554455" lon="14.8364394"><ele>742.8</ele><time>2026-04-25T08:52:49.589Z</time></trkpt><trkpt lat="40.7555152" lon="14.8364521"><ele>744.4</ele><time>2026-04-25T08:52:50.588Z</time></trkpt><trkpt lat="40.7555841" lon="14.8364612"><ele>746.0</ele><time>2026-04-25T08:52:51.588Z</time></trkpt><trkpt lat="40.7557033" lon="14.836446"><ele>746.0</ele><time>2026-04-25T08:52:53.588Z</time></trkpt><trkpt lat="40.7558112" lon="14.8364152"><ele>746.0</ele><time>2026-04-25T08:52:55.588Z</time></trkpt><trkpt lat="40.7559003" lon="14.8363274"><ele>746.0</ele><time>2026-04-25T08:52:57.589Z</time></trkpt><trkpt lat="40.755954" lon="14.8362785"><ele>746.0</ele><time>2026-04-25T08:52:58.589Z</time></trkpt><trkpt lat="40.7560479" lon="14.8362092"><ele>746.0</ele><time>2026-04-25T08:53:00.589Z</time></trkpt><trkpt lat="40.7561188" lon="14.8361993"><ele>745.3333333333333</ele><time>2026-04-25T08:53:01.589Z</time></trkpt><trkpt lat="40.7561893" lon="14.8361856"><ele>744.6666666666666</ele><time>2026-04-25T08:53:02.589Z</time></trkpt><trkpt lat="40.7562658" lon="14.8361632"><ele>744.0</ele><time>2026-04-25T08:53:03.587Z</time></trkpt><trkpt lat="40.7563355" lon="14.8360999"><ele>743.3333333333334</ele><time>2026-04-25T08:53:04.588Z</time></trkpt><trkpt lat="40.7564385" lon="14.8360521"><ele>742.6666666666667</ele><time>2026-04-25T08:53:05.588Z</time></trkpt><trkpt lat="40.7565166" lon="14.8359914"><ele>742.0</ele><time>2026-04-25T08:53:06.588Z</time></trkpt><trkpt lat="40.7565796" lon="14.8359446"><ele>744.3333333333334</ele><time>2026-04-25T08:53:07.588Z</time></trkpt><trkpt lat="40.7566459" lon="14.8359057"><ele>746.6666666666667</ele><time>2026-04-25T08:53:08.589Z</time></trkpt><trkpt lat="40.7567024" lon="14.8358678"><ele>749.0</ele><time>2026-04-25T08:53:09.588Z</time></trkpt><trkpt lat="40.7568071" lon="14.8358019"><ele>751.3333333333334</ele><time>2026-04-25T08:53:11.588Z</time></trkpt><trkpt lat="40.7568809" lon="14.8357659"><ele>753.6666666666666</ele><time>2026-04-25T08:53:13.587Z</time></trkpt><trkpt lat="40.7569395" lon="14.8357244"><ele>756.0</ele><time>2026-04-25T08:53:15.589Z</time></trkpt><trkpt lat="40.7569977" lon="14.8356811"><ele>756.0</ele><time>2026-04-25T08:57:11.594Z</time></trkpt><trkpt lat="40.7570288" lon="14.8357649"><ele>756.0</ele><time>2026-04-25T08:57:17.594Z</time></trkpt><trkpt lat="40.7570274" lon="14.8358485"><ele>756.0</ele><time>2026-04-25T08:57:19.594Z</time></trkpt><trkpt lat="40.7570416" lon="14.8359462"><ele>756.0</ele><time>2026-04-25T08:57:21.594Z</time></trkpt><trkpt lat="40.7570565" lon="14.8360405"><ele>756.0</ele><time>2026-04-25T08:57:23.594Z</time></trkpt><trkpt lat="40.7570664" lon="14.8361615"><ele>756.0</ele><time>2026-04-25T08:57:25.594Z</time></trkpt><trkpt lat="40.7570554" lon="14.8363237"><ele>754.5714285714286</ele><time>2026-04-25T08:57:27.594Z</time></trkpt><trkpt lat="40.7570464" lon="14.8364093"><ele>753.1428571428571</ele><time>2026-04-25T08:57:28.593Z</time></trkpt><trkpt lat="40.7570368" lon="14.8364926"><ele>751.7142857142858</ele><time>2026-04-25T08:57:29.593Z</time></trkpt><trkpt lat="40.7570278" lon="14.8365768"><ele>750.2857142857142</ele><time>2026-04-25T08:57:30.594Z</time></trkpt><trkpt lat="40.7570216" lon="14.8366657"><ele>748.8571428571429</ele><time>2026-04-25T08:57:31.594Z</time></trkpt><trkpt lat="40.7570163" lon="14.8367572"><ele>747.4285714285714</ele><time>2026-04-25T08:57:32.593Z</time></trkpt><trkpt lat="40.7570093" lon="14.8368495"><ele>746.0</ele><time>2026-04-25T08:57:33.594Z</time></trkpt><trkpt lat="40.757" lon="14.8369434"><ele>744.1999999999999</ele><time>2026-04-25T08:57:34.594Z</time></trkpt><trkpt lat="40.7569892" lon="14.8370317"><ele>742.4</ele><time>2026-04-25T08:57:35.594Z</time></trkpt><trkpt lat="40.756976" lon="14.8371144"><ele>740.6</ele><time>2026-04-25T08:57:36.593Z</time></trkpt><trkpt lat="40.7569391" lon="14.8372655"><ele>738.8</ele><time>2026-04-25T08:57:38.593Z</time></trkpt><trkpt lat="40.7568921" lon="14.8374161"><ele>737.0</ele><time>2026-04-25T08:57:40.593Z</time></trkpt><trkpt lat="40.7568267" lon="14.8375545"><ele>736.8571428571429</ele><time>2026-04-25T08:57:42.593Z</time></trkpt><trkpt lat="40.7567878" lon="14.8376234"><ele>736.7142857142858</ele><time>2026-04-25T08:57:43.594Z</time></trkpt><trkpt lat="40.7567467" lon="14.8376936"><ele>736.5714285714287</ele><time>2026-04-25T08:57:44.593Z</time></trkpt><trkpt lat="40.7567022" lon="14.8377669"><ele>736.4285714285714</ele><time>2026-04-25T08:57:45.594Z</time></trkpt><trkpt lat="40.7566603" lon="14.8378393"><ele>736.2857142857142</ele><time>2026-04-25T08:57:46.594Z</time></trkpt><trkpt lat="40.7566146" lon="14.8379158"><ele>736.1428571428572</ele><time>2026-04-25T08:57:47.593Z</time></trkpt><trkpt lat="40.756566" lon="14.8379976"><ele>736.0</ele><time>2026-04-25T08:57:48.594Z</time></trkpt><trkpt lat="40.7565092" lon="14.8380854"><ele>735.1999999999999</ele><time>2026-04-25T08:57:49.594Z</time></trkpt><trkpt lat="40.7564469" lon="14.8381787"><ele>734.4</ele><time>2026-04-25T08:57:50.593Z</time></trkpt><trkpt lat="40.7563819" lon="14.838281"><ele>733.6</ele><time>2026-04-25T08:57:51.593Z</time></trkpt><trkpt lat="40.7563159" lon="14.8383955"><ele>732.8</ele><time>2026-04-25T08:57:52.593Z</time></trkpt><trkpt lat="40.7562542" lon="14.8385186"><ele>732.0</ele><time>2026-04-25T08:57:53.594Z</time></trkpt><trkpt lat="40.7561898" lon="14.8386435"><ele>732.0</ele><time>2026-04-25T08:57:54.594Z</time></trkpt><trkpt lat="40.7561264" lon="14.8387626"><ele>732.0</ele><time>2026-04-25T08:57:55.593Z</time></trkpt><trkpt lat="40.7560646" lon="14.8388813"><ele>732.0</ele><time>2026-04-25T08:57:56.594Z</time></trkpt><trkpt lat="40.7560065" lon="14.8389941"><ele>732.0</ele><time>2026-04-25T08:57:57.593Z</time></trkpt><trkpt lat="40.7559489" lon="14.839109"><ele>732.0</ele><time>2026-04-25T08:57:58.594Z</time></trkpt><trkpt lat="40.7558895" lon="14.8392248"><ele>731.5</ele><time>2026-04-25T08:57:59.594Z</time></trkpt><trkpt lat="40.755823" lon="14.8393462"><ele>731.0</ele><time>2026-04-25T08:58:00.593Z</time></trkpt><trkpt lat="40.7557547" lon="14.8394752"><ele>730.5</ele><time>2026-04-25T08:58:01.594Z</time></trkpt><trkpt lat="40.7556794" lon="14.8396001"><ele>730.0</ele><time>2026-04-25T08:58:02.594Z</time></trkpt><trkpt lat="40.7556066" lon="14.8397292"><ele>730.0</ele><time>2026-04-25T08:58:03.594Z</time></trkpt><trkpt lat="40.7555301" lon="14.839857"><ele>730.0</ele><time>2026-04-25T08:58:04.593Z</time></trkpt><trkpt lat="40.7554485" lon="14.8399872"><ele>730.0</ele><time>2026-04-25T08:58:05.594Z</time></trkpt><trkpt lat="40.7553697" lon="14.840127"><ele>730.0</ele><time>2026-04-25T08:58:06.594Z</time></trkpt><trkpt lat="40.755302" lon="14.840282"><ele>731.5</ele><time>2026-04-25T08:58:07.594Z</time></trkpt><trkpt lat="40.7552418" lon="14.8404475"><ele>733.0</ele><time>2026-04-25T08:58:08.594Z</time></trkpt><trkpt lat="40.7551852" lon="14.8406135"><ele>734.5</ele><time>2026-04-25T08:58:09.594Z</time></trkpt><trkpt lat="40.7551275" lon="14.8407682"><ele>736.0</ele><time>2026-04-25T08:58:10.593Z</time></trkpt><trkpt lat="40.7550749" lon="14.8409082"><ele>734.5999999999999</ele><time>2026-04-25T08:58:11.593Z</time></trkpt><trkpt lat="40.7550252" lon="14.8410389"><ele>733.2</ele><time>2026-04-25T08:58:12.593Z</time></trkpt><trkpt lat="40.7549805" lon="14.8411619"><ele>731.8</ele><time>2026-04-25T08:58:13.593Z</time></trkpt><trkpt lat="40.7549419" lon="14.8412762"><ele>730.4000000000001</ele><time>2026-04-25T08:58:14.593Z</time></trkpt><trkpt lat="40.7549092" lon="14.8413796"><ele>729.0</ele><time>2026-04-25T08:58:15.594Z</time></trkpt><trkpt lat="40.754879" lon="14.8414657"><ele>729.0</ele><time>2026-04-25T08:58:16.594Z</time></trkpt><trkpt lat="40.7548089" lon="14.8415884"><ele>729.0</ele><time>2026-04-25T08:58:18.593Z</time></trkpt><trkpt lat="40.754749" lon="14.8416284"><ele>729.0</ele><time>2026-04-25T08:58:19.593Z</time></trkpt><trkpt lat="40.754698" lon="14.8416894"><ele>729.0</ele><time>2026-04-25T08:58:20.593Z</time></trkpt><trkpt lat="40.754628" lon="14.8417647"><ele>729.0</ele><time>2026-04-25T08:58:21.593Z</time></trkpt><trkpt lat="40.7545469" lon="14.8418189"><ele>729.0</ele><time>2026-04-25T08:58:22.594Z</time></trkpt><trkpt lat="40.7544695" lon="14.8418686"><ele>731.1666666666666</ele><time>2026-04-25T08:58:23.594Z</time></trkpt><trkpt lat="40.7543968" lon="14.8419063"><ele>733.3333333333334</ele><time>2026-04-25T08:58:24.594Z</time></trkpt><trkpt lat="40.7543364" lon="14.8419722"><ele>735.5</ele><time>2026-04-25T08:58:25.594Z</time></trkpt><trkpt lat="40.7542925" lon="14.842043"><ele>737.6666666666667</ele><time>2026-04-25T08:58:26.594Z</time></trkpt><trkpt lat="40.7542524" lon="14.8421862"><ele>739.8333333333334</ele><time>2026-04-25T08:58:28.593Z</time></trkpt><trkpt lat="40.7542416" lon="14.8422685"><ele>742.0</ele><time>2026-04-25T08:58:29.594Z</time></trkpt><trkpt lat="40.7542241" lon="14.8423523"><ele>742.0</ele><time>2026-04-25T08:58:30.594Z</time></trkpt><trkpt lat="40.7542348" lon="14.8425125"><ele>742.0</ele><time>2026-04-25T08:58:32.593Z</time></trkpt><trkpt lat="40.7542441" lon="14.8426"><ele>742.0</ele><time>2026-04-25T08:58:33.594Z</time></trkpt><trkpt lat="40.7542495" lon="14.8426838"><ele>742.0</ele><time>2026-04-25T08:58:34.593Z</time></trkpt><trkpt lat="40.7542653" lon="14.8427667"><ele>742.0</ele><time>2026-04-25T08:58:35.593Z</time></trkpt><trkpt lat="40.7542882" lon="14.8428464"><ele>742.0</ele><time>2026-04-25T08:58:36.594Z</time></trkpt><trkpt lat="40.7543157" lon="14.842923"><ele>742.0</ele><time>2026-04-25T08:58:37.594Z</time></trkpt><trkpt lat="40.7543475" lon="14.842996"><ele>738.8</ele><time>2026-04-25T08:58:38.594Z</time></trkpt><trkpt lat="40.7543805" lon="14.843073"><ele>735.6</ele><time>2026-04-25T08:58:39.594Z</time></trkpt><trkpt lat="40.7544343" lon="14.8431555"><ele>732.4</ele><time>2026-04-25T08:58:40.594Z</time></trkpt><trkpt lat="40.7544998" lon="14.8432496"><ele>729.1999999999999</ele><time>2026-04-25T08:58:41.594Z</time></trkpt><trkpt lat="40.7545744" lon="14.8433667"><ele>726.0</ele><time>2026-04-25T08:58:42.594Z</time></trkpt><trkpt lat="40.7546482" lon="14.8435205"><ele>726.0</ele><time>2026-04-25T08:58:43.593Z</time></trkpt><trkpt lat="40.7547148" lon="14.8437127"><ele>726.0</ele><time>2026-04-25T08:58:44.594Z</time></trkpt><trkpt lat="40.7547672" lon="14.8439217"><ele>726.0</ele><time>2026-04-25T08:58:45.594Z</time></trkpt><trkpt lat="40.754817" lon="14.8441089"><ele>726.0</ele><time>2026-04-25T08:58:46.593Z</time></trkpt><trkpt lat="40.7548678" lon="14.8442754"><ele>726.0</ele><time>2026-04-25T08:58:47.594Z</time></trkpt><trkpt lat="40.7549206" lon="14.8444167"><ele>726.0</ele><time>2026-04-25T08:58:48.594Z</time></trkpt><trkpt lat="40.7549897" lon="14.8445355"><ele>726.0</ele><time>2026-04-25T08:58:49.594Z</time></trkpt><trkpt lat="40.7550718" lon="14.844632"><ele>726.0</ele><time>2026-04-25T08:58:50.594Z</time></trkpt><trkpt lat="40.7551633" lon="14.8447139"><ele>726.0</ele><time>2026-04-25T08:58:51.594Z</time></trkpt><trkpt lat="40.7552605" lon="14.8447902"><ele>726.0</ele><time>2026-04-25T08:58:52.593Z</time></trkpt><trkpt lat="40.7553631" lon="14.8448628"><ele>726.0</ele><time>2026-04-25T08:58:53.593Z</time></trkpt><trkpt lat="40.7554689" lon="14.8449467"><ele>726.75</ele><time>2026-04-25T08:58:54.593Z</time></trkpt><trkpt lat="40.7555718" lon="14.8450523"><ele>727.5</ele><time>2026-04-25T08:58:55.593Z</time></trkpt><trkpt lat="40.7556688" lon="14.8451815"><ele>728.25</ele><time>2026-04-25T08:58:56.594Z</time></trkpt><trkpt lat="40.7557534" lon="14.8453243"><ele>729.0</ele><time>2026-04-25T08:58:57.594Z</time></trkpt><trkpt lat="40.755832" lon="14.8454604"><ele>729.25</ele><time>2026-04-25T08:58:58.594Z</time></trkpt><trkpt lat="40.7559114" lon="14.8455868"><ele>729.5</ele><time>2026-04-25T08:58:59.593Z</time></trkpt><trkpt lat="40.7559965" lon="14.8456936"><ele>729.75</ele><time>2026-04-25T08:59:00.594Z</time></trkpt><trkpt lat="40.7560886" lon="14.8457797"><ele>730.0</ele><time>2026-04-25T08:59:01.593Z</time></trkpt><trkpt lat="40.7561851" lon="14.845856"><ele>730.0</ele><time>2026-04-25T08:59:02.593Z</time></trkpt><trkpt lat="40.7562831" lon="14.8459421"><ele>730.0</ele><time>2026-04-25T08:59:03.594Z</time></trkpt><trkpt lat="40.7563795" lon="14.8460494"><ele>730.0</ele><time>2026-04-25T08:59:04.594Z</time></trkpt><trkpt lat="40.7564764" lon="14.8461712"><ele>730.0</ele><time>2026-04-25T08:59:05.593Z</time></trkpt><trkpt lat="40.7565671" lon="14.8462923"><ele>731.0</ele><time>2026-04-25T08:59:06.593Z</time></trkpt><trkpt lat="40.7566541" lon="14.8464175"><ele>732.0</ele><time>2026-04-25T08:59:07.593Z</time></trkpt><trkpt lat="40.7567312" lon="14.8465583"><ele>733.0</ele><time>2026-04-25T08:59:08.594Z</time></trkpt><trkpt lat="40.7568058" lon="14.8467163"><ele>734.0</ele><time>2026-04-25T08:59:09.594Z</time></trkpt><trkpt lat="40.7568777" lon="14.8468978"><ele>734.0</ele><time>2026-04-25T08:59:10.593Z</time></trkpt><trkpt lat="40.7569465" lon="14.8471023"><ele>734.0</ele><time>2026-04-25T08:59:11.594Z</time></trkpt><trkpt lat="40.7570072" lon="14.8472931"><ele>734.0</ele><time>2026-04-25T08:59:12.594Z</time></trkpt><trkpt lat="40.7570614" lon="14.8474678"><ele>736.0</ele><time>2026-04-25T08:59:13.594Z</time></trkpt><trkpt lat="40.7571138" lon="14.8476326"><ele>738.0</ele><time>2026-04-25T08:59:14.594Z</time></trkpt><trkpt lat="40.7571578" lon="14.8477792"><ele>740.0</ele><time>2026-04-25T08:59:15.594Z</time></trkpt><trkpt lat="40.7571989" lon="14.8479149"><ele>742.0</ele><time>2026-04-25T08:59:16.593Z</time></trkpt><trkpt lat="40.7572413" lon="14.848046"><ele>742.0</ele><time>2026-04-25T08:59:17.594Z</time></trkpt><trkpt lat="40.7572932" lon="14.8481736"><ele>742.0</ele><time>2026-04-25T08:59:18.594Z</time></trkpt><trkpt lat="40.7573499" lon="14.8482972"><ele>742.0</ele><time>2026-04-25T08:59:19.593Z</time></trkpt><trkpt lat="40.7574188" lon="14.8484101"><ele>742.0</ele><time>2026-04-25T08:59:20.593Z</time></trkpt><trkpt lat="40.7574906" lon="14.8485197"><ele>742.0</ele><time>2026-04-25T08:59:21.594Z</time></trkpt><trkpt lat="40.7575629" lon="14.8486308"><ele>741.8</ele><time>2026-04-25T08:59:22.594Z</time></trkpt><trkpt lat="40.7576335" lon="14.8487513"><ele>741.6</ele><time>2026-04-25T08:59:23.594Z</time></trkpt><trkpt lat="40.7576937" lon="14.8488802"><ele>741.4</ele><time>2026-04-25T08:59:24.594Z</time></trkpt><trkpt lat="40.7577429" lon="14.8489978"><ele>741.1999999999999</ele><time>2026-04-25T08:59:25.594Z</time></trkpt><trkpt lat="40.7577824" lon="14.8491022"><ele>741.0</ele><time>2026-04-25T08:59:26.594Z</time></trkpt><trkpt lat="40.7578075" lon="14.8491862"><ele>740.1666666666666</ele><time>2026-04-25T08:59:27.593Z</time></trkpt><trkpt lat="40.757822" lon="14.8492925"><ele>739.3333333333334</ele><time>2026-04-25T08:59:29.594Z</time></trkpt><trkpt lat="40.7578507" lon="14.8493817"><ele>738.5</ele><time>2026-04-25T08:59:33.593Z</time></trkpt><trkpt lat="40.757907" lon="14.849433"><ele>737.6666666666667</ele><time>2026-04-25T08:59:36.594Z</time></trkpt><trkpt lat="40.7580053" lon="14.849458"><ele>736.8333333333334</ele><time>2026-04-25T08:59:38.593Z</time></trkpt><trkpt lat="40.7580717" lon="14.849472"><ele>736.0</ele><time>2026-04-25T08:59:39.594Z</time></trkpt><trkpt lat="40.7581453" lon="14.8495041"><ele>736.0</ele><time>2026-04-25T08:59:40.594Z</time></trkpt><trkpt lat="40.7582189" lon="14.8495655"><ele>736.0</ele><time>2026-04-25T08:59:41.594Z</time></trkpt><trkpt lat="40.7582837" lon="14.8496595"><ele>736.0</ele><time>2026-04-25T08:59:42.594Z</time></trkpt><trkpt lat="40.7583449" lon="14.8497678"><ele>736.0</ele><time>2026-04-25T08:59:43.594Z</time></trkpt><trkpt lat="40.7584125" lon="14.8498806"><ele>736.0</ele><time>2026-04-25T08:59:44.594Z</time></trkpt><trkpt lat="40.7584916" lon="14.8499713"><ele>735.8</ele><time>2026-04-25T08:59:45.594Z</time></trkpt><trkpt lat="40.7585758" lon="14.8500461"><ele>735.5999999999999</ele><time>2026-04-25T08:59:46.593Z</time></trkpt><trkpt lat="40.7586666" lon="14.8501094"><ele>735.4</ele><time>2026-04-25T08:59:47.594Z</time></trkpt><trkpt lat="40.7587591" lon="14.8501688"><ele>735.2</ele><time>2026-04-25T08:59:48.593Z</time></trkpt><trkpt lat="40.7588529" lon="14.850215"><ele>735.0</ele><time>2026-04-25T08:59:49.593Z</time></trkpt><trkpt lat="40.7589449" lon="14.8502604"><ele>733.0</ele><time>2026-04-25T08:59:50.594Z</time></trkpt><trkpt lat="40.759038" lon="14.8503073"><ele>731.0</ele><time>2026-04-25T08:59:51.593Z</time></trkpt><trkpt lat="40.7591291" lon="14.8503612"><ele>729.0</ele><time>2026-04-25T08:59:52.594Z</time></trkpt><trkpt lat="40.7592152" lon="14.8504195"><ele>727.0</ele><time>2026-04-25T08:59:53.594Z</time></trkpt><trkpt lat="40.7592977" lon="14.8504865"><ele>725.0</ele><time>2026-04-25T08:59:54.593Z</time></trkpt><trkpt lat="40.7593773" lon="14.8505593"><ele>725.0</ele><time>2026-04-25T08:59:55.593Z</time></trkpt><trkpt lat="40.7594529" lon="14.8506387"><ele>725.0</ele><time>2026-04-25T08:59:56.594Z</time></trkpt><trkpt lat="40.7595147" lon="14.8507379"><ele>725.0</ele><time>2026-04-25T08:59:57.594Z</time></trkpt><trkpt lat="40.7595746" lon="14.8508325"><ele>725.0</ele><time>2026-04-25T08:59:58.593Z</time></trkpt><trkpt lat="40.7596252" lon="14.8509368"><ele>725.0</ele><time>2026-04-25T08:59:59.593Z</time></trkpt><trkpt lat="40.7596636" lon="14.8510494"><ele>724.0</ele><time>2026-04-25T09:00:00.594Z</time></trkpt><trkpt lat="40.7596927" lon="14.8511562"><ele>723.0</ele><time>2026-04-25T09:00:01.594Z</time></trkpt><trkpt lat="40.7597197" lon="14.8512742"><ele>722.0</ele><time>2026-04-25T09:00:02.594Z</time></trkpt><trkpt lat="40.7597446" lon="14.8513958"><ele>721.0</ele><time>2026-04-25T09:00:03.593Z</time></trkpt><trkpt lat="40.7597605" lon="14.8515189"><ele>720.0</ele><time>2026-04-25T09:00:04.594Z</time></trkpt><trkpt lat="40.7597819" lon="14.8516379"><ele>720.0</ele><time>2026-04-25T09:00:05.593Z</time></trkpt><trkpt lat="40.759807" lon="14.8517562"><ele>720.0</ele><time>2026-04-25T09:00:06.594Z</time></trkpt><trkpt lat="40.7598409" lon="14.8518663"><ele>720.0</ele><time>2026-04-25T09:00:07.594Z</time></trkpt><trkpt lat="40.7598876" lon="14.8519584"><ele>720.0</ele><time>2026-04-25T09:00:08.593Z</time></trkpt><trkpt lat="40.7599576" lon="14.8520163"><ele>720.0</ele><time>2026-04-25T09:00:09.594Z</time></trkpt><trkpt lat="40.760037" lon="14.8520467"><ele>720.0</ele><time>2026-04-25T09:00:10.594Z</time></trkpt><trkpt lat="40.7601243" lon="14.8520692"><ele>719.0</ele><time>2026-04-25T09:00:11.594Z</time></trkpt><trkpt lat="40.7602121" lon="14.8520984"><ele>718.0</ele><time>2026-04-25T09:00:12.594Z</time></trkpt><trkpt lat="40.7602947" lon="14.8521462"><ele>717.0</ele><time>2026-04-25T09:00:13.594Z</time></trkpt><trkpt lat="40.7603704" lon="14.8522097"><ele>716.0</ele><time>2026-04-25T09:00:14.594Z</time></trkpt><trkpt lat="40.7604488" lon="14.8522713"><ele>715.0</ele><time>2026-04-25T09:00:15.593Z</time></trkpt><trkpt lat="40.7605348" lon="14.8523239"><ele>715.0</ele><time>2026-04-25T09:00:16.593Z</time></trkpt><trkpt lat="40.7606209" lon="14.852374"><ele>715.0</ele><time>2026-04-25T09:00:17.594Z</time></trkpt><trkpt lat="40.7606991" lon="14.8524265"><ele>715.0</ele><time>2026-04-25T09:00:18.594Z</time></trkpt><trkpt lat="40.7607703" lon="14.8524881"><ele>715.0</ele><time>2026-04-25T09:00:19.593Z</time></trkpt><trkpt lat="40.760823" lon="14.8525702"><ele>715.0</ele><time>2026-04-25T09:00:20.593Z</time></trkpt><trkpt lat="40.7608655" lon="14.852665"><ele>715.0</ele><time>2026-04-25T09:00:21.594Z</time></trkpt><trkpt lat="40.7609123" lon="14.852752"><ele>717.5</ele><time>2026-04-25T09:00:22.594Z</time></trkpt><trkpt lat="40.7609745" lon="14.8528167"><ele>720.0</ele><time>2026-04-25T09:00:23.594Z</time></trkpt><trkpt lat="40.7610486" lon="14.8528431"><ele>722.5</ele><time>2026-04-25T09:00:24.593Z</time></trkpt><trkpt lat="40.7611273" lon="14.8528303"><ele>725.0</ele><time>2026-04-25T09:00:25.593Z</time></trkpt><trkpt lat="40.7612037" lon="14.8527813"><ele>727.5</ele><time>2026-04-25T09:00:26.594Z</time></trkpt><trkpt lat="40.7612733" lon="14.8527114"><ele>730.0</ele><time>2026-04-25T09:00:27.594Z</time></trkpt><trkpt lat="40.7613411" lon="14.8526283"><ele>727.2</ele><time>2026-04-25T09:00:28.593Z</time></trkpt><trkpt lat="40.7614079" lon="14.8525413"><ele>724.4</ele><time>2026-04-25T09:00:29.593Z</time></trkpt><trkpt lat="40.7614679" lon="14.8524452"><ele>721.5999999999999</ele><time>2026-04-25T09:00:30.594Z</time></trkpt><trkpt lat="40.7615097" lon="14.8523299"><ele>718.8</ele><time>2026-04-25T09:00:31.594Z</time></trkpt><trkpt lat="40.7615368" lon="14.8522123"><ele>716.0</ele><time>2026-04-25T09:00:32.594Z</time></trkpt><trkpt lat="40.7615695" lon="14.8521022"><ele>716.0</ele><time>2026-04-25T09:00:33.594Z</time></trkpt><trkpt lat="40.7616204" lon="14.8520083"><ele>716.0</ele><time>2026-04-25T09:00:34.593Z</time></trkpt><trkpt lat="40.7616922" lon="14.8519369"><ele>716.0</ele><time>2026-04-25T09:00:35.594Z</time></trkpt><trkpt lat="40.7617727" lon="14.8518857"><ele>716.0</ele><time>2026-04-25T09:00:36.593Z</time></trkpt><trkpt lat="40.7618603" lon="14.8518498"><ele>716.0</ele><time>2026-04-25T09:00:37.594Z</time></trkpt><trkpt lat="40.7619502" lon="14.8518332"><ele>716.0</ele><time>2026-04-25T09:00:38.594Z</time></trkpt><trkpt lat="40.7620376" lon="14.8518459"><ele>716.6666666666666</ele><time>2026-04-25T09:00:39.594Z</time></trkpt><trkpt lat="40.7621184" lon="14.8518819"><ele>717.3333333333333</ele><time>2026-04-25T09:00:40.593Z</time></trkpt><trkpt lat="40.7621889" lon="14.8519361"><ele>718.0</ele><time>2026-04-25T09:00:41.594Z</time></trkpt><trkpt lat="40.7622515" lon="14.8519922"><ele>718.6666666666666</ele><time>2026-04-25T09:00:42.594Z</time></trkpt><trkpt lat="40.7623094" lon="14.8520448"><ele>719.3333333333334</ele><time>2026-04-25T09:00:43.593Z</time></trkpt><trkpt lat="40.7623648" lon="14.8520875"><ele>720.0</ele><time>2026-04-25T09:00:44.593Z</time></trkpt><trkpt lat="40.7624731" lon="14.8520999"><ele>720.0</ele><time>2026-04-25T09:00:46.593Z</time></trkpt><trkpt lat="40.7625473" lon="14.8519877"><ele>720.0</ele><time>2026-04-25T09:00:48.593Z</time></trkpt><trkpt lat="40.7625672" lon="14.8518965"><ele>720.0</ele><time>2026-04-25T09:00:49.594Z</time></trkpt><trkpt lat="40.7625806" lon="14.8518059"><ele>720.0</ele><time>2026-04-25T09:00:50.594Z</time></trkpt><trkpt lat="40.7625866" lon="14.8517168"><ele>720.0</ele><time>2026-04-25T09:00:51.594Z</time></trkpt><trkpt lat="40.7626081" lon="14.851553"><ele>720.0</ele><time>2026-04-25T09:00:53.594Z</time></trkpt><trkpt lat="40.7626369" lon="14.8514758"><ele>717.6666666666666</ele><time>2026-04-25T09:00:54.594Z</time></trkpt><trkpt lat="40.7626821" lon="14.8514178"><ele>715.3333333333334</ele><time>2026-04-25T09:00:55.594Z</time></trkpt><trkpt lat="40.7628" lon="14.851385"><ele>713.0</ele><time>2026-04-25T09:00:57.594Z</time></trkpt><trkpt lat="40.7629182" lon="14.8514441"><ele>710.6666666666667</ele><time>2026-04-25T09:00:59.594Z</time></trkpt><trkpt lat="40.7629772" lon="14.8514822"><ele>708.3333333333334</ele><time>2026-04-25T09:01:00.593Z</time></trkpt><trkpt lat="40.7630374" lon="14.8515195"><ele>706.0</ele><time>2026-04-25T09:01:01.594Z</time></trkpt><trkpt lat="40.7630977" lon="14.8515572"><ele>706.0</ele><time>2026-04-25T09:01:02.593Z</time></trkpt><trkpt lat="40.7631585" lon="14.8515913"><ele>706.0</ele><time>2026-04-25T09:01:03.594Z</time></trkpt><trkpt lat="40.763237" lon="14.8516152"><ele>706.0</ele><time>2026-04-25T09:01:04.593Z</time></trkpt><trkpt lat="40.7633299" lon="14.8516365"><ele>706.0</ele><time>2026-04-25T09:01:05.594Z</time></trkpt><trkpt lat="40.7634346" lon="14.85165"><ele>706.0</ele><time>2026-04-25T09:01:06.594Z</time></trkpt><trkpt lat="40.7635456" lon="14.851674"><ele>704.8</ele><time>2026-04-25T09:01:07.593Z</time></trkpt><trkpt lat="40.7636506" lon="14.8517115"><ele>703.5999999999999</ele><time>2026-04-25T09:01:08.594Z</time></trkpt><trkpt lat="40.7637513" lon="14.8517567"><ele>702.4</ele><time>2026-04-25T09:01:09.594Z</time></trkpt><trkpt lat="40.7638442" lon="14.8518038"><ele>701.2</ele><time>2026-04-25T09:01:10.594Z</time></trkpt><trkpt lat="40.7639351" lon="14.8518593"><ele>700.0</ele><time>2026-04-25T09:01:11.594Z</time></trkpt><trkpt lat="40.7640134" lon="14.8519282"><ele>700.0</ele><time>2026-04-25T09:01:12.594Z</time></trkpt><trkpt lat="40.7640695" lon="14.8520146"><ele>700.0</ele><time>2026-04-25T09:01:13.594Z</time></trkpt><trkpt lat="40.764102" lon="14.8521158"><ele>700.0</ele><time>2026-04-25T09:01:14.593Z</time></trkpt><trkpt lat="40.7641092" lon="14.8522326"><ele>700.0</ele><time>2026-04-25T09:01:15.593Z</time></trkpt><trkpt lat="40.7640911" lon="14.852362"><ele>700.0</ele><time>2026-04-25T09:01:16.594Z</time></trkpt><trkpt lat="40.7640616" lon="14.8524883"><ele>700.0</ele><time>2026-04-25T09:01:17.594Z</time></trkpt><trkpt lat="40.7640416" lon="14.8526082"><ele>700.0</ele><time>2026-04-25T09:01:18.594Z</time></trkpt><trkpt lat="40.7640549" lon="14.852717"><ele>700.0</ele><time>2026-04-25T09:01:19.594Z</time></trkpt><trkpt lat="40.7640908" lon="14.8528219"><ele>700.0</ele><time>2026-04-25T09:01:20.593Z</time></trkpt><trkpt lat="40.7641625" lon="14.8528742"><ele>700.0</ele><time>2026-04-25T09:01:21.594Z</time></trkpt><trkpt lat="40.7642398" lon="14.8529056"><ele>700.0</ele><time>2026-04-25T09:01:22.594Z</time></trkpt><trkpt lat="40.7643303" lon="14.8529098"><ele>699.4</ele><time>2026-04-25T09:01:23.594Z</time></trkpt><trkpt lat="40.7644211" lon="14.8529317"><ele>698.8</ele><time>2026-04-25T09:01:24.593Z</time></trkpt><trkpt lat="40.7644973" lon="14.8529946"><ele>698.2</ele><time>2026-04-25T09:01:25.593Z</time></trkpt><trkpt lat="40.764568" lon="14.8530697"><ele>697.6</ele><time>2026-04-25T09:01:26.594Z</time></trkpt><trkpt lat="40.7646471" lon="14.8531394"><ele>697.0</ele><time>2026-04-25T09:01:27.594Z</time></trkpt><trkpt lat="40.7647507" lon="14.8531625"><ele>697.0</ele><time>2026-04-25T09:01:28.593Z</time></trkpt><trkpt lat="40.7648517" lon="14.8531692"><ele>697.0</ele><time>2026-04-25T09:01:29.593Z</time></trkpt><trkpt lat="40.7649584" lon="14.8531377"><ele>697.0</ele><time>2026-04-25T09:01:30.594Z</time></trkpt><trkpt lat="40.7650767" lon="14.8531014"><ele>697.0</ele><time>2026-04-25T09:01:31.594Z</time></trkpt><trkpt lat="40.765182" lon="14.8530884"><ele>697.0</ele><time>2026-04-25T09:01:32.593Z</time></trkpt><trkpt lat="40.7652829" lon="14.8530851"><ele>695.3333333333334</ele><time>2026-04-25T09:01:33.594Z</time></trkpt><trkpt lat="40.7653757" lon="14.8530992"><ele>693.6666666666667</ele><time>2026-04-25T09:01:34.594Z</time></trkpt><trkpt lat="40.7654597" lon="14.8531374"><ele>692.0</ele><time>2026-04-25T09:01:35.594Z</time></trkpt><trkpt lat="40.7655252" lon="14.8531963"><ele>690.3333333333334</ele><time>2026-04-25T09:01:36.593Z</time></trkpt><trkpt lat="40.7655681" lon="14.8532755"><ele>688.6666666666666</ele><time>2026-04-25T09:01:37.593Z</time></trkpt><trkpt lat="40.7655818" lon="14.8533747"><ele>687.0</ele><time>2026-04-25T09:01:38.594Z</time></trkpt><trkpt lat="40.7655678" lon="14.8534867"><ele>686.2</ele><time>2026-04-25T09:01:39.593Z</time></trkpt><trkpt lat="40.7655383" lon="14.8536107"><ele>685.4000000000001</ele><time>2026-04-25T09:01:40.593Z</time></trkpt><trkpt lat="40.7655077" lon="14.8537385"><ele>684.5999999999999</ele><time>2026-04-25T09:01:41.594Z</time></trkpt><trkpt lat="40.7654804" lon="14.8538617"><ele>683.8</ele><time>2026-04-25T09:01:42.594Z</time></trkpt><trkpt lat="40.7654588" lon="14.8539798"><ele>683.0</ele><time>2026-04-25T09:01:43.594Z</time></trkpt><trkpt lat="40.7654571" lon="14.8540975"><ele>683.0</ele><time>2026-04-25T09:01:44.594Z</time></trkpt><trkpt lat="40.7654788" lon="14.8542057"><ele>683.0</ele><time>2026-04-25T09:01:45.593Z</time></trkpt><trkpt lat="40.7655263" lon="14.8542873"><ele>683.0</ele><time>2026-04-25T09:01:46.594Z</time></trkpt><trkpt lat="40.7655902" lon="14.8543478"><ele>683.0</ele><time>2026-04-25T09:01:47.594Z</time></trkpt><trkpt lat="40.7656655" lon="14.854383"><ele>683.0</ele><time>2026-04-25T09:01:48.594Z</time></trkpt><trkpt lat="40.7657511" lon="14.854388"><ele>683.0</ele><time>2026-04-25T09:01:49.594Z</time></trkpt><trkpt lat="40.7658435" lon="14.8543565"><ele>682.5999999999999</ele><time>2026-04-25T09:01:50.593Z</time></trkpt><trkpt lat="40.7659371" lon="14.8543075"><ele>682.1999999999999</ele><time>2026-04-25T09:01:51.594Z</time></trkpt><trkpt lat="40.766031" lon="14.8542593"><ele>681.8</ele><time>2026-04-25T09:01:52.593Z</time></trkpt><trkpt lat="40.7661259" lon="14.8542072"><ele>681.4</ele><time>2026-04-25T09:01:53.594Z</time></trkpt><trkpt lat="40.7662191" lon="14.8541581"><ele>681.0</ele><time>2026-04-25T09:01:54.593Z</time></trkpt><trkpt lat="40.7663126" lon="14.8541077"><ele>681.0</ele><time>2026-04-25T09:01:55.594Z</time></trkpt><trkpt lat="40.7664072" lon="14.8540569"><ele>681.0</ele><time>2026-04-25T09:01:56.593Z</time></trkpt><trkpt lat="40.7664995" lon="14.8540086"><ele>681.0</ele><time>2026-04-25T09:01:57.593Z</time></trkpt><trkpt lat="40.7665921" lon="14.8539568"><ele>681.0</ele><time>2026-04-25T09:01:58.593Z</time></trkpt><trkpt lat="40.7666814" lon="14.8539031"><ele>681.0</ele><time>2026-04-25T09:01:59.594Z</time></trkpt><trkpt lat="40.7667684" lon="14.853851"><ele>681.0</ele><time>2026-04-25T09:02:00.594Z</time></trkpt><trkpt lat="40.7668554" lon="14.8538082"><ele>681.0</ele><time>2026-04-25T09:02:01.593Z</time></trkpt><trkpt lat="40.7669439" lon="14.8537678"><ele>681.0</ele><time>2026-04-25T09:02:02.594Z</time></trkpt><trkpt lat="40.7670316" lon="14.8537214"><ele>681.0</ele><time>2026-04-25T09:02:03.593Z</time></trkpt><trkpt lat="40.7671145" lon="14.8536652"><ele>681.0</ele><time>2026-04-25T09:02:04.594Z</time></trkpt><trkpt lat="40.7671911" lon="14.853594"><ele>680.1999999999999</ele><time>2026-04-25T09:02:05.594Z</time></trkpt><trkpt lat="40.767257" lon="14.8535037"><ele>679.4</ele><time>2026-04-25T09:02:06.593Z</time></trkpt><trkpt lat="40.7673085" lon="14.8533987"><ele>678.6</ele><time>2026-04-25T09:02:07.594Z</time></trkpt><trkpt lat="40.7673475" lon="14.8532848"><ele>677.8</ele><time>2026-04-25T09:02:08.594Z</time></trkpt><trkpt lat="40.767369" lon="14.8531613"><ele>677.0</ele><time>2026-04-25T09:02:09.594Z</time></trkpt><trkpt lat="40.7673852" lon="14.8530371"><ele>676.2</ele><time>2026-04-25T09:02:10.594Z</time></trkpt><trkpt lat="40.7673957" lon="14.8529135"><ele>675.4000000000001</ele><time>2026-04-25T09:02:11.594Z</time></trkpt><trkpt lat="40.7674113" lon="14.8527913"><ele>674.5999999999999</ele><time>2026-04-25T09:02:12.594Z</time></trkpt><trkpt lat="40.7674322" lon="14.8526677"><ele>673.8</ele><time>2026-04-25T09:02:13.594Z</time></trkpt><trkpt lat="40.7674626" lon="14.852542"><ele>673.0</ele><time>2026-04-25T09:02:14.593Z</time></trkpt><trkpt lat="40.7675016" lon="14.8524109"><ele>671.5</ele><time>2026-04-25T09:02:15.594Z</time></trkpt><trkpt lat="40.767544" lon="14.8522694"><ele>670.0</ele><time>2026-04-25T09:02:16.594Z</time></trkpt><trkpt lat="40.7675929" lon="14.8521118"><ele>668.5</ele><time>2026-04-25T09:02:17.593Z</time></trkpt><trkpt lat="40.7676429" lon="14.8519458"><ele>667.0</ele><time>2026-04-25T09:02:18.594Z</time></trkpt><trkpt lat="40.7676902" lon="14.8517862"><ele>666.0</ele><time>2026-04-25T09:02:19.593Z</time></trkpt><trkpt lat="40.7677399" lon="14.8516373"><ele>665.0</ele><time>2026-04-25T09:02:20.594Z</time></trkpt><trkpt lat="40.7677861" lon="14.8514964"><ele>664.0</ele><time>2026-04-25T09:02:21.593Z</time></trkpt><trkpt lat="40.7678263" lon="14.8513679"><ele>663.0</ele><time>2026-04-25T09:02:22.593Z</time></trkpt><trkpt lat="40.7678645" lon="14.8512597"><ele>662.0</ele><time>2026-04-25T09:02:23.593Z</time></trkpt><trkpt lat="40.7679087" lon="14.8511701"><ele>662.0</ele><time>2026-04-25T09:02:24.594Z</time></trkpt><trkpt lat="40.7679701" lon="14.8511086"><ele>662.0</ele><time>2026-04-25T09:02:25.593Z</time></trkpt><trkpt lat="40.7680385" lon="14.8510777"><ele>662.0</ele><time>2026-04-25T09:02:26.593Z</time></trkpt><trkpt lat="40.7681121" lon="14.8510793"><ele>662.0</ele><time>2026-04-25T09:02:27.593Z</time></trkpt><trkpt lat="40.7681862" lon="14.8511067"><ele>662.0</ele><time>2026-04-25T09:02:28.593Z</time></trkpt><trkpt lat="40.7682691" lon="14.8511507"><ele>662.0</ele><time>2026-04-25T09:02:29.594Z</time></trkpt><trkpt lat="40.7683524" lon="14.8511997"><ele>662.0</ele><time>2026-04-25T09:02:30.594Z</time></trkpt><trkpt lat="40.7684411" lon="14.8512524"><ele>662.0</ele><time>2026-04-25T09:02:31.594Z</time></trkpt><trkpt lat="40.7685371" lon="14.8513096"><ele>662.0</ele><time>2026-04-25T09:02:32.594Z</time></trkpt><trkpt lat="40.7686371" lon="14.8513699"><ele>662.0</ele><time>2026-04-25T09:02:33.594Z</time></trkpt><trkpt lat="40.768735" lon="14.8514295"><ele>662.0</ele><time>2026-04-25T09:02:34.594Z</time></trkpt><trkpt lat="40.768827" lon="14.8514883"><ele>660.8</ele><time>2026-04-25T09:02:35.593Z</time></trkpt><trkpt lat="40.7689165" lon="14.8515441"><ele>659.6</ele><time>2026-04-25T09:02:36.594Z</time></trkpt><trkpt lat="40.769007" lon="14.8515913"><ele>658.4</ele><time>2026-04-25T09:02:37.594Z</time></trkpt><trkpt lat="40.7690984" lon="14.8516279"><ele>657.1999999999999</ele><time>2026-04-25T09:02:38.594Z</time></trkpt><trkpt lat="40.7691931" lon="14.851644"><ele>656.0</ele><time>2026-04-25T09:02:39.594Z</time></trkpt><trkpt lat="40.7692808" lon="14.8516379"><ele>656.4</ele><time>2026-04-25T09:02:40.594Z</time></trkpt><trkpt lat="40.7693713" lon="14.8516108"><ele>656.8</ele><time>2026-04-25T09:02:41.594Z</time></trkpt><trkpt lat="40.7694564" lon="14.8515675"><ele>657.1999999999999</ele><time>2026-04-25T09:02:42.593Z</time></trkpt><trkpt lat="40.7695389" lon="14.8515212"><ele>657.5999999999999</ele><time>2026-04-25T09:02:43.593Z</time></trkpt><trkpt lat="40.769623" lon="14.8514739"><ele>658.0</ele><time>2026-04-25T09:02:44.593Z</time></trkpt><trkpt lat="40.7697081" lon="14.8514286"><ele>658.0</ele><time>2026-04-25T09:02:45.594Z</time></trkpt><trkpt lat="40.7697942" lon="14.8513805"><ele>658.0</ele><time>2026-04-25T09:02:46.594Z</time></trkpt><trkpt lat="40.7698821" lon="14.8513272"><ele>658.0</ele><time>2026-04-25T09:02:47.594Z</time></trkpt><trkpt lat="40.7699701" lon="14.8512754"><ele>658.0</ele><time>2026-04-25T09:02:48.593Z</time></trkpt><trkpt lat="40.7700637" lon="14.8512272"><ele>658.0</ele><time>2026-04-25T09:02:49.593Z</time></trkpt><trkpt lat="40.7701532" lon="14.8511822"><ele>658.5999999999999</ele><time>2026-04-25T09:02:50.593Z</time></trkpt><trkpt lat="40.7702437" lon="14.8511351"><ele>659.1999999999999</ele><time>2026-04-25T09:02:51.593Z</time></trkpt><trkpt lat="40.7703315" lon="14.8510866"><ele>659.8</ele><time>2026-04-25T09:02:52.594Z</time></trkpt><trkpt lat="40.7704198" lon="14.8510335"><ele>660.4</ele><time>2026-04-25T09:02:53.594Z</time></trkpt><trkpt lat="40.7705123" lon="14.8509742"><ele>661.0</ele><time>2026-04-25T09:02:54.593Z</time></trkpt><trkpt lat="40.7706094" lon="14.8508984"><ele>656.25</ele><time>2026-04-25T09:02:55.594Z</time></trkpt><trkpt lat="40.7707111" lon="14.8507988"><ele>651.5</ele><time>2026-04-25T09:02:56.594Z</time></trkpt><trkpt lat="40.7708076" lon="14.8506741"><ele>646.75</ele><time>2026-04-25T09:02:57.593Z</time></trkpt><trkpt lat="40.7708844" lon="14.8505344"><ele>642.0</ele><time>2026-04-25T09:02:58.594Z</time></trkpt><trkpt lat="40.7709533" lon="14.8504024"><ele>642.0</ele><time>2026-04-25T09:02:59.594Z</time></trkpt><trkpt lat="40.7710195" lon="14.8502783"><ele>642.0</ele><time>2026-04-25T09:03:00.594Z</time></trkpt><trkpt lat="40.7710855" lon="14.8501549"><ele>642.0</ele><time>2026-04-25T09:03:01.594Z</time></trkpt><trkpt lat="40.77115" lon="14.8500306"><ele>642.0</ele><time>2026-04-25T09:03:02.594Z</time></trkpt><trkpt lat="40.7712124" lon="14.8499043"><ele>643.75</ele><time>2026-04-25T09:03:03.594Z</time></trkpt><trkpt lat="40.7712741" lon="14.8497729"><ele>645.5</ele><time>2026-04-25T09:03:04.594Z</time></trkpt><trkpt lat="40.7713361" lon="14.8496409"><ele>647.25</ele><time>2026-04-25T09:03:05.594Z</time></trkpt><trkpt lat="40.7713969" lon="14.8495041"><ele>649.0</ele><time>2026-04-25T09:03:06.593Z</time></trkpt><trkpt lat="40.7714604" lon="14.8493708"><ele>644.25</ele><time>2026-04-25T09:03:07.594Z</time></trkpt><trkpt lat="40.7715263" lon="14.8492348"><ele>639.5</ele><time>2026-04-25T09:03:08.594Z</time></trkpt><trkpt lat="40.7715914" lon="14.8491036"><ele>634.75</ele><time>2026-04-25T09:03:09.593Z</time></trkpt><trkpt lat="40.7716592" lon="14.848969"><ele>630.0</ele><time>2026-04-25T09:03:10.594Z</time></trkpt><trkpt lat="40.7717294" lon="14.848838"><ele>630.0</ele><time>2026-04-25T09:03:11.594Z</time></trkpt><trkpt lat="40.7717961" lon="14.8487063"><ele>630.0</ele><time>2026-04-25T09:03:12.594Z</time></trkpt><trkpt lat="40.7718608" lon="14.8485774"><ele>630.0</ele><time>2026-04-25T09:03:13.593Z</time></trkpt><trkpt lat="40.7719184" lon="14.8484443"><ele>630.0</ele><time>2026-04-25T09:03:14.594Z</time></trkpt><trkpt lat="40.7719639" lon="14.8483012"><ele>628.25</ele><time>2026-04-25T09:03:15.593Z</time></trkpt><trkpt lat="40.771995" lon="14.8481531"><ele>626.5</ele><time>2026-04-25T09:03:16.593Z</time></trkpt><trkpt lat="40.772025" lon="14.8480051"><ele>624.75</ele><time>2026-04-25T09:03:17.594Z</time></trkpt><trkpt lat="40.7720692" lon="14.8478636"><ele>623.0</ele><time>2026-04-25T09:03:18.594Z</time></trkpt><trkpt lat="40.7721269" lon="14.8477376"><ele>623.0</ele><time>2026-04-25T09:03:19.594Z</time></trkpt><trkpt lat="40.7721878" lon="14.8476305"><ele>623.0</ele><time>2026-04-25T09:03:20.594Z</time></trkpt><trkpt lat="40.7722436" lon="14.8475383"><ele>623.0</ele><time>2026-04-25T09:03:21.593Z</time></trkpt><trkpt lat="40.7723056" lon="14.8474782"><ele>623.0</ele><time>2026-04-25T09:03:22.594Z</time></trkpt><trkpt lat="40.772373" lon="14.8474542"><ele>623.0</ele><time>2026-04-25T09:03:23.594Z</time></trkpt><trkpt lat="40.7724355" lon="14.8474713"><ele>623.0</ele><time>2026-04-25T09:03:24.593Z</time></trkpt><trkpt lat="40.7724882" lon="14.8475251"><ele>623.0</ele><time>2026-04-25T09:03:25.593Z</time></trkpt><trkpt lat="40.7725316" lon="14.8476015"><ele>623.0</ele><time>2026-04-25T09:03:26.593Z</time></trkpt><trkpt lat="40.7725774" lon="14.8476874"><ele>623.0</ele><time>2026-04-25T09:03:27.593Z</time></trkpt><trkpt lat="40.7726254" lon="14.8477827"><ele>623.0</ele><time>2026-04-25T09:03:28.594Z</time></trkpt><trkpt lat="40.7726753" lon="14.8478824"><ele>623.0</ele><time>2026-04-25T09:03:29.593Z</time></trkpt><trkpt lat="40.7727341" lon="14.8479894"><ele>623.0</ele><time>2026-04-25T09:03:30.593Z</time></trkpt><trkpt lat="40.7728057" lon="14.8481012"><ele>625.5</ele><time>2026-04-25T09:03:31.594Z</time></trkpt><trkpt lat="40.7728808" lon="14.8482125"><ele>628.0</ele><time>2026-04-25T09:03:32.594Z</time></trkpt><trkpt lat="40.7729704" lon="14.8483179"><ele>630.5</ele><time>2026-04-25T09:03:33.593Z</time></trkpt><trkpt lat="40.7730671" lon="14.8484155"><ele>633.0</ele><time>2026-04-25T09:03:34.594Z</time></trkpt><trkpt lat="40.7731673" lon="14.8485098"><ele>633.0</ele><time>2026-04-25T09:03:35.594Z</time></trkpt><trkpt lat="40.7732656" lon="14.8486059"><ele>633.0</ele><time>2026-04-25T09:03:36.594Z</time></trkpt><trkpt lat="40.773356" lon="14.8487037"><ele>633.0</ele><time>2026-04-25T09:03:37.594Z</time></trkpt><trkpt lat="40.7734436" lon="14.8487991"><ele>633.0</ele><time>2026-04-25T09:03:38.594Z</time></trkpt><trkpt lat="40.7735356" lon="14.8488867"><ele>626.6</ele><time>2026-04-25T09:03:39.594Z</time></trkpt><trkpt lat="40.7736339" lon="14.8489562"><ele>620.1999999999999</ele><time>2026-04-25T09:03:40.594Z</time></trkpt><trkpt lat="40.7737301" lon="14.8490192"><ele>613.8</ele><time>2026-04-25T09:03:41.594Z</time></trkpt><trkpt lat="40.7738252" lon="14.8490874"><ele>607.4</ele><time>2026-04-25T09:03:42.594Z</time></trkpt><trkpt lat="40.7739218" lon="14.8491595"><ele>601.0</ele><time>2026-04-25T09:03:43.593Z</time></trkpt><trkpt lat="40.7740187" lon="14.8492364"><ele>606.5</ele><time>2026-04-25T09:03:44.593Z</time></trkpt><trkpt lat="40.7741122" lon="14.8493226"><ele>612.0</ele><time>2026-04-25T09:03:45.593Z</time></trkpt><trkpt lat="40.7741987" lon="14.84941"><ele>617.5</ele><time>2026-04-25T09:03:46.594Z</time></trkpt><trkpt lat="40.7742762" lon="14.8494939"><ele>623.0</ele><time>2026-04-25T09:03:47.593Z</time></trkpt><trkpt lat="40.772025" lon="14.8480051"><ele>623.0</ele><time>2026-04-25T09:03:17.594Z</time></trkpt><trkpt lat="40.7720692" lon="14.8478636"><ele>623.0</ele><time>2026-04-25T09:03:18.594Z</time></trkpt><trkpt lat="40.7721269" lon="14.8477376"><ele>623.0</ele><time>2026-04-25T09:03:19.594Z</time></trkpt><trkpt lat="40.7721878" lon="14.8476305"><ele>623.0</ele><time>2026-04-25T09:03:20.594Z</time></trkpt><trkpt lat="40.7722436" lon="14.8475383"><ele>623.0</ele><time>2026-04-25T09:03:21.593Z</time></trkpt><trkpt lat="40.7723056" lon="14.8474782"><ele>623.0</ele><time>2026-04-25T09:03:22.594Z</time></trkpt><trkpt lat="40.772373" lon="14.8474542"><ele>623.0</ele><time>2026-04-25T09:03:23.594Z</time></trkpt><trkpt lat="40.7724355" lon="14.8474713"><ele>623.0</ele><time>2026-04-25T09:03:24.593Z</time></trkpt><trkpt lat="40.7724882" lon="14.8475251"><ele>623.0</ele><time>2026-04-25T09:03:25.593Z</time></trkpt><trkpt lat="40.7725316" lon="14.8476015"><ele>623.0</ele><time>2026-04-25T09:03:26.593Z</time></trkpt><trkpt lat="40.7725774" lon="14.8476874"><ele>623.0</ele><time>2026-04-25T09:03:27.593Z</time></trkpt><trkpt lat="40.7726254" lon="14.8477827"><ele>623.0</ele><time>2026-04-25T09:03:28.594Z</time></trkpt><trkpt lat="40.7726753" lon="14.8478824"><ele>617.6</ele><time>2026-04-25T09:03:29.593Z</time></trkpt><trkpt lat="40.7727341" lon="14.8479894"><ele>612.1999999999999</ele><time>2026-04-25T09:03:30.593Z</time></trkpt><trkpt lat="40.7728057" lon="14.8481012"><ele>606.8</ele><time>2026-04-25T09:03:31.594Z</time></trkpt><trkpt lat="40.7728808" lon="14.8482125"><ele>601.4</ele><time>2026-04-25T09:03:32.594Z</time></trkpt><trkpt lat="40.7729704" lon="14.8483179"><ele>596.0</ele><time>2026-04-25T09:03:33.593Z</time></trkpt><trkpt lat="40.7730671" lon="14.8484155"><ele>605.25</ele><time>2026-04-25T09:03:34.594Z</time></trkpt><trkpt lat="40.7731673" lon="14.8485098"><ele>614.5</ele><time>2026-04-25T09:03:35.594Z</time></trkpt><trkpt lat="40.7732656" lon="14.8486059"><ele>623.75</ele><time>2026-04-25T09:03:36.594Z</time></trkpt><trkpt lat="40.773356" lon="14.8487037"><ele>633.0</ele><time>2026-04-25T09:03:37.594Z</time></trkpt><trkpt lat="40.7734436" lon="14.8487991"><ele>626.6</ele><time>2026-04-25T09:03:38.594Z</time></trkpt><trkpt lat="40.7735356" lon="14.8488867"><ele>620.1999999999999</ele><time>2026-04-25T09:03:39.594Z</time></trkpt><trkpt lat="40.7736339" lon="14.8489562"><ele>613.8</ele><time>2026-04-25T09:03:40.594Z</time></trkpt><trkpt lat="40.7737301" lon="14.8490192"><ele>607.4</ele><time>2026-04-25T09:03:41.594Z</time></trkpt><trkpt lat="40.7738252" lon="14.8490874"><ele>601.0</ele><time>2026-04-25T09:03:42.594Z</time></trkpt><trkpt lat="40.7739218" lon="14.8491595"><ele>601.0</ele><time>2026-04-25T09:03:43.593Z</time></trkpt><trkpt lat="40.7740187" lon="14.8492364"><ele>601.0</ele><time>2026-04-25T09:03:44.593Z</time></trkpt><trkpt lat="40.7741122" lon="14.8493226"><ele>601.0</ele><time>2026-04-25T09:03:45.593Z</time></trkpt><trkpt lat="40.7741987" lon="14.84941"><ele>601.0</ele><time>2026-04-25T09:03:46.594Z</time></trkpt><trkpt lat="40.7742762" lon="14.8494939"><ele>601.0</ele><time>2026-04-25T09:03:47.593Z</time></trkpt><trkpt lat="40.7743469" lon="14.8495723"><ele>605.2</ele><time>2026-04-25T09:03:48.594Z</time></trkpt><trkpt lat="40.7744108" lon="14.8496379"><ele>609.4000000000001</ele><time>2026-04-25T09:03:49.594Z</time></trkpt><trkpt lat="40.7744697" lon="14.849677"><ele>613.6</ele><time>2026-04-25T09:03:50.594Z</time></trkpt><trkpt lat="40.7745836" lon="14.8496866"><ele>617.8000000000001</ele><time>2026-04-25T09:03:52.594Z</time></trkpt><trkpt lat="40.7746816" lon="14.849592"><ele>622.0</ele><time>2026-04-25T09:03:54.594Z</time></trkpt><trkpt lat="40.7747137" lon="14.8494357"><ele>622.0</ele><time>2026-04-25T09:03:56.593Z</time></trkpt><trkpt lat="40.774709" lon="14.8493468"><ele>622.0</ele><time>2026-04-25T09:03:57.594Z</time></trkpt><trkpt lat="40.7747024" lon="14.8492517"><ele>622.0</ele><time>2026-04-25T09:03:58.594Z</time></trkpt><trkpt lat="40.7746962" lon="14.8491512"><ele>622.0</ele><time>2026-04-25T09:03:59.593Z</time></trkpt><trkpt lat="40.7746862" lon="14.8490503"><ele>622.0</ele><time>2026-04-25T09:04:00.593Z</time></trkpt><trkpt lat="40.7746768" lon="14.8489431"><ele>622.0</ele><time>2026-04-25T09:04:01.594Z</time></trkpt><trkpt lat="40.7746625" lon="14.8488332"><ele>623.6</ele><time>2026-04-25T09:04:02.593Z</time></trkpt><trkpt lat="40.7746358" lon="14.8487169"><ele>625.2</ele><time>2026-04-25T09:04:03.593Z</time></trkpt><trkpt lat="40.7745961" lon="14.848592"><ele>626.8</ele><time>2026-04-25T09:04:04.593Z</time></trkpt><trkpt lat="40.7745438" lon="14.848464"><ele>628.4</ele><time>2026-04-25T09:04:05.594Z</time></trkpt><trkpt lat="40.774483" lon="14.8483388"><ele>630.0</ele><time>2026-04-25T09:04:06.594Z</time></trkpt><trkpt lat="40.7744137" lon="14.84822"><ele>623.2</ele><time>2026-04-25T09:04:07.593Z</time></trkpt><trkpt lat="40.7743354" lon="14.8481117"><ele>616.4</ele><time>2026-04-25T09:04:08.594Z</time></trkpt><trkpt lat="40.7742538" lon="14.8480184"><ele>609.6</ele><time>2026-04-25T09:04:09.594Z</time></trkpt><trkpt lat="40.7741726" lon="14.8479302"><ele>602.8</ele><time>2026-04-25T09:04:10.594Z</time></trkpt><trkpt lat="40.7740986" lon="14.8478328"><ele>596.0</ele><time>2026-04-25T09:04:11.593Z</time></trkpt><trkpt lat="40.7740418" lon="14.8477147"><ele>597.2</ele><time>2026-04-25T09:04:12.594Z</time></trkpt><trkpt lat="40.7739985" lon="14.8475824"><ele>598.4000000000001</ele><time>2026-04-25T09:04:13.594Z</time></trkpt><trkpt lat="40.7739705" lon="14.8474387"><ele>599.6</ele><time>2026-04-25T09:04:14.594Z</time></trkpt><trkpt lat="40.773954" lon="14.8472982"><ele>600.8000000000001</ele><time>2026-04-25T09:04:15.593Z</time></trkpt><trkpt lat="40.773947" lon="14.8471648"><ele>602.0</ele><time>2026-04-25T09:04:16.593Z</time></trkpt><trkpt lat="40.7739622" lon="14.8470337"><ele>602.0</ele><time>2026-04-25T09:04:17.594Z</time></trkpt><trkpt lat="40.7739938" lon="14.8469044"><ele>602.0</ele><time>2026-04-25T09:04:18.593Z</time></trkpt><trkpt lat="40.77403" lon="14.846774"><ele>602.0</ele><time>2026-04-25T09:04:19.594Z</time></trkpt><trkpt lat="40.7740507" lon="14.8466363"><ele>602.0</ele><time>2026-04-25T09:04:20.594Z</time></trkpt><trkpt lat="40.7740448" lon="14.8464972"><ele>602.0</ele><time>2026-04-25T09:04:21.594Z</time></trkpt><trkpt lat="40.7740189" lon="14.8463605"><ele>602.2</ele><time>2026-04-25T09:04:22.594Z</time></trkpt><trkpt lat="40.7739868" lon="14.8462226"><ele>602.4000000000001</ele><time>2026-04-25T09:04:23.594Z</time></trkpt><trkpt lat="40.7739586" lon="14.8460805"><ele>602.5999999999999</ele><time>2026-04-25T09:04:24.594Z</time></trkpt><trkpt lat="40.7739344" lon="14.8459359"><ele>602.8</ele><time>2026-04-25T09:04:25.594Z</time></trkpt><trkpt lat="40.7739117" lon="14.8457905"><ele>603.0</ele><time>2026-04-25T09:04:26.594Z</time></trkpt><trkpt lat="40.7738845" lon="14.8456453"><ele>605.75</ele><time>2026-04-25T09:04:27.594Z</time></trkpt><trkpt lat="40.7738458" lon="14.8455037"><ele>608.5</ele><time>2026-04-25T09:04:28.593Z</time></trkpt><trkpt lat="40.77379" lon="14.8453729"><ele>611.25</ele><time>2026-04-25T09:04:29.594Z</time></trkpt><trkpt lat="40.7737217" lon="14.8452501"><ele>614.0</ele><time>2026-04-25T09:04:30.594Z</time></trkpt><trkpt lat="40.7736501" lon="14.8451298"><ele>616.2</ele><time>2026-04-25T09:04:31.594Z</time></trkpt><trkpt lat="40.7735873" lon="14.8450066"><ele>618.4</ele><time>2026-04-25T09:04:32.594Z</time></trkpt><trkpt lat="40.7735349" lon="14.8448746"><ele>620.6</ele><time>2026-04-25T09:04:33.594Z</time></trkpt><trkpt lat="40.7734927" lon="14.8447385"><ele>622.8</ele><time>2026-04-25T09:04:34.594Z</time></trkpt><trkpt lat="40.7734604" lon="14.8445986"><ele>625.0</ele><time>2026-04-25T09:04:35.594Z</time></trkpt><trkpt lat="40.7734374" lon="14.8444569"><ele>618.6</ele><time>2026-04-25T09:04:36.594Z</time></trkpt><trkpt lat="40.7734252" lon="14.8443135"><ele>612.2</ele><time>2026-04-25T09:04:37.593Z</time></trkpt><trkpt lat="40.7734191" lon="14.8441689"><ele>605.8</ele><time>2026-04-25T09:04:38.594Z</time></trkpt><trkpt lat="40.7734172" lon="14.844025"><ele>599.4</ele><time>2026-04-25T09:04:39.593Z</time></trkpt><trkpt lat="40.7734066" lon="14.8438778"><ele>593.0</ele><time>2026-04-25T09:04:40.593Z</time></trkpt><trkpt lat="40.7733828" lon="14.8437323"><ele>593.0</ele><time>2026-04-25T09:04:41.593Z</time></trkpt><trkpt lat="40.7733581" lon="14.8435847"><ele>593.0</ele><time>2026-04-25T09:04:42.594Z</time></trkpt><trkpt lat="40.77333" lon="14.8434359"><ele>593.0</ele><time>2026-04-25T09:04:43.594Z</time></trkpt><trkpt lat="40.7733026" lon="14.8432824"><ele>593.0</ele><time>2026-04-25T09:04:44.594Z</time></trkpt><trkpt lat="40.7732759" lon="14.8431272"><ele>595.25</ele><time>2026-04-25T09:04:45.593Z</time></trkpt><trkpt lat="40.7732419" lon="14.84297"><ele>597.5</ele><time>2026-04-25T09:04:46.594Z</time></trkpt><trkpt lat="40.7732037" lon="14.8428084"><ele>599.75</ele><time>2026-04-25T09:04:47.593Z</time></trkpt><trkpt lat="40.7731641" lon="14.8426623"><ele>602.0</ele><time>2026-04-25T09:04:48.594Z</time></trkpt><trkpt lat="40.7731233" lon="14.8425272"><ele>602.2</ele><time>2026-04-25T09:04:49.594Z</time></trkpt><trkpt lat="40.7730825" lon="14.8424005"><ele>602.4000000000001</ele><time>2026-04-25T09:04:50.594Z</time></trkpt><trkpt lat="40.7730426" lon="14.8422795"><ele>602.5999999999999</ele><time>2026-04-25T09:04:51.594Z</time></trkpt><trkpt lat="40.7730126" lon="14.842155"><ele>602.8</ele><time>2026-04-25T09:04:52.594Z</time></trkpt><trkpt lat="40.7729932" lon="14.8420284"><ele>603.0</ele><time>2026-04-25T09:04:53.594Z</time></trkpt><trkpt lat="40.7729939" lon="14.8419092"><ele>603.0</ele><time>2026-04-25T09:04:54.594Z</time></trkpt><trkpt lat="40.7730189" lon="14.8418083"><ele>603.0</ele><time>2026-04-25T09:04:55.594Z</time></trkpt><trkpt lat="40.7730666" lon="14.8417398"><ele>603.0</ele><time>2026-04-25T09:04:56.593Z</time></trkpt><trkpt lat="40.7731351" lon="14.8417023"><ele>603.0</ele><time>2026-04-25T09:04:57.594Z</time></trkpt><trkpt lat="40.7732099" lon="14.8416852"><ele>603.0</ele><time>2026-04-25T09:04:58.594Z</time></trkpt><trkpt lat="40.7732869" lon="14.8416711"><ele>603.0</ele><time>2026-04-25T09:04:59.593Z</time></trkpt><trkpt lat="40.7733659" lon="14.8416599"><ele>602.4285714285714</ele><time>2026-04-25T09:05:00.594Z</time></trkpt><trkpt lat="40.773447" lon="14.8416499"><ele>601.8571428571428</ele><time>2026-04-25T09:05:01.593Z</time></trkpt><trkpt lat="40.7735209" lon="14.8416421"><ele>601.2857142857142</ele><time>2026-04-25T09:05:02.594Z</time></trkpt><trkpt lat="40.7735931" lon="14.8416382"><ele>600.7142857142858</ele><time>2026-04-25T09:05:03.594Z</time></trkpt><trkpt lat="40.7736632" lon="14.8416343"><ele>600.1428571428571</ele><time>2026-04-25T09:05:04.593Z</time></trkpt><trkpt lat="40.7737331" lon="14.8416325"><ele>599.5714285714286</ele><time>2026-04-25T09:05:05.593Z</time></trkpt><trkpt lat="40.7737964" lon="14.8416312"><ele>599.0</ele><time>2026-04-25T09:05:06.594Z</time></trkpt><trkpt lat="40.7739185" lon="14.8416418"><ele>599.75</ele><time>2026-04-25T09:05:08.593Z</time></trkpt><trkpt lat="40.7740303" lon="14.8416958"><ele>600.5</ele><time>2026-04-25T09:05:10.594Z</time></trkpt><trkpt lat="40.7741302" lon="14.8417912"><ele>601.25</ele><time>2026-04-25T09:05:12.594Z</time></trkpt><trkpt lat="40.7742043" lon="14.8419199"><ele>602.0</ele><time>2026-04-25T09:05:14.594Z</time></trkpt><trkpt lat="40.7742629" lon="14.8420583"><ele>602.0</ele><time>2026-04-25T09:05:16.594Z</time></trkpt><trkpt lat="40.7743144" lon="14.842186"><ele>602.0</ele><time>2026-04-25T09:05:18.593Z</time></trkpt><trkpt lat="40.7743652" lon="14.8423041"><ele>602.0</ele><time>2026-04-25T09:05:20.594Z</time></trkpt><trkpt lat="40.7744517" lon="14.842408"><ele>602.0</ele><time>2026-04-25T09:05:22.594Z</time></trkpt><trkpt lat="40.7745179" lon="14.8424394"><ele>602.0</ele><time>2026-04-25T09:05:23.594Z</time></trkpt><trkpt lat="40.7745884" lon="14.8424379"><ele>602.6666666666666</ele><time>2026-04-25T09:05:24.594Z</time></trkpt><trkpt lat="40.7746455" lon="14.8423981"><ele>603.3333333333333</ele><time>2026-04-25T09:05:25.593Z</time></trkpt><trkpt lat="40.7746876" lon="14.8423195"><ele>604.0</ele><time>2026-04-25T09:05:26.593Z</time></trkpt><trkpt lat="40.7747013" lon="14.8422131"><ele>604.6666666666666</ele><time>2026-04-25T09:05:27.594Z</time></trkpt><trkpt lat="40.7746908" lon="14.8420827"><ele>605.3333333333334</ele><time>2026-04-25T09:05:28.594Z</time></trkpt><trkpt lat="40.7746613" lon="14.8419378"><ele>606.0</ele><time>2026-04-25T09:05:29.594Z</time></trkpt><trkpt lat="40.7746248" lon="14.8417644"><ele>606.0</ele><time>2026-04-25T09:05:30.594Z</time></trkpt><trkpt lat="40.7746019" lon="14.8415695"><ele>606.0</ele><time>2026-04-25T09:05:31.594Z</time></trkpt><trkpt lat="40.7745865" lon="14.8413719"><ele>606.0</ele><time>2026-04-25T09:05:32.594Z</time></trkpt><trkpt lat="40.7745627" lon="14.841188"><ele>606.0</ele><time>2026-04-25T09:05:33.593Z</time></trkpt><trkpt lat="40.7745356" lon="14.841014"><ele>604.5</ele><time>2026-04-25T09:05:34.594Z</time></trkpt><trkpt lat="40.7745013" lon="14.8408538"><ele>603.0</ele><time>2026-04-25T09:05:35.593Z</time></trkpt><trkpt lat="40.7744614" lon="14.8406972"><ele>601.5</ele><time>2026-04-25T09:05:36.593Z</time></trkpt><trkpt lat="40.7744108" lon="14.8405475"><ele>600.0</ele><time>2026-04-25T09:05:37.594Z</time></trkpt><trkpt lat="40.7743502" lon="14.8403969"><ele>596.0</ele><time>2026-04-25T09:05:38.594Z</time></trkpt><trkpt lat="40.7742895" lon="14.8402305"><ele>592.0</ele><time>2026-04-25T09:05:39.594Z</time></trkpt><trkpt lat="40.774234" lon="14.8400559"><ele>588.0</ele><time>2026-04-25T09:05:40.594Z</time></trkpt><trkpt lat="40.7741912" lon="14.8398967"><ele>584.0</ele><time>2026-04-25T09:05:41.594Z</time></trkpt><trkpt lat="40.774154" lon="14.8397512"><ele>583.75</ele><time>2026-04-25T09:05:42.594Z</time></trkpt><trkpt lat="40.7741344" lon="14.8395941"><ele>583.5</ele><time>2026-04-25T09:05:43.594Z</time></trkpt><trkpt lat="40.7741333" lon="14.8394338"><ele>583.25</ele><time>2026-04-25T09:05:44.593Z</time></trkpt><trkpt lat="40.7741498" lon="14.8392745"><ele>583.0</ele><time>2026-04-25T09:05:45.594Z</time></trkpt><trkpt lat="40.7741837" lon="14.8391191"><ele>583.0</ele><time>2026-04-25T09:05:46.593Z</time></trkpt><trkpt lat="40.7742323" lon="14.8389717"><ele>583.0</ele><time>2026-04-25T09:05:47.593Z</time></trkpt><trkpt lat="40.7742903" lon="14.8388192"><ele>583.0</ele><time>2026-04-25T09:05:48.594Z</time></trkpt><trkpt lat="40.7743518" lon="14.8386577"><ele>583.0</ele><time>2026-04-25T09:05:49.594Z</time></trkpt><trkpt lat="40.7744171" lon="14.8384863"><ele>583.3333333333334</ele><time>2026-04-25T09:05:50.594Z</time></trkpt><trkpt lat="40.7744962" lon="14.8382995"><ele>583.6666666666666</ele><time>2026-04-25T09:05:51.594Z</time></trkpt><trkpt lat="40.7745846" lon="14.8380873"><ele>584.0</ele><time>2026-04-25T09:05:52.594Z</time></trkpt><trkpt lat="40.774672" lon="14.8378676"><ele>584.0</ele><time>2026-04-25T09:05:53.594Z</time></trkpt><trkpt lat="40.7747526" lon="14.8376629"><ele>584.0</ele><time>2026-04-25T09:05:54.594Z</time></trkpt><trkpt lat="40.7748301" lon="14.8374616"><ele>584.0</ele><time>2026-04-25T09:05:55.594Z</time></trkpt><trkpt lat="40.7748988" lon="14.8372651"><ele>581.75</ele><time>2026-04-25T09:05:56.594Z</time></trkpt><trkpt lat="40.7749562" lon="14.8370735"><ele>579.5</ele><time>2026-04-25T09:05:57.594Z</time></trkpt><trkpt lat="40.7750009" lon="14.836887"><ele>577.25</ele><time>2026-04-25T09:05:58.593Z</time></trkpt><trkpt lat="40.7750383" lon="14.836707"><ele>575.0</ele><time>2026-04-25T09:05:59.593Z</time></trkpt><trkpt lat="40.7750721" lon="14.8365336"><ele>574.25</ele><time>2026-04-25T09:06:00.594Z</time></trkpt><trkpt lat="40.7751047" lon="14.8363646"><ele>573.5</ele><time>2026-04-25T09:06:01.594Z</time></trkpt><trkpt lat="40.7751368" lon="14.836196"><ele>572.75</ele><time>2026-04-25T09:06:02.594Z</time></trkpt><trkpt lat="40.7751692" lon="14.8360262"><ele>572.0</ele><time>2026-04-25T09:06:03.594Z</time></trkpt><trkpt lat="40.7752028" lon="14.8358492"><ele>572.0</ele><time>2026-04-25T09:06:04.594Z</time></trkpt><trkpt lat="40.7752409" lon="14.8356622"><ele>572.0</ele><time>2026-04-25T09:06:05.594Z</time></trkpt><trkpt lat="40.7752783" lon="14.8354712"><ele>572.0</ele><time>2026-04-25T09:06:06.594Z</time></trkpt><trkpt lat="40.7753129" lon="14.8352964"><ele>572.0</ele><time>2026-04-25T09:06:07.594Z</time></trkpt><trkpt lat="40.7753463" lon="14.8351253"><ele>570.6</ele><time>2026-04-25T09:06:08.593Z</time></trkpt><trkpt lat="40.7753777" lon="14.8349753"><ele>569.2</ele><time>2026-04-25T09:06:09.594Z</time></trkpt><trkpt lat="40.775412" lon="14.8348413"><ele>567.8</ele><time>2026-04-25T09:06:10.594Z</time></trkpt><trkpt lat="40.7754635" lon="14.8347267"><ele>566.4</ele><time>2026-04-25T09:06:11.594Z</time></trkpt><trkpt lat="40.7755121" lon="14.8346541"><ele>565.0</ele><time>2026-04-25T09:06:12.594Z</time></trkpt><trkpt lat="40.77558" lon="14.8346023"><ele>565.0</ele><time>2026-04-25T09:06:14.594Z</time></trkpt><trkpt lat="40.7756536" lon="14.8346405"><ele>565.0</ele><time>2026-04-25T09:06:17.593Z</time></trkpt><trkpt lat="40.7756827" lon="14.8347513"><ele>565.0</ele><time>2026-04-25T09:06:20.593Z</time></trkpt><trkpt lat="40.7757578" lon="14.8348397"><ele>565.0</ele><time>2026-04-25T09:06:22.593Z</time></trkpt><trkpt lat="40.7758573" lon="14.8349103"><ele>565.0</ele><time>2026-04-25T09:06:24.593Z</time></trkpt><trkpt lat="40.7759187" lon="14.8349559"><ele>565.0</ele><time>2026-04-25T09:06:25.593Z</time></trkpt><trkpt lat="40.7759903" lon="14.8350128"><ele>565.0</ele><time>2026-04-25T09:06:26.594Z</time></trkpt><trkpt lat="40.7760738" lon="14.8350644"><ele>565.0</ele><time>2026-04-25T09:06:27.594Z</time></trkpt><trkpt lat="40.7761627" lon="14.835106"><ele>565.0</ele><time>2026-04-25T09:06:28.594Z</time></trkpt><trkpt lat="40.7762641" lon="14.8351225"><ele>565.0</ele><time>2026-04-25T09:06:29.593Z</time></trkpt><trkpt lat="40.7763633" lon="14.8351527"><ele>567.8</ele><time>2026-04-25T09:06:30.593Z</time></trkpt><trkpt lat="40.7764573" lon="14.8352134"><ele>570.6</ele><time>2026-04-25T09:06:31.593Z</time></trkpt><trkpt lat="40.7765529" lon="14.8352752"><ele>573.4</ele><time>2026-04-25T09:06:32.594Z</time></trkpt><trkpt lat="40.7766431" lon="14.8353323"><ele>576.2</ele><time>2026-04-25T09:06:33.594Z</time></trkpt><trkpt lat="40.7767218" lon="14.8353813"><ele>579.0</ele><time>2026-04-25T09:06:34.593Z</time></trkpt><trkpt lat="40.7767906" lon="14.835426"><ele>579.0</ele><time>2026-04-25T09:06:35.594Z</time></trkpt><trkpt lat="40.776849" lon="14.8354779"><ele>579.0</ele><time>2026-04-25T09:06:36.594Z</time></trkpt><trkpt lat="40.776896" lon="14.8355494"><ele>579.0</ele><time>2026-04-25T09:06:37.594Z</time></trkpt><trkpt lat="40.7769277" lon="14.8356437"><ele>579.0</ele><time>2026-04-25T09:06:38.593Z</time></trkpt><trkpt lat="40.776932" lon="14.8357513"><ele>579.0</ele><time>2026-04-25T09:06:39.593Z</time></trkpt><trkpt lat="40.7769062" lon="14.8358555"><ele>579.0</ele><time>2026-04-25T09:06:40.594Z</time></trkpt><trkpt lat="40.7768714" lon="14.8359634"><ele>580.6</ele><time>2026-04-25T09:06:41.593Z</time></trkpt><trkpt lat="40.776857" lon="14.8360861"><ele>582.2</ele><time>2026-04-25T09:06:42.593Z</time></trkpt><trkpt lat="40.7768558" lon="14.8362202"><ele>583.8000000000001</ele><time>2026-04-25T09:06:43.593Z</time></trkpt><trkpt lat="40.7768729" lon="14.836354"><ele>585.4</ele><time>2026-04-25T09:06:44.593Z</time></trkpt><trkpt lat="40.7769093" lon="14.8364858"><ele>587.0</ele><time>2026-04-25T09:06:45.594Z</time></trkpt><trkpt lat="40.7769597" lon="14.8365952"><ele>587.0</ele><time>2026-04-25T09:06:46.594Z</time></trkpt><trkpt lat="40.7770147" lon="14.8366822"><ele>587.0</ele><time>2026-04-25T09:06:47.594Z</time></trkpt><trkpt lat="40.7770666" lon="14.8367709"><ele>587.0</ele><time>2026-04-25T09:06:48.594Z</time></trkpt><trkpt lat="40.7770922" lon="14.8368624"><ele>587.0</ele><time>2026-04-25T09:06:49.593Z</time></trkpt><trkpt lat="40.7770931" lon="14.8369499"><ele>587.0</ele><time>2026-04-25T09:06:50.593Z</time></trkpt><trkpt lat="40.777069" lon="14.8370342"><ele>587.0</ele><time>2026-04-25T09:06:51.594Z</time></trkpt><trkpt lat="40.7770255" lon="14.8371164"><ele>588.0</ele><time>2026-04-25T09:06:52.594Z</time></trkpt><trkpt lat="40.7769685" lon="14.8372006"><ele>589.0</ele><time>2026-04-25T09:06:53.593Z</time></trkpt><trkpt lat="40.7769032" lon="14.837287"><ele>590.0</ele><time>2026-04-25T09:06:54.594Z</time></trkpt><trkpt lat="40.7768397" lon="14.8373764"><ele>591.0</ele><time>2026-04-25T09:06:55.594Z</time></trkpt><trkpt lat="40.7767791" lon="14.8374805"><ele>592.0</ele><time>2026-04-25T09:06:56.594Z</time></trkpt><trkpt lat="40.7767303" lon="14.8375992"><ele>593.4</ele><time>2026-04-25T09:06:57.593Z</time></trkpt><trkpt lat="40.7766928" lon="14.8377288"><ele>594.8000000000001</ele><time>2026-04-25T09:06:58.594Z</time></trkpt><trkpt lat="40.7766631" lon="14.8378514"><ele>596.2</ele><time>2026-04-25T09:06:59.594Z</time></trkpt><trkpt lat="40.7766385" lon="14.8379825"><ele>597.6</ele><time>2026-04-25T09:07:00.594Z</time></trkpt><trkpt lat="40.7766316" lon="14.8381236"><ele>599.0</ele><time>2026-04-25T09:07:01.594Z</time></trkpt><trkpt lat="40.7766379" lon="14.8382748"><ele>599.0</ele><time>2026-04-25T09:07:02.593Z</time></trkpt><trkpt lat="40.7766584" lon="14.8384522"><ele>599.0</ele><time>2026-04-25T09:07:03.593Z</time></trkpt><trkpt lat="40.7766702" lon="14.8386394"><ele>599.0</ele><time>2026-04-25T09:07:04.593Z</time></trkpt><trkpt lat="40.7766714" lon="14.8388388"><ele>599.0</ele><time>2026-04-25T09:07:05.594Z</time></trkpt><trkpt lat="40.7766638" lon="14.839023"><ele>601.0</ele><time>2026-04-25T09:07:06.593Z</time></trkpt><trkpt lat="40.7766419" lon="14.8391952"><ele>603.0</ele><time>2026-04-25T09:07:07.593Z</time></trkpt><trkpt lat="40.7766148" lon="14.8393634"><ele>605.0</ele><time>2026-04-25T09:07:08.594Z</time></trkpt><trkpt lat="40.7765718" lon="14.8395156"><ele>607.0</ele><time>2026-04-25T09:07:09.593Z</time></trkpt><trkpt lat="40.7765279" lon="14.8396447"><ele>608.2</ele><time>2026-04-25T09:07:10.593Z</time></trkpt><trkpt lat="40.7765087" lon="14.8397605"><ele>609.4000000000001</ele><time>2026-04-25T09:07:11.594Z</time></trkpt><trkpt lat="40.7765048" lon="14.8398871"><ele>610.5999999999999</ele><time>2026-04-25T09:07:12.594Z</time></trkpt><trkpt lat="40.7765385" lon="14.840008"><ele>611.8</ele><time>2026-04-25T09:07:13.594Z</time></trkpt><trkpt lat="40.7765473" lon="14.8401455"><ele>613.0</ele><time>2026-04-25T09:07:14.594Z</time></trkpt><trkpt lat="40.7765495" lon="14.8402776"><ele>614.1428571428571</ele><time>2026-04-25T09:07:15.593Z</time></trkpt><trkpt lat="40.7765551" lon="14.8403938"><ele>615.2857142857142</ele><time>2026-04-25T09:07:16.594Z</time></trkpt><trkpt lat="40.7765655" lon="14.8404924"><ele>616.4285714285713</ele><time>2026-04-25T09:07:17.593Z</time></trkpt><trkpt lat="40.7765916" lon="14.8405735"><ele>617.5714285714286</ele><time>2026-04-25T09:07:18.593Z</time></trkpt><trkpt lat="40.776638" lon="14.8406413"><ele>618.7142857142857</ele><time>2026-04-25T09:07:19.593Z</time></trkpt><trkpt lat="40.776696" lon="14.8406915"><ele>619.8571428571428</ele><time>2026-04-25T09:07:20.593Z</time></trkpt><trkpt lat="40.7767518" lon="14.8407519"><ele>621.0</ele><time>2026-04-25T09:07:21.594Z</time></trkpt><trkpt lat="40.7767893" lon="14.8408273"><ele>621.0</ele><time>2026-04-25T09:07:22.594Z</time></trkpt><trkpt lat="40.7768154" lon="14.8409175"><ele>621.0</ele><time>2026-04-25T09:07:23.593Z</time></trkpt><trkpt lat="40.7768232" lon="14.8410214"><ele>621.0</ele><time>2026-04-25T09:07:24.594Z</time></trkpt><trkpt lat="40.7768229" lon="14.8411387"><ele>621.0</ele><time>2026-04-25T09:07:25.594Z</time></trkpt><trkpt lat="40.7768338" lon="14.8412612"><ele>621.0</ele><time>2026-04-25T09:07:26.593Z</time></trkpt><trkpt lat="40.7768529" lon="14.8413809"><ele>621.0</ele><time>2026-04-25T09:07:27.594Z</time></trkpt><trkpt lat="40.7768726" lon="14.8415026"><ele>623.8</ele><time>2026-04-25T09:07:28.594Z</time></trkpt><trkpt lat="40.7768815" lon="14.841625"><ele>626.6</ele><time>2026-04-25T09:07:29.594Z</time></trkpt><trkpt lat="40.7768753" lon="14.8417527"><ele>629.4</ele><time>2026-04-25T09:07:30.593Z</time></trkpt><trkpt lat="40.7768828" lon="14.841878"><ele>632.2</ele><time>2026-04-25T09:07:31.594Z</time></trkpt><trkpt lat="40.7769091" lon="14.841992"><ele>635.0</ele><time>2026-04-25T09:07:32.594Z</time></trkpt><trkpt lat="40.7769435" lon="14.8420948"><ele>636.0</ele><time>2026-04-25T09:07:33.594Z</time></trkpt><trkpt lat="40.7769831" lon="14.8421812"><ele>637.0</ele><time>2026-04-25T09:07:34.594Z</time></trkpt><trkpt lat="40.7770242" lon="14.8422591"><ele>638.0</ele><time>2026-04-25T09:07:35.593Z</time></trkpt><trkpt lat="40.7770658" lon="14.8423317"><ele>639.0</ele><time>2026-04-25T09:07:36.594Z</time></trkpt><trkpt lat="40.7771021" lon="14.8424042"><ele>640.0</ele><time>2026-04-25T09:07:37.594Z</time></trkpt><trkpt lat="40.7771344" lon="14.8425521"><ele>641.0</ele><time>2026-04-25T09:07:39.594Z</time></trkpt><trkpt lat="40.7770682" lon="14.8426656"><ele>640.8571428571429</ele><time>2026-04-25T09:07:41.594Z</time></trkpt><trkpt lat="40.7770082" lon="14.8427018"><ele>640.7142857142857</ele><time>2026-04-25T09:07:42.594Z</time></trkpt><trkpt lat="40.7769426" lon="14.842749"><ele>640.5714285714286</ele><time>2026-04-25T09:07:43.594Z</time></trkpt><trkpt lat="40.7768917" lon="14.8428205"><ele>640.4285714285714</ele><time>2026-04-25T09:07:44.594Z</time></trkpt><trkpt lat="40.776851" lon="14.8429027"><ele>640.2857142857143</ele><time>2026-04-25T09:07:45.594Z</time></trkpt><trkpt lat="40.7768254" lon="14.8429876"><ele>640.1428571428571</ele><time>2026-04-25T09:07:46.594Z</time></trkpt><trkpt lat="40.776808" lon="14.8430701"><ele>640.0</ele><time>2026-04-25T09:07:47.593Z</time></trkpt><trkpt lat="40.7768928" lon="14.8431882"><ele>640.8571428571429</ele><time>2026-04-25T09:07:49.593Z</time></trkpt><trkpt lat="40.7769352" lon="14.8432571"><ele>641.7142857142858</ele><time>2026-04-25T09:07:50.594Z</time></trkpt><trkpt lat="40.7769816" lon="14.8433284"><ele>642.5714285714287</ele><time>2026-04-25T09:07:51.594Z</time></trkpt><trkpt lat="40.7770285" lon="14.8433995"><ele>643.4285714285714</ele><time>2026-04-25T09:07:52.593Z</time></trkpt><trkpt lat="40.7770783" lon="14.8434675"><ele>644.2857142857143</ele><time>2026-04-25T09:07:53.594Z</time></trkpt><trkpt lat="40.777131" lon="14.8435373"><ele>645.1428571428572</ele><time>2026-04-25T09:07:54.594Z</time></trkpt><trkpt lat="40.7771908" lon="14.8436039"><ele>646.0</ele><time>2026-04-25T09:07:55.594Z</time></trkpt><trkpt lat="40.7772549" lon="14.8436649"><ele>647.6666666666667</ele><time>2026-04-25T09:07:56.594Z</time></trkpt><trkpt lat="40.7773203" lon="14.843724"><ele>649.3333333333334</ele><time>2026-04-25T09:07:57.594Z</time></trkpt><trkpt lat="40.7773884" lon="14.8437811"><ele>651.0</ele><time>2026-04-25T09:07:58.594Z</time></trkpt><trkpt lat="40.7774562" lon="14.8438359"><ele>652.6666666666666</ele><time>2026-04-25T09:07:59.594Z</time></trkpt><trkpt lat="40.777527" lon="14.8438884"><ele>654.3333333333333</ele><time>2026-04-25T09:08:00.593Z</time></trkpt><trkpt lat="40.7776025" lon="14.8439331"><ele>656.0</ele><time>2026-04-25T09:08:01.594Z</time></trkpt><trkpt lat="40.7776822" lon="14.8439705"><ele>657.5</ele><time>2026-04-25T09:08:02.594Z</time></trkpt><trkpt lat="40.7777595" lon="14.8440142"><ele>659.0</ele><time>2026-04-25T09:08:03.594Z</time></trkpt><trkpt lat="40.7778371" lon="14.8440629"><ele>660.5</ele><time>2026-04-25T09:08:04.593Z</time></trkpt><trkpt lat="40.7779184" lon="14.8441095"><ele>662.0</ele><time>2026-04-25T09:08:05.593Z</time></trkpt><trkpt lat="40.7779905" lon="14.8441602"><ele>663.5</ele><time>2026-04-25T09:08:06.593Z</time></trkpt><trkpt lat="40.778052" lon="14.8442093"><ele>665.0</ele><time>2026-04-25T09:08:07.593Z</time></trkpt><trkpt lat="40.7780766" lon="14.8443602"><ele>666.1666666666666</ele><time>2026-04-25T09:08:09.593Z</time></trkpt><trkpt lat="40.7780594" lon="14.8444477"><ele>667.3333333333333</ele><time>2026-04-25T09:08:10.594Z</time></trkpt><trkpt lat="40.7780461" lon="14.8445462"><ele>668.5</ele><time>2026-04-25T09:08:11.594Z</time></trkpt><trkpt lat="40.7780385" lon="14.844652"><ele>669.6666666666666</ele><time>2026-04-25T09:08:12.594Z</time></trkpt><trkpt lat="40.7780399" lon="14.8447633"><ele>670.8333333333334</ele><time>2026-04-25T09:08:13.594Z</time></trkpt><trkpt lat="40.7780497" lon="14.844877"><ele>672.0</ele><time>2026-04-25T09:08:14.594Z</time></trkpt><trkpt lat="40.778065" lon="14.8449868"><ele>672.0</ele><time>2026-04-25T09:08:15.594Z</time></trkpt><trkpt lat="40.7780879" lon="14.8450879"><ele>672.0</ele><time>2026-04-25T09:08:16.594Z</time></trkpt><trkpt lat="40.7781247" lon="14.8451862"><ele>672.0</ele><time>2026-04-25T09:08:17.594Z</time></trkpt><trkpt lat="40.778162" lon="14.845283"><ele>672.0</ele><time>2026-04-25T09:08:18.594Z</time></trkpt><trkpt lat="40.778199" lon="14.8453775"><ele>672.0</ele><time>2026-04-25T09:08:19.594Z</time></trkpt><trkpt lat="40.7782327" lon="14.845472"><ele>672.0</ele><time>2026-04-25T09:08:20.594Z</time></trkpt><trkpt lat="40.7782633" lon="14.8455682"><ele>673.3333333333334</ele><time>2026-04-25T09:08:21.593Z</time></trkpt><trkpt lat="40.7782899" lon="14.8456622"><ele>674.6666666666666</ele><time>2026-04-25T09:08:22.594Z</time></trkpt><trkpt lat="40.7783084" lon="14.8457594"><ele>676.0</ele><time>2026-04-25T09:08:23.594Z</time></trkpt><trkpt lat="40.778317" lon="14.8458603"><ele>677.3333333333333</ele><time>2026-04-25T09:08:24.594Z</time></trkpt><trkpt lat="40.7783291" lon="14.8459668"><ele>678.6666666666666</ele><time>2026-04-25T09:08:25.594Z</time></trkpt><trkpt lat="40.7783504" lon="14.8460742"><ele>680.0</ele><time>2026-04-25T09:08:26.593Z</time></trkpt><trkpt lat="40.7783651" lon="14.8461872"><ele>681.0</ele><time>2026-04-25T09:08:27.594Z</time></trkpt><trkpt lat="40.7783691" lon="14.8463034"><ele>682.0</ele><time>2026-04-25T09:08:28.594Z</time></trkpt><trkpt lat="40.7783636" lon="14.8464258"><ele>683.0</ele><time>2026-04-25T09:08:29.593Z</time></trkpt><trkpt lat="40.7783662" lon="14.8465487"><ele>684.0</ele><time>2026-04-25T09:08:30.594Z</time></trkpt><trkpt lat="40.7783906" lon="14.8466703"><ele>685.0</ele><time>2026-04-25T09:08:31.594Z</time></trkpt><trkpt lat="40.7784177" lon="14.8467906"><ele>685.1666666666667</ele><time>2026-04-25T09:08:32.594Z</time></trkpt><trkpt lat="40.7784503" lon="14.8469032"><ele>685.3333333333334</ele><time>2026-04-25T09:08:33.594Z</time></trkpt><trkpt lat="40.7784862" lon="14.8470026"><ele>685.5</ele><time>2026-04-25T09:08:34.594Z</time></trkpt><trkpt lat="40.7785149" lon="14.8471053"><ele>685.6666666666666</ele><time>2026-04-25T09:08:35.594Z</time></trkpt><trkpt lat="40.7785337" lon="14.8472158"><ele>685.8333333333333</ele><time>2026-04-25T09:08:36.594Z</time></trkpt><trkpt lat="40.7785557" lon="14.8473319"><ele>686.0</ele><time>2026-04-25T09:08:37.594Z</time></trkpt><trkpt lat="40.7785891" lon="14.8474458"><ele>688.8</ele><time>2026-04-25T09:08:38.594Z</time></trkpt><trkpt lat="40.7786315" lon="14.8475594"><ele>691.5999999999999</ele><time>2026-04-25T09:08:39.594Z</time></trkpt><trkpt lat="40.7786815" lon="14.8476706"><ele>694.4</ele><time>2026-04-25T09:08:40.593Z</time></trkpt><trkpt lat="40.7787387" lon="14.8477819"><ele>697.2</ele><time>2026-04-25T09:08:41.593Z</time></trkpt><trkpt lat="40.7787946" lon="14.847897"><ele>700.0</ele><time>2026-04-25T09:08:42.594Z</time></trkpt><trkpt lat="40.7788406" lon="14.8480198"><ele>700.0</ele><time>2026-04-25T09:08:43.593Z</time></trkpt><trkpt lat="40.7788742" lon="14.8481499"><ele>700.0</ele><time>2026-04-25T09:08:44.594Z</time></trkpt><trkpt lat="40.778918" lon="14.8482817"><ele>700.0</ele><time>2026-04-25T09:08:45.593Z</time></trkpt><trkpt lat="40.7789723" lon="14.848423"><ele>700.0</ele><time>2026-04-25T09:08:46.593Z</time></trkpt><trkpt lat="40.7790312" lon="14.8485865"><ele>700.8</ele><time>2026-04-25T09:08:47.593Z</time></trkpt><trkpt lat="40.7790794" lon="14.8487409"><ele>701.6</ele><time>2026-04-25T09:08:48.594Z</time></trkpt><trkpt lat="40.7791204" lon="14.8488682"><ele>702.4000000000001</ele><time>2026-04-25T09:08:49.593Z</time></trkpt><trkpt lat="40.7791688" lon="14.8489665"><ele>703.2</ele><time>2026-04-25T09:08:50.593Z</time></trkpt><trkpt lat="40.7792255" lon="14.8490488"><ele>704.0</ele><time>2026-04-25T09:08:51.593Z</time></trkpt><trkpt lat="40.7792906" lon="14.8491317"><ele>705.6666666666666</ele><time>2026-04-25T09:08:52.593Z</time></trkpt><trkpt lat="40.779356" lon="14.8492133"><ele>707.3333333333333</ele><time>2026-04-25T09:08:53.593Z</time></trkpt><trkpt lat="40.7794215" lon="14.8492995"><ele>709.0</ele><time>2026-04-25T09:08:54.593Z</time></trkpt><trkpt lat="40.7794826" lon="14.8493865"><ele>710.6666666666666</ele><time>2026-04-25T09:08:55.593Z</time></trkpt><trkpt lat="40.7795442" lon="14.8494604"><ele>712.3333333333334</ele><time>2026-04-25T09:08:56.593Z</time></trkpt><trkpt lat="40.7796048" lon="14.8495241"><ele>714.0</ele><time>2026-04-25T09:08:57.593Z</time></trkpt><trkpt lat="40.779654" lon="14.8495909"><ele>714.2</ele><time>2026-04-25T09:08:58.593Z</time></trkpt><trkpt lat="40.779704" lon="14.8496671"><ele>714.4000000000001</ele><time>2026-04-25T09:08:59.593Z</time></trkpt><trkpt lat="40.7797442" lon="14.8497412"><ele>714.6</ele><time>2026-04-25T09:09:00.593Z</time></trkpt><trkpt lat="40.7797714" lon="14.8498656"><ele>714.8</ele><time>2026-04-25T09:09:02.594Z</time></trkpt><trkpt lat="40.7797245" lon="14.8499839"><ele>715.0</ele><time>2026-04-25T09:09:04.594Z</time></trkpt><trkpt lat="40.7796715" lon="14.8501139"><ele>716.0</ele><time>2026-04-25T09:09:06.594Z</time></trkpt><trkpt lat="40.7796434" lon="14.8502641"><ele>717.0</ele><time>2026-04-25T09:09:08.594Z</time></trkpt><trkpt lat="40.7796162" lon="14.850406"><ele>718.0</ele><time>2026-04-25T09:09:10.594Z</time></trkpt><trkpt lat="40.7795903" lon="14.8504834"><ele>719.0</ele><time>2026-04-25T09:09:12.593Z</time></trkpt><trkpt lat="40.7795764" lon="14.8505687"><ele>720.0</ele><time>2026-04-25T09:09:17.593Z</time></trkpt><trkpt lat="40.7795612" lon="14.8507119"><ele>720.0</ele><time>2026-04-25T09:09:19.594Z</time></trkpt><trkpt lat="40.7795656" lon="14.8508256"><ele>720.0</ele><time>2026-04-25T09:09:20.594Z</time></trkpt><trkpt lat="40.7795565" lon="14.8509495"><ele>720.0</ele><time>2026-04-25T09:09:21.594Z</time></trkpt><trkpt lat="40.7795459" lon="14.851079"><ele>720.0</ele><time>2026-04-25T09:09:22.594Z</time></trkpt><trkpt lat="40.7795493" lon="14.8512057"><ele>720.0</ele><time>2026-04-25T09:09:23.593Z</time></trkpt><trkpt lat="40.7795436" lon="14.8513263"><ele>721.0</ele><time>2026-04-25T09:09:24.594Z</time></trkpt><trkpt lat="40.7795354" lon="14.8514268"><ele>722.0</ele><time>2026-04-25T09:09:25.594Z</time></trkpt><trkpt lat="40.7795235" lon="14.8515266"><ele>723.0</ele><time>2026-04-25T09:09:26.594Z</time></trkpt><trkpt lat="40.7795133" lon="14.8516192"><ele>724.0</ele><time>2026-04-25T09:09:27.594Z</time></trkpt><trkpt lat="40.7795096" lon="14.8517022"><ele>725.0</ele><time>2026-04-25T09:09:28.593Z</time></trkpt><trkpt lat="40.7795246" lon="14.8518422"><ele>726.0</ele><time>2026-04-25T09:09:30.593Z</time></trkpt><trkpt lat="40.7795708" lon="14.8519541"><ele>726.0</ele><time>2026-04-25T09:09:32.594Z</time></trkpt><trkpt lat="40.7796444" lon="14.8520633"><ele>726.0</ele><time>2026-04-25T09:09:34.594Z</time></trkpt><trkpt lat="40.7797458" lon="14.8521453"><ele>726.0</ele><time>2026-04-25T09:09:36.593Z</time></trkpt><trkpt lat="40.7798533" lon="14.8521977"><ele>726.0</ele><time>2026-04-25T09:09:38.593Z</time></trkpt><trkpt lat="40.7799295" lon="14.8522656"><ele>726.0</ele><time>2026-04-25T09:09:40.594Z</time></trkpt><trkpt lat="40.7800085" lon="14.8523157"><ele>726.0</ele><time>2026-04-25T09:09:42.594Z</time></trkpt><trkpt lat="40.7800984" lon="14.8523569"><ele>726.0</ele><time>2026-04-25T09:09:44.594Z</time></trkpt><trkpt lat="40.7801853" lon="14.8523913"><ele>726.0</ele><time>2026-04-25T09:09:46.594Z</time></trkpt><trkpt lat="40.7802845" lon="14.852397"><ele>726.0</ele><time>2026-04-25T09:09:48.593Z</time></trkpt><trkpt lat="40.7803846" lon="14.8523772"><ele>726.0</ele><time>2026-04-25T09:09:50.594Z</time></trkpt><trkpt lat="40.7804701" lon="14.852379"><ele>727.8</ele><time>2026-04-25T09:09:52.593Z</time></trkpt><trkpt lat="40.7805614" lon="14.8524043"><ele>729.5999999999999</ele><time>2026-04-25T09:09:54.594Z</time></trkpt><trkpt lat="40.780636" lon="14.8524263"><ele>731.4</ele><time>2026-04-25T09:09:56.593Z</time></trkpt><trkpt lat="40.780726" lon="14.8524627"><ele>733.2</ele><time>2026-04-25T09:09:58.593Z</time></trkpt><trkpt lat="40.7808143" lon="14.8525006"><ele>735.0</ele><time>2026-04-25T09:10:00.593Z</time></trkpt><trkpt lat="40.7809129" lon="14.8525361"><ele>735.8571428571429</ele><time>2026-04-25T09:10:02.594Z</time></trkpt><trkpt lat="40.7810223" lon="14.8525793"><ele>736.7142857142858</ele><time>2026-04-25T09:10:04.593Z</time></trkpt><trkpt lat="40.7810843" lon="14.8526196"><ele>737.5714285714286</ele><time>2026-04-25T09:10:05.594Z</time></trkpt><trkpt lat="40.781141" lon="14.8526665"><ele>738.4285714285714</ele><time>2026-04-25T09:10:06.594Z</time></trkpt><trkpt lat="40.7811924" lon="14.8527282"><ele>739.2857142857143</ele><time>2026-04-25T09:10:07.594Z</time></trkpt><trkpt lat="40.7812386" lon="14.8527898"><ele>740.1428571428571</ele><time>2026-04-25T09:10:08.593Z</time></trkpt><trkpt lat="40.7812889" lon="14.8528412"><ele>741.0</ele><time>2026-04-25T09:10:09.594Z</time></trkpt><trkpt lat="40.7813913" lon="14.8529181"><ele>741.0</ele><time>2026-04-25T09:10:11.594Z</time></trkpt><trkpt lat="40.7814586" lon="14.8529482"><ele>741.0</ele><time>2026-04-25T09:10:12.593Z</time></trkpt><trkpt lat="40.7815334" lon="14.8529779"><ele>741.0</ele><time>2026-04-25T09:10:13.593Z</time></trkpt><trkpt lat="40.7816215" lon="14.8530166"><ele>741.0</ele><time>2026-04-25T09:10:14.594Z</time></trkpt><trkpt lat="40.781718" lon="14.8530575"><ele>741.0</ele><time>2026-04-25T09:10:15.594Z</time></trkpt><trkpt lat="40.7818079" lon="14.8530999"><ele>741.0</ele><time>2026-04-25T09:10:16.594Z</time></trkpt><trkpt lat="40.781879" lon="14.85314"><ele>742.5</ele><time>2026-04-25T09:10:17.594Z</time></trkpt><trkpt lat="40.7819356" lon="14.8531796"><ele>744.0</ele><time>2026-04-25T09:10:18.594Z</time></trkpt><trkpt lat="40.782032" lon="14.8532259"><ele>745.5</ele><time>2026-04-25T09:10:20.594Z</time></trkpt><trkpt lat="40.7820957" lon="14.853245"><ele>747.0</ele><time>2026-04-25T09:10:28.594Z</time></trkpt><trkpt lat="40.7821632" lon="14.8532706"><ele>748.5</ele><time>2026-04-25T09:10:30.593Z</time></trkpt><trkpt lat="40.7822595" lon="14.8532812"><ele>750.0</ele><time>2026-04-25T09:10:32.594Z</time></trkpt><trkpt lat="40.7823381" lon="14.8533025"><ele>750.0</ele><time>2026-04-25T09:10:34.594Z</time></trkpt><trkpt lat="40.782408" lon="14.8533142"><ele>750.0</ele><time>2026-04-25T09:10:37.593Z</time></trkpt><trkpt lat="40.7824755" lon="14.8533081"><ele>750.0</ele><time>2026-04-25T09:10:39.594Z</time></trkpt><trkpt lat="40.7825364" lon="14.8532855"><ele>750.0</ele><time>2026-04-25T09:10:41.594Z</time></trkpt><trkpt lat="40.7826058" lon="14.8532473"><ele>750.0</ele><time>2026-04-25T09:10:43.593Z</time></trkpt><trkpt lat="40.7826697" lon="14.8532291"><ele>750.0</ele><time>2026-04-25T09:10:45.594Z</time></trkpt><trkpt lat="40.7827536" lon="14.8532473"><ele>750.0</ele><time>2026-04-25T09:10:48.593Z</time></trkpt><trkpt lat="40.7828152" lon="14.8533073"><ele>752.8</ele><time>2026-04-25T09:10:50.594Z</time></trkpt><trkpt lat="40.7828758" lon="14.853409"><ele>755.6</ele><time>2026-04-25T09:10:53.593Z</time></trkpt><trkpt lat="40.7829338" lon="14.8534815"><ele>758.4000000000001</ele><time>2026-04-25T09:10:55.594Z</time></trkpt><trkpt lat="40.7830314" lon="14.8535461"><ele>761.2</ele><time>2026-04-25T09:10:57.594Z</time></trkpt><trkpt lat="40.7831087" lon="14.8535829"><ele>764.0</ele><time>2026-04-25T09:10:59.594Z</time></trkpt><trkpt lat="40.7831863" lon="14.8536202"><ele>764.0</ele><time>2026-04-25T09:11:01.594Z</time></trkpt><trkpt lat="40.7832651" lon="14.853667"><ele>764.0</ele><time>2026-04-25T09:11:03.594Z</time></trkpt><trkpt lat="40.7833488" lon="14.8537286"><ele>764.0</ele><time>2026-04-25T09:11:05.594Z</time></trkpt><trkpt lat="40.7834302" lon="14.8537656"><ele>764.0</ele><time>2026-04-25T09:11:07.593Z</time></trkpt><trkpt lat="40.7835084" lon="14.8538159"><ele>764.0</ele><time>2026-04-25T09:11:09.593Z</time></trkpt><trkpt lat="40.7835769" lon="14.8538924"><ele>764.0</ele><time>2026-04-25T09:11:11.593Z</time></trkpt><trkpt lat="40.7836326" lon="14.853965"><ele>765.8333333333333</ele><time>2026-04-25T09:11:13.594Z</time></trkpt><trkpt lat="40.7836777" lon="14.8540453"><ele>767.6666666666666</ele><time>2026-04-25T09:11:31.593Z</time></trkpt><trkpt lat="40.7837354" lon="14.854082"><ele>769.5</ele><time>2026-04-25T09:11:33.594Z</time></trkpt><trkpt lat="40.7838215" lon="14.854109"><ele>771.3333333333333</ele><time>2026-04-25T09:11:35.594Z</time></trkpt><trkpt lat="40.7839096" lon="14.8541256"><ele>773.1666666666666</ele><time>2026-04-25T09:11:37.594Z</time></trkpt><trkpt lat="40.7839937" lon="14.854142"><ele>775.0</ele><time>2026-04-25T09:11:39.594Z</time></trkpt><trkpt lat="40.7840736" lon="14.8541569"><ele>774.9999999999999</ele><time>2026-04-25T09:11:41.594Z</time></trkpt><trkpt lat="40.78416" lon="14.8541653"><ele>775.0</ele><time>2026-04-25T09:11:43.594Z</time></trkpt><trkpt lat="40.7842498" lon="14.8542073"><ele>775.0</ele><time>2026-04-25T09:11:45.594Z</time></trkpt><trkpt lat="40.7843271" lon="14.8542557"><ele>775.0</ele><time>2026-04-25T09:11:47.594Z</time></trkpt><trkpt lat="40.7844076" lon="14.8543118"><ele>774.9999999999999</ele><time>2026-04-25T09:11:49.594Z</time></trkpt><trkpt lat="40.7844578" lon="14.8543907"><ele>775.0</ele><time>2026-04-25T09:11:51.594Z</time></trkpt><trkpt lat="40.7844887" lon="14.8544702"><ele>777.8571428571428</ele><time>2026-04-25T09:11:53.593Z</time></trkpt><trkpt lat="40.7845118" lon="14.8545574"><ele>780.7142857142857</ele><time>2026-04-25T09:11:55.593Z</time></trkpt><trkpt lat="40.7845706" lon="14.8546004"><ele>783.5714285714286</ele><time>2026-04-25T09:11:57.594Z</time></trkpt><trkpt lat="40.7846506" lon="14.8546241"><ele>786.4285714285713</ele><time>2026-04-25T09:11:59.593Z</time></trkpt><trkpt lat="40.7847192" lon="14.8546616"><ele>789.2857142857143</ele><time>2026-04-25T09:12:01.594Z</time></trkpt><trkpt lat="40.7847799" lon="14.8546899"><ele>792.1428571428571</ele><time>2026-04-25T09:12:03.593Z</time></trkpt><trkpt lat="40.7848593" lon="14.8547179"><ele>795.0</ele><time>2026-04-25T09:12:06.594Z</time></trkpt><trkpt lat="40.7849254" lon="14.8547425"><ele>795.0</ele><time>2026-04-25T09:12:08.594Z</time></trkpt><trkpt lat="40.7850024" lon="14.8547666"><ele>795.0</ele><time>2026-04-25T09:12:10.593Z</time></trkpt><trkpt lat="40.7850737" lon="14.8547979"><ele>795.0</ele><time>2026-04-25T09:12:12.594Z</time></trkpt><trkpt lat="40.7851542" lon="14.8548316"><ele>795.0</ele><time>2026-04-25T09:12:14.594Z</time></trkpt><trkpt lat="40.7852374" lon="14.8548272"><ele>795.0</ele><time>2026-04-25T09:12:16.594Z</time></trkpt><trkpt lat="40.7853083" lon="14.854851"><ele>795.0</ele><time>2026-04-25T09:12:18.594Z</time></trkpt><trkpt lat="40.7853756" lon="14.8548705"><ele>795.8571428571429</ele><time>2026-04-25T09:12:20.593Z</time></trkpt><trkpt lat="40.785452" lon="14.8548611"><ele>796.7142857142858</ele><time>2026-04-25T09:12:22.594Z</time></trkpt><trkpt lat="40.785523" lon="14.8548746"><ele>797.5714285714286</ele><time>2026-04-25T09:12:24.594Z</time></trkpt><trkpt lat="40.7855591" lon="14.8549594"><ele>798.4285714285714</ele><time>2026-04-25T09:12:26.594Z</time></trkpt><trkpt lat="40.7856309" lon="14.8550198"><ele>799.2857142857142</ele><time>2026-04-25T09:12:29.594Z</time></trkpt><trkpt lat="40.7856625" lon="14.8551047"><ele>800.1428571428571</ele><time>2026-04-25T09:12:42.594Z</time></trkpt><trkpt lat="40.7856987" lon="14.8551818"><ele>801.0</ele><time>2026-04-25T09:12:44.594Z</time></trkpt><trkpt lat="40.7857673" lon="14.85529"><ele>813.0</ele><time>2026-04-25T09:12:46.594Z</time></trkpt><trkpt lat="40.7858235" lon="14.8553459"><ele>813.0</ele><time>2026-04-25T09:12:48.593Z</time></trkpt></trkseg><trkseg><trkpt lat="40.7858389" lon="14.8552886"><ele>813.0</ele><time>2026-04-25T09:36:15.589Z</time></trkpt><trkpt lat="40.7857699" lon="14.8552529"><ele>813.0</ele><time>2026-04-25T09:36:22.589Z</time></trkpt><trkpt lat="40.7857185" lon="14.8551862"><ele>813.0</ele><time>2026-04-25T09:36:27.589Z</time></trkpt><trkpt lat="40.7856849" lon="14.855113"><ele>813.0</ele><time>2026-04-25T09:36:30.589Z</time></trkpt><trkpt lat="40.7856361" lon="14.8550571"><ele>813.0</ele><time>2026-04-25T09:36:33.589Z</time></trkpt><trkpt lat="40.7855873" lon="14.8549917"><ele>813.0</ele><time>2026-04-25T09:36:40.588Z</time></trkpt><trkpt lat="40.7855166" lon="14.8549514"><ele>813.0</ele><time>2026-04-25T09:36:44.588Z</time></trkpt><trkpt lat="40.7854801" lon="14.8548778"><ele>811.0</ele><time>2026-04-25T09:37:01.588Z</time></trkpt><trkpt lat="40.7854031" lon="14.8548584"><ele>809.0</ele><time>2026-04-25T09:37:05.589Z</time></trkpt><trkpt lat="40.7853192" lon="14.8548256"><ele>807.0</ele><time>2026-04-25T09:37:08.589Z</time></trkpt><trkpt lat="40.7852296" lon="14.8548238"><ele>805.0</ele><time>2026-04-25T09:37:11.589Z</time></trkpt><trkpt lat="40.7851626" lon="14.854838"><ele>803.0</ele><time>2026-04-25T09:37:14.588Z</time></trkpt><trkpt lat="40.7850795" lon="14.8548059"><ele>801.0</ele><time>2026-04-25T09:37:17.589Z</time></trkpt><trkpt lat="40.7849993" lon="14.8547751"><ele>800.1428571428571</ele><time>2026-04-25T09:37:20.589Z</time></trkpt><trkpt lat="40.7849354" lon="14.8547571"><ele>799.2857142857142</ele><time>2026-04-25T09:37:22.589Z</time></trkpt><trkpt lat="40.7848718" lon="14.8547291"><ele>798.4285714285714</ele><time>2026-04-25T09:37:24.589Z</time></trkpt><trkpt lat="40.7848104" lon="14.8547102"><ele>797.5714285714286</ele><time>2026-04-25T09:37:26.587Z</time></trkpt><trkpt lat="40.7847444" lon="14.8546873"><ele>796.7142857142858</ele><time>2026-04-25T09:37:28.589Z</time></trkpt><trkpt lat="40.7846577" lon="14.8546511"><ele>795.8571428571429</ele><time>2026-04-25T09:37:31.587Z</time></trkpt><trkpt lat="40.7845824" lon="14.8546103"><ele>795.0</ele><time>2026-04-25T09:37:34.588Z</time></trkpt><trkpt lat="40.784526" lon="14.8545684"><ele>795.0</ele><time>2026-04-25T09:37:37.589Z</time></trkpt><trkpt lat="40.7844841" lon="14.8544941"><ele>795.0</ele><time>2026-04-25T09:37:40.6Z</time></trkpt><trkpt lat="40.7844601" lon="14.8544134"><ele>795.0</ele><time>2026-04-25T09:37:42.588Z</time></trkpt><trkpt lat="40.7844229" lon="14.8543306"><ele>795.0</ele><time>2026-04-25T09:37:44.588Z</time></trkpt><trkpt lat="40.7843511" lon="14.8542865"><ele>795.0</ele><time>2026-04-25T09:37:46.589Z</time></trkpt><trkpt lat="40.7842834" lon="14.8542512"><ele>795.0</ele><time>2026-04-25T09:37:48.588Z</time></trkpt><trkpt lat="40.7842214" lon="14.8542164"><ele>795.0</ele><time>2026-04-25T09:37:50.589Z</time></trkpt><trkpt lat="40.7841617" lon="14.8541885"><ele>792.1428571428571</ele><time>2026-04-25T09:37:52.588Z</time></trkpt><trkpt lat="40.7840914" lon="14.8541884"><ele>789.2857142857143</ele><time>2026-04-25T09:37:54.589Z</time></trkpt><trkpt lat="40.7840195" lon="14.8541877"><ele>786.4285714285713</ele><time>2026-04-25T09:37:56.588Z</time></trkpt><trkpt lat="40.7839509" lon="14.8541696"><ele>783.5714285714286</ele><time>2026-04-25T09:37:58.587Z</time></trkpt><trkpt lat="40.78389" lon="14.8541435"><ele>780.7142857142857</ele><time>2026-04-25T09:38:00.588Z</time></trkpt><trkpt lat="40.7837983" lon="14.8541347"><ele>777.8571428571428</ele><time>2026-04-25T09:38:03.588Z</time></trkpt><trkpt lat="40.7837322" lon="14.8541184"><ele>775.0</ele><time>2026-04-25T09:38:05.587Z</time></trkpt><trkpt lat="40.783672" lon="14.8540877"><ele>774.9999999999999</ele><time>2026-04-25T09:38:07.589Z</time></trkpt><trkpt lat="40.7836084" lon="14.854037"><ele>775.0</ele><time>2026-04-25T09:38:10.589Z</time></trkpt><trkpt lat="40.7835776" lon="14.853953"><ele>775.0</ele><time>2026-04-25T09:38:53.589Z</time></trkpt><trkpt lat="40.7835293" lon="14.8538599"><ele>775.0</ele><time>2026-04-25T09:38:56.589Z</time></trkpt><trkpt lat="40.7834585" lon="14.8538191"><ele>774.9999999999999</ele><time>2026-04-25T09:38:59.588Z</time></trkpt><trkpt lat="40.7833752" lon="14.8537873"><ele>775.0</ele><time>2026-04-25T09:39:02.587Z</time></trkpt><trkpt lat="40.7833143" lon="14.8537323"><ele>774.1666666666666</ele><time>2026-04-25T09:39:04.588Z</time></trkpt><trkpt lat="40.7832415" lon="14.8536594"><ele>773.3333333333333</ele><time>2026-04-25T09:39:07.589Z</time></trkpt><trkpt lat="40.783159" lon="14.8536171"><ele>772.5</ele><time>2026-04-25T09:39:10.589Z</time></trkpt><trkpt lat="40.7830952" lon="14.8535925"><ele>771.6666666666667</ele><time>2026-04-25T09:39:12.588Z</time></trkpt><trkpt lat="40.7830301" lon="14.8535715"><ele>770.8333333333334</ele><time>2026-04-25T09:39:14.589Z</time></trkpt><trkpt lat="40.7829714" lon="14.8535314"><ele>770.0</ele><time>2026-04-25T09:39:16.588Z</time></trkpt><trkpt lat="40.7829077" lon="14.853438"><ele>770.0</ele><time>2026-04-25T09:39:19.589Z</time></trkpt><trkpt lat="40.7828707" lon="14.8533669"><ele>770.0</ele><time>2026-04-25T09:39:21.589Z</time></trkpt><trkpt lat="40.7828329" lon="14.8532993"><ele>770.0</ele><time>2026-04-25T09:39:24.154Z</time></trkpt><trkpt lat="40.7827664" lon="14.8532411"><ele>770.0</ele><time>2026-04-25T09:39:26.588Z</time></trkpt><trkpt lat="40.7826867" lon="14.8532451"><ele>770.0</ele><time>2026-04-25T09:39:29.588Z</time></trkpt><trkpt lat="40.7826308" lon="14.8532959"><ele>770.0</ele><time>2026-04-25T09:39:31.588Z</time></trkpt><trkpt lat="40.7825597" lon="14.8533353"><ele>770.0</ele><time>2026-04-25T09:39:33.589Z</time></trkpt><trkpt lat="40.7824762" lon="14.8533483"><ele>766.6666666666667</ele><time>2026-04-25T09:39:35.588Z</time></trkpt><trkpt lat="40.7824069" lon="14.8533478"><ele>763.3333333333334</ele><time>2026-04-25T09:39:37.588Z</time></trkpt><trkpt lat="40.7823174" lon="14.8533216"><ele>760.0</ele><time>2026-04-25T09:39:39.587Z</time></trkpt><trkpt lat="40.7822428" lon="14.8533058"><ele>756.6666666666667</ele><time>2026-04-25T09:39:41.589Z</time></trkpt><trkpt lat="40.7821629" lon="14.8532892"><ele>753.3333333333334</ele><time>2026-04-25T09:39:43.589Z</time></trkpt><trkpt lat="40.7820911" lon="14.8532709"><ele>750.0</ele><time>2026-04-25T09:39:45.588Z</time></trkpt><trkpt lat="40.7820265" lon="14.8532509"><ele>750.0</ele><time>2026-04-25T09:39:48.588Z</time></trkpt><trkpt lat="40.7819444" lon="14.8532045"><ele>750.0</ele><time>2026-04-25T09:40:49.588Z</time></trkpt><trkpt lat="40.7818439" lon="14.8531326"><ele>750.0</ele><time>2026-04-25T09:40:51.589Z</time></trkpt><trkpt lat="40.7817765" lon="14.8530934"><ele>750.0</ele><time>2026-04-25T09:40:52.589Z</time></trkpt><trkpt lat="40.7817085" lon="14.8530573"><ele>750.0</ele><time>2026-04-25T09:40:53.588Z</time></trkpt><trkpt lat="40.7816381" lon="14.8530266"><ele>750.0</ele><time>2026-04-25T09:40:54.589Z</time></trkpt><trkpt lat="40.781569" lon="14.8530005"><ele>748.5</ele><time>2026-04-25T09:40:55.588Z</time></trkpt><trkpt lat="40.781502" lon="14.852976"><ele>747.0</ele><time>2026-04-25T09:40:56.587Z</time></trkpt><trkpt lat="40.7814359" lon="14.8529482"><ele>745.5</ele><time>2026-04-25T09:40:57.589Z</time></trkpt><trkpt lat="40.7813739" lon="14.8529108"><ele>744.0</ele><time>2026-04-25T09:40:58.589Z</time></trkpt><trkpt lat="40.7813201" lon="14.8528668"><ele>742.5</ele><time>2026-04-25T09:40:59.589Z</time></trkpt><trkpt lat="40.781241" lon="14.8527717"><ele>741.0</ele><time>2026-04-25T09:41:01.588Z</time></trkpt><trkpt lat="40.7811728" lon="14.8526836"><ele>742.0</ele><time>2026-04-25T09:41:03.589Z</time></trkpt><trkpt lat="40.7810901" lon="14.8526184"><ele>743.0</ele><time>2026-04-25T09:41:05.588Z</time></trkpt><trkpt lat="40.7810091" lon="14.8525722"><ele>744.0</ele><time>2026-04-25T09:41:07.587Z</time></trkpt><trkpt lat="40.7809134" lon="14.8525371"><ele>745.0</ele><time>2026-04-25T09:41:09.588Z</time></trkpt><trkpt lat="40.7807869" lon="14.8524945"><ele>746.0</ele><time>2026-04-25T09:41:11.588Z</time></trkpt><trkpt lat="40.7807203" lon="14.8524713"><ele>744.1666666666666</ele><time>2026-04-25T09:41:12.588Z</time></trkpt><trkpt lat="40.7806503" lon="14.8524508"><ele>742.3333333333333</ele><time>2026-04-25T09:41:13.589Z</time></trkpt><trkpt lat="40.7805792" lon="14.8524286"><ele>740.5</ele><time>2026-04-25T09:41:14.589Z</time></trkpt><trkpt lat="40.7805146" lon="14.85241"><ele>738.6666666666666</ele><time>2026-04-25T09:41:15.587Z</time></trkpt><trkpt lat="40.7803969" lon="14.8523999"><ele>736.8333333333334</ele><time>2026-04-25T09:41:17.588Z</time></trkpt><trkpt lat="40.7803287" lon="14.8524107"><ele>735.0</ele><time>2026-04-25T09:41:18.589Z</time></trkpt><trkpt lat="40.780264" lon="14.8524161"><ele>732.75</ele><time>2026-04-25T09:41:19.589Z</time></trkpt><trkpt lat="40.7801448" lon="14.8524263"><ele>730.5</ele><time>2026-04-25T09:41:21.588Z</time></trkpt><trkpt lat="40.78003" lon="14.852387"><ele>728.25</ele><time>2026-04-25T09:41:23.589Z</time></trkpt><trkpt lat="40.7799277" lon="14.852301"><ele>726.0</ele><time>2026-04-25T09:41:25.589Z</time></trkpt><trkpt lat="40.7798269" lon="14.8522045"><ele>726.0</ele><time>2026-04-25T09:41:27.588Z</time></trkpt><trkpt lat="40.7797165" lon="14.8521448"><ele>726.0</ele><time>2026-04-25T09:41:29.588Z</time></trkpt><trkpt lat="40.7796318" lon="14.8520595"><ele>726.0</ele><time>2026-04-25T09:41:31.588Z</time></trkpt><trkpt lat="40.7795585" lon="14.8519496"><ele>726.0</ele><time>2026-04-25T09:41:33.588Z</time></trkpt><trkpt lat="40.7795132" lon="14.8518039"><ele>726.8</ele><time>2026-04-25T09:41:35.588Z</time></trkpt><trkpt lat="40.7795097" lon="14.8516418"><ele>727.5999999999999</ele><time>2026-04-25T09:41:37.588Z</time></trkpt><trkpt lat="40.7795259" lon="14.8514902"><ele>728.4</ele><time>2026-04-25T09:41:39.588Z</time></trkpt><trkpt lat="40.7795373" lon="14.8513344"><ele>729.2</ele><time>2026-04-25T09:41:41.589Z</time></trkpt><trkpt lat="40.7795355" lon="14.8512476"><ele>730.0</ele><time>2026-04-25T09:41:42.589Z</time></trkpt><trkpt lat="40.7795349" lon="14.851153"><ele>730.0</ele><time>2026-04-25T09:41:43.588Z</time></trkpt><trkpt lat="40.7795391" lon="14.8510527"><ele>730.0</ele><time>2026-04-25T09:41:44.589Z</time></trkpt><trkpt lat="40.7795486" lon="14.8509504"><ele>730.0</ele><time>2026-04-25T09:41:45.589Z</time></trkpt><trkpt lat="40.7795582" lon="14.8508494"><ele>730.0</ele><time>2026-04-25T09:41:46.588Z</time></trkpt><trkpt lat="40.7795546" lon="14.8507449"><ele>730.0</ele><time>2026-04-25T09:41:47.588Z</time></trkpt><trkpt lat="40.7795579" lon="14.8506457"><ele>730.0</ele><time>2026-04-25T09:41:48.588Z</time></trkpt><trkpt lat="40.7795757" lon="14.8505512"><ele>728.3333333333334</ele><time>2026-04-25T09:41:49.589Z</time></trkpt><trkpt lat="40.7795976" lon="14.8504607"><ele>726.6666666666667</ele><time>2026-04-25T09:41:50.587Z</time></trkpt><trkpt lat="40.779617" lon="14.8503699"><ele>725.0</ele><time>2026-04-25T09:41:51.588Z</time></trkpt><trkpt lat="40.7796356" lon="14.8502791"><ele>723.3333333333334</ele><time>2026-04-25T09:41:52.589Z</time></trkpt><trkpt lat="40.779652" lon="14.8501866"><ele>721.6666666666666</ele><time>2026-04-25T09:41:53.588Z</time></trkpt><trkpt lat="40.7796759" lon="14.8501071"><ele>720.0</ele><time>2026-04-25T09:41:54.589Z</time></trkpt><trkpt lat="40.7797294" lon="14.8499795"><ele>719.0</ele><time>2026-04-25T09:41:56.589Z</time></trkpt><trkpt lat="40.7797664" lon="14.8498724"><ele>718.0</ele><time>2026-04-25T09:41:58.589Z</time></trkpt><trkpt lat="40.7797415" lon="14.8497619"><ele>717.0</ele><time>2026-04-25T09:42:00.588Z</time></trkpt><trkpt lat="40.7796702" lon="14.8496441"><ele>716.0</ele><time>2026-04-25T09:42:02.588Z</time></trkpt><trkpt lat="40.7795745" lon="14.8495325"><ele>715.0</ele><time>2026-04-25T09:42:04.588Z</time></trkpt><trkpt lat="40.7795272" lon="14.8494715"><ele>715.0</ele><time>2026-04-25T09:42:05.588Z</time></trkpt><trkpt lat="40.7794808" lon="14.849404"><ele>715.0</ele><time>2026-04-25T09:42:06.589Z</time></trkpt><trkpt lat="40.7793913" lon="14.8492867"><ele>715.0</ele><time>2026-04-25T09:42:08.588Z</time></trkpt><trkpt lat="40.7793036" lon="14.8491805"><ele>715.0</ele><time>2026-04-25T09:42:10.588Z</time></trkpt><trkpt lat="40.7792516" lon="14.8491239"><ele>715.0</ele><time>2026-04-25T09:42:11.587Z</time></trkpt><trkpt lat="40.7792007" lon="14.8490491"><ele>712.8</ele><time>2026-04-25T09:42:12.587Z</time></trkpt><trkpt lat="40.7791469" lon="14.8489489"><ele>710.6</ele><time>2026-04-25T09:42:13.588Z</time></trkpt><trkpt lat="40.779101" lon="14.8488352"><ele>708.4000000000001</ele><time>2026-04-25T09:42:14.588Z</time></trkpt><trkpt lat="40.7790667" lon="14.848723"><ele>706.2</ele><time>2026-04-25T09:42:15.588Z</time></trkpt><trkpt lat="40.7790346" lon="14.8486049"><ele>704.0</ele><time>2026-04-25T09:42:16.588Z</time></trkpt><trkpt lat="40.7789871" lon="14.8484698"><ele>703.2</ele><time>2026-04-25T09:42:17.588Z</time></trkpt><trkpt lat="40.778929" lon="14.8483274"><ele>702.4000000000001</ele><time>2026-04-25T09:42:18.587Z</time></trkpt><trkpt lat="40.7788826" lon="14.8481951"><ele>701.6</ele><time>2026-04-25T09:42:19.587Z</time></trkpt><trkpt lat="40.7788408" lon="14.8480673"><ele>700.8</ele><time>2026-04-25T09:42:20.588Z</time></trkpt><trkpt lat="40.7787958" lon="14.847944"><ele>700.0</ele><time>2026-04-25T09:42:21.588Z</time></trkpt><trkpt lat="40.7787419" lon="14.8478286"><ele>700.0</ele><time>2026-04-25T09:42:22.588Z</time></trkpt><trkpt lat="40.7786827" lon="14.8477204"><ele>700.0</ele><time>2026-04-25T09:42:23.589Z</time></trkpt><trkpt lat="40.7786275" lon="14.8476032"><ele>700.0</ele><time>2026-04-25T09:42:24.589Z</time></trkpt><trkpt lat="40.7785812" lon="14.8474747"><ele>700.0</ele><time>2026-04-25T09:42:25.589Z</time></trkpt><trkpt lat="40.7785364" lon="14.8473368"><ele>700.0</ele><time>2026-04-25T09:42:26.588Z</time></trkpt><trkpt lat="40.7785137" lon="14.847207"><ele>697.2</ele><time>2026-04-25T09:42:27.588Z</time></trkpt><trkpt lat="40.7784923" lon="14.8470874"><ele>694.4</ele><time>2026-04-25T09:42:28.589Z</time></trkpt><trkpt lat="40.7784524" lon="14.8469737"><ele>691.5999999999999</ele><time>2026-04-25T09:42:29.589Z</time></trkpt><trkpt lat="40.7784151" lon="14.8468543"><ele>688.8</ele><time>2026-04-25T09:42:30.588Z</time></trkpt><trkpt lat="40.7783861" lon="14.8467351"><ele>686.0</ele><time>2026-04-25T09:42:31.589Z</time></trkpt><trkpt lat="40.7783692" lon="14.8466129"><ele>685.8</ele><time>2026-04-25T09:42:32.588Z</time></trkpt><trkpt lat="40.7783592" lon="14.8464774"><ele>685.5999999999999</ele><time>2026-04-25T09:42:33.589Z</time></trkpt><trkpt lat="40.7783606" lon="14.8463367"><ele>685.4</ele><time>2026-04-25T09:42:34.588Z</time></trkpt><trkpt lat="40.7783526" lon="14.8461949"><ele>685.2</ele><time>2026-04-25T09:42:35.588Z</time></trkpt><trkpt lat="40.7783314" lon="14.8460513"><ele>685.0</ele><time>2026-04-25T09:42:36.588Z</time></trkpt><trkpt lat="40.7783143" lon="14.8459122"><ele>684.0</ele><time>2026-04-25T09:42:37.589Z</time></trkpt><trkpt lat="40.7783" lon="14.8457809"><ele>683.0</ele><time>2026-04-25T09:42:38.587Z</time></trkpt><trkpt lat="40.7782707" lon="14.8456517"><ele>682.0</ele><time>2026-04-25T09:42:39.588Z</time></trkpt><trkpt lat="40.7782285" lon="14.8455238"><ele>681.0</ele><time>2026-04-25T09:42:40.588Z</time></trkpt><trkpt lat="40.7781835" lon="14.8454041"><ele>680.0</ele><time>2026-04-25T09:42:41.588Z</time></trkpt><trkpt lat="40.7781389" lon="14.845294"><ele>680.0</ele><time>2026-04-25T09:42:42.588Z</time></trkpt><trkpt lat="40.7780982" lon="14.8451878"><ele>680.0</ele><time>2026-04-25T09:42:43.589Z</time></trkpt><trkpt lat="40.7780666" lon="14.8450738"><ele>680.0</ele><time>2026-04-25T09:42:44.588Z</time></trkpt><trkpt lat="40.778049" lon="14.8449523"><ele>680.0</ele><time>2026-04-25T09:42:45.589Z</time></trkpt><trkpt lat="40.778039" lon="14.8448268"><ele>680.0</ele><time>2026-04-25T09:42:46.588Z</time></trkpt><trkpt lat="40.7780366" lon="14.8446933"><ele>678.6666666666666</ele><time>2026-04-25T09:42:47.588Z</time></trkpt><trkpt lat="40.7780477" lon="14.8445688"><ele>677.3333333333333</ele><time>2026-04-25T09:42:48.589Z</time></trkpt><trkpt lat="40.7780693" lon="14.8444597"><ele>676.0</ele><time>2026-04-25T09:42:49.588Z</time></trkpt><trkpt lat="40.7780915" lon="14.8443634"><ele>674.6666666666666</ele><time>2026-04-25T09:42:50.588Z</time></trkpt><trkpt lat="40.7780887" lon="14.8442739"><ele>673.3333333333334</ele><time>2026-04-25T09:42:51.587Z</time></trkpt><trkpt lat="40.7780442" lon="14.8442051"><ele>672.0</ele><time>2026-04-25T09:42:52.588Z</time></trkpt><trkpt lat="40.7779896" lon="14.8441604"><ele>670.6</ele><time>2026-04-25T09:42:53.587Z</time></trkpt><trkpt lat="40.7779115" lon="14.8441218"><ele>669.2</ele><time>2026-04-25T09:42:54.589Z</time></trkpt><trkpt lat="40.777823" lon="14.8440674"><ele>667.8</ele><time>2026-04-25T09:42:55.589Z</time></trkpt><trkpt lat="40.777719" lon="14.8440039"><ele>666.4</ele><time>2026-04-25T09:42:56.588Z</time></trkpt><trkpt lat="40.7776125" lon="14.8439428"><ele>665.0</ele><time>2026-04-25T09:42:57.589Z</time></trkpt><trkpt lat="40.7775088" lon="14.8438752"><ele>663.2</ele><time>2026-04-25T09:42:58.588Z</time></trkpt><trkpt lat="40.7774083" lon="14.8438029"><ele>661.4</ele><time>2026-04-25T09:42:59.589Z</time></trkpt><trkpt lat="40.7773102" lon="14.8437299"><ele>659.5999999999999</ele><time>2026-04-25T09:43:00.589Z</time></trkpt><trkpt lat="40.7772176" lon="14.8436556"><ele>657.8</ele><time>2026-04-25T09:43:01.589Z</time></trkpt><trkpt lat="40.7771384" lon="14.8435676"><ele>656.0</ele><time>2026-04-25T09:43:02.588Z</time></trkpt><trkpt lat="40.7770729" lon="14.843469"><ele>654.0</ele><time>2026-04-25T09:43:03.589Z</time></trkpt><trkpt lat="40.7770042" lon="14.8433718"><ele>652.0</ele><time>2026-04-25T09:43:04.588Z</time></trkpt><trkpt lat="40.7769356" lon="14.8432823"><ele>650.0</ele><time>2026-04-25T09:43:05.588Z</time></trkpt><trkpt lat="40.7768761" lon="14.8431992"><ele>648.0</ele><time>2026-04-25T09:43:06.589Z</time></trkpt><trkpt lat="40.7768208" lon="14.843112"><ele>646.0</ele><time>2026-04-25T09:43:07.587Z</time></trkpt><trkpt lat="40.7768324" lon="14.8429852"><ele>646.0</ele><time>2026-04-25T09:43:09.587Z</time></trkpt><trkpt lat="40.7769003" lon="14.8428341"><ele>646.0</ele><time>2026-04-25T09:43:11.588Z</time></trkpt><trkpt lat="40.7769575" lon="14.8427623"><ele>646.0</ele><time>2026-04-25T09:43:12.589Z</time></trkpt><trkpt lat="40.7770189" lon="14.8427252"><ele>646.0</ele><time>2026-04-25T09:43:13.588Z</time></trkpt><trkpt lat="40.7771165" lon="14.8426508"><ele>646.0</ele><time>2026-04-25T09:43:15.589Z</time></trkpt><trkpt lat="40.7771331" lon="14.842522"><ele>645.0</ele><time>2026-04-25T09:43:17.588Z</time></trkpt><trkpt lat="40.7770806" lon="14.8423712"><ele>644.0</ele><time>2026-04-25T09:43:19.589Z</time></trkpt><trkpt lat="40.7770308" lon="14.8422749"><ele>643.0</ele><time>2026-04-25T09:43:20.588Z</time></trkpt><trkpt lat="40.776975" lon="14.8421631"><ele>642.0</ele><time>2026-04-25T09:43:21.587Z</time></trkpt><trkpt lat="40.7769307" lon="14.8420465"><ele>641.0</ele><time>2026-04-25T09:43:22.588Z</time></trkpt><trkpt lat="40.7768964" lon="14.8419249"><ele>641.0</ele><time>2026-04-25T09:43:23.588Z</time></trkpt><trkpt lat="40.7768796" lon="14.8418078"><ele>641.0</ele><time>2026-04-25T09:43:24.588Z</time></trkpt><trkpt lat="40.7768775" lon="14.8416881"><ele>641.0</ele><time>2026-04-25T09:43:25.588Z</time></trkpt><trkpt lat="40.7768722" lon="14.84156"><ele>641.0</ele><time>2026-04-25T09:43:26.589Z</time></trkpt><trkpt lat="40.776849" lon="14.8414271"><ele>641.0</ele><time>2026-04-25T09:43:27.589Z</time></trkpt><trkpt lat="40.7768311" lon="14.8412992"><ele>638.5</ele><time>2026-04-25T09:43:28.589Z</time></trkpt><trkpt lat="40.776821" lon="14.8411782"><ele>636.0</ele><time>2026-04-25T09:43:29.588Z</time></trkpt><trkpt lat="40.7768212" lon="14.8410624"><ele>633.5</ele><time>2026-04-25T09:43:30.588Z</time></trkpt><trkpt lat="40.7768169" lon="14.8409588"><ele>631.0</ele><time>2026-04-25T09:43:31.588Z</time></trkpt><trkpt lat="40.7768013" lon="14.8408718"><ele>628.5</ele><time>2026-04-25T09:43:32.587Z</time></trkpt><trkpt lat="40.7767764" lon="14.8407947"><ele>626.0</ele><time>2026-04-25T09:43:33.588Z</time></trkpt><trkpt lat="40.7766841" lon="14.8406817"><ele>625.1666666666666</ele><time>2026-04-25T09:43:35.589Z</time></trkpt><trkpt lat="40.776627" lon="14.8406351"><ele>624.3333333333333</ele><time>2026-04-25T09:43:36.589Z</time></trkpt><trkpt lat="40.7765809" lon="14.840568"><ele>623.5</ele><time>2026-04-25T09:43:37.589Z</time></trkpt><trkpt lat="40.7765527" lon="14.8404881"><ele>622.6666666666666</ele><time>2026-04-25T09:43:38.588Z</time></trkpt><trkpt lat="40.7765414" lon="14.8403902"><ele>621.8333333333334</ele><time>2026-04-25T09:43:39.588Z</time></trkpt><trkpt lat="40.7765433" lon="14.8402712"><ele>621.0</ele><time>2026-04-25T09:43:40.589Z</time></trkpt><trkpt lat="40.7765426" lon="14.8401406"><ele>619.4</ele><time>2026-04-25T09:43:41.589Z</time></trkpt><trkpt lat="40.7765253" lon="14.840004"><ele>617.8</ele><time>2026-04-25T09:43:42.589Z</time></trkpt><trkpt lat="40.7765032" lon="14.8398872"><ele>616.1999999999999</ele><time>2026-04-25T09:43:43.588Z</time></trkpt><trkpt lat="40.7765029" lon="14.8397748"><ele>614.6</ele><time>2026-04-25T09:43:44.588Z</time></trkpt><trkpt lat="40.776526" lon="14.8396579"><ele>613.0</ele><time>2026-04-25T09:43:45.587Z</time></trkpt><trkpt lat="40.7765645" lon="14.8395391"><ele>613.0</ele><time>2026-04-25T09:43:46.588Z</time></trkpt><trkpt lat="40.776599" lon="14.8394147"><ele>613.0</ele><time>2026-04-25T09:43:47.587Z</time></trkpt><trkpt lat="40.7766294" lon="14.8392645"><ele>613.0</ele><time>2026-04-25T09:43:48.589Z</time></trkpt><trkpt lat="40.7766547" lon="14.8390901"><ele>613.0</ele><time>2026-04-25T09:43:49.589Z</time></trkpt><trkpt lat="40.776665" lon="14.8389103"><ele>611.5</ele><time>2026-04-25T09:43:50.589Z</time></trkpt><trkpt lat="40.776668" lon="14.838742"><ele>610.0</ele><time>2026-04-25T09:43:51.587Z</time></trkpt><trkpt lat="40.7766661" lon="14.8385809"><ele>608.5</ele><time>2026-04-25T09:43:52.589Z</time></trkpt><trkpt lat="40.7766451" lon="14.8384257"><ele>607.0</ele><time>2026-04-25T09:43:53.588Z</time></trkpt><trkpt lat="40.7766301" lon="14.8382807"><ele>605.0</ele><time>2026-04-25T09:43:54.589Z</time></trkpt><trkpt lat="40.7766264" lon="14.8381424"><ele>603.0</ele><time>2026-04-25T09:43:55.588Z</time></trkpt><trkpt lat="40.7766355" lon="14.8380016"><ele>601.0</ele><time>2026-04-25T09:43:56.589Z</time></trkpt><trkpt lat="40.7766623" lon="14.8378515"><ele>599.0</ele><time>2026-04-25T09:43:57.589Z</time></trkpt><trkpt lat="40.7767068" lon="14.8376827"><ele>599.0</ele><time>2026-04-25T09:43:58.588Z</time></trkpt><trkpt lat="40.7767599" lon="14.8375271"><ele>599.0</ele><time>2026-04-25T09:43:59.589Z</time></trkpt><trkpt lat="40.7768271" lon="14.8373922"><ele>599.0</ele><time>2026-04-25T09:44:00.588Z</time></trkpt><trkpt lat="40.7769058" lon="14.8372848"><ele>599.0</ele><time>2026-04-25T09:44:01.588Z</time></trkpt><trkpt lat="40.7769814" lon="14.8371904"><ele>599.0</ele><time>2026-04-25T09:44:02.588Z</time></trkpt><trkpt lat="40.7770448" lon="14.837094"><ele>599.0</ele><time>2026-04-25T09:44:03.588Z</time></trkpt><trkpt lat="40.7770906" lon="14.8369952"><ele>599.0</ele><time>2026-04-25T09:44:04.588Z</time></trkpt><trkpt lat="40.7771135" lon="14.8368933"><ele>599.0</ele><time>2026-04-25T09:44:05.589Z</time></trkpt><trkpt lat="40.7771019" lon="14.8367952"><ele>599.0</ele><time>2026-04-25T09:44:06.588Z</time></trkpt><trkpt lat="40.7770616" lon="14.8367094"><ele>599.0</ele><time>2026-04-25T09:44:07.589Z</time></trkpt><trkpt lat="40.7770009" lon="14.8366313"><ele>596.6</ele><time>2026-04-25T09:44:08.588Z</time></trkpt><trkpt lat="40.7769427" lon="14.8365398"><ele>594.2</ele><time>2026-04-25T09:44:09.589Z</time></trkpt><trkpt lat="40.7769086" lon="14.8364191"><ele>591.8000000000001</ele><time>2026-04-25T09:44:10.588Z</time></trkpt><trkpt lat="40.7768871" lon="14.8362858"><ele>589.4</ele><time>2026-04-25T09:44:11.587Z</time></trkpt><trkpt lat="40.7768814" lon="14.8361356"><ele>587.0</ele><time>2026-04-25T09:44:12.589Z</time></trkpt><trkpt lat="40.7768976" lon="14.8359935"><ele>585.4</ele><time>2026-04-25T09:44:13.589Z</time></trkpt><trkpt lat="40.7769305" lon="14.8358708"><ele>583.8000000000001</ele><time>2026-04-25T09:44:14.588Z</time></trkpt><trkpt lat="40.7769488" lon="14.8357525"><ele>582.2</ele><time>2026-04-25T09:44:15.589Z</time></trkpt><trkpt lat="40.7769367" lon="14.8356344"><ele>580.6</ele><time>2026-04-25T09:44:16.589Z</time></trkpt><trkpt lat="40.776894" lon="14.8355338"><ele>579.0</ele><time>2026-04-25T09:44:17.589Z</time></trkpt><trkpt lat="40.7768257" lon="14.8354572"><ele>579.0</ele><time>2026-04-25T09:44:18.589Z</time></trkpt><trkpt lat="40.7767423" lon="14.8354034"><ele>579.0</ele><time>2026-04-25T09:44:19.588Z</time></trkpt><trkpt lat="40.7766575" lon="14.8353422"><ele>579.0</ele><time>2026-04-25T09:44:20.588Z</time></trkpt><trkpt lat="40.7765702" lon="14.8352845"><ele>579.0</ele><time>2026-04-25T09:44:21.587Z</time></trkpt><trkpt lat="40.7764841" lon="14.8352297"><ele>579.0</ele><time>2026-04-25T09:44:22.587Z</time></trkpt><trkpt lat="40.7763988" lon="14.8351794"><ele>579.0</ele><time>2026-04-25T09:44:23.587Z</time></trkpt><trkpt lat="40.7763135" lon="14.8351469"><ele>579.0</ele><time>2026-04-25T09:44:24.589Z</time></trkpt><trkpt lat="40.7762293" lon="14.8351292"><ele>579.0</ele><time>2026-04-25T09:44:25.589Z</time></trkpt><trkpt lat="40.7761475" lon="14.8350952"><ele>579.0</ele><time>2026-04-25T09:44:26.589Z</time></trkpt><trkpt lat="40.7760664" lon="14.835048"><ele>579.0</ele><time>2026-04-25T09:44:27.588Z</time></trkpt><trkpt lat="40.7759894" lon="14.834998"><ele>579.0</ele><time>2026-04-25T09:44:28.589Z</time></trkpt><trkpt lat="40.7759155" lon="14.834945"><ele>576.6666666666666</ele><time>2026-04-25T09:44:29.588Z</time></trkpt><trkpt lat="40.7758415" lon="14.8348958"><ele>574.3333333333334</ele><time>2026-04-25T09:44:30.587Z</time></trkpt><trkpt lat="40.7757741" lon="14.8348506"><ele>572.0</ele><time>2026-04-25T09:44:31.587Z</time></trkpt><trkpt lat="40.7757155" lon="14.834798"><ele>569.6666666666667</ele><time>2026-04-25T09:44:32.587Z</time></trkpt><trkpt lat="40.7756738" lon="14.8347334"><ele>567.3333333333334</ele><time>2026-04-25T09:44:33.589Z</time></trkpt><trkpt lat="40.7756443" lon="14.834603"><ele>565.0</ele><time>2026-04-25T09:44:35.588Z</time></trkpt><trkpt lat="40.7756859" lon="14.8344846"><ele>565.0</ele><time>2026-04-25T09:44:37.589Z</time></trkpt><trkpt lat="40.7757341" lon="14.8344228"><ele>565.0</ele><time>2026-04-25T09:44:38.589Z</time></trkpt><trkpt lat="40.7757978" lon="14.8343531"><ele>565.0</ele><time>2026-04-25T09:44:39.589Z</time></trkpt><trkpt lat="40.7758705" lon="14.834277"><ele>565.0</ele><time>2026-04-25T09:44:40.589Z</time></trkpt><trkpt lat="40.775946" lon="14.8342055"><ele>565.0</ele><time>2026-04-25T09:44:41.589Z</time></trkpt><trkpt lat="40.7760093" lon="14.8341527"><ele>565.0</ele><time>2026-04-25T09:44:42.589Z</time></trkpt><trkpt lat="40.7760755" lon="14.8341098"><ele>565.3333333333334</ele><time>2026-04-25T09:44:44.588Z</time></trkpt><trkpt lat="40.7761447" lon="14.8340992"><ele>565.6666666666667</ele><time>2026-04-25T09:45:16.588Z</time></trkpt><trkpt lat="40.7762672" lon="14.8341379"><ele>566.0</ele><time>2026-04-25T09:45:18.589Z</time></trkpt><trkpt lat="40.7763259" lon="14.8341969"><ele>566.3333333333334</ele><time>2026-04-25T09:45:19.588Z</time></trkpt><trkpt lat="40.7763876" lon="14.834273"><ele>566.6666666666666</ele><time>2026-04-25T09:45:20.588Z</time></trkpt><trkpt lat="40.7764523" lon="14.8343573"><ele>567.0</ele><time>2026-04-25T09:45:21.589Z</time></trkpt><trkpt lat="40.7765213" lon="14.834448"><ele>567.0</ele><time>2026-04-25T09:45:22.588Z</time></trkpt><trkpt lat="40.7765912" lon="14.8345399"><ele>567.0</ele><time>2026-04-25T09:45:23.588Z</time></trkpt><trkpt lat="40.7766589" lon="14.8346295"><ele>567.0</ele><time>2026-04-25T09:45:24.589Z</time></trkpt><trkpt lat="40.776722" lon="14.8347109"><ele>567.0</ele><time>2026-04-25T09:45:25.588Z</time></trkpt><trkpt lat="40.776781" lon="14.8347808"><ele>567.0</ele><time>2026-04-25T09:45:26.588Z</time></trkpt><trkpt lat="40.776841" lon="14.8348327"><ele>567.0</ele><time>2026-04-25T09:45:27.589Z</time></trkpt><trkpt lat="40.7769609" lon="14.8348518"><ele>566.6666666666666</ele><time>2026-04-25T09:45:29.589Z</time></trkpt><trkpt lat="40.7770212" lon="14.8348172"><ele>566.3333333333334</ele><time>2026-04-25T09:45:30.588Z</time></trkpt><trkpt lat="40.7770829" lon="14.8347547"><ele>566.0</ele><time>2026-04-25T09:45:31.589Z</time></trkpt><trkpt lat="40.7771463" lon="14.8346814"><ele>565.6666666666667</ele><time>2026-04-25T09:45:32.588Z</time></trkpt><trkpt lat="40.7772048" lon="14.8346022"><ele>565.3333333333334</ele><time>2026-04-25T09:45:33.587Z</time></trkpt><trkpt lat="40.7772452" lon="14.8345131"><ele>565.0</ele><time>2026-04-25T09:45:34.588Z</time></trkpt><trkpt lat="40.7772571" lon="14.8344096"><ele>565.0</ele><time>2026-04-25T09:45:35.589Z</time></trkpt><trkpt lat="40.7772397" lon="14.834307"><ele>565.0</ele><time>2026-04-25T09:45:36.589Z</time></trkpt><trkpt lat="40.7771962" lon="14.8342034"><ele>565.0</ele><time>2026-04-25T09:45:37.589Z</time></trkpt><trkpt lat="40.777142" lon="14.834098"><ele>565.0</ele><time>2026-04-25T09:45:38.588Z</time></trkpt><trkpt lat="40.777079" lon="14.8339893"><ele>565.0</ele><time>2026-04-25T09:45:39.589Z</time></trkpt><trkpt lat="40.7770081" lon="14.8338768"><ele>565.75</ele><time>2026-04-25T09:45:40.588Z</time></trkpt><trkpt lat="40.7769292" lon="14.8337533"><ele>566.5</ele><time>2026-04-25T09:45:41.589Z</time></trkpt><trkpt lat="40.776854" lon="14.833633"><ele>567.25</ele><time>2026-04-25T09:45:42.589Z</time></trkpt><trkpt lat="40.7767856" lon="14.833519"><ele>568.0</ele><time>2026-04-25T09:45:43.589Z</time></trkpt><trkpt lat="40.7767232" lon="14.8334118"><ele>564.6</ele><time>2026-04-25T09:45:44.589Z</time></trkpt><trkpt lat="40.7766684" lon="14.8333007"><ele>561.1999999999999</ele><time>2026-04-25T09:45:45.589Z</time></trkpt><trkpt lat="40.7766205" lon="14.8331925"><ele>557.8</ele><time>2026-04-25T09:45:46.589Z</time></trkpt><trkpt lat="40.7765852" lon="14.8330845"><ele>554.4</ele><time>2026-04-25T09:45:47.588Z</time></trkpt><trkpt lat="40.7765642" lon="14.8329699"><ele>551.0</ele><time>2026-04-25T09:45:48.589Z</time></trkpt><trkpt lat="40.7765633" lon="14.8328536"><ele>551.0</ele><time>2026-04-25T09:45:49.588Z</time></trkpt><trkpt lat="40.7765782" lon="14.8327397"><ele>551.0</ele><time>2026-04-25T09:45:50.588Z</time></trkpt><trkpt lat="40.7766085" lon="14.8326233"><ele>551.0</ele><time>2026-04-25T09:45:51.589Z</time></trkpt><trkpt lat="40.7766424" lon="14.8324996"><ele>551.0</ele><time>2026-04-25T09:45:52.588Z</time></trkpt><trkpt lat="40.7766837" lon="14.8323651"><ele>551.0</ele><time>2026-04-25T09:45:53.588Z</time></trkpt><trkpt lat="40.7767358" lon="14.8322221"><ele>550.75</ele><time>2026-04-25T09:45:54.589Z</time></trkpt><trkpt lat="40.7768007" lon="14.8320764"><ele>550.5</ele><time>2026-04-25T09:45:55.588Z</time></trkpt><trkpt lat="40.7768717" lon="14.8319469"><ele>550.25</ele><time>2026-04-25T09:45:56.589Z</time></trkpt><trkpt lat="40.7769477" lon="14.8318212"><ele>550.0</ele><time>2026-04-25T09:45:57.589Z</time></trkpt><trkpt lat="40.7770423" lon="14.8316957"><ele>551.6666666666667</ele><time>2026-04-25T09:45:58.588Z</time></trkpt><trkpt lat="40.7771484" lon="14.8315613"><ele>553.3333333333334</ele><time>2026-04-25T09:45:59.588Z</time></trkpt><trkpt lat="40.7772631" lon="14.8314145"><ele>555.0</ele><time>2026-04-25T09:46:00.588Z</time></trkpt><trkpt lat="40.7773696" lon="14.8312753"><ele>555.0</ele><time>2026-04-25T09:46:01.588Z</time></trkpt><trkpt lat="40.7774725" lon="14.831142"><ele>555.0</ele><time>2026-04-25T09:46:02.588Z</time></trkpt><trkpt lat="40.7775738" lon="14.831012"><ele>555.0</ele><time>2026-04-25T09:46:03.589Z</time></trkpt><trkpt lat="40.7776721" lon="14.8308744"><ele>555.0</ele><time>2026-04-25T09:46:04.587Z</time></trkpt><trkpt lat="40.7777678" lon="14.8307255"><ele>555.3333333333334</ele><time>2026-04-25T09:46:05.588Z</time></trkpt><trkpt lat="40.7778554" lon="14.8305607"><ele>555.6666666666667</ele><time>2026-04-25T09:46:06.589Z</time></trkpt><trkpt lat="40.7779377" lon="14.8303737"><ele>556.0</ele><time>2026-04-25T09:46:07.589Z</time></trkpt><trkpt lat="40.7780236" lon="14.8301575"><ele>552.6666666666667</ele><time>2026-04-25T09:46:08.588Z</time></trkpt><trkpt lat="40.7781059" lon="14.8299382"><ele>549.3333333333334</ele><time>2026-04-25T09:46:09.588Z</time></trkpt><trkpt lat="40.7781787" lon="14.829741"><ele>546.0</ele><time>2026-04-25T09:46:10.588Z</time></trkpt><trkpt lat="40.7782449" lon="14.8295546"><ele>546.0</ele><time>2026-04-25T09:46:11.588Z</time></trkpt><trkpt lat="40.7783081" lon="14.8293805"><ele>546.0</ele><time>2026-04-25T09:46:12.587Z</time></trkpt><trkpt lat="40.7783673" lon="14.8292191"><ele>546.0</ele><time>2026-04-25T09:46:13.589Z</time></trkpt><trkpt lat="40.7784221" lon="14.8290744"><ele>546.0</ele><time>2026-04-25T09:46:14.588Z</time></trkpt><trkpt lat="40.7784765" lon="14.8289412"><ele>546.0</ele><time>2026-04-25T09:46:15.589Z</time></trkpt><trkpt lat="40.7785391" lon="14.8288174"><ele>546.0</ele><time>2026-04-25T09:46:16.588Z</time></trkpt><trkpt lat="40.7786171" lon="14.8286938"><ele>546.0</ele><time>2026-04-25T09:46:17.589Z</time></trkpt><trkpt lat="40.7787055" lon="14.8285578"><ele>546.0</ele><time>2026-04-25T09:46:18.588Z</time></trkpt><trkpt lat="40.77881" lon="14.828413"><ele>544.0</ele><time>2026-04-25T09:46:19.589Z</time></trkpt><trkpt lat="40.7789051" lon="14.82829"><ele>542.0</ele><time>2026-04-25T09:46:20.588Z</time></trkpt><trkpt lat="40.7789939" lon="14.8281712"><ele>540.0</ele><time>2026-04-25T09:46:21.589Z</time></trkpt><trkpt lat="40.7790773" lon="14.8280592"><ele>538.0</ele><time>2026-04-25T09:46:22.589Z</time></trkpt><trkpt lat="40.7791469" lon="14.8279609"><ele>538.0</ele><time>2026-04-25T09:46:23.589Z</time></trkpt><trkpt lat="40.779207" lon="14.8278738"><ele>538.0</ele><time>2026-04-25T09:46:24.589Z</time></trkpt><trkpt lat="40.7792548" lon="14.827818"><ele>538.0</ele><time>2026-04-25T09:46:25.589Z</time></trkpt><trkpt lat="40.7793159" lon="14.8277423"><ele>538.0</ele><time>2026-04-25T09:46:27.588Z</time></trkpt><trkpt lat="40.7793069" lon="14.8276089"><ele>538.0</ele><time>2026-04-25T09:46:30.589Z</time></trkpt><trkpt lat="40.779211" lon="14.8274802"><ele>536.6</ele><time>2026-04-25T09:46:32.589Z</time></trkpt><trkpt lat="40.7791508" lon="14.8273945"><ele>535.1999999999999</ele><time>2026-04-25T09:46:33.588Z</time></trkpt><trkpt lat="40.7790821" lon="14.8273057"><ele>533.8</ele><time>2026-04-25T09:46:34.589Z</time></trkpt><trkpt lat="40.7790161" lon="14.8272195"><ele>532.4</ele><time>2026-04-25T09:46:35.589Z</time></trkpt><trkpt lat="40.7789556" lon="14.8271264"><ele>531.0</ele><time>2026-04-25T09:46:36.588Z</time></trkpt><trkpt lat="40.778894" lon="14.8270322"><ele>531.0</ele><time>2026-04-25T09:46:37.589Z</time></trkpt><trkpt lat="40.7788291" lon="14.8269407"><ele>531.0</ele><time>2026-04-25T09:46:38.588Z</time></trkpt><trkpt lat="40.778762" lon="14.8268538"><ele>531.0</ele><time>2026-04-25T09:46:39.588Z</time></trkpt><trkpt lat="40.7786849" lon="14.8267873"><ele>531.0</ele><time>2026-04-25T09:46:40.588Z</time></trkpt><trkpt lat="40.7785936" lon="14.826742"><ele>531.0</ele><time>2026-04-25T09:46:41.588Z</time></trkpt><trkpt lat="40.7784986" lon="14.826715"><ele>528.1666666666666</ele><time>2026-04-25T09:46:42.589Z</time></trkpt><trkpt lat="40.7784066" lon="14.8266964"><ele>525.3333333333334</ele><time>2026-04-25T09:46:43.588Z</time></trkpt><trkpt lat="40.7783214" lon="14.8266661"><ele>522.5</ele><time>2026-04-25T09:46:44.589Z</time></trkpt><trkpt lat="40.7782541" lon="14.826603"><ele>519.6666666666667</ele><time>2026-04-25T09:46:45.589Z</time></trkpt><trkpt lat="40.7781963" lon="14.8265215"><ele>516.8333333333334</ele><time>2026-04-25T09:46:46.589Z</time></trkpt><trkpt lat="40.7781506" lon="14.8264272"><ele>514.0</ele><time>2026-04-25T09:46:47.589Z</time></trkpt><trkpt lat="40.7781089" lon="14.8263243"><ele>514.0</ele><time>2026-04-25T09:46:48.587Z</time></trkpt><trkpt lat="40.7780672" lon="14.8262129"><ele>514.0</ele><time>2026-04-25T09:46:49.588Z</time></trkpt><trkpt lat="40.7780265" lon="14.8260916"><ele>514.0</ele><time>2026-04-25T09:46:50.589Z</time></trkpt><trkpt lat="40.7779802" lon="14.8259539"><ele>514.0</ele><time>2026-04-25T09:46:51.587Z</time></trkpt><trkpt lat="40.7779335" lon="14.8258152"><ele>514.0</ele><time>2026-04-25T09:46:52.588Z</time></trkpt><trkpt lat="40.7778887" lon="14.8256814"><ele>512.0</ele><time>2026-04-25T09:46:53.587Z</time></trkpt><trkpt lat="40.7778442" lon="14.8255499"><ele>510.0</ele><time>2026-04-25T09:46:54.587Z</time></trkpt><trkpt lat="40.7777975" lon="14.8254185"><ele>508.0</ele><time>2026-04-25T09:46:55.587Z</time></trkpt><trkpt lat="40.7777467" lon="14.8252761"><ele>506.0</ele><time>2026-04-25T09:46:56.588Z</time></trkpt><trkpt lat="40.7776903" lon="14.8251147"><ele>502.0</ele><time>2026-04-25T09:46:57.589Z</time></trkpt><trkpt lat="40.7776282" lon="14.8249231"><ele>498.0</ele><time>2026-04-25T09:46:58.589Z</time></trkpt><trkpt lat="40.7775577" lon="14.824689"><ele>494.0</ele><time>2026-04-25T09:46:59.589Z</time></trkpt><trkpt lat="40.7774869" lon="14.8244536"><ele>491.66666666666663</ele><time>2026-04-25T09:47:00.589Z</time></trkpt><trkpt lat="40.7774106" lon="14.8242456"><ele>489.33333333333337</ele><time>2026-04-25T09:47:01.588Z</time></trkpt><trkpt lat="40.777328" lon="14.8240716"><ele>487.0</ele><time>2026-04-25T09:47:02.587Z</time></trkpt><trkpt lat="40.7772454" lon="14.823931"><ele>487.0</ele><time>2026-04-25T09:47:03.588Z</time></trkpt><trkpt lat="40.7771709" lon="14.8238143"><ele>487.00000000000006</ele><time>2026-04-25T09:47:04.589Z</time></trkpt><trkpt lat="40.7771102" lon="14.8237148"><ele>487.00000000000006</ele><time>2026-04-25T09:47:05.589Z</time></trkpt><trkpt lat="40.7770546" lon="14.82362"><ele>487.0</ele><time>2026-04-25T09:47:06.589Z</time></trkpt><trkpt lat="40.7769996" lon="14.8235369"><ele>487.0</ele><time>2026-04-25T09:47:07.589Z</time></trkpt><trkpt lat="40.7769328" lon="14.8234808"><ele>485.6666666666667</ele><time>2026-04-25T09:47:08.588Z</time></trkpt><trkpt lat="40.7768584" lon="14.8234514"><ele>484.33333333333337</ele><time>2026-04-25T09:47:09.587Z</time></trkpt><trkpt lat="40.7767817" lon="14.8234277"><ele>483.0</ele><time>2026-04-25T09:47:10.588Z</time></trkpt><trkpt lat="40.7767032" lon="14.8233812"><ele>481.66666666666663</ele><time>2026-04-25T09:47:11.588Z</time></trkpt><trkpt lat="40.7766254" lon="14.8233142"><ele>480.3333333333333</ele><time>2026-04-25T09:47:12.589Z</time></trkpt><trkpt lat="40.7765441" lon="14.823233"><ele>479.0</ele><time>2026-04-25T09:47:13.588Z</time></trkpt><trkpt lat="40.7764662" lon="14.8231228"><ele>478.25</ele><time>2026-04-25T09:47:14.588Z</time></trkpt><trkpt lat="40.7763894" lon="14.8229823"><ele>477.5</ele><time>2026-04-25T09:47:15.588Z</time></trkpt><trkpt lat="40.7763148" lon="14.8228388"><ele>476.75</ele><time>2026-04-25T09:47:16.589Z</time></trkpt><trkpt lat="40.7762385" lon="14.8227017"><ele>476.0</ele><time>2026-04-25T09:47:17.588Z</time></trkpt><trkpt lat="40.7761653" lon="14.8225647"><ele>474.25</ele><time>2026-04-25T09:47:18.589Z</time></trkpt><trkpt lat="40.7760924" lon="14.8224329"><ele>472.5</ele><time>2026-04-25T09:47:19.588Z</time></trkpt><trkpt lat="40.7760192" lon="14.8222987"><ele>470.75</ele><time>2026-04-25T09:47:20.588Z</time></trkpt><trkpt lat="40.7759477" lon="14.822168"><ele>469.0</ele><time>2026-04-25T09:47:21.589Z</time></trkpt><trkpt lat="40.7758773" lon="14.8220381"><ele>467.75</ele><time>2026-04-25T09:47:22.588Z</time></trkpt><trkpt lat="40.7758087" lon="14.8219102"><ele>466.5</ele><time>2026-04-25T09:47:23.589Z</time></trkpt><trkpt lat="40.7757409" lon="14.8217839"><ele>465.25</ele><time>2026-04-25T09:47:24.589Z</time></trkpt><trkpt lat="40.7756756" lon="14.8216586"><ele>464.0</ele><time>2026-04-25T09:47:25.588Z</time></trkpt><trkpt lat="40.7756144" lon="14.8215343"><ele>463.4</ele><time>2026-04-25T09:47:26.589Z</time></trkpt><trkpt lat="40.7755577" lon="14.8214122"><ele>462.79999999999995</ele><time>2026-04-25T09:47:27.589Z</time></trkpt><trkpt lat="40.7755073" lon="14.8212869"><ele>462.20000000000005</ele><time>2026-04-25T09:47:28.588Z</time></trkpt><trkpt lat="40.7754649" lon="14.8211615"><ele>461.6</ele><time>2026-04-25T09:47:29.589Z</time></trkpt><trkpt lat="40.7754299" lon="14.8210315"><ele>461.0</ele><time>2026-04-25T09:47:30.589Z</time></trkpt><trkpt lat="40.775401" lon="14.8208998"><ele>459.8</ele><time>2026-04-25T09:47:31.589Z</time></trkpt><trkpt lat="40.7753779" lon="14.8207673"><ele>458.6</ele><time>2026-04-25T09:47:32.589Z</time></trkpt><trkpt lat="40.7753573" lon="14.8206356"><ele>457.4</ele><time>2026-04-25T09:47:33.587Z</time></trkpt><trkpt lat="40.7753382" lon="14.8205009"><ele>456.2</ele><time>2026-04-25T09:47:34.587Z</time></trkpt><trkpt lat="40.7753174" lon="14.8203587"><ele>455.0</ele><time>2026-04-25T09:47:35.587Z</time></trkpt><trkpt lat="40.7753002" lon="14.8202171"><ele>452.25</ele><time>2026-04-25T09:47:36.588Z</time></trkpt><trkpt lat="40.7752782" lon="14.8200689"><ele>449.5</ele><time>2026-04-25T09:47:37.588Z</time></trkpt><trkpt lat="40.7752595" lon="14.8199168"><ele>446.75</ele><time>2026-04-25T09:47:38.587Z</time></trkpt><trkpt lat="40.7752375" lon="14.8197575"><ele>444.0</ele><time>2026-04-25T09:47:39.588Z</time></trkpt><trkpt lat="40.7752168" lon="14.8195987"><ele>444.0</ele><time>2026-04-25T09:47:40.589Z</time></trkpt><trkpt lat="40.7751938" lon="14.8194265"><ele>444.0</ele><time>2026-04-25T09:47:41.589Z</time></trkpt><trkpt lat="40.7751611" lon="14.8192491"><ele>444.0</ele><time>2026-04-25T09:47:42.589Z</time></trkpt><trkpt lat="40.7751157" lon="14.8190667"><ele>444.0</ele><time>2026-04-25T09:47:43.589Z</time></trkpt><trkpt lat="40.7750574" lon="14.8188753"><ele>441.33333333333337</ele><time>2026-04-25T09:47:44.587Z</time></trkpt><trkpt lat="40.7749915" lon="14.8186771"><ele>438.6666666666667</ele><time>2026-04-25T09:47:45.588Z</time></trkpt><trkpt lat="40.7749288" lon="14.8184802"><ele>436.0</ele><time>2026-04-25T09:47:46.587Z</time></trkpt><trkpt lat="40.774866" lon="14.8182862"><ele>434.6666666666667</ele><time>2026-04-25T09:47:47.587Z</time></trkpt><trkpt lat="40.7748077" lon="14.8180995"><ele>433.33333333333337</ele><time>2026-04-25T09:47:48.588Z</time></trkpt><trkpt lat="40.774749" lon="14.8179147"><ele>432.0</ele><time>2026-04-25T09:47:49.588Z</time></trkpt><trkpt lat="40.7746914" lon="14.817734"><ele>431.25</ele><time>2026-04-25T09:47:50.588Z</time></trkpt><trkpt lat="40.7746353" lon="14.8175581"><ele>430.5</ele><time>2026-04-25T09:47:51.587Z</time></trkpt><trkpt lat="40.774581" lon="14.8173837"><ele>429.75</ele><time>2026-04-25T09:47:52.588Z</time></trkpt><trkpt lat="40.7745298" lon="14.8172028"><ele>429.0</ele><time>2026-04-25T09:47:53.588Z</time></trkpt><trkpt lat="40.7744794" lon="14.8170215"><ele>429.0</ele><time>2026-04-25T09:47:54.589Z</time></trkpt><trkpt lat="40.7744316" lon="14.8168386"><ele>429.0</ele><time>2026-04-25T09:47:55.587Z</time></trkpt><trkpt lat="40.7743819" lon="14.816651"><ele>429.0</ele><time>2026-04-25T09:47:56.588Z</time></trkpt><trkpt lat="40.7743316" lon="14.8164594"><ele>423.0</ele><time>2026-04-25T09:47:57.588Z</time></trkpt><trkpt lat="40.7742837" lon="14.8162622"><ele>417.0</ele><time>2026-04-25T09:47:58.589Z</time></trkpt><trkpt lat="40.7742395" lon="14.8160565"><ele>411.0</ele><time>2026-04-25T09:47:59.589Z</time></trkpt><trkpt lat="40.7741992" lon="14.8158483"><ele>410.0</ele><time>2026-04-25T09:48:00.588Z</time></trkpt><trkpt lat="40.774168" lon="14.8156428"><ele>409.0</ele><time>2026-04-25T09:48:01.589Z</time></trkpt><trkpt lat="40.7741419" lon="14.815443"><ele>408.0</ele><time>2026-04-25T09:48:02.589Z</time></trkpt><trkpt lat="40.774119" lon="14.8152492"><ele>406.75</ele><time>2026-04-25T09:48:03.589Z</time></trkpt><trkpt lat="40.7740997" lon="14.8150599"><ele>405.5</ele><time>2026-04-25T09:48:04.589Z</time></trkpt><trkpt lat="40.7740876" lon="14.8148755"><ele>404.25</ele><time>2026-04-25T09:48:05.588Z</time></trkpt><trkpt lat="40.7740975" lon="14.8146887"><ele>403.0</ele><time>2026-04-25T09:48:06.588Z</time></trkpt><trkpt lat="40.7741298" lon="14.8145051"><ele>403.0</ele><time>2026-04-25T09:48:07.587Z</time></trkpt><trkpt lat="40.7741561" lon="14.814327"><ele>403.0</ele><time>2026-04-25T09:48:08.589Z</time></trkpt><trkpt lat="40.7741558" lon="14.8141504"><ele>403.0</ele><time>2026-04-25T09:48:09.587Z</time></trkpt><trkpt lat="40.7741369" lon="14.8139825"><ele>403.0</ele><time>2026-04-25T09:48:10.589Z</time></trkpt><trkpt lat="40.774125" lon="14.8138187"><ele>402.0</ele><time>2026-04-25T09:48:11.589Z</time></trkpt><trkpt lat="40.7741233" lon="14.8136561"><ele>401.0</ele><time>2026-04-25T09:48:12.589Z</time></trkpt><trkpt lat="40.7741385" lon="14.8134905"><ele>400.0</ele><time>2026-04-25T09:48:13.588Z</time></trkpt><trkpt lat="40.7741723" lon="14.8133262"><ele>399.0</ele><time>2026-04-25T09:48:14.588Z</time></trkpt><trkpt lat="40.7742173" lon="14.8131714"><ele>398.25</ele><time>2026-04-25T09:48:15.589Z</time></trkpt><trkpt lat="40.7742674" lon="14.8130221"><ele>397.5</ele><time>2026-04-25T09:48:16.589Z</time></trkpt><trkpt lat="40.7743163" lon="14.8128789"><ele>396.75</ele><time>2026-04-25T09:48:17.589Z</time></trkpt><trkpt lat="40.7743599" lon="14.8127394"><ele>396.0</ele><time>2026-04-25T09:48:18.588Z</time></trkpt><trkpt lat="40.7743848" lon="14.8126007"><ele>395.20000000000005</ele><time>2026-04-25T09:48:19.588Z</time></trkpt><trkpt lat="40.7743809" lon="14.812466"><ele>394.40000000000003</ele><time>2026-04-25T09:48:20.589Z</time></trkpt><trkpt lat="40.774345" lon="14.8123461"><ele>393.6</ele><time>2026-04-25T09:48:21.587Z</time></trkpt><trkpt lat="40.7742909" lon="14.8122459"><ele>392.8</ele><time>2026-04-25T09:48:22.588Z</time></trkpt><trkpt lat="40.7742337" lon="14.8121467"><ele>392.0</ele><time>2026-04-25T09:48:23.587Z</time></trkpt><trkpt lat="40.7742034" lon="14.8120293"><ele>392.0</ele><time>2026-04-25T09:48:24.588Z</time></trkpt><trkpt lat="40.7741858" lon="14.8119013"><ele>392.0</ele><time>2026-04-25T09:48:25.588Z</time></trkpt><trkpt lat="40.7741896" lon="14.8117651"><ele>392.0</ele><time>2026-04-25T09:48:26.589Z</time></trkpt><trkpt lat="40.774218" lon="14.8116239"><ele>392.0</ele><time>2026-04-25T09:48:27.587Z</time></trkpt><trkpt lat="40.774263" lon="14.8114749"><ele>392.0</ele><time>2026-04-25T09:48:28.588Z</time></trkpt><trkpt lat="40.7743154" lon="14.8113259"><ele>389.20000000000005</ele><time>2026-04-25T09:48:29.587Z</time></trkpt><trkpt lat="40.7743633" lon="14.8111834"><ele>386.4</ele><time>2026-04-25T09:48:30.589Z</time></trkpt><trkpt lat="40.7744086" lon="14.8110488"><ele>383.6</ele><time>2026-04-25T09:48:31.589Z</time></trkpt><trkpt lat="40.7744501" lon="14.8109182"><ele>380.79999999999995</ele><time>2026-04-25T09:48:32.588Z</time></trkpt><trkpt lat="40.774477" lon="14.810789"><ele>378.0</ele><time>2026-04-25T09:48:33.589Z</time></trkpt><trkpt lat="40.7744793" lon="14.8106644"><ele>377.0</ele><time>2026-04-25T09:48:34.589Z</time></trkpt><trkpt lat="40.7744549" lon="14.8105652"><ele>376.0</ele><time>2026-04-25T09:48:35.588Z</time></trkpt><trkpt lat="40.7744097" lon="14.8104985"><ele>375.0</ele><time>2026-04-25T09:48:36.588Z</time></trkpt><trkpt lat="40.774344" lon="14.8104795"><ele>374.0</ele><time>2026-04-25T09:48:37.588Z</time></trkpt><trkpt lat="40.7742795" lon="14.8105093"><ele>373.0</ele><time>2026-04-25T09:48:38.588Z</time></trkpt><trkpt lat="40.7742309" lon="14.8105744"><ele>372.0</ele><time>2026-04-25T09:48:39.588Z</time></trkpt><trkpt lat="40.7741887" lon="14.8106686"><ele>371.0</ele><time>2026-04-25T09:48:40.589Z</time></trkpt><trkpt lat="40.7741432" lon="14.8107845"><ele>371.0</ele><time>2026-04-25T09:48:41.589Z</time></trkpt><trkpt lat="40.7740914" lon="14.810913"><ele>371.0</ele><time>2026-04-25T09:48:42.588Z</time></trkpt><trkpt lat="40.774035" lon="14.8110402"><ele>371.0</ele><time>2026-04-25T09:48:43.588Z</time></trkpt><trkpt lat="40.7739649" lon="14.8111458"><ele>371.0</ele><time>2026-04-25T09:48:44.589Z</time></trkpt><trkpt lat="40.7738935" lon="14.8112309"><ele>371.0</ele><time>2026-04-25T09:48:45.588Z</time></trkpt><trkpt lat="40.7738284" lon="14.8113029"><ele>371.0</ele><time>2026-04-25T09:48:46.589Z</time></trkpt><trkpt lat="40.7737702" lon="14.8113528"><ele>371.0</ele><time>2026-04-25T09:48:47.589Z</time></trkpt><trkpt lat="40.7736734" lon="14.8113593"><ele>371.0</ele><time>2026-04-25T09:48:49.587Z</time></trkpt><trkpt lat="40.7736596" lon="14.8112217"><ele>371.0</ele><time>2026-04-25T09:48:51.588Z</time></trkpt><trkpt lat="40.7736866" lon="14.8111357"><ele>371.0</ele><time>2026-04-25T09:48:52.589Z</time></trkpt><trkpt lat="40.7737267" lon="14.811041"><ele>371.0</ele><time>2026-04-25T09:48:53.588Z</time></trkpt><trkpt lat="40.7737753" lon="14.8109279"><ele>371.0</ele><time>2026-04-25T09:48:54.589Z</time></trkpt><trkpt lat="40.7738307" lon="14.8108018"><ele>371.0</ele><time>2026-04-25T09:48:55.589Z</time></trkpt><trkpt lat="40.7738856" lon="14.8106584"><ele>371.0</ele><time>2026-04-25T09:48:56.588Z</time></trkpt><trkpt lat="40.7739291" lon="14.8105023"><ele>371.0</ele><time>2026-04-25T09:48:57.588Z</time></trkpt><trkpt lat="40.7739637" lon="14.8103474"><ele>371.0</ele><time>2026-04-25T09:48:58.589Z</time></trkpt><trkpt lat="40.7739982" lon="14.8101965"><ele>371.0</ele><time>2026-04-25T09:48:59.588Z</time></trkpt><trkpt lat="40.7740383" lon="14.8100513"><ele>371.0</ele><time>2026-04-25T09:49:00.588Z</time></trkpt><trkpt lat="40.7740845" lon="14.8099074"><ele>371.0</ele><time>2026-04-25T09:49:01.588Z</time></trkpt><trkpt lat="40.7741294" lon="14.8097691"><ele>368.25</ele><time>2026-04-25T09:49:02.588Z</time></trkpt><trkpt lat="40.7741759" lon="14.8096278"><ele>365.5</ele><time>2026-04-25T09:49:03.588Z</time></trkpt><trkpt lat="40.7742205" lon="14.8094827"><ele>362.75</ele><time>2026-04-25T09:49:04.588Z</time></trkpt><trkpt lat="40.7742668" lon="14.8093364"><ele>360.0</ele><time>2026-04-25T09:49:05.588Z</time></trkpt><trkpt lat="40.7743105" lon="14.8091945"><ele>358.4</ele><time>2026-04-25T09:49:06.588Z</time></trkpt><trkpt lat="40.7743489" lon="14.8090588"><ele>356.8</ele><time>2026-04-25T09:49:07.588Z</time></trkpt><trkpt lat="40.7743846" lon="14.8089276"><ele>355.20000000000005</ele><time>2026-04-25T09:49:08.589Z</time></trkpt><trkpt lat="40.7744173" lon="14.8088006"><ele>353.6</ele><time>2026-04-25T09:49:09.589Z</time></trkpt><trkpt lat="40.7744478" lon="14.8086721"><ele>352.0</ele><time>2026-04-25T09:49:10.588Z</time></trkpt><trkpt lat="40.7744798" lon="14.8085435"><ele>350.6</ele><time>2026-04-25T09:49:11.588Z</time></trkpt><trkpt lat="40.7745169" lon="14.8084181"><ele>349.20000000000005</ele><time>2026-04-25T09:49:12.588Z</time></trkpt><trkpt lat="40.7745578" lon="14.8082983"><ele>347.8</ele><time>2026-04-25T09:49:13.587Z</time></trkpt><trkpt lat="40.7746037" lon="14.8081863"><ele>346.4</ele><time>2026-04-25T09:49:14.589Z</time></trkpt><trkpt lat="40.7746523" lon="14.8080865"><ele>345.0</ele><time>2026-04-25T09:49:15.588Z</time></trkpt><trkpt lat="40.7746996" lon="14.8080014"><ele>345.0</ele><time>2026-04-25T09:49:16.589Z</time></trkpt><trkpt lat="40.7747505" lon="14.8079379"><ele>345.0</ele><time>2026-04-25T09:49:17.588Z</time></trkpt><trkpt lat="40.7747967" lon="14.8078779"><ele>345.0</ele><time>2026-04-25T09:49:18.589Z</time></trkpt><trkpt lat="40.774827" lon="14.8077307"><ele>345.0</ele><time>2026-04-25T09:49:20.589Z</time></trkpt><trkpt lat="40.7747889" lon="14.8075709"><ele>345.0</ele><time>2026-04-25T09:49:22.587Z</time></trkpt><trkpt lat="40.7747561" lon="14.8074747"><ele>343.3333333333333</ele><time>2026-04-25T09:49:23.589Z</time></trkpt><trkpt lat="40.7747177" lon="14.8073773"><ele>341.6666666666667</ele><time>2026-04-25T09:49:24.588Z</time></trkpt><trkpt lat="40.7746705" lon="14.8072818"><ele>340.0</ele><time>2026-04-25T09:49:25.589Z</time></trkpt><trkpt lat="40.7746224" lon="14.8072022"><ele>338.33333333333337</ele><time>2026-04-25T09:49:26.587Z</time></trkpt><trkpt lat="40.7745677" lon="14.8071292"><ele>336.6666666666667</ele><time>2026-04-25T09:49:27.589Z</time></trkpt><trkpt lat="40.7745097" lon="14.8070699"><ele>335.0</ele><time>2026-04-25T09:49:28.588Z</time></trkpt><trkpt lat="40.7744437" lon="14.807023"><ele>335.0</ele><time>2026-04-25T09:49:29.589Z</time></trkpt><trkpt lat="40.7743712" lon="14.8069988"><ele>335.0</ele><time>2026-04-25T09:49:30.588Z</time></trkpt><trkpt lat="40.7742955" lon="14.8070162"><ele>335.0</ele><time>2026-04-25T09:49:31.589Z</time></trkpt><trkpt lat="40.7742285" lon="14.8070754"><ele>335.0</ele><time>2026-04-25T09:49:32.588Z</time></trkpt><trkpt lat="40.7741745" lon="14.8071647"><ele>335.0</ele><time>2026-04-25T09:49:33.589Z</time></trkpt><trkpt lat="40.7741206" lon="14.8072766"><ele>335.0</ele><time>2026-04-25T09:49:34.588Z</time></trkpt><trkpt lat="40.7740646" lon="14.807398"><ele>334.8</ele><time>2026-04-25T09:49:35.589Z</time></trkpt><trkpt lat="40.7740104" lon="14.8075333"><ele>334.6</ele><time>2026-04-25T09:49:36.588Z</time></trkpt><trkpt lat="40.7739661" lon="14.8076674"><ele>334.4</ele><time>2026-04-25T09:49:37.588Z</time></trkpt><trkpt lat="40.7739232" lon="14.8077975"><ele>334.2</ele><time>2026-04-25T09:49:38.588Z</time></trkpt><trkpt lat="40.7738832" lon="14.8079228"><ele>334.0</ele><time>2026-04-25T09:49:39.587Z</time></trkpt><trkpt lat="40.7738464" lon="14.8080505"><ele>335.79999999999995</ele><time>2026-04-25T09:49:40.589Z</time></trkpt><trkpt lat="40.773808" lon="14.8081724"><ele>337.59999999999997</ele><time>2026-04-25T09:49:41.588Z</time></trkpt><trkpt lat="40.7737677" lon="14.8082904"><ele>339.4</ele><time>2026-04-25T09:49:42.589Z</time></trkpt><trkpt lat="40.7737262" lon="14.8084037"><ele>341.2</ele><time>2026-04-25T09:49:43.589Z</time></trkpt><trkpt lat="40.7736783" lon="14.8085081"><ele>343.0</ele><time>2026-04-25T09:49:44.589Z</time></trkpt><trkpt lat="40.7736304" lon="14.8085892"><ele>344.5</ele><time>2026-04-25T09:49:45.587Z</time></trkpt><trkpt lat="40.7735366" lon="14.8086479"><ele>346.0</ele><time>2026-04-25T09:49:47.589Z</time></trkpt><trkpt lat="40.7734625" lon="14.8085732"><ele>347.5</ele><time>2026-04-25T09:49:49.588Z</time></trkpt><trkpt lat="40.7734568" lon="14.8084873"><ele>349.0</ele><time>2026-04-25T09:49:50.589Z</time></trkpt><trkpt lat="40.7734691" lon="14.8083884"><ele>350.5</ele><time>2026-04-25T09:49:51.588Z</time></trkpt><trkpt lat="40.7734856" lon="14.808272"><ele>352.0</ele><time>2026-04-25T09:49:52.589Z</time></trkpt><trkpt lat="40.773506" lon="14.808143"><ele>349.75</ele><time>2026-04-25T09:49:53.589Z</time></trkpt><trkpt lat="40.7735251" lon="14.8080011"><ele>347.5</ele><time>2026-04-25T09:49:54.588Z</time></trkpt><trkpt lat="40.7735452" lon="14.8078496"><ele>345.25</ele><time>2026-04-25T09:49:55.589Z</time></trkpt><trkpt lat="40.7735689" lon="14.8076897"><ele>343.0</ele><time>2026-04-25T09:49:56.589Z</time></trkpt><trkpt lat="40.7735926" lon="14.8075303"><ele>341.2</ele><time>2026-04-25T09:49:57.589Z</time></trkpt><trkpt lat="40.7736198" lon="14.8073775"><ele>339.4</ele><time>2026-04-25T09:49:58.588Z</time></trkpt><trkpt lat="40.7736427" lon="14.8072338"><ele>337.59999999999997</ele><time>2026-04-25T09:49:59.588Z</time></trkpt><trkpt lat="40.7736629" lon="14.807098"><ele>335.79999999999995</ele><time>2026-04-25T09:50:00.588Z</time></trkpt><trkpt lat="40.7736825" lon="14.8069746"><ele>334.0</ele><time>2026-04-25T09:50:01.589Z</time></trkpt><trkpt lat="40.7737044" lon="14.8068606"><ele>332.2857142857143</ele><time>2026-04-25T09:50:02.588Z</time></trkpt><trkpt lat="40.7737236" lon="14.8067575"><ele>330.57142857142856</ele><time>2026-04-25T09:50:03.588Z</time></trkpt><trkpt lat="40.7737379" lon="14.806663"><ele>328.8571428571429</ele><time>2026-04-25T09:50:04.589Z</time></trkpt><trkpt lat="40.7737365" lon="14.806572"><ele>327.1428571428571</ele><time>2026-04-25T09:50:05.587Z</time></trkpt><trkpt lat="40.773714" lon="14.8064888"><ele>325.42857142857144</ele><time>2026-04-25T09:50:06.588Z</time></trkpt><trkpt lat="40.7736676" lon="14.8064173"><ele>323.7142857142857</ele><time>2026-04-25T09:50:07.588Z</time></trkpt><trkpt lat="40.7735986" lon="14.8063645"><ele>322.0</ele><time>2026-04-25T09:50:08.588Z</time></trkpt><trkpt lat="40.7735184" lon="14.806327"><ele>320.5</ele><time>2026-04-25T09:50:09.588Z</time></trkpt><trkpt lat="40.7734405" lon="14.8062914"><ele>319.0</ele><time>2026-04-25T09:50:10.589Z</time></trkpt><trkpt lat="40.7733704" lon="14.8062591"><ele>317.5</ele><time>2026-04-25T09:50:11.589Z</time></trkpt><trkpt lat="40.7733135" lon="14.8062203"><ele>316.0</ele><time>2026-04-25T09:50:12.589Z</time></trkpt><trkpt lat="40.7732831" lon="14.8060926"><ele>314.5</ele><time>2026-04-25T09:50:14.589Z</time></trkpt><trkpt lat="40.7732928" lon="14.8060086"><ele>313.0</ele><time>2026-04-25T09:50:15.588Z</time></trkpt><trkpt lat="40.7732977" lon="14.8059107"><ele>313.0</ele><time>2026-04-25T09:50:16.588Z</time></trkpt><trkpt lat="40.7732965" lon="14.8057996"><ele>313.0</ele><time>2026-04-25T09:50:17.588Z</time></trkpt><trkpt lat="40.7732911" lon="14.8056817"><ele>313.0</ele><time>2026-04-25T09:50:18.587Z</time></trkpt><trkpt lat="40.7732719" lon="14.8055556"><ele>313.0</ele><time>2026-04-25T09:50:19.588Z</time></trkpt><trkpt lat="40.7732548" lon="14.8054242"><ele>313.0</ele><time>2026-04-25T09:50:20.587Z</time></trkpt><trkpt lat="40.7732439" lon="14.8052786"><ele>313.75</ele><time>2026-04-25T09:50:21.588Z</time></trkpt><trkpt lat="40.7732465" lon="14.8051198"><ele>314.5</ele><time>2026-04-25T09:50:22.588Z</time></trkpt><trkpt lat="40.7732584" lon="14.8049447"><ele>315.25</ele><time>2026-04-25T09:50:23.588Z</time></trkpt><trkpt lat="40.7732851" lon="14.8047634"><ele>316.0</ele><time>2026-04-25T09:50:24.588Z</time></trkpt><trkpt lat="40.7733264" lon="14.804579"><ele>316.0</ele><time>2026-04-25T09:50:25.587Z</time></trkpt><trkpt lat="40.7733689" lon="14.804383"><ele>316.0</ele><time>2026-04-25T09:50:26.587Z</time></trkpt><trkpt lat="40.7734008" lon="14.8041811"><ele>316.0</ele><time>2026-04-25T09:50:27.587Z</time></trkpt><trkpt lat="40.7734274" lon="14.8039843"><ele>317.25</ele><time>2026-04-25T09:50:28.588Z</time></trkpt><trkpt lat="40.7734555" lon="14.8037983"><ele>318.5</ele><time>2026-04-25T09:50:29.587Z</time></trkpt><trkpt lat="40.7734818" lon="14.8036239"><ele>319.75</ele><time>2026-04-25T09:50:30.587Z</time></trkpt><trkpt lat="40.7735055" lon="14.8034576"><ele>321.0</ele><time>2026-04-25T09:50:31.588Z</time></trkpt><trkpt lat="40.7735173" lon="14.8032825"><ele>322.5</ele><time>2026-04-25T09:50:32.589Z</time></trkpt><trkpt lat="40.7735138" lon="14.8031067"><ele>324.0</ele><time>2026-04-25T09:50:33.589Z</time></trkpt><trkpt lat="40.7735089" lon="14.8029217"><ele>325.5</ele><time>2026-04-25T09:50:34.589Z</time></trkpt><trkpt lat="40.7735009" lon="14.8027334"><ele>327.0</ele><time>2026-04-25T09:50:35.588Z</time></trkpt><trkpt lat="40.773491" lon="14.802543"><ele>327.25</ele><time>2026-04-25T09:50:36.589Z</time></trkpt><trkpt lat="40.7734846" lon="14.8023753"><ele>327.5</ele><time>2026-04-25T09:50:37.589Z</time></trkpt><trkpt lat="40.773478" lon="14.8022197"><ele>327.75</ele><time>2026-04-25T09:50:38.588Z</time></trkpt><trkpt lat="40.7734742" lon="14.8020808"><ele>328.0</ele><time>2026-04-25T09:50:39.588Z</time></trkpt><trkpt lat="40.7734575" lon="14.8019495"><ele>327.0</ele><time>2026-04-25T09:50:40.589Z</time></trkpt><trkpt lat="40.7734291" lon="14.8018176"><ele>326.0</ele><time>2026-04-25T09:50:41.589Z</time></trkpt><trkpt lat="40.7734098" lon="14.8016908"><ele>325.0</ele><time>2026-04-25T09:50:42.589Z</time></trkpt><trkpt lat="40.7734085" lon="14.8015617"><ele>324.0</ele><time>2026-04-25T09:50:43.589Z</time></trkpt><trkpt lat="40.7734164" lon="14.801429"><ele>323.0</ele><time>2026-04-25T09:50:44.589Z</time></trkpt><trkpt lat="40.7734235" lon="14.8012933"><ele>323.0</ele><time>2026-04-25T09:50:45.588Z</time></trkpt><trkpt lat="40.7734331" lon="14.8011596"><ele>323.0</ele><time>2026-04-25T09:50:46.589Z</time></trkpt><trkpt lat="40.7734415" lon="14.8010301"><ele>323.0</ele><time>2026-04-25T09:50:47.589Z</time></trkpt><trkpt lat="40.7734506" lon="14.8009053"><ele>323.0</ele><time>2026-04-25T09:50:48.588Z</time></trkpt><trkpt lat="40.773457" lon="14.8007873"><ele>323.0</ele><time>2026-04-25T09:50:49.588Z</time></trkpt><trkpt lat="40.7734583" lon="14.8006716"><ele>322.0</ele><time>2026-04-25T09:50:50.587Z</time></trkpt><trkpt lat="40.7734508" lon="14.8005588"><ele>321.0</ele><time>2026-04-25T09:50:51.589Z</time></trkpt><trkpt lat="40.7734406" lon="14.8004433"><ele>320.0</ele><time>2026-04-25T09:50:52.588Z</time></trkpt><trkpt lat="40.7734321" lon="14.8003264"><ele>319.0</ele><time>2026-04-25T09:50:53.588Z</time></trkpt><trkpt lat="40.7734251" lon="14.8002111"><ele>318.0</ele><time>2026-04-25T09:50:54.588Z</time></trkpt><trkpt lat="40.7734202" lon="14.8000968"><ele>317.0</ele><time>2026-04-25T09:50:55.588Z</time></trkpt><trkpt lat="40.7734184" lon="14.7999741"><ele>316.0</ele><time>2026-04-25T09:50:56.588Z</time></trkpt><trkpt lat="40.7734181" lon="14.7998501"><ele>315.0</ele><time>2026-04-25T09:50:57.588Z</time></trkpt><trkpt lat="40.7734195" lon="14.7997289"><ele>314.0</ele><time>2026-04-25T09:50:58.589Z</time></trkpt><trkpt lat="40.7734231" lon="14.7996092"><ele>313.0</ele><time>2026-04-25T09:50:59.589Z</time></trkpt><trkpt lat="40.7734292" lon="14.7994912"><ele>312.0</ele><time>2026-04-25T09:51:00.589Z</time></trkpt><trkpt lat="40.7734355" lon="14.7993745"><ele>311.1666666666667</ele><time>2026-04-25T09:51:01.588Z</time></trkpt><trkpt lat="40.7734445" lon="14.7992593"><ele>310.3333333333333</ele><time>2026-04-25T09:51:02.589Z</time></trkpt><trkpt lat="40.773455" lon="14.7991444"><ele>309.5</ele><time>2026-04-25T09:51:03.588Z</time></trkpt><trkpt lat="40.7734666" lon="14.7990293"><ele>308.66666666666663</ele><time>2026-04-25T09:51:04.588Z</time></trkpt><trkpt lat="40.7734797" lon="14.7989161"><ele>307.8333333333333</ele><time>2026-04-25T09:51:05.588Z</time></trkpt><trkpt lat="40.7734937" lon="14.7988031"><ele>307.0</ele><time>2026-04-25T09:51:06.588Z</time></trkpt><trkpt lat="40.7735088" lon="14.7986937"><ele>306.0</ele><time>2026-04-25T09:51:07.589Z</time></trkpt><trkpt lat="40.7735275" lon="14.7985872"><ele>305.0</ele><time>2026-04-25T09:51:08.589Z</time></trkpt><trkpt lat="40.7735438" lon="14.7984825"><ele>304.0</ele><time>2026-04-25T09:51:09.589Z</time></trkpt><trkpt lat="40.7735586" lon="14.7983817"><ele>303.0</ele><time>2026-04-25T09:51:10.589Z</time></trkpt><trkpt lat="40.7735735" lon="14.798281"><ele>302.0</ele><time>2026-04-25T09:51:11.589Z</time></trkpt><trkpt lat="40.773586" lon="14.798184"><ele>301.0</ele><time>2026-04-25T09:51:12.588Z</time></trkpt><trkpt lat="40.7735959" lon="14.7980905"><ele>300.66666666666663</ele><time>2026-04-25T09:51:13.589Z</time></trkpt><trkpt lat="40.7736001" lon="14.7979994"><ele>300.3333333333333</ele><time>2026-04-25T09:51:14.588Z</time></trkpt><trkpt lat="40.7735977" lon="14.7979138"><ele>300.0</ele><time>2026-04-25T09:51:15.588Z</time></trkpt><trkpt lat="40.7735683" lon="14.7977541"><ele>299.6666666666667</ele><time>2026-04-25T09:51:17.589Z</time></trkpt><trkpt lat="40.7735321" lon="14.7976801"><ele>299.33333333333337</ele><time>2026-04-25T09:51:18.589Z</time></trkpt><trkpt lat="40.7734908" lon="14.7976098"><ele>299.0</ele><time>2026-04-25T09:51:19.587Z</time></trkpt><trkpt lat="40.7734506" lon="14.7975352"><ele>298.59999999999997</ele><time>2026-04-25T09:51:20.589Z</time></trkpt><trkpt lat="40.7734117" lon="14.7974602"><ele>298.2</ele><time>2026-04-25T09:51:21.588Z</time></trkpt><trkpt lat="40.7733496" lon="14.7973154"><ele>297.79999999999995</ele><time>2026-04-25T09:51:23.588Z</time></trkpt><trkpt lat="40.7732973" lon="14.7971743"><ele>297.4</ele><time>2026-04-25T09:51:25.588Z</time></trkpt><trkpt lat="40.7732511" lon="14.7970392"><ele>297.0</ele><time>2026-04-25T09:51:27.588Z</time></trkpt><trkpt lat="40.7731985" lon="14.7968994"><ele>296.4</ele><time>2026-04-25T09:51:29.589Z</time></trkpt><trkpt lat="40.7731597" lon="14.7967642"><ele>295.79999999999995</ele><time>2026-04-25T09:51:31.589Z</time></trkpt><trkpt lat="40.7731659" lon="14.796637"><ele>295.2</ele><time>2026-04-25T09:51:33.588Z</time></trkpt><trkpt lat="40.7732028" lon="14.7964843"><ele>294.59999999999997</ele><time>2026-04-25T09:51:35.587Z</time></trkpt><trkpt lat="40.7732329" lon="14.7963979"><ele>294.0</ele><time>2026-04-25T09:51:36.589Z</time></trkpt><trkpt lat="40.7732626" lon="14.7963151"><ele>294.0</ele><time>2026-04-25T09:51:37.588Z</time></trkpt><trkpt lat="40.7732945" lon="14.7962359"><ele>294.0</ele><time>2026-04-25T09:51:38.589Z</time></trkpt><trkpt lat="40.773327" lon="14.7961548"><ele>294.0</ele><time>2026-04-25T09:51:39.588Z</time></trkpt><trkpt lat="40.7733582" lon="14.7960802"><ele>294.0</ele><time>2026-04-25T09:51:40.588Z</time></trkpt><trkpt lat="40.7733861" lon="14.7960036"><ele>294.0</ele><time>2026-04-25T09:51:41.589Z</time></trkpt><trkpt lat="40.7734296" lon="14.7958543"><ele>294.0</ele><time>2026-04-25T09:51:43.588Z</time></trkpt><trkpt lat="40.7734652" lon="14.795714"><ele>293.0</ele><time>2026-04-25T09:51:45.589Z</time></trkpt><trkpt lat="40.7734916" lon="14.7955651"><ele>292.0</ele><time>2026-04-25T09:51:47.588Z</time></trkpt><trkpt lat="40.7735047" lon="14.7954836"><ele>291.0</ele><time>2026-04-25T09:51:48.588Z</time></trkpt><trkpt lat="40.773516" lon="14.7953984"><ele>290.0</ele><time>2026-04-25T09:51:49.589Z</time></trkpt><trkpt lat="40.7735263" lon="14.7953145"><ele>289.0</ele><time>2026-04-25T09:51:50.589Z</time></trkpt><trkpt lat="40.7735515" lon="14.7951649"><ele>288.0</ele><time>2026-04-25T09:51:52.588Z</time></trkpt><trkpt lat="40.77357" lon="14.7950277"><ele>286.8</ele><time>2026-04-25T09:51:54.589Z</time></trkpt><trkpt lat="40.7736031" lon="14.7949132"><ele>285.6</ele><time>2026-04-25T09:51:56.588Z</time></trkpt><trkpt lat="40.7736411" lon="14.7947998"><ele>284.4</ele><time>2026-04-25T09:51:58.587Z</time></trkpt><trkpt lat="40.7736951" lon="14.7946875"><ele>283.2</ele><time>2026-04-25T09:52:00.588Z</time></trkpt><trkpt lat="40.7737658" lon="14.794547"><ele>282.0</ele><time>2026-04-25T09:52:02.589Z</time></trkpt><trkpt lat="40.7738068" lon="14.7944632"><ele>282.0</ele><time>2026-04-25T09:52:03.589Z</time></trkpt><trkpt lat="40.7738459" lon="14.7943677"><ele>282.0</ele><time>2026-04-25T09:52:04.589Z</time></trkpt><trkpt lat="40.7738819" lon="14.794258"><ele>282.0</ele><time>2026-04-25T09:52:05.587Z</time></trkpt><trkpt lat="40.7739099" lon="14.7941397"><ele>282.0</ele><time>2026-04-25T09:52:06.588Z</time></trkpt><trkpt lat="40.7739337" lon="14.7940093"><ele>282.0</ele><time>2026-04-25T09:52:07.588Z</time></trkpt><trkpt lat="40.7739523" lon="14.7938658"><ele>281.0</ele><time>2026-04-25T09:52:08.589Z</time></trkpt><trkpt lat="40.7739705" lon="14.7937175"><ele>280.0</ele><time>2026-04-25T09:52:09.588Z</time></trkpt><trkpt lat="40.7739883" lon="14.7935667"><ele>279.0</ele><time>2026-04-25T09:52:10.589Z</time></trkpt><trkpt lat="40.7740099" lon="14.793415"><ele>278.0</ele><time>2026-04-25T09:52:11.588Z</time></trkpt><trkpt lat="40.7740311" lon="14.7932672"><ele>277.6</ele><time>2026-04-25T09:52:12.589Z</time></trkpt><trkpt lat="40.7740576" lon="14.7931239"><ele>277.20000000000005</ele><time>2026-04-25T09:52:13.589Z</time></trkpt><trkpt lat="40.7740886" lon="14.7929881"><ele>276.8</ele><time>2026-04-25T09:52:14.589Z</time></trkpt><trkpt lat="40.7741192" lon="14.7928581"><ele>276.40000000000003</ele><time>2026-04-25T09:52:15.589Z</time></trkpt><trkpt lat="40.7741541" lon="14.7927381"><ele>276.0</ele><time>2026-04-25T09:52:16.588Z</time></trkpt><trkpt lat="40.77419" lon="14.7926228"><ele>275.40000000000003</ele><time>2026-04-25T09:52:17.589Z</time></trkpt><trkpt lat="40.7742303" lon="14.7925121"><ele>274.8</ele><time>2026-04-25T09:52:18.589Z</time></trkpt><trkpt lat="40.7742757" lon="14.7924068"><ele>274.20000000000005</ele><time>2026-04-25T09:52:19.589Z</time></trkpt><trkpt lat="40.774325" lon="14.7922933"><ele>273.6</ele><time>2026-04-25T09:52:20.589Z</time></trkpt><trkpt lat="40.7743795" lon="14.7921727"><ele>273.0</ele><time>2026-04-25T09:52:21.589Z</time></trkpt><trkpt lat="40.7744401" lon="14.7920523"><ele>272.25</ele><time>2026-04-25T09:52:22.588Z</time></trkpt><trkpt lat="40.7745069" lon="14.7919306"><ele>271.5</ele><time>2026-04-25T09:52:23.588Z</time></trkpt><trkpt lat="40.7745791" lon="14.7918111"><ele>270.75</ele><time>2026-04-25T09:52:24.588Z</time></trkpt><trkpt lat="40.7746536" lon="14.7916936"><ele>270.0</ele><time>2026-04-25T09:52:25.588Z</time></trkpt><trkpt lat="40.774726" lon="14.7915814"><ele>269.6</ele><time>2026-04-25T09:52:26.589Z</time></trkpt><trkpt lat="40.774796" lon="14.7914708"><ele>269.2</ele><time>2026-04-25T09:52:27.589Z</time></trkpt><trkpt lat="40.7748624" lon="14.7913567"><ele>268.8</ele><time>2026-04-25T09:52:28.588Z</time></trkpt><trkpt lat="40.7749264" lon="14.7912403"><ele>268.4</ele><time>2026-04-25T09:52:29.589Z</time></trkpt><trkpt lat="40.7749876" lon="14.7911164"><ele>268.0</ele><time>2026-04-25T09:52:30.587Z</time></trkpt><trkpt lat="40.7750432" lon="14.7909744"><ele>267.0</ele><time>2026-04-25T09:52:31.588Z</time></trkpt><trkpt lat="40.7750996" lon="14.7908206"><ele>266.0</ele><time>2026-04-25T09:52:32.589Z</time></trkpt><trkpt lat="40.7751573" lon="14.7906559"><ele>265.0</ele><time>2026-04-25T09:52:33.588Z</time></trkpt><trkpt lat="40.7752183" lon="14.790495"><ele>264.0</ele><time>2026-04-25T09:52:34.587Z</time></trkpt><trkpt lat="40.7752777" lon="14.7903402"><ele>263.75</ele><time>2026-04-25T09:52:35.588Z</time></trkpt><trkpt lat="40.775342" lon="14.7901987"><ele>263.5</ele><time>2026-04-25T09:52:36.589Z</time></trkpt><trkpt lat="40.7754041" lon="14.7900601"><ele>263.25</ele><time>2026-04-25T09:52:37.588Z</time></trkpt><trkpt lat="40.7754687" lon="14.7899287"><ele>263.0</ele><time>2026-04-25T09:52:38.588Z</time></trkpt><trkpt lat="40.7755392" lon="14.7898089"><ele>262.6</ele><time>2026-04-25T09:52:39.589Z</time></trkpt><trkpt lat="40.7756152" lon="14.7897003"><ele>262.20000000000005</ele><time>2026-04-25T09:52:40.589Z</time></trkpt><trkpt lat="40.77569" lon="14.7895968"><ele>261.8</ele><time>2026-04-25T09:52:41.589Z</time></trkpt><trkpt lat="40.7757631" lon="14.7894985"><ele>261.40000000000003</ele><time>2026-04-25T09:52:42.588Z</time></trkpt><trkpt lat="40.7758336" lon="14.7894053"><ele>261.0</ele><time>2026-04-25T09:52:43.589Z</time></trkpt><trkpt lat="40.7758992" lon="14.7893097"><ele>260.5</ele><time>2026-04-25T09:52:44.588Z</time></trkpt><trkpt lat="40.7759653" lon="14.7892185"><ele>260.0</ele><time>2026-04-25T09:52:45.588Z</time></trkpt><trkpt lat="40.7760314" lon="14.7891312"><ele>259.5</ele><time>2026-04-25T09:52:46.589Z</time></trkpt><trkpt lat="40.7760909" lon="14.7890472"><ele>259.0</ele><time>2026-04-25T09:52:47.587Z</time></trkpt><trkpt lat="40.7761478" lon="14.7889655"><ele>258.5</ele><time>2026-04-25T09:52:48.589Z</time></trkpt><trkpt lat="40.7762012" lon="14.7888853"><ele>258.0</ele><time>2026-04-25T09:52:49.588Z</time></trkpt><trkpt lat="40.776252" lon="14.7888042"><ele>257.8333333333333</ele><time>2026-04-25T09:52:50.587Z</time></trkpt><trkpt lat="40.7762969" lon="14.7887222"><ele>257.6666666666667</ele><time>2026-04-25T09:52:51.589Z</time></trkpt><trkpt lat="40.7763389" lon="14.7886418"><ele>257.5</ele><time>2026-04-25T09:52:52.589Z</time></trkpt><trkpt lat="40.7763743" lon="14.7885683"><ele>257.33333333333337</ele><time>2026-04-25T09:52:53.589Z</time></trkpt><trkpt lat="40.7764424" lon="14.788453"><ele>257.1666666666667</ele><time>2026-04-25T09:52:55.588Z</time></trkpt><trkpt lat="40.776504" lon="14.7883396"><ele>257.0</ele><time>2026-04-25T09:52:57.588Z</time></trkpt><trkpt lat="40.7765717" lon="14.7882043"><ele>256.5</ele><time>2026-04-25T09:52:59.589Z</time></trkpt><trkpt lat="40.7766092" lon="14.7881288"><ele>256.0</ele><time>2026-04-25T09:53:00.587Z</time></trkpt><trkpt lat="40.7766458" lon="14.7880544"><ele>255.5</ele><time>2026-04-25T09:53:01.588Z</time></trkpt><trkpt lat="40.7767167" lon="14.7879122"><ele>255.0</ele><time>2026-04-25T09:53:03.589Z</time></trkpt><trkpt lat="40.7767506" lon="14.7878329"><ele>254.50000000000003</ele><time>2026-04-25T09:53:04.588Z</time></trkpt><trkpt lat="40.7767835" lon="14.787749"><ele>254.0</ele><time>2026-04-25T09:53:05.588Z</time></trkpt><trkpt lat="40.7768146" lon="14.7876648"><ele>253.42857142857144</ele><time>2026-04-25T09:53:06.588Z</time></trkpt><trkpt lat="40.7768434" lon="14.7875824"><ele>252.85714285714283</ele><time>2026-04-25T09:53:07.588Z</time></trkpt><trkpt lat="40.7768694" lon="14.787496"><ele>252.28571428571428</ele><time>2026-04-25T09:53:08.588Z</time></trkpt><trkpt lat="40.776895" lon="14.7874136"><ele>251.71428571428572</ele><time>2026-04-25T09:53:09.589Z</time></trkpt><trkpt lat="40.7769201" lon="14.7873327"><ele>251.14285714285717</ele><time>2026-04-25T09:53:10.587Z</time></trkpt><trkpt lat="40.7769443" lon="14.7872495"><ele>250.57142857142856</ele><time>2026-04-25T09:53:11.588Z</time></trkpt><trkpt lat="40.7769652" lon="14.7871593"><ele>250.0</ele><time>2026-04-25T09:53:12.589Z</time></trkpt><trkpt lat="40.776986" lon="14.7870427"><ele>250.0</ele><time>2026-04-25T09:53:13.588Z</time></trkpt><trkpt lat="40.7770129" lon="14.7868923"><ele>250.0</ele><time>2026-04-25T09:53:14.588Z</time></trkpt><trkpt lat="40.7770496" lon="14.7867085"><ele>250.0</ele><time>2026-04-25T09:53:15.588Z</time></trkpt><trkpt lat="40.7770947" lon="14.7865026"><ele>250.0</ele><time>2026-04-25T09:53:16.588Z</time></trkpt><trkpt lat="40.7771406" lon="14.7862915"><ele>249.33333333333331</ele><time>2026-04-25T09:53:17.588Z</time></trkpt><trkpt lat="40.7771827" lon="14.7860819"><ele>248.66666666666669</ele><time>2026-04-25T09:53:18.588Z</time></trkpt><trkpt lat="40.7772212" lon="14.7858868"><ele>248.0</ele><time>2026-04-25T09:53:19.588Z</time></trkpt><trkpt lat="40.7772586" lon="14.7857032"><ele>247.0</ele><time>2026-04-25T09:53:20.589Z</time></trkpt><trkpt lat="40.7772945" lon="14.7855325"><ele>246.0</ele><time>2026-04-25T09:53:21.589Z</time></trkpt><trkpt lat="40.7773247" lon="14.785372"><ele>245.0</ele><time>2026-04-25T09:53:22.589Z</time></trkpt><trkpt lat="40.7773521" lon="14.7852192"><ele>244.0</ele><time>2026-04-25T09:53:23.589Z</time></trkpt><trkpt lat="40.7773714" lon="14.7850776"><ele>243.2</ele><time>2026-04-25T09:53:24.589Z</time></trkpt><trkpt lat="40.7773871" lon="14.7849452"><ele>242.39999999999998</ele><time>2026-04-25T09:53:25.588Z</time></trkpt><trkpt lat="40.7774026" lon="14.7848085"><ele>241.6</ele><time>2026-04-25T09:53:26.589Z</time></trkpt><trkpt lat="40.777418" lon="14.7846633"><ele>240.8</ele><time>2026-04-25T09:53:27.589Z</time></trkpt><trkpt lat="40.7774312" lon="14.7845215"><ele>240.0</ele><time>2026-04-25T09:53:28.589Z</time></trkpt><trkpt lat="40.7774448" lon="14.7843833"><ele>239.5</ele><time>2026-04-25T09:53:29.588Z</time></trkpt><trkpt lat="40.7774589" lon="14.7842448"><ele>239.0</ele><time>2026-04-25T09:53:30.587Z</time></trkpt><trkpt lat="40.7774737" lon="14.784102"><ele>238.5</ele><time>2026-04-25T09:53:31.588Z</time></trkpt><trkpt lat="40.7774882" lon="14.783957"><ele>238.0</ele><time>2026-04-25T09:53:32.588Z</time></trkpt><trkpt lat="40.7775173" lon="14.7836687"><ele>238.0</ele><time>2026-04-25T09:53:34.588Z</time></trkpt><trkpt lat="40.7775333" lon="14.7835212"><ele>238.0</ele><time>2026-04-25T09:53:35.588Z</time></trkpt><trkpt lat="40.7775472" lon="14.7833742"><ele>238.0</ele><time>2026-04-25T09:53:36.588Z</time></trkpt><trkpt lat="40.7775636" lon="14.7832266"><ele>238.0</ele><time>2026-04-25T09:53:37.589Z</time></trkpt><trkpt lat="40.7775793" lon="14.7830827"><ele>238.0</ele><time>2026-04-25T09:53:38.588Z</time></trkpt><trkpt lat="40.777598" lon="14.7829451"><ele>237.5</ele><time>2026-04-25T09:53:39.589Z</time></trkpt><trkpt lat="40.77762" lon="14.7828075"><ele>237.0</ele><time>2026-04-25T09:53:40.588Z</time></trkpt><trkpt lat="40.7776433" lon="14.7826717"><ele>236.5</ele><time>2026-04-25T09:53:41.588Z</time></trkpt><trkpt lat="40.7776771" lon="14.7825254"><ele>236.0</ele><time>2026-04-25T09:53:42.589Z</time></trkpt><trkpt lat="40.7777173" lon="14.782372"><ele>235.0</ele><time>2026-04-25T09:53:43.587Z</time></trkpt><trkpt lat="40.7777703" lon="14.7822118"><ele>234.0</ele><time>2026-04-25T09:53:44.588Z</time></trkpt><trkpt lat="40.7778386" lon="14.7820481"><ele>233.0</ele><time>2026-04-25T09:53:45.588Z</time></trkpt><trkpt lat="40.7779124" lon="14.7818792"><ele>232.0</ele><time>2026-04-25T09:53:46.588Z</time></trkpt><trkpt lat="40.7779894" lon="14.7817127"><ele>231.0</ele><time>2026-04-25T09:53:47.589Z</time></trkpt><trkpt lat="40.7780719" lon="14.7815544"><ele>230.0</ele><time>2026-04-25T09:53:48.588Z</time></trkpt><trkpt lat="40.778161" lon="14.7814002"><ele>229.0</ele><time>2026-04-25T09:53:49.589Z</time></trkpt><trkpt lat="40.7782609" lon="14.7812493"><ele>228.0</ele><time>2026-04-25T09:53:50.588Z</time></trkpt><trkpt lat="40.7783635" lon="14.7811125"><ele>227.25</ele><time>2026-04-25T09:53:51.589Z</time></trkpt><trkpt lat="40.7784716" lon="14.7809844"><ele>226.5</ele><time>2026-04-25T09:53:52.588Z</time></trkpt><trkpt lat="40.7785827" lon="14.7808692"><ele>225.75</ele><time>2026-04-25T09:53:53.588Z</time></trkpt><trkpt lat="40.7786927" lon="14.7807656"><ele>225.0</ele><time>2026-04-25T09:53:54.589Z</time></trkpt><trkpt lat="40.7788045" lon="14.7806748"><ele>224.5</ele><time>2026-04-25T09:53:55.589Z</time></trkpt><trkpt lat="40.7789145" lon="14.7805869"><ele>224.0</ele><time>2026-04-25T09:53:56.589Z</time></trkpt><trkpt lat="40.7790236" lon="14.7804994"><ele>223.5</ele><time>2026-04-25T09:53:57.588Z</time></trkpt><trkpt lat="40.7791368" lon="14.7804086"><ele>223.0</ele><time>2026-04-25T09:53:58.589Z</time></trkpt><trkpt lat="40.7792526" lon="14.7803155"><ele>223.0</ele><time>2026-04-25T09:53:59.588Z</time></trkpt><trkpt lat="40.7793722" lon="14.7802248"><ele>223.0</ele><time>2026-04-25T09:54:00.589Z</time></trkpt><trkpt lat="40.7794905" lon="14.7801337"><ele>223.0</ele><time>2026-04-25T09:54:01.589Z</time></trkpt><trkpt lat="40.7796136" lon="14.7800344"><ele>223.0</ele><time>2026-04-25T09:54:02.589Z</time></trkpt><trkpt lat="40.7797395" lon="14.7799227"><ele>222.0</ele><time>2026-04-25T09:54:03.588Z</time></trkpt><trkpt lat="40.7798505" lon="14.7798024"><ele>221.0</ele><time>2026-04-25T09:54:04.588Z</time></trkpt><trkpt lat="40.779936" lon="14.7796669"><ele>220.0</ele><time>2026-04-25T09:54:05.589Z</time></trkpt><trkpt lat="40.7799976" lon="14.7795161"><ele>219.0</ele><time>2026-04-25T09:54:06.588Z</time></trkpt><trkpt lat="40.7800434" lon="14.7793581"><ele>218.0</ele><time>2026-04-25T09:54:07.589Z</time></trkpt><trkpt lat="40.7800876" lon="14.7792006"><ele>217.0</ele><time>2026-04-25T09:54:08.588Z</time></trkpt><trkpt lat="40.78013" lon="14.7790365"><ele>216.0</ele><time>2026-04-25T09:54:09.589Z</time></trkpt><trkpt lat="40.7801711" lon="14.7788679"><ele>215.0</ele><time>2026-04-25T09:54:10.589Z</time></trkpt><trkpt lat="40.7802152" lon="14.7786964"><ele>214.75</ele><time>2026-04-25T09:54:11.588Z</time></trkpt><trkpt lat="40.7802595" lon="14.7785198"><ele>214.5</ele><time>2026-04-25T09:54:12.587Z</time></trkpt><trkpt lat="40.7803005" lon="14.7783496"><ele>214.25</ele><time>2026-04-25T09:54:13.589Z</time></trkpt><trkpt lat="40.7803381" lon="14.7781809"><ele>214.0</ele><time>2026-04-25T09:54:14.589Z</time></trkpt><trkpt lat="40.7803761" lon="14.7780133"><ele>213.0</ele><time>2026-04-25T09:54:15.589Z</time></trkpt><trkpt lat="40.7804054" lon="14.7778407"><ele>212.0</ele><time>2026-04-25T09:54:16.589Z</time></trkpt><trkpt lat="40.780421" lon="14.7776514"><ele>211.0</ele><time>2026-04-25T09:54:17.588Z</time></trkpt><trkpt lat="40.7804245" lon="14.777465"><ele>210.0</ele><time>2026-04-25T09:54:18.588Z</time></trkpt><trkpt lat="40.7804264" lon="14.7772899"><ele>209.5</ele><time>2026-04-25T09:54:19.588Z</time></trkpt><trkpt lat="40.7804192" lon="14.7771258"><ele>209.0</ele><time>2026-04-25T09:54:20.588Z</time></trkpt><trkpt lat="40.7804112" lon="14.7769681"><ele>208.5</ele><time>2026-04-25T09:54:21.587Z</time></trkpt><trkpt lat="40.780401" lon="14.7768122"><ele>208.0</ele><time>2026-04-25T09:54:22.588Z</time></trkpt><trkpt lat="40.7803911" lon="14.7766606"><ele>207.60000000000002</ele><time>2026-04-25T09:54:23.588Z</time></trkpt><trkpt lat="40.7803758" lon="14.7765135"><ele>207.20000000000002</ele><time>2026-04-25T09:54:24.588Z</time></trkpt><trkpt lat="40.7803594" lon="14.7763795"><ele>206.8</ele><time>2026-04-25T09:54:25.589Z</time></trkpt><trkpt lat="40.7803365" lon="14.7762533"><ele>206.4</ele><time>2026-04-25T09:54:26.587Z</time></trkpt><trkpt lat="40.7803126" lon="14.7761296"><ele>206.0</ele><time>2026-04-25T09:54:27.587Z</time></trkpt><trkpt lat="40.7802903" lon="14.7760073"><ele>205.33333333333334</ele><time>2026-04-25T09:54:28.589Z</time></trkpt><trkpt lat="40.7802747" lon="14.7758815"><ele>204.66666666666669</ele><time>2026-04-25T09:54:29.589Z</time></trkpt><trkpt lat="40.7802692" lon="14.775753"><ele>204.0</ele><time>2026-04-25T09:54:30.589Z</time></trkpt><trkpt lat="40.7802747" lon="14.7756299"><ele>203.33333333333331</ele><time>2026-04-25T09:54:31.588Z</time></trkpt><trkpt lat="40.7802687" lon="14.7755245"><ele>202.66666666666666</ele><time>2026-04-25T09:54:32.589Z</time></trkpt><trkpt lat="40.7802399" lon="14.7754344"><ele>202.0</ele><time>2026-04-25T09:54:33.588Z</time></trkpt><trkpt lat="40.7801972" lon="14.7753523"><ele>202.0</ele><time>2026-04-25T09:54:34.589Z</time></trkpt><trkpt lat="40.7801528" lon="14.7752652"><ele>202.0</ele><time>2026-04-25T09:54:35.589Z</time></trkpt><trkpt lat="40.7801325" lon="14.7751523"><ele>202.0</ele><time>2026-04-25T09:54:36.589Z</time></trkpt><trkpt lat="40.7801268" lon="14.7750295"><ele>202.0</ele><time>2026-04-25T09:54:37.589Z</time></trkpt><trkpt lat="40.7801251" lon="14.7748868"><ele>202.0</ele><time>2026-04-25T09:54:38.588Z</time></trkpt><trkpt lat="40.7801264" lon="14.7747314"><ele>201.25</ele><time>2026-04-25T09:54:39.589Z</time></trkpt><trkpt lat="40.7801354" lon="14.7745638"><ele>200.5</ele><time>2026-04-25T09:54:40.589Z</time></trkpt><trkpt lat="40.7801499" lon="14.774382"><ele>199.75</ele><time>2026-04-25T09:54:41.588Z</time></trkpt><trkpt lat="40.7801699" lon="14.774189"><ele>199.0</ele><time>2026-04-25T09:54:42.587Z</time></trkpt><trkpt lat="40.7801911" lon="14.7739894"><ele>198.25</ele><time>2026-04-25T09:54:43.588Z</time></trkpt><trkpt lat="40.7802104" lon="14.7737919"><ele>197.5</ele><time>2026-04-25T09:54:44.588Z</time></trkpt><trkpt lat="40.7802266" lon="14.7736034"><ele>196.75</ele><time>2026-04-25T09:54:45.589Z</time></trkpt><trkpt lat="40.7802401" lon="14.7734219"><ele>196.0</ele><time>2026-04-25T09:54:46.589Z</time></trkpt><trkpt lat="40.7802549" lon="14.7732479"><ele>195.5</ele><time>2026-04-25T09:54:47.589Z</time></trkpt><trkpt lat="40.7802702" lon="14.7730703"><ele>195.0</ele><time>2026-04-25T09:54:48.588Z</time></trkpt><trkpt lat="40.780286" lon="14.7728948"><ele>194.5</ele><time>2026-04-25T09:54:49.589Z</time></trkpt><trkpt lat="40.7803017" lon="14.772721"><ele>194.0</ele><time>2026-04-25T09:54:50.588Z</time></trkpt><trkpt lat="40.7803191" lon="14.7725491"><ele>193.0</ele><time>2026-04-25T09:54:51.589Z</time></trkpt><trkpt lat="40.7803374" lon="14.7723759"><ele>192.0</ele><time>2026-04-25T09:54:52.588Z</time></trkpt><trkpt lat="40.7803552" lon="14.7722001"><ele>191.0</ele><time>2026-04-25T09:54:53.589Z</time></trkpt><trkpt lat="40.7803737" lon="14.7720242"><ele>190.0</ele><time>2026-04-25T09:54:54.587Z</time></trkpt><trkpt lat="40.7803938" lon="14.7718495"><ele>189.25</ele><time>2026-04-25T09:54:55.589Z</time></trkpt><trkpt lat="40.7804096" lon="14.7716704"><ele>188.5</ele><time>2026-04-25T09:54:56.588Z</time></trkpt><trkpt lat="40.7804208" lon="14.7714894"><ele>187.75</ele><time>2026-04-25T09:54:57.589Z</time></trkpt><trkpt lat="40.7804309" lon="14.7713018"><ele>187.0</ele><time>2026-04-25T09:54:58.589Z</time></trkpt><trkpt lat="40.7804377" lon="14.7711129"><ele>186.75</ele><time>2026-04-25T09:54:59.588Z</time></trkpt><trkpt lat="40.7804407" lon="14.7709222"><ele>186.5</ele><time>2026-04-25T09:55:00.588Z</time></trkpt><trkpt lat="40.7804391" lon="14.7707313"><ele>186.25</ele><time>2026-04-25T09:55:01.589Z</time></trkpt><trkpt lat="40.7804334" lon="14.7705381"><ele>186.0</ele><time>2026-04-25T09:55:02.588Z</time></trkpt><trkpt lat="40.7804299" lon="14.7703369"><ele>185.75</ele><time>2026-04-25T09:55:03.589Z</time></trkpt><trkpt lat="40.7804231" lon="14.7701351"><ele>185.5</ele><time>2026-04-25T09:55:04.588Z</time></trkpt><trkpt lat="40.7804218" lon="14.7699418"><ele>185.25</ele><time>2026-04-25T09:55:05.588Z</time></trkpt><trkpt lat="40.7804192" lon="14.7697585"><ele>185.0</ele><time>2026-04-25T09:55:06.588Z</time></trkpt><trkpt lat="40.7804178" lon="14.7695812"><ele>185.0</ele><time>2026-04-25T09:55:07.589Z</time></trkpt><trkpt lat="40.7804138" lon="14.769407"><ele>185.0</ele><time>2026-04-25T09:55:08.587Z</time></trkpt><trkpt lat="40.7804102" lon="14.7692371"><ele>185.0</ele><time>2026-04-25T09:55:09.587Z</time></trkpt><trkpt lat="40.7804075" lon="14.7690699"><ele>185.0</ele><time>2026-04-25T09:55:10.589Z</time></trkpt><trkpt lat="40.7804123" lon="14.7689092"><ele>184.2</ele><time>2026-04-25T09:55:11.588Z</time></trkpt><trkpt lat="40.7804245" lon="14.7687576"><ele>183.4</ele><time>2026-04-25T09:55:12.588Z</time></trkpt><trkpt lat="40.7804336" lon="14.768613"><ele>182.60000000000002</ele><time>2026-04-25T09:55:13.589Z</time></trkpt><trkpt lat="40.7804424" lon="14.7684761"><ele>181.8</ele><time>2026-04-25T09:55:14.588Z</time></trkpt><trkpt lat="40.7804555" lon="14.7683449"><ele>181.0</ele><time>2026-04-25T09:55:15.588Z</time></trkpt><trkpt lat="40.7804653" lon="14.7682184"><ele>180.0</ele><time>2026-04-25T09:55:16.589Z</time></trkpt><trkpt lat="40.780475" lon="14.768095"><ele>179.0</ele><time>2026-04-25T09:55:17.589Z</time></trkpt><trkpt lat="40.7804875" lon="14.7679798"><ele>178.0</ele><time>2026-04-25T09:55:18.589Z</time></trkpt><trkpt lat="40.7805006" lon="14.7678689"><ele>177.0</ele><time>2026-04-25T09:55:19.589Z</time></trkpt><trkpt lat="40.7805108" lon="14.7677619"><ele>176.0</ele><time>2026-04-25T09:55:20.588Z</time></trkpt><trkpt lat="40.7805203" lon="14.7676539"><ele>175.0</ele><time>2026-04-25T09:55:21.588Z</time></trkpt><trkpt lat="40.7805327" lon="14.7675473"><ele>174.33333333333334</ele><time>2026-04-25T09:55:22.589Z</time></trkpt><trkpt lat="40.780543" lon="14.7674339"><ele>173.66666666666669</ele><time>2026-04-25T09:55:23.588Z</time></trkpt><trkpt lat="40.7805507" lon="14.7673199"><ele>173.0</ele><time>2026-04-25T09:55:24.589Z</time></trkpt><trkpt lat="40.7805605" lon="14.7672138"><ele>172.33333333333334</ele><time>2026-04-25T09:55:25.588Z</time></trkpt><trkpt lat="40.7805712" lon="14.7671116"><ele>171.66666666666666</ele><time>2026-04-25T09:55:26.588Z</time></trkpt><trkpt lat="40.7805874" lon="14.7670115"><ele>171.0</ele><time>2026-04-25T09:55:27.587Z</time></trkpt><trkpt lat="40.7806009" lon="14.766907"><ele>170.7142857142857</ele><time>2026-04-25T09:55:28.587Z</time></trkpt><trkpt lat="40.7806111" lon="14.7667997"><ele>170.42857142857142</ele><time>2026-04-25T09:55:29.588Z</time></trkpt><trkpt lat="40.7806212" lon="14.7666961"><ele>170.14285714285714</ele><time>2026-04-25T09:55:30.589Z</time></trkpt><trkpt lat="40.7806333" lon="14.7665978"><ele>169.85714285714283</ele><time>2026-04-25T09:55:31.589Z</time></trkpt><trkpt lat="40.7806465" lon="14.7665054"><ele>169.57142857142856</ele><time>2026-04-25T09:55:32.588Z</time></trkpt><trkpt lat="40.7806598" lon="14.766414"><ele>169.28571428571428</ele><time>2026-04-25T09:55:33.588Z</time></trkpt><trkpt lat="40.780677" lon="14.766332"><ele>169.0</ele><time>2026-04-25T09:55:34.588Z</time></trkpt><trkpt lat="40.7807078" lon="14.7661771"><ele>169.0</ele><time>2026-04-25T09:55:36.588Z</time></trkpt><trkpt lat="40.7807246" lon="14.7660475"><ele>169.0</ele><time>2026-04-25T09:55:38.589Z</time></trkpt><trkpt lat="40.7807472" lon="14.7659495"><ele>169.0</ele><time>2026-04-25T09:55:40.588Z</time></trkpt><trkpt lat="40.7808015" lon="14.7658636"><ele>169.0</ele><time>2026-04-25T09:55:42.589Z</time></trkpt><trkpt lat="40.7808523" lon="14.765775"><ele>169.0</ele><time>2026-04-25T09:55:44.589Z</time></trkpt><trkpt lat="40.7808631" lon="14.765654"><ele>169.0</ele><time>2026-04-25T09:55:46.588Z</time></trkpt><trkpt lat="40.7808179" lon="14.7655241"><ele>168.5</ele><time>2026-04-25T09:55:48.588Z</time></trkpt><trkpt lat="40.780784" lon="14.7653661"><ele>168.0</ele><time>2026-04-25T09:55:50.588Z</time></trkpt><trkpt lat="40.7807916" lon="14.7652734"><ele>167.5</ele><time>2026-04-25T09:55:51.588Z</time></trkpt><trkpt lat="40.7808177" lon="14.765182"><ele>167.0</ele><time>2026-04-25T09:55:52.589Z</time></trkpt><trkpt lat="40.7808608" lon="14.7650997"><ele>166.5</ele><time>2026-04-25T09:55:53.588Z</time></trkpt><trkpt lat="40.7809037" lon="14.7650131"><ele>166.0</ele><time>2026-04-25T09:55:54.589Z</time></trkpt><trkpt lat="40.7809473" lon="14.7649112"><ele>165.25</ele><time>2026-04-25T09:55:55.588Z</time></trkpt><trkpt lat="40.7809952" lon="14.7647705"><ele>164.5</ele><time>2026-04-25T09:55:56.589Z</time></trkpt><trkpt lat="40.7810412" lon="14.7646131"><ele>163.75</ele><time>2026-04-25T09:55:57.588Z</time></trkpt><trkpt lat="40.7810726" lon="14.7644544"><ele>163.0</ele><time>2026-04-25T09:55:58.588Z</time></trkpt><trkpt lat="40.7810946" lon="14.7642896"><ele>161.66666666666669</ele><time>2026-04-25T09:55:59.588Z</time></trkpt><trkpt lat="40.7811052" lon="14.7641131"><ele>160.33333333333334</ele><time>2026-04-25T09:56:00.588Z</time></trkpt><trkpt lat="40.7811046" lon="14.7639064"><ele>159.0</ele><time>2026-04-25T09:56:01.588Z</time></trkpt><trkpt lat="40.7811131" lon="14.7636837"><ele>158.0</ele><time>2026-04-25T09:56:02.588Z</time></trkpt><trkpt lat="40.7811346" lon="14.7634765"><ele>157.0</ele><time>2026-04-25T09:56:03.588Z</time></trkpt><trkpt lat="40.7811553" lon="14.7632921"><ele>156.0</ele><time>2026-04-25T09:56:04.588Z</time></trkpt><trkpt lat="40.7811786" lon="14.7631215"><ele>155.0</ele><time>2026-04-25T09:56:05.588Z</time></trkpt><trkpt lat="40.7812012" lon="14.7629549"><ele>155.0</ele><time>2026-04-25T09:56:06.589Z</time></trkpt><trkpt lat="40.7812254" lon="14.7627969"><ele>155.0</ele><time>2026-04-25T09:56:07.588Z</time></trkpt><trkpt lat="40.7812501" lon="14.7626501"><ele>155.0</ele><time>2026-04-25T09:56:08.588Z</time></trkpt><trkpt lat="40.7812704" lon="14.7625123"><ele>155.0</ele><time>2026-04-25T09:56:09.588Z</time></trkpt><trkpt lat="40.7812809" lon="14.7623829"><ele>155.0</ele><time>2026-04-25T09:56:10.587Z</time></trkpt><trkpt lat="40.7812821" lon="14.7622598"><ele>154.66666666666666</ele><time>2026-04-25T09:56:11.587Z</time></trkpt><trkpt lat="40.7812841" lon="14.7621434"><ele>154.33333333333331</ele><time>2026-04-25T09:56:12.588Z</time></trkpt><trkpt lat="40.7812848" lon="14.7620322"><ele>154.0</ele><time>2026-04-25T09:56:13.589Z</time></trkpt><trkpt lat="40.7812871" lon="14.7619266"><ele>153.66666666666666</ele><time>2026-04-25T09:56:14.588Z</time></trkpt><trkpt lat="40.7812886" lon="14.7618252"><ele>153.33333333333334</ele><time>2026-04-25T09:56:15.589Z</time></trkpt><trkpt lat="40.7812887" lon="14.7617291"><ele>153.0</ele><time>2026-04-25T09:56:16.588Z</time></trkpt><trkpt lat="40.781289" lon="14.7616327"><ele>152.5</ele><time>2026-04-25T09:56:17.589Z</time></trkpt><trkpt lat="40.7812919" lon="14.7615339"><ele>152.0</ele><time>2026-04-25T09:56:18.589Z</time></trkpt><trkpt lat="40.7812954" lon="14.7614249"><ele>151.5</ele><time>2026-04-25T09:56:19.588Z</time></trkpt><trkpt lat="40.7812947" lon="14.7613113"><ele>151.0</ele><time>2026-04-25T09:56:20.588Z</time></trkpt><trkpt lat="40.7812891" lon="14.7611881"><ele>150.5</ele><time>2026-04-25T09:56:21.589Z</time></trkpt><trkpt lat="40.7812784" lon="14.7610583"><ele>150.0</ele><time>2026-04-25T09:56:22.588Z</time></trkpt><trkpt lat="40.781261" lon="14.7609257"><ele>149.4</ele><time>2026-04-25T09:56:23.589Z</time></trkpt><trkpt lat="40.7812427" lon="14.7607892"><ele>148.8</ele><time>2026-04-25T09:56:24.588Z</time></trkpt><trkpt lat="40.7812161" lon="14.7606563"><ele>148.2</ele><time>2026-04-25T09:56:25.588Z</time></trkpt><trkpt lat="40.7811828" lon="14.7605243"><ele>147.6</ele><time>2026-04-25T09:56:26.588Z</time></trkpt><trkpt lat="40.7811465" lon="14.7603921"><ele>147.0</ele><time>2026-04-25T09:56:27.588Z</time></trkpt><trkpt lat="40.7811069" lon="14.7602667"><ele>146.79999999999998</ele><time>2026-04-25T09:56:28.589Z</time></trkpt><trkpt lat="40.7810723" lon="14.7601448"><ele>146.6</ele><time>2026-04-25T09:56:29.589Z</time></trkpt><trkpt lat="40.7810279" lon="14.7600222"><ele>146.39999999999998</ele><time>2026-04-25T09:56:30.588Z</time></trkpt><trkpt lat="40.7809776" lon="14.7599063"><ele>146.2</ele><time>2026-04-25T09:56:31.587Z</time></trkpt><trkpt lat="40.7809189" lon="14.7597944"><ele>146.0</ele><time>2026-04-25T09:56:32.587Z</time></trkpt><trkpt lat="40.7808571" lon="14.759684"><ele>145.8</ele><time>2026-04-25T09:56:33.588Z</time></trkpt><trkpt lat="40.7807887" lon="14.759573"><ele>145.6</ele><time>2026-04-25T09:56:34.588Z</time></trkpt><trkpt lat="40.7807188" lon="14.7594628"><ele>145.4</ele><time>2026-04-25T09:56:35.589Z</time></trkpt><trkpt lat="40.7806484" lon="14.7593523"><ele>145.2</ele><time>2026-04-25T09:56:36.589Z</time></trkpt><trkpt lat="40.7805882" lon="14.7592465"><ele>145.0</ele><time>2026-04-25T09:56:37.589Z</time></trkpt><trkpt lat="40.7805311" lon="14.7591377"><ele>144.8</ele><time>2026-04-25T09:56:38.589Z</time></trkpt><trkpt lat="40.7804778" lon="14.7590271"><ele>144.6</ele><time>2026-04-25T09:56:39.589Z</time></trkpt><trkpt lat="40.7804383" lon="14.7589121"><ele>144.4</ele><time>2026-04-25T09:56:40.588Z</time></trkpt><trkpt lat="40.7804091" lon="14.7587857"><ele>144.2</ele><time>2026-04-25T09:56:41.587Z</time></trkpt><trkpt lat="40.7803908" lon="14.7586561"><ele>144.0</ele><time>2026-04-25T09:56:42.588Z</time></trkpt><trkpt lat="40.7803767" lon="14.7585312"><ele>144.0</ele><time>2026-04-25T09:56:43.588Z</time></trkpt><trkpt lat="40.780373" lon="14.758405"><ele>144.0</ele><time>2026-04-25T09:56:44.589Z</time></trkpt><trkpt lat="40.7803705" lon="14.7582759"><ele>144.0</ele><time>2026-04-25T09:56:45.589Z</time></trkpt><trkpt lat="40.7803726" lon="14.7581431"><ele>144.0</ele><time>2026-04-25T09:56:46.588Z</time></trkpt><trkpt lat="40.7803938" lon="14.7580118"><ele>144.0</ele><time>2026-04-25T09:56:47.587Z</time></trkpt><trkpt lat="40.78043" lon="14.7578859"><ele>144.0</ele><time>2026-04-25T09:56:48.588Z</time></trkpt><trkpt lat="40.7804785" lon="14.7577653"><ele>144.0</ele><time>2026-04-25T09:56:49.588Z</time></trkpt><trkpt lat="40.7805405" lon="14.7576481"><ele>144.0</ele><time>2026-04-25T09:56:50.588Z</time></trkpt><trkpt lat="40.780613" lon="14.7575393"><ele>144.0</ele><time>2026-04-25T09:56:51.588Z</time></trkpt><trkpt lat="40.7806912" lon="14.7574309"><ele>144.0</ele><time>2026-04-25T09:56:52.588Z</time></trkpt><trkpt lat="40.7807674" lon="14.7573298"><ele>143.6</ele><time>2026-04-25T09:56:53.588Z</time></trkpt><trkpt lat="40.7808431" lon="14.7572271"><ele>143.2</ele><time>2026-04-25T09:56:54.587Z</time></trkpt><trkpt lat="40.7809236" lon="14.7571241"><ele>142.79999999999998</ele><time>2026-04-25T09:56:55.588Z</time></trkpt><trkpt lat="40.7810047" lon="14.7570248"><ele>142.4</ele><time>2026-04-25T09:56:56.588Z</time></trkpt><trkpt lat="40.7810845" lon="14.7569631"><ele>142.0</ele><time>2026-04-25T09:56:57.588Z</time></trkpt><trkpt lat="40.7811568" lon="14.7569055"><ele>142.0</ele><time>2026-04-25T09:56:58.589Z</time></trkpt><trkpt lat="40.7812217" lon="14.7568522"><ele>142.0</ele><time>2026-04-25T09:56:59.589Z</time></trkpt><trkpt lat="40.781269" lon="14.7567932"><ele>142.0</ele><time>2026-04-25T09:57:00.588Z</time></trkpt><trkpt lat="40.781325" lon="14.7566727"><ele>142.0</ele><time>2026-04-25T09:57:02.589Z</time></trkpt><trkpt lat="40.7813278" lon="14.7565736"><ele>142.0</ele><time>2026-04-25T09:57:04.589Z</time></trkpt><trkpt lat="40.7812456" lon="14.7564899"><ele>142.0</ele><time>2026-04-25T09:57:06.588Z</time></trkpt><trkpt lat="40.7811838" lon="14.7564435"><ele>142.0</ele><time>2026-04-25T09:57:07.588Z</time></trkpt><trkpt lat="40.7811155" lon="14.7563856"><ele>142.0</ele><time>2026-04-25T09:57:08.589Z</time></trkpt><trkpt lat="40.7810445" lon="14.756316"><ele>142.0</ele><time>2026-04-25T09:57:09.587Z</time></trkpt><trkpt lat="40.7809785" lon="14.7562356"><ele>142.0</ele><time>2026-04-25T09:57:10.588Z</time></trkpt><trkpt lat="40.7809286" lon="14.756137"><ele>142.0</ele><time>2026-04-25T09:57:11.589Z</time></trkpt><trkpt lat="40.78089" lon="14.7560117"><ele>141.6</ele><time>2026-04-25T09:57:12.588Z</time></trkpt><trkpt lat="40.7808476" lon="14.7558736"><ele>141.2</ele><time>2026-04-25T09:57:13.589Z</time></trkpt><trkpt lat="40.7808092" lon="14.7557447"><ele>140.8</ele><time>2026-04-25T09:57:14.588Z</time></trkpt><trkpt lat="40.7807755" lon="14.7556267"><ele>140.4</ele><time>2026-04-25T09:57:15.589Z</time></trkpt><trkpt lat="40.7807449" lon="14.7555266"><ele>140.0</ele><time>2026-04-25T09:57:16.589Z</time></trkpt><trkpt lat="40.7807184" lon="14.75543"><ele>140.0</ele><time>2026-04-25T09:57:17.589Z</time></trkpt><trkpt lat="40.7806951" lon="14.7553476"><ele>140.0</ele><time>2026-04-25T09:57:18.588Z</time></trkpt><trkpt lat="40.7806479" lon="14.7551925"><ele>140.0</ele><time>2026-04-25T09:57:20.588Z</time></trkpt><trkpt lat="40.7806254" lon="14.7551051"><ele>140.0</ele><time>2026-04-25T09:57:21.589Z</time></trkpt><trkpt lat="40.7806062" lon="14.755001"><ele>140.0</ele><time>2026-04-25T09:57:22.589Z</time></trkpt><trkpt lat="40.7805865" lon="14.7548715"><ele>140.0</ele><time>2026-04-25T09:57:23.589Z</time></trkpt><trkpt lat="40.7805702" lon="14.7547173"><ele>139.25</ele><time>2026-04-25T09:57:24.589Z</time></trkpt><trkpt lat="40.780558" lon="14.7545417"><ele>138.5</ele><time>2026-04-25T09:57:25.588Z</time></trkpt><trkpt lat="40.7805452" lon="14.7543535"><ele>137.75</ele><time>2026-04-25T09:57:26.589Z</time></trkpt><trkpt lat="40.780526" lon="14.7541546"><ele>137.0</ele><time>2026-04-25T09:57:27.589Z</time></trkpt><trkpt lat="40.7805065" lon="14.753956"><ele>136.75</ele><time>2026-04-25T09:57:28.589Z</time></trkpt><trkpt lat="40.780489" lon="14.7537616"><ele>136.5</ele><time>2026-04-25T09:57:29.588Z</time></trkpt><trkpt lat="40.7804707" lon="14.7535634"><ele>136.25</ele><time>2026-04-25T09:57:30.589Z</time></trkpt><trkpt lat="40.7804535" lon="14.7533759"><ele>136.0</ele><time>2026-04-25T09:57:31.587Z</time></trkpt><trkpt lat="40.7804411" lon="14.7532005"><ele>136.0</ele><time>2026-04-25T09:57:32.588Z</time></trkpt><trkpt lat="40.7804381" lon="14.7530351"><ele>136.0</ele><time>2026-04-25T09:57:33.588Z</time></trkpt><trkpt lat="40.7804481" lon="14.7528791"><ele>136.0</ele><time>2026-04-25T09:57:34.589Z</time></trkpt><trkpt lat="40.7804688" lon="14.7527332"><ele>136.0</ele><time>2026-04-25T09:57:35.589Z</time></trkpt><trkpt lat="40.7804984" lon="14.752604"><ele>136.0</ele><time>2026-04-25T09:57:36.589Z</time></trkpt><trkpt lat="40.7805281" lon="14.7524869"><ele>136.0</ele><time>2026-04-25T09:57:37.589Z</time></trkpt><trkpt lat="40.7805597" lon="14.7523831"><ele>136.0</ele><time>2026-04-25T09:57:38.589Z</time></trkpt><trkpt lat="40.7805971" lon="14.7522611"><ele>136.0</ele><time>2026-04-25T09:57:40.588Z</time></trkpt><trkpt lat="40.7806622" lon="14.7521784"><ele>136.0</ele><time>2026-04-25T09:57:43.589Z</time></trkpt><trkpt lat="40.7807038" lon="14.752108"><ele>136.0</ele><time>2026-04-25T09:57:45.587Z</time></trkpt><trkpt lat="40.7807092" lon="14.7520113"><ele>136.0</ele><time>2026-04-25T09:57:48.588Z</time></trkpt><trkpt lat="40.7806165" lon="14.7519241"><ele>136.0</ele><time>2026-04-25T09:57:50.588Z</time></trkpt><trkpt lat="40.7805619" lon="14.7518758"><ele>136.0</ele><time>2026-04-25T09:57:51.589Z</time></trkpt><trkpt lat="40.7804972" lon="14.751819"><ele>136.0</ele><time>2026-04-25T09:57:52.588Z</time></trkpt><trkpt lat="40.7804229" lon="14.7517442"><ele>136.0</ele><time>2026-04-25T09:57:53.589Z</time></trkpt><trkpt lat="40.7803405" lon="14.7516604"><ele>136.0</ele><time>2026-04-25T09:57:54.588Z</time></trkpt><trkpt lat="40.7802622" lon="14.7515779"><ele>136.0</ele><time>2026-04-25T09:57:55.588Z</time></trkpt><trkpt lat="40.7801901" lon="14.7515005"><ele>136.0</ele><time>2026-04-25T09:57:56.589Z</time></trkpt><trkpt lat="40.7801222" lon="14.7514278"><ele>136.0</ele><time>2026-04-25T09:57:57.588Z</time></trkpt><trkpt lat="40.7800599" lon="14.7513618"><ele>136.0</ele><time>2026-04-25T09:57:58.588Z</time></trkpt><trkpt lat="40.7800035" lon="14.751297"><ele>136.0</ele><time>2026-04-25T09:57:59.589Z</time></trkpt><trkpt lat="40.7799528" lon="14.7512464"><ele>136.0</ele><time>2026-04-25T09:58:00.589Z</time></trkpt><trkpt lat="40.7798761" lon="14.7511698"><ele>136.0</ele><time>2026-04-25T09:58:02.588Z</time></trkpt><trkpt lat="40.7797786" lon="14.7510796"><ele>136.0</ele><time>2026-04-25T09:58:04.588Z</time></trkpt><trkpt lat="40.7797231" lon="14.7510223"><ele>136.0</ele><time>2026-04-25T09:58:05.588Z</time></trkpt><trkpt lat="40.7796624" lon="14.7509638"><ele>136.0</ele><time>2026-04-25T09:58:06.588Z</time></trkpt><trkpt lat="40.7795955" lon="14.7508992"><ele>136.0</ele><time>2026-04-25T09:58:07.589Z</time></trkpt><trkpt lat="40.7795196" lon="14.75083"><ele>136.0</ele><time>2026-04-25T09:58:08.589Z</time></trkpt><trkpt lat="40.7794339" lon="14.7507627"><ele>136.0</ele><time>2026-04-25T09:58:09.589Z</time></trkpt><trkpt lat="40.7793367" lon="14.7507009"><ele>136.0</ele><time>2026-04-25T09:58:10.589Z</time></trkpt><trkpt lat="40.7792402" lon="14.7506392"><ele>136.0</ele><time>2026-04-25T09:58:11.588Z</time></trkpt><trkpt lat="40.7791546" lon="14.7505825"><ele>136.0</ele><time>2026-04-25T09:58:12.587Z</time></trkpt><trkpt lat="40.7790866" lon="14.7505373"><ele>136.0</ele><time>2026-04-25T09:58:13.589Z</time></trkpt><trkpt lat="40.7790237" lon="14.7504912"><ele>136.0</ele><time>2026-04-25T09:58:14.588Z</time></trkpt><trkpt lat="40.7789569" lon="14.7504279"><ele>136.0</ele><time>2026-04-25T09:58:15.589Z</time></trkpt><trkpt lat="40.7788986" lon="14.750356"><ele>136.0</ele><time>2026-04-25T09:58:16.589Z</time></trkpt><trkpt lat="40.7788443" lon="14.7502869"><ele>136.0</ele><time>2026-04-25T09:58:17.589Z</time></trkpt><trkpt lat="40.7787781" lon="14.7502066"><ele>136.0</ele><time>2026-04-25T09:58:18.589Z</time></trkpt><trkpt lat="40.7787054" lon="14.7501136"><ele>135.75</ele><time>2026-04-25T09:58:19.588Z</time></trkpt><trkpt lat="40.7786223" lon="14.7500063"><ele>135.5</ele><time>2026-04-25T09:58:20.588Z</time></trkpt><trkpt lat="40.7785308" lon="14.7498789"><ele>135.25</ele><time>2026-04-25T09:58:21.589Z</time></trkpt><trkpt lat="40.7784298" lon="14.7497335"><ele>135.0</ele><time>2026-04-25T09:58:22.589Z</time></trkpt><trkpt lat="40.7783042" lon="14.7495962"><ele>135.0</ele><time>2026-04-25T09:58:23.589Z</time></trkpt><trkpt lat="40.7781567" lon="14.7494836"><ele>135.0</ele><time>2026-04-25T09:58:24.588Z</time></trkpt><trkpt lat="40.7779925" lon="14.7493825"><ele>135.0</ele><time>2026-04-25T09:58:25.588Z</time></trkpt><trkpt lat="40.7778271" lon="14.7492968"><ele>134.5</ele><time>2026-04-25T09:58:26.588Z</time></trkpt><trkpt lat="40.7776849" lon="14.7492173"><ele>134.0</ele><time>2026-04-25T09:58:27.588Z</time></trkpt><trkpt lat="40.7775517" lon="14.7491448"><ele>133.5</ele><time>2026-04-25T09:58:28.588Z</time></trkpt><trkpt lat="40.7774275" lon="14.7490769"><ele>133.0</ele><time>2026-04-25T09:58:29.588Z</time></trkpt><trkpt lat="40.7773138" lon="14.7490185"><ele>133.0</ele><time>2026-04-25T09:58:30.588Z</time></trkpt><trkpt lat="40.7772109" lon="14.7489663"><ele>133.0</ele><time>2026-04-25T09:58:31.587Z</time></trkpt><trkpt lat="40.777113" lon="14.7489145"><ele>133.0</ele><time>2026-04-25T09:58:32.589Z</time></trkpt><trkpt lat="40.7770174" lon="14.7488601"><ele>133.0</ele><time>2026-04-25T09:58:33.588Z</time></trkpt><trkpt lat="40.7769308" lon="14.7487951"><ele>133.0</ele><time>2026-04-25T09:58:34.588Z</time></trkpt><trkpt lat="40.7768567" lon="14.7487103"><ele>133.33333333333334</ele><time>2026-04-25T09:58:35.588Z</time></trkpt><trkpt lat="40.7767986" lon="14.7486153"><ele>133.66666666666669</ele><time>2026-04-25T09:58:36.589Z</time></trkpt><trkpt lat="40.7767489" lon="14.7485235"><ele>134.0</ele><time>2026-04-25T09:58:37.589Z</time></trkpt><trkpt lat="40.7767024" lon="14.748438"><ele>134.33333333333334</ele><time>2026-04-25T09:58:38.588Z</time></trkpt><trkpt lat="40.7766619" lon="14.7483611"><ele>134.66666666666666</ele><time>2026-04-25T09:58:39.588Z</time></trkpt><trkpt lat="40.7766235" lon="14.7482884"><ele>135.0</ele><time>2026-04-25T09:58:40.589Z</time></trkpt><trkpt lat="40.7765867" lon="14.7482137"><ele>135.2</ele><time>2026-04-25T09:58:41.588Z</time></trkpt><trkpt lat="40.7765101" lon="14.7480943"><ele>135.4</ele><time>2026-04-25T09:58:43.588Z</time></trkpt><trkpt lat="40.7764115" lon="14.7480783"><ele>135.6</ele><time>2026-04-25T09:58:45.589Z</time></trkpt><trkpt lat="40.7763516" lon="14.7481795"><ele>135.8</ele><time>2026-04-25T09:58:47.588Z</time></trkpt><trkpt lat="40.7763847" lon="14.7482847"><ele>136.0</ele><time>2026-04-25T09:58:49.589Z</time></trkpt><trkpt lat="40.7764881" lon="14.7483017"><ele>136.0</ele><time>2026-04-25T09:58:51.588Z</time></trkpt><trkpt lat="40.7765535" lon="14.7482057"><ele>136.0</ele><time>2026-04-25T09:58:53.589Z</time></trkpt><trkpt lat="40.7765293" lon="14.7480486"><ele>136.0</ele><time>2026-04-25T09:58:55.589Z</time></trkpt><trkpt lat="40.7764956" lon="14.7479563"><ele>136.0</ele><time>2026-04-25T09:58:56.588Z</time></trkpt><trkpt lat="40.77646" lon="14.7478507"><ele>136.0</ele><time>2026-04-25T09:58:57.589Z</time></trkpt><trkpt lat="40.7764189" lon="14.7477393"><ele>136.0</ele><time>2026-04-25T09:58:58.589Z</time></trkpt><trkpt lat="40.7763659" lon="14.7476219"><ele>136.0</ele><time>2026-04-25T09:58:59.588Z</time></trkpt><trkpt lat="40.7763089" lon="14.7475037"><ele>136.0</ele><time>2026-04-25T09:59:00.588Z</time></trkpt><trkpt lat="40.7762525" lon="14.7473856"><ele>136.0</ele><time>2026-04-25T09:59:01.588Z</time></trkpt><trkpt lat="40.7761963" lon="14.7472649"><ele>136.0</ele><time>2026-04-25T09:59:02.588Z</time></trkpt><trkpt lat="40.77614" lon="14.7471458"><ele>136.0</ele><time>2026-04-25T09:59:03.589Z</time></trkpt><trkpt lat="40.7760838" lon="14.7470242"><ele>136.0</ele><time>2026-04-25T09:59:04.588Z</time></trkpt><trkpt lat="40.7760276" lon="14.7468983"><ele>136.0</ele><time>2026-04-25T09:59:05.589Z</time></trkpt><trkpt lat="40.7759721" lon="14.7467698"><ele>136.0</ele><time>2026-04-25T09:59:06.588Z</time></trkpt><trkpt lat="40.7759155" lon="14.7466419"><ele>136.0</ele><time>2026-04-25T09:59:07.588Z</time></trkpt><trkpt lat="40.7758588" lon="14.7465077"><ele>136.4</ele><time>2026-04-25T09:59:08.587Z</time></trkpt><trkpt lat="40.775799" lon="14.7463737"><ele>136.8</ele><time>2026-04-25T09:59:09.588Z</time></trkpt><trkpt lat="40.7757414" lon="14.7462453"><ele>137.20000000000002</ele><time>2026-04-25T09:59:10.588Z</time></trkpt><trkpt lat="40.7756845" lon="14.7461197"><ele>137.6</ele><time>2026-04-25T09:59:11.588Z</time></trkpt><trkpt lat="40.7756307" lon="14.7460005"><ele>138.0</ele><time>2026-04-25T09:59:12.587Z</time></trkpt><trkpt lat="40.7755802" lon="14.7458833"><ele>138.0</ele><time>2026-04-25T09:59:13.588Z</time></trkpt><trkpt lat="40.775531" lon="14.745769"><ele>138.0</ele><time>2026-04-25T09:59:14.589Z</time></trkpt><trkpt lat="40.7754814" lon="14.7456536"><ele>138.0</ele><time>2026-04-25T09:59:15.587Z</time></trkpt><trkpt lat="40.7754324" lon="14.7455456"><ele>138.0</ele><time>2026-04-25T09:59:16.589Z</time></trkpt><trkpt lat="40.7753848" lon="14.7454384"><ele>138.0</ele><time>2026-04-25T09:59:17.588Z</time></trkpt><trkpt lat="40.7753429" lon="14.7453424"><ele>138.0</ele><time>2026-04-25T09:59:18.588Z</time></trkpt><trkpt lat="40.7753082" lon="14.7452673"><ele>138.0</ele><time>2026-04-25T09:59:19.589Z</time></trkpt><trkpt lat="40.7752628" lon="14.7451665"><ele>138.0</ele><time>2026-04-25T09:59:21.589Z</time></trkpt><trkpt lat="40.7752158" lon="14.7450695"><ele>138.0</ele><time>2026-04-25T09:59:23.589Z</time></trkpt><trkpt lat="40.7751739" lon="14.7449773"><ele>138.0</ele><time>2026-04-25T09:59:25.589Z</time></trkpt><trkpt lat="40.7751224" lon="14.7448909"><ele>138.0</ele><time>2026-04-25T09:59:28.589Z</time></trkpt><trkpt lat="40.7750764" lon="14.7448094"><ele>138.0</ele><time>2026-04-25T09:59:30.589Z</time></trkpt><trkpt lat="40.7750201" lon="14.7446718"><ele>138.0</ele><time>2026-04-25T09:59:32.589Z</time></trkpt><trkpt lat="40.7749775" lon="14.7445748"><ele>138.0</ele><time>2026-04-25T09:59:33.588Z</time></trkpt><trkpt lat="40.774929" lon="14.744454"><ele>138.0</ele><time>2026-04-25T09:59:34.588Z</time></trkpt><trkpt lat="40.7748708" lon="14.7443136"><ele>138.0</ele><time>2026-04-25T09:59:35.588Z</time></trkpt><trkpt lat="40.774814" lon="14.7441685"><ele>137.5</ele><time>2026-04-25T09:59:36.589Z</time></trkpt><trkpt lat="40.77476" lon="14.7440331"><ele>137.0</ele><time>2026-04-25T09:59:37.589Z</time></trkpt><trkpt lat="40.7747039" lon="14.743903"><ele>136.5</ele><time>2026-04-25T09:59:38.587Z</time></trkpt><trkpt lat="40.7746525" lon="14.7437647"><ele>136.0</ele><time>2026-04-25T09:59:39.587Z</time></trkpt><trkpt lat="40.7746117" lon="14.7436124"><ele>135.5</ele><time>2026-04-25T09:59:40.588Z</time></trkpt><trkpt lat="40.7745908" lon="14.7434392"><ele>135.0</ele><time>2026-04-25T09:59:41.588Z</time></trkpt><trkpt lat="40.7745873" lon="14.7432564"><ele>134.5</ele><time>2026-04-25T09:59:42.589Z</time></trkpt><trkpt lat="40.7745912" lon="14.7430704"><ele>134.0</ele><time>2026-04-25T09:59:43.588Z</time></trkpt><trkpt lat="40.7745978" lon="14.7428899"><ele>134.0</ele><time>2026-04-25T09:59:44.588Z</time></trkpt><trkpt lat="40.7746006" lon="14.7427272"><ele>134.0</ele><time>2026-04-25T09:59:45.589Z</time></trkpt><trkpt lat="40.7746024" lon="14.7425861"><ele>134.0</ele><time>2026-04-25T09:59:46.589Z</time></trkpt><trkpt lat="40.7746055" lon="14.7424591"><ele>134.0</ele><time>2026-04-25T09:59:47.589Z</time></trkpt><trkpt lat="40.7746066" lon="14.742331"><ele>134.0</ele><time>2026-04-25T09:59:48.589Z</time></trkpt><trkpt lat="40.7746078" lon="14.7421877"><ele>133.0</ele><time>2026-04-25T09:59:49.589Z</time></trkpt><trkpt lat="40.7746138" lon="14.742013"><ele>132.0</ele><time>2026-04-25T09:59:50.589Z</time></trkpt><trkpt lat="40.7746261" lon="14.7418106"><ele>131.0</ele><time>2026-04-25T09:59:51.589Z</time></trkpt><trkpt lat="40.7746359" lon="14.7415933"><ele>129.33333333333331</ele><time>2026-04-25T09:59:52.589Z</time></trkpt><trkpt lat="40.7746403" lon="14.7413576"><ele>127.66666666666666</ele><time>2026-04-25T09:59:53.589Z</time></trkpt><trkpt lat="40.7746455" lon="14.7411157"><ele>126.0</ele><time>2026-04-25T09:59:54.587Z</time></trkpt><trkpt lat="40.7746526" lon="14.740864"><ele>125.33333333333334</ele><time>2026-04-25T09:59:55.587Z</time></trkpt><trkpt lat="40.7746564" lon="14.7406042"><ele>124.66666666666667</ele><time>2026-04-25T09:59:56.588Z</time></trkpt><trkpt lat="40.7746641" lon="14.7403321"><ele>124.0</ele><time>2026-04-25T09:59:57.589Z</time></trkpt><trkpt lat="40.7746692" lon="14.7400607"><ele>124.0</ele><time>2026-04-25T09:59:58.588Z</time></trkpt><trkpt lat="40.7746766" lon="14.7397961"><ele>124.0</ele><time>2026-04-25T09:59:59.588Z</time></trkpt><trkpt lat="40.7746842" lon="14.7395415"><ele>124.0</ele><time>2026-04-25T10:00:00.588Z</time></trkpt><trkpt lat="40.7746904" lon="14.7392983"><ele>123.66666666666667</ele><time>2026-04-25T10:00:01.588Z</time></trkpt><trkpt lat="40.7746968" lon="14.7390666"><ele>123.33333333333334</ele><time>2026-04-25T10:00:02.589Z</time></trkpt><trkpt lat="40.7747022" lon="14.738842"><ele>123.0</ele><time>2026-04-25T10:00:03.589Z</time></trkpt><trkpt lat="40.7747088" lon="14.7386152"><ele>122.66666666666666</ele><time>2026-04-25T10:00:04.588Z</time></trkpt><trkpt lat="40.7747147" lon="14.7383926"><ele>122.33333333333333</ele><time>2026-04-25T10:00:05.588Z</time></trkpt><trkpt lat="40.7747202" lon="14.7381679"><ele>122.0</ele><time>2026-04-25T10:00:06.589Z</time></trkpt><trkpt lat="40.774727" lon="14.7379462"><ele>122.0</ele><time>2026-04-25T10:00:07.589Z</time></trkpt><trkpt lat="40.7747303" lon="14.7377231"><ele>122.0</ele><time>2026-04-25T10:00:08.588Z</time></trkpt><trkpt lat="40.7747363" lon="14.737499"><ele>122.0</ele><time>2026-04-25T10:00:09.589Z</time></trkpt><trkpt lat="40.7747425" lon="14.7372696"><ele>121.33333333333333</ele><time>2026-04-25T10:00:10.589Z</time></trkpt><trkpt lat="40.7747514" lon="14.7370416"><ele>120.66666666666666</ele><time>2026-04-25T10:00:11.588Z</time></trkpt><trkpt lat="40.7747573" lon="14.7368275"><ele>120.0</ele><time>2026-04-25T10:00:12.588Z</time></trkpt><trkpt lat="40.7747585" lon="14.7366276"><ele>120.0</ele><time>2026-04-25T10:00:13.588Z</time></trkpt><trkpt lat="40.7747609" lon="14.7364461"><ele>120.0</ele><time>2026-04-25T10:00:14.589Z</time></trkpt><trkpt lat="40.7747639" lon="14.7362846"><ele>120.0</ele><time>2026-04-25T10:00:15.588Z</time></trkpt><trkpt lat="40.7747663" lon="14.7361474"><ele>120.0</ele><time>2026-04-25T10:00:16.588Z</time></trkpt><trkpt lat="40.7747668" lon="14.7360362"><ele>120.0</ele><time>2026-04-25T10:00:17.588Z</time></trkpt><trkpt lat="40.7747701" lon="14.7359487"><ele>120.0</ele><time>2026-04-25T10:00:18.589Z</time></trkpt><trkpt lat="40.7748404" lon="14.7358566"><ele>120.0</ele><time>2026-04-25T10:00:20.588Z</time></trkpt><trkpt lat="40.7749078" lon="14.7358474"><ele>120.0</ele><time>2026-04-25T10:00:21.588Z</time></trkpt><trkpt lat="40.7749881" lon="14.7358526"><ele>120.0</ele><time>2026-04-25T10:00:22.588Z</time></trkpt><trkpt lat="40.7750777" lon="14.7358536"><ele>120.0</ele><time>2026-04-25T10:00:23.588Z</time></trkpt><trkpt lat="40.7751845" lon="14.7358495"><ele>120.0</ele><time>2026-04-25T10:00:24.588Z</time></trkpt><trkpt lat="40.7752966" lon="14.7358534"><ele>119.8</ele><time>2026-04-25T10:00:25.587Z</time></trkpt><trkpt lat="40.7753916" lon="14.7358665"><ele>119.6</ele><time>2026-04-25T10:00:26.588Z</time></trkpt><trkpt lat="40.7754808" lon="14.7358654"><ele>119.4</ele><time>2026-04-25T10:00:27.588Z</time></trkpt><trkpt lat="40.7755821" lon="14.7358475"><ele>119.2</ele><time>2026-04-25T10:00:28.589Z</time></trkpt><trkpt lat="40.7756931" lon="14.7358033"><ele>119.0</ele><time>2026-04-25T10:00:29.588Z</time></trkpt><trkpt lat="40.7758023" lon="14.7357362"><ele>119.0</ele><time>2026-04-25T10:00:30.589Z</time></trkpt><trkpt lat="40.7759009" lon="14.735663"><ele>119.0</ele><time>2026-04-25T10:00:31.587Z</time></trkpt><trkpt lat="40.7759925" lon="14.735609"><ele>119.0</ele><time>2026-04-25T10:00:32.588Z</time></trkpt><trkpt lat="40.7760813" lon="14.7355739"><ele>119.0</ele><time>2026-04-25T10:00:33.588Z</time></trkpt><trkpt lat="40.7761732" lon="14.7355601"><ele>119.0</ele><time>2026-04-25T10:00:34.588Z</time></trkpt><trkpt lat="40.7762628" lon="14.735551"><ele>119.0</ele><time>2026-04-25T10:00:35.588Z</time></trkpt><trkpt lat="40.7763615" lon="14.7355369"><ele>119.0</ele><time>2026-04-25T10:00:36.589Z</time></trkpt><trkpt lat="40.7764681" lon="14.7355238"><ele>119.0</ele><time>2026-04-25T10:00:37.588Z</time></trkpt><trkpt lat="40.776583" lon="14.7355151"><ele>119.0</ele><time>2026-04-25T10:00:38.588Z</time></trkpt><trkpt lat="40.7767011" lon="14.7355182"><ele>119.0</ele><time>2026-04-25T10:00:39.589Z</time></trkpt><trkpt lat="40.7768236" lon="14.735518"><ele>119.0</ele><time>2026-04-25T10:00:40.588Z</time></trkpt><trkpt lat="40.7769492" lon="14.735513"><ele>119.0</ele><time>2026-04-25T10:00:41.589Z</time></trkpt><trkpt lat="40.7770742" lon="14.7355175"><ele>119.0</ele><time>2026-04-25T10:00:42.588Z</time></trkpt><trkpt lat="40.7771916" lon="14.7355216"><ele>119.0</ele><time>2026-04-25T10:00:43.588Z</time></trkpt><trkpt lat="40.7772931" lon="14.7355281"><ele>118.99999999999999</ele><time>2026-04-25T10:00:44.589Z</time></trkpt><trkpt lat="40.777368" lon="14.7355375"><ele>119.0</ele><time>2026-04-25T10:00:45.589Z</time></trkpt><trkpt lat="40.7774507" lon="14.7355639"><ele>119.0</ele><time>2026-04-25T10:00:47.589Z</time></trkpt><trkpt lat="40.7775369" lon="14.7355788"><ele>119.0</ele><time>2026-04-25T10:00:52.587Z</time></trkpt><trkpt lat="40.7776556" lon="14.7355547"><ele>118.99999999999999</ele><time>2026-04-25T10:00:54.588Z</time></trkpt><trkpt lat="40.7777244" lon="14.7355644"><ele>119.0</ele><time>2026-04-25T10:00:55.588Z</time></trkpt><trkpt lat="40.7777883" lon="14.7355858"><ele>119.0</ele><time>2026-04-25T10:00:56.589Z</time></trkpt><trkpt lat="40.7778253" lon="14.7357297"><ele>119.0</ele><time>2026-04-25T10:00:58.588Z</time></trkpt><trkpt lat="40.7778231" lon="14.7358368"><ele>119.0</ele><time>2026-04-25T10:00:59.588Z</time></trkpt><trkpt lat="40.7778222" lon="14.7359752"><ele>119.0</ele><time>2026-04-25T10:01:00.588Z</time></trkpt><trkpt lat="40.7778285" lon="14.7361442"><ele>119.0</ele><time>2026-04-25T10:01:01.589Z</time></trkpt><trkpt lat="40.7778361" lon="14.7363436"><ele>119.4</ele><time>2026-04-25T10:01:02.589Z</time></trkpt><trkpt lat="40.7778477" lon="14.736531"><ele>119.80000000000001</ele><time>2026-04-25T10:01:03.588Z</time></trkpt><trkpt lat="40.7778567" lon="14.7366948"><ele>120.19999999999999</ele><time>2026-04-25T10:01:04.589Z</time></trkpt><trkpt lat="40.7778654" lon="14.7368277"><ele>120.6</ele><time>2026-04-25T10:01:05.588Z</time></trkpt><trkpt lat="40.7778833" lon="14.7369317"><ele>121.0</ele><time>2026-04-25T10:01:06.588Z</time></trkpt><trkpt lat="40.7779648" lon="14.7370457"><ele>121.0</ele><time>2026-04-25T10:01:08.589Z</time></trkpt><trkpt lat="40.7780532" lon="14.7370527"><ele>121.0</ele><time>2026-04-25T10:01:09.588Z</time></trkpt><trkpt lat="40.7781569" lon="14.7370462"><ele>121.0</ele><time>2026-04-25T10:01:10.588Z</time></trkpt><trkpt lat="40.7782822" lon="14.7370264"><ele>121.0</ele><time>2026-04-25T10:01:11.588Z</time></trkpt><trkpt lat="40.7784317" lon="14.7370074"><ele>121.33333333333334</ele><time>2026-04-25T10:01:12.588Z</time></trkpt><trkpt lat="40.778599" lon="14.736982"><ele>121.66666666666666</ele><time>2026-04-25T10:01:13.588Z</time></trkpt><trkpt lat="40.7787631" lon="14.7369458"><ele>122.0</ele><time>2026-04-25T10:01:14.588Z</time></trkpt><trkpt lat="40.7789192" lon="14.7369017"><ele>122.0</ele><time>2026-04-25T10:01:15.588Z</time></trkpt><trkpt lat="40.7790767" lon="14.7368666"><ele>122.0</ele><time>2026-04-25T10:01:16.589Z</time></trkpt><trkpt lat="40.7792458" lon="14.7368437"><ele>122.0</ele><time>2026-04-25T10:01:17.589Z</time></trkpt><trkpt lat="40.7794089" lon="14.7368306"><ele>122.8</ele><time>2026-04-25T10:01:18.588Z</time></trkpt><trkpt lat="40.7795511" lon="14.7368152"><ele>123.6</ele><time>2026-04-25T10:01:19.588Z</time></trkpt><trkpt lat="40.7796724" lon="14.7368053"><ele>124.39999999999999</ele><time>2026-04-25T10:01:20.588Z</time></trkpt><trkpt lat="40.7797677" lon="14.7367925"><ele>125.19999999999999</ele><time>2026-04-25T10:01:21.587Z</time></trkpt><trkpt lat="40.7798326" lon="14.7367776"><ele>126.0</ele><time>2026-04-25T10:01:22.588Z</time></trkpt><trkpt lat="40.7798878" lon="14.7367308"><ele>126.0</ele><time>2026-04-25T10:01:25.588Z</time></trkpt><trkpt lat="40.7798825" lon="14.7366003"><ele>126.0</ele><time>2026-04-25T10:01:29.588Z</time></trkpt><trkpt lat="40.7798468" lon="14.7365026"><ele>126.0</ele><time>2026-04-25T10:01:30.588Z</time></trkpt><trkpt lat="40.7797975" lon="14.7363907"><ele>126.0</ele><time>2026-04-25T10:01:31.589Z</time></trkpt><trkpt lat="40.7797391" lon="14.7362547"><ele>126.0</ele><time>2026-04-25T10:01:32.588Z</time></trkpt><trkpt lat="40.7796761" lon="14.7361"><ele>126.25</ele><time>2026-04-25T10:01:33.588Z</time></trkpt><trkpt lat="40.7796135" lon="14.735939"><ele>126.5</ele><time>2026-04-25T10:01:34.589Z</time></trkpt><trkpt lat="40.7795528" lon="14.7357794"><ele>126.75</ele><time>2026-04-25T10:01:35.588Z</time></trkpt><trkpt lat="40.7794963" lon="14.7356246"><ele>127.0</ele><time>2026-04-25T10:01:36.589Z</time></trkpt><trkpt lat="40.77944" lon="14.7354728"><ele>127.0</ele><time>2026-04-25T10:01:37.589Z</time></trkpt><trkpt lat="40.7793823" lon="14.7353176"><ele>127.0</ele><time>2026-04-25T10:01:38.589Z</time></trkpt><trkpt lat="40.7793207" lon="14.7351657"><ele>127.0</ele><time>2026-04-25T10:01:39.589Z</time></trkpt><trkpt lat="40.77926" lon="14.7350186"><ele>127.0</ele><time>2026-04-25T10:01:40.588Z</time></trkpt><trkpt lat="40.7792098" lon="14.7348776"><ele>127.25</ele><time>2026-04-25T10:01:41.588Z</time></trkpt><trkpt lat="40.7791645" lon="14.7347423"><ele>127.5</ele><time>2026-04-25T10:01:42.589Z</time></trkpt><trkpt lat="40.7791287" lon="14.7346043"><ele>127.75</ele><time>2026-04-25T10:01:43.589Z</time></trkpt><trkpt lat="40.7790939" lon="14.7344528"><ele>128.0</ele><time>2026-04-25T10:01:44.589Z</time></trkpt><trkpt lat="40.7790657" lon="14.734285"><ele>128.0</ele><time>2026-04-25T10:01:45.588Z</time></trkpt><trkpt lat="40.779054" lon="14.734103"><ele>128.0</ele><time>2026-04-25T10:01:46.589Z</time></trkpt><trkpt lat="40.7790522" lon="14.7338913"><ele>128.0</ele><time>2026-04-25T10:01:47.588Z</time></trkpt><trkpt lat="40.7790623" lon="14.7336528"><ele>127.0</ele><time>2026-04-25T10:01:48.587Z</time></trkpt><trkpt lat="40.7790897" lon="14.7333927"><ele>126.0</ele><time>2026-04-25T10:01:49.588Z</time></trkpt><trkpt lat="40.7791072" lon="14.733157"><ele>125.0</ele><time>2026-04-25T10:01:50.588Z</time></trkpt><trkpt lat="40.7791143" lon="14.7329254"><ele>124.0</ele><time>2026-04-25T10:01:51.588Z</time></trkpt><trkpt lat="40.7791182" lon="14.7326995"><ele>123.0</ele><time>2026-04-25T10:01:52.589Z</time></trkpt><trkpt lat="40.7791133" lon="14.732488"><ele>122.0</ele><time>2026-04-25T10:01:53.588Z</time></trkpt><trkpt lat="40.7791027" lon="14.7322754"><ele>122.0</ele><time>2026-04-25T10:01:54.588Z</time></trkpt><trkpt lat="40.7790855" lon="14.7320538"><ele>122.0</ele><time>2026-04-25T10:01:55.588Z</time></trkpt><trkpt lat="40.7790703" lon="14.7318309"><ele>122.0</ele><time>2026-04-25T10:01:56.587Z</time></trkpt><trkpt lat="40.7790523" lon="14.7316234"><ele>122.0</ele><time>2026-04-25T10:01:57.588Z</time></trkpt><trkpt lat="40.7790232" lon="14.7314288"><ele>122.0</ele><time>2026-04-25T10:01:58.587Z</time></trkpt><trkpt lat="40.7789849" lon="14.7312487"><ele>122.0</ele><time>2026-04-25T10:01:59.588Z</time></trkpt><trkpt lat="40.7789481" lon="14.7310914"><ele>122.0</ele><time>2026-04-25T10:02:00.588Z</time></trkpt><trkpt lat="40.7789085" lon="14.7309449"><ele>121.6</ele><time>2026-04-25T10:02:01.588Z</time></trkpt><trkpt lat="40.7788696" lon="14.7308099"><ele>121.19999999999999</ele><time>2026-04-25T10:02:02.589Z</time></trkpt><trkpt lat="40.7788302" lon="14.7306781"><ele>120.8</ele><time>2026-04-25T10:02:03.589Z</time></trkpt><trkpt lat="40.77879" lon="14.7305457"><ele>120.4</ele><time>2026-04-25T10:02:04.588Z</time></trkpt><trkpt lat="40.7787485" lon="14.7304166"><ele>120.0</ele><time>2026-04-25T10:02:05.587Z</time></trkpt><trkpt lat="40.7787095" lon="14.7302845"><ele>119.6</ele><time>2026-04-25T10:02:06.589Z</time></trkpt><trkpt lat="40.7786713" lon="14.7301525"><ele>119.2</ele><time>2026-04-25T10:02:07.589Z</time></trkpt><trkpt lat="40.778634" lon="14.7300242"><ele>118.80000000000001</ele><time>2026-04-25T10:02:08.588Z</time></trkpt><trkpt lat="40.7785966" lon="14.7298966"><ele>118.4</ele><time>2026-04-25T10:02:09.589Z</time></trkpt><trkpt lat="40.7785584" lon="14.7297621"><ele>118.0</ele><time>2026-04-25T10:02:10.589Z</time></trkpt><trkpt lat="40.7785255" lon="14.7296267"><ele>117.25</ele><time>2026-04-25T10:02:11.588Z</time></trkpt><trkpt lat="40.7785032" lon="14.7294821"><ele>116.5</ele><time>2026-04-25T10:02:12.589Z</time></trkpt><trkpt lat="40.7784925" lon="14.7293342"><ele>115.75</ele><time>2026-04-25T10:02:13.589Z</time></trkpt><trkpt lat="40.778486" lon="14.7291858"><ele>115.0</ele><time>2026-04-25T10:02:14.588Z</time></trkpt><trkpt lat="40.778476" lon="14.7290234"><ele>115.0</ele><time>2026-04-25T10:02:15.588Z</time></trkpt><trkpt lat="40.7784733" lon="14.7288305"><ele>115.0</ele><time>2026-04-25T10:02:16.587Z</time></trkpt><trkpt lat="40.7784818" lon="14.7286144"><ele>115.0</ele><time>2026-04-25T10:02:17.588Z</time></trkpt><trkpt lat="40.7784988" lon="14.7283769"><ele>115.33333333333334</ele><time>2026-04-25T10:02:18.588Z</time></trkpt><trkpt lat="40.778522" lon="14.7281219"><ele>115.66666666666666</ele><time>2026-04-25T10:02:19.588Z</time></trkpt><trkpt lat="40.7785532" lon="14.7278577"><ele>116.0</ele><time>2026-04-25T10:02:20.588Z</time></trkpt><trkpt lat="40.7785896" lon="14.7275865"><ele>116.0</ele><time>2026-04-25T10:02:21.587Z</time></trkpt><trkpt lat="40.7786292" lon="14.727337"><ele>116.0</ele><time>2026-04-25T10:02:22.588Z</time></trkpt><trkpt lat="40.7786659" lon="14.7270979"><ele>116.0</ele><time>2026-04-25T10:02:23.589Z</time></trkpt><trkpt lat="40.7787021" lon="14.7268751"><ele>116.33333333333333</ele><time>2026-04-25T10:02:24.589Z</time></trkpt><trkpt lat="40.7787375" lon="14.726659"><ele>116.66666666666666</ele><time>2026-04-25T10:02:25.589Z</time></trkpt><trkpt lat="40.7787708" lon="14.7264428"><ele>117.0</ele><time>2026-04-25T10:02:26.589Z</time></trkpt><trkpt lat="40.7788044" lon="14.7262507"><ele>117.0</ele><time>2026-04-25T10:02:27.589Z</time></trkpt><trkpt lat="40.7788349" lon="14.7260743"><ele>117.0</ele><time>2026-04-25T10:02:28.588Z</time></trkpt><trkpt lat="40.778859" lon="14.7259185"><ele>117.0</ele><time>2026-04-25T10:02:29.588Z</time></trkpt><trkpt lat="40.7788759" lon="14.7257871"><ele>117.0</ele><time>2026-04-25T10:02:30.589Z</time></trkpt><trkpt lat="40.7788885" lon="14.7256675"><ele>116.33333333333333</ele><time>2026-04-25T10:02:31.588Z</time></trkpt><trkpt lat="40.7789025" lon="14.7255525"><ele>115.66666666666666</ele><time>2026-04-25T10:02:32.588Z</time></trkpt><trkpt lat="40.7789174" lon="14.7254427"><ele>115.0</ele><time>2026-04-25T10:02:33.588Z</time></trkpt><trkpt lat="40.7789284" lon="14.7253309"><ele>114.33333333333333</ele><time>2026-04-25T10:02:34.589Z</time></trkpt><trkpt lat="40.7789349" lon="14.7252233"><ele>113.66666666666666</ele><time>2026-04-25T10:02:35.589Z</time></trkpt><trkpt lat="40.7789394" lon="14.72512"><ele>113.0</ele><time>2026-04-25T10:02:36.589Z</time></trkpt><trkpt lat="40.7789447" lon="14.7250187"><ele>112.66666666666666</ele><time>2026-04-25T10:02:37.589Z</time></trkpt><trkpt lat="40.7789599" lon="14.7249235"><ele>112.33333333333333</ele><time>2026-04-25T10:02:38.588Z</time></trkpt><trkpt lat="40.7789825" lon="14.7248326"><ele>112.0</ele><time>2026-04-25T10:02:39.588Z</time></trkpt><trkpt lat="40.7789967" lon="14.7247211"><ele>111.66666666666666</ele><time>2026-04-25T10:02:40.589Z</time></trkpt><trkpt lat="40.7790038" lon="14.7245936"><ele>111.33333333333333</ele><time>2026-04-25T10:02:41.588Z</time></trkpt><trkpt lat="40.7790095" lon="14.7244675"><ele>111.0</ele><time>2026-04-25T10:02:42.589Z</time></trkpt><trkpt lat="40.7790148" lon="14.7243476"><ele>111.0</ele><time>2026-04-25T10:02:43.587Z</time></trkpt><trkpt lat="40.7790181" lon="14.7242242"><ele>111.0</ele><time>2026-04-25T10:02:44.588Z</time></trkpt><trkpt lat="40.7790243" lon="14.7240986"><ele>111.0</ele><time>2026-04-25T10:02:45.589Z</time></trkpt><trkpt lat="40.7790253" lon="14.723964"><ele>111.0</ele><time>2026-04-25T10:02:46.588Z</time></trkpt><trkpt lat="40.7790248" lon="14.7238219"><ele>111.0</ele><time>2026-04-25T10:02:47.588Z</time></trkpt><trkpt lat="40.7790382" lon="14.7236639"><ele>111.6</ele><time>2026-04-25T10:02:48.589Z</time></trkpt><trkpt lat="40.7790688" lon="14.7235082"><ele>112.19999999999999</ele><time>2026-04-25T10:02:49.588Z</time></trkpt><trkpt lat="40.7791041" lon="14.7233737"><ele>112.80000000000001</ele><time>2026-04-25T10:02:50.588Z</time></trkpt><trkpt lat="40.7791337" lon="14.7232524"><ele>113.4</ele><time>2026-04-25T10:02:51.588Z</time></trkpt><trkpt lat="40.7791525" lon="14.7231389"><ele>114.0</ele><time>2026-04-25T10:02:52.588Z</time></trkpt><trkpt lat="40.7791647" lon="14.7230315"><ele>114.0</ele><time>2026-04-25T10:02:53.588Z</time></trkpt><trkpt lat="40.7791719" lon="14.722923"><ele>114.0</ele><time>2026-04-25T10:02:54.589Z</time></trkpt><trkpt lat="40.7791811" lon="14.7228063"><ele>114.0</ele><time>2026-04-25T10:02:55.589Z</time></trkpt><trkpt lat="40.7792055" lon="14.7226724"><ele>114.0</ele><time>2026-04-25T10:02:56.589Z</time></trkpt><trkpt lat="40.7792398" lon="14.7225184"><ele>114.0</ele><time>2026-04-25T10:02:57.588Z</time></trkpt><trkpt lat="40.7792753" lon="14.7223463"><ele>114.0</ele><time>2026-04-25T10:02:58.589Z</time></trkpt><trkpt lat="40.7793197" lon="14.7221611"><ele>114.0</ele><time>2026-04-25T10:02:59.589Z</time></trkpt><trkpt lat="40.779361" lon="14.7219589"><ele>114.0</ele><time>2026-04-25T10:03:00.589Z</time></trkpt><trkpt lat="40.7794115" lon="14.7217405"><ele>113.0</ele><time>2026-04-25T10:03:01.589Z</time></trkpt><trkpt lat="40.7794638" lon="14.7215027"><ele>112.0</ele><time>2026-04-25T10:03:02.588Z</time></trkpt><trkpt lat="40.7795138" lon="14.7212541"><ele>111.0</ele><time>2026-04-25T10:03:03.589Z</time></trkpt><trkpt lat="40.7795598" lon="14.7210073"><ele>110.0</ele><time>2026-04-25T10:03:04.589Z</time></trkpt><trkpt lat="40.7796035" lon="14.7207786"><ele>109.0</ele><time>2026-04-25T10:03:05.588Z</time></trkpt><trkpt lat="40.7796473" lon="14.7205538"><ele>108.0</ele><time>2026-04-25T10:03:06.588Z</time></trkpt><trkpt lat="40.7796893" lon="14.72033"><ele>108.33333333333334</ele><time>2026-04-25T10:03:07.589Z</time></trkpt><trkpt lat="40.7797268" lon="14.7200999"><ele>108.66666666666667</ele><time>2026-04-25T10:03:08.589Z</time></trkpt><trkpt lat="40.7797623" lon="14.7198631"><ele>109.0</ele><time>2026-04-25T10:03:09.588Z</time></trkpt><trkpt lat="40.7797962" lon="14.7196238"><ele>109.0</ele><time>2026-04-25T10:03:10.589Z</time></trkpt><trkpt lat="40.7798244" lon="14.7193984"><ele>109.0</ele><time>2026-04-25T10:03:11.588Z</time></trkpt><trkpt lat="40.7798491" lon="14.7191882"><ele>109.0</ele><time>2026-04-25T10:03:12.589Z</time></trkpt><trkpt lat="40.7798704" lon="14.718991"><ele>109.0</ele><time>2026-04-25T10:03:13.589Z</time></trkpt><trkpt lat="40.7798892" lon="14.7188107"><ele>109.0</ele><time>2026-04-25T10:03:14.587Z</time></trkpt><trkpt lat="40.7799117" lon="14.7186416"><ele>109.0</ele><time>2026-04-25T10:03:15.589Z</time></trkpt><trkpt lat="40.7799311" lon="14.7184868"><ele>109.0</ele><time>2026-04-25T10:03:16.587Z</time></trkpt><trkpt lat="40.7799476" lon="14.7183484"><ele>108.75</ele><time>2026-04-25T10:03:17.589Z</time></trkpt><trkpt lat="40.7799582" lon="14.7182147"><ele>108.5</ele><time>2026-04-25T10:03:18.588Z</time></trkpt><trkpt lat="40.7799711" lon="14.7180673"><ele>108.25</ele><time>2026-04-25T10:03:19.589Z</time></trkpt><trkpt lat="40.7799875" lon="14.7178977"><ele>108.0</ele><time>2026-04-25T10:03:20.588Z</time></trkpt><trkpt lat="40.7800066" lon="14.7176922"><ele>107.66666666666666</ele><time>2026-04-25T10:03:21.589Z</time></trkpt><trkpt lat="40.7800275" lon="14.7174444"><ele>107.33333333333333</ele><time>2026-04-25T10:03:22.589Z</time></trkpt><trkpt lat="40.7800472" lon="14.7171623"><ele>107.0</ele><time>2026-04-25T10:03:23.588Z</time></trkpt><trkpt lat="40.7800585" lon="14.7169004"><ele>107.0</ele><time>2026-04-25T10:03:24.589Z</time></trkpt><trkpt lat="40.7800629" lon="14.7166546"><ele>107.0</ele><time>2026-04-25T10:03:25.589Z</time></trkpt><trkpt lat="40.7800691" lon="14.7164132"><ele>107.0</ele><time>2026-04-25T10:03:26.588Z</time></trkpt><trkpt lat="40.7800753" lon="14.7161602"><ele>105.66666666666666</ele><time>2026-04-25T10:03:27.588Z</time></trkpt><trkpt lat="40.7800788" lon="14.7158908"><ele>104.33333333333334</ele><time>2026-04-25T10:03:28.589Z</time></trkpt><trkpt lat="40.7800832" lon="14.7156028"><ele>103.0</ele><time>2026-04-25T10:03:29.587Z</time></trkpt><trkpt lat="40.7800899" lon="14.715306"><ele>102.0</ele><time>2026-04-25T10:03:30.588Z</time></trkpt><trkpt lat="40.7800928" lon="14.7150135"><ele>101.0</ele><time>2026-04-25T10:03:31.587Z</time></trkpt><trkpt lat="40.7800979" lon="14.7147289"><ele>100.0</ele><time>2026-04-25T10:03:32.588Z</time></trkpt><trkpt lat="40.7801027" lon="14.71446"><ele>100.0</ele><time>2026-04-25T10:03:33.587Z</time></trkpt><trkpt lat="40.7801076" lon="14.7142001"><ele>100.0</ele><time>2026-04-25T10:03:34.588Z</time></trkpt><trkpt lat="40.7801111" lon="14.7139423"><ele>100.0</ele><time>2026-04-25T10:03:35.588Z</time></trkpt><trkpt lat="40.7801162" lon="14.7136821"><ele>100.0</ele><time>2026-04-25T10:03:36.589Z</time></trkpt><trkpt lat="40.780122" lon="14.7134198"><ele>100.0</ele><time>2026-04-25T10:03:37.589Z</time></trkpt><trkpt lat="40.7801293" lon="14.7131497"><ele>100.0</ele><time>2026-04-25T10:03:38.588Z</time></trkpt><trkpt lat="40.7801371" lon="14.7128729"><ele>100.33333333333334</ele><time>2026-04-25T10:03:39.589Z</time></trkpt><trkpt lat="40.7801428" lon="14.7125916"><ele>100.66666666666666</ele><time>2026-04-25T10:03:40.589Z</time></trkpt><trkpt lat="40.7801461" lon="14.7123294"><ele>101.0</ele><time>2026-04-25T10:03:41.588Z</time></trkpt><trkpt lat="40.7801494" lon="14.712074"><ele>100.33333333333333</ele><time>2026-04-25T10:03:42.589Z</time></trkpt><trkpt lat="40.7801557" lon="14.7118159"><ele>99.66666666666666</ele><time>2026-04-25T10:03:43.588Z</time></trkpt><trkpt lat="40.7801629" lon="14.7115536"><ele>99.0</ele><time>2026-04-25T10:03:44.588Z</time></trkpt><trkpt lat="40.7801686" lon="14.7113074"><ele>99.0</ele><time>2026-04-25T10:03:45.588Z</time></trkpt><trkpt lat="40.7801744" lon="14.7110758"><ele>99.0</ele><time>2026-04-25T10:03:46.589Z</time></trkpt><trkpt lat="40.7801791" lon="14.710853"><ele>99.0</ele><time>2026-04-25T10:03:47.589Z</time></trkpt><trkpt lat="40.780182" lon="14.7106344"><ele>98.66666666666666</ele><time>2026-04-25T10:03:48.589Z</time></trkpt><trkpt lat="40.7801855" lon="14.7104152"><ele>98.33333333333333</ele><time>2026-04-25T10:03:49.589Z</time></trkpt><trkpt lat="40.780189" lon="14.7101929"><ele>98.0</ele><time>2026-04-25T10:03:50.587Z</time></trkpt><trkpt lat="40.7801917" lon="14.7099665"><ele>98.0</ele><time>2026-04-25T10:03:51.587Z</time></trkpt><trkpt lat="40.7801991" lon="14.7097355"><ele>98.0</ele><time>2026-04-25T10:03:52.587Z</time></trkpt><trkpt lat="40.7802031" lon="14.7095009"><ele>98.0</ele><time>2026-04-25T10:03:53.588Z</time></trkpt><trkpt lat="40.7802054" lon="14.7092627"><ele>98.0</ele><time>2026-04-25T10:03:54.589Z</time></trkpt><trkpt lat="40.7802074" lon="14.7090202"><ele>98.0</ele><time>2026-04-25T10:03:55.589Z</time></trkpt><trkpt lat="40.7802069" lon="14.7087926"><ele>98.0</ele><time>2026-04-25T10:03:56.589Z</time></trkpt><trkpt lat="40.7802044" lon="14.7085776"><ele>98.0</ele><time>2026-04-25T10:03:57.588Z</time></trkpt><trkpt lat="40.7801932" lon="14.7083769"><ele>98.0</ele><time>2026-04-25T10:03:58.589Z</time></trkpt><trkpt lat="40.7801776" lon="14.7081909"><ele>98.0</ele><time>2026-04-25T10:03:59.589Z</time></trkpt><trkpt lat="40.780164" lon="14.7080278"><ele>98.0</ele><time>2026-04-25T10:04:00.589Z</time></trkpt><trkpt lat="40.7801457" lon="14.7078777"><ele>98.0</ele><time>2026-04-25T10:04:01.587Z</time></trkpt><trkpt lat="40.7801272" lon="14.7077417"><ele>98.0</ele><time>2026-04-25T10:04:02.588Z</time></trkpt><trkpt lat="40.7801085" lon="14.7076183"><ele>98.0</ele><time>2026-04-25T10:04:03.588Z</time></trkpt><trkpt lat="40.7800882" lon="14.7074956"><ele>98.0</ele><time>2026-04-25T10:04:04.589Z</time></trkpt><trkpt lat="40.7800757" lon="14.7073814"><ele>98.0</ele><time>2026-04-25T10:04:05.589Z</time></trkpt><trkpt lat="40.7800643" lon="14.7072755"><ele>97.99999999999999</ele><time>2026-04-25T10:04:06.589Z</time></trkpt><trkpt lat="40.7800575" lon="14.7071786"><ele>98.0</ele><time>2026-04-25T10:04:07.588Z</time></trkpt><trkpt lat="40.7800489" lon="14.7070832"><ele>98.0</ele><time>2026-04-25T10:04:08.589Z</time></trkpt><trkpt lat="40.780041" lon="14.7069881"><ele>98.0</ele><time>2026-04-25T10:04:09.588Z</time></trkpt><trkpt lat="40.7800327" lon="14.7068949"><ele>97.99999999999999</ele><time>2026-04-25T10:04:10.589Z</time></trkpt><trkpt lat="40.7800278" lon="14.7067502"><ele>98.0</ele><time>2026-04-25T10:04:12.589Z</time></trkpt><trkpt lat="40.7800327" lon="14.7066441"><ele>97.80000000000001</ele><time>2026-04-25T10:04:15.589Z</time></trkpt><trkpt lat="40.7799895" lon="14.7065395"><ele>97.6</ele><time>2026-04-25T10:04:18.588Z</time></trkpt><trkpt lat="40.7798604" lon="14.7065389"><ele>97.4</ele><time>2026-04-25T10:04:20.589Z</time></trkpt><trkpt lat="40.7797692" lon="14.7065334"><ele>97.19999999999999</ele><time>2026-04-25T10:04:21.589Z</time></trkpt><trkpt lat="40.7796549" lon="14.7065218"><ele>97.0</ele><time>2026-04-25T10:04:22.589Z</time></trkpt><trkpt lat="40.7795195" lon="14.7064976"><ele>97.0</ele><time>2026-04-25T10:04:23.589Z</time></trkpt><trkpt lat="40.7793637" lon="14.7064666"><ele>97.0</ele><time>2026-04-25T10:04:24.588Z</time></trkpt><trkpt lat="40.7791981" lon="14.7064314"><ele>97.0</ele><time>2026-04-25T10:04:25.587Z</time></trkpt><trkpt lat="40.7790337" lon="14.7063928"><ele>96.0</ele><time>2026-04-25T10:04:26.588Z</time></trkpt><trkpt lat="40.7788733" lon="14.7063538"><ele>95.0</ele><time>2026-04-25T10:04:27.589Z</time></trkpt><trkpt lat="40.7787175" lon="14.7063173"><ele>94.0</ele><time>2026-04-25T10:04:28.588Z</time></trkpt><trkpt lat="40.7785543" lon="14.7062801"><ele>94.0</ele><time>2026-04-25T10:04:29.589Z</time></trkpt><trkpt lat="40.778381" lon="14.7062483"><ele>94.0</ele><time>2026-04-25T10:04:30.589Z</time></trkpt><trkpt lat="40.7781964" lon="14.7062315"><ele>94.0</ele><time>2026-04-25T10:04:31.589Z</time></trkpt><trkpt lat="40.7780093" lon="14.7062272"><ele>94.0</ele><time>2026-04-25T10:04:32.588Z</time></trkpt><trkpt lat="40.7778407" lon="14.7062281"><ele>94.0</ele><time>2026-04-25T10:04:33.588Z</time></trkpt><trkpt lat="40.7776855" lon="14.7062329"><ele>94.0</ele><time>2026-04-25T10:04:34.588Z</time></trkpt><trkpt lat="40.7775454" lon="14.7062382"><ele>94.4</ele><time>2026-04-25T10:04:35.588Z</time></trkpt><trkpt lat="40.77742" lon="14.706244"><ele>94.80000000000001</ele><time>2026-04-25T10:04:36.589Z</time></trkpt><trkpt lat="40.7773094" lon="14.7062484"><ele>95.19999999999999</ele><time>2026-04-25T10:04:37.588Z</time></trkpt><trkpt lat="40.7772185" lon="14.7062482"><ele>95.6</ele><time>2026-04-25T10:04:38.589Z</time></trkpt><trkpt lat="40.7771452" lon="14.7062498"><ele>96.0</ele><time>2026-04-25T10:04:39.589Z</time></trkpt><trkpt lat="40.7770359" lon="14.7062117"><ele>95.6</ele><time>2026-04-25T10:04:41.589Z</time></trkpt><trkpt lat="40.7769866" lon="14.7060685"><ele>95.19999999999999</ele><time>2026-04-25T10:04:43.589Z</time></trkpt><trkpt lat="40.7769818" lon="14.7059723"><ele>94.80000000000001</ele><time>2026-04-25T10:04:44.589Z</time></trkpt><trkpt lat="40.7769873" lon="14.7058411"><ele>94.4</ele><time>2026-04-25T10:04:45.588Z</time></trkpt><trkpt lat="40.7770062" lon="14.705685"><ele>94.0</ele><time>2026-04-25T10:04:46.587Z</time></trkpt><trkpt lat="40.7770358" lon="14.7054993"><ele>94.0</ele><time>2026-04-25T10:04:47.587Z</time></trkpt><trkpt lat="40.7770645" lon="14.7052825"><ele>94.0</ele><time>2026-04-25T10:04:48.587Z</time></trkpt><trkpt lat="40.7770837" lon="14.7050415"><ele>94.0</ele><time>2026-04-25T10:04:49.588Z</time></trkpt><trkpt lat="40.7770984" lon="14.7047771"><ele>94.33333333333333</ele><time>2026-04-25T10:04:50.588Z</time></trkpt><trkpt lat="40.7771134" lon="14.7045125"><ele>94.66666666666667</ele><time>2026-04-25T10:04:51.588Z</time></trkpt><trkpt lat="40.777127" lon="14.7042667"><ele>95.0</ele><time>2026-04-25T10:04:52.589Z</time></trkpt><trkpt lat="40.7771401" lon="14.7040359"><ele>94.33333333333334</ele><time>2026-04-25T10:04:53.588Z</time></trkpt><trkpt lat="40.7771527" lon="14.7038088"><ele>93.66666666666667</ele><time>2026-04-25T10:04:54.589Z</time></trkpt><trkpt lat="40.7771674" lon="14.7035793"><ele>93.0</ele><time>2026-04-25T10:04:55.588Z</time></trkpt><trkpt lat="40.7771866" lon="14.7033524"><ele>92.33333333333333</ele><time>2026-04-25T10:04:56.588Z</time></trkpt><trkpt lat="40.7772053" lon="14.7031352"><ele>91.66666666666666</ele><time>2026-04-25T10:04:57.588Z</time></trkpt><trkpt lat="40.7772233" lon="14.7029322"><ele>91.0</ele><time>2026-04-25T10:04:58.588Z</time></trkpt><trkpt lat="40.7772429" lon="14.7027321"><ele>91.0</ele><time>2026-04-25T10:04:59.588Z</time></trkpt><trkpt lat="40.7772619" lon="14.7025465"><ele>91.0</ele><time>2026-04-25T10:05:00.588Z</time></trkpt><trkpt lat="40.7772795" lon="14.7023674"><ele>91.0</ele><time>2026-04-25T10:05:01.587Z</time></trkpt><trkpt lat="40.7772944" lon="14.7021728"><ele>91.0</ele><time>2026-04-25T10:05:02.588Z</time></trkpt><trkpt lat="40.7772993" lon="14.7019632"><ele>90.66666666666666</ele><time>2026-04-25T10:05:03.589Z</time></trkpt><trkpt lat="40.7772948" lon="14.7017369"><ele>90.33333333333333</ele><time>2026-04-25T10:05:04.589Z</time></trkpt><trkpt lat="40.7772848" lon="14.7015266"><ele>90.0</ele><time>2026-04-25T10:05:05.589Z</time></trkpt><trkpt lat="40.7772713" lon="14.7013321"><ele>90.0</ele><time>2026-04-25T10:05:06.588Z</time></trkpt><trkpt lat="40.7772556" lon="14.7011513"><ele>90.0</ele><time>2026-04-25T10:05:07.588Z</time></trkpt><trkpt lat="40.7772379" lon="14.7009805"><ele>90.0</ele><time>2026-04-25T10:05:08.587Z</time></trkpt><trkpt lat="40.7772114" lon="14.7008152"><ele>90.0</ele><time>2026-04-25T10:05:09.588Z</time></trkpt><trkpt lat="40.7771616" lon="14.7006359"><ele>89.33333333333333</ele><time>2026-04-25T10:05:10.589Z</time></trkpt><trkpt lat="40.7770939" lon="14.7004468"><ele>88.66666666666666</ele><time>2026-04-25T10:05:11.588Z</time></trkpt><trkpt lat="40.7770134" lon="14.7002438"><ele>88.0</ele><time>2026-04-25T10:05:12.589Z</time></trkpt><trkpt lat="40.77693" lon="14.7000309"><ele>87.66666666666666</ele><time>2026-04-25T10:05:13.588Z</time></trkpt><trkpt lat="40.7768524" lon="14.6998427"><ele>87.33333333333333</ele><time>2026-04-25T10:05:14.588Z</time></trkpt><trkpt lat="40.7767594" lon="14.6996643"><ele>87.0</ele><time>2026-04-25T10:05:15.588Z</time></trkpt><trkpt lat="40.7766481" lon="14.6995024"><ele>87.0</ele><time>2026-04-25T10:05:16.588Z</time></trkpt><trkpt lat="40.7765195" lon="14.6993615"><ele>87.0</ele><time>2026-04-25T10:05:17.589Z</time></trkpt><trkpt lat="40.7763718" lon="14.6992493"><ele>87.0</ele><time>2026-04-25T10:05:18.587Z</time></trkpt><trkpt lat="40.7762118" lon="14.6991657"><ele>87.0</ele><time>2026-04-25T10:05:19.588Z</time></trkpt><trkpt lat="40.7760362" lon="14.699112"><ele>87.0</ele><time>2026-04-25T10:05:20.588Z</time></trkpt><trkpt lat="40.7758544" lon="14.6990718"><ele>87.0</ele><time>2026-04-25T10:05:21.587Z</time></trkpt><trkpt lat="40.7756842" lon="14.699025"><ele>86.66666666666667</ele><time>2026-04-25T10:05:22.588Z</time></trkpt><trkpt lat="40.7755241" lon="14.6989658"><ele>86.33333333333334</ele><time>2026-04-25T10:05:23.589Z</time></trkpt><trkpt lat="40.7753791" lon="14.6988829"><ele>86.0</ele><time>2026-04-25T10:05:24.588Z</time></trkpt><trkpt lat="40.7752455" lon="14.6987707"><ele>86.0</ele><time>2026-04-25T10:05:25.589Z</time></trkpt><trkpt lat="40.7751241" lon="14.6986309"><ele>86.0</ele><time>2026-04-25T10:05:26.588Z</time></trkpt><trkpt lat="40.7750047" lon="14.6984755"><ele>86.0</ele><time>2026-04-25T10:05:27.588Z</time></trkpt><trkpt lat="40.7748831" lon="14.6983232"><ele>86.33333333333334</ele><time>2026-04-25T10:05:28.588Z</time></trkpt><trkpt lat="40.7747578" lon="14.6981651"><ele>86.66666666666667</ele><time>2026-04-25T10:05:29.587Z</time></trkpt><trkpt lat="40.774633" lon="14.6980024"><ele>87.0</ele><time>2026-04-25T10:05:30.587Z</time></trkpt><trkpt lat="40.7745013" lon="14.6978373"><ele>86.66666666666667</ele><time>2026-04-25T10:05:31.587Z</time></trkpt><trkpt lat="40.774373" lon="14.6976687"><ele>86.33333333333334</ele><time>2026-04-25T10:05:32.588Z</time></trkpt><trkpt lat="40.7742536" lon="14.6974826"><ele>86.0</ele><time>2026-04-25T10:05:33.588Z</time></trkpt><trkpt lat="40.7741465" lon="14.6972781"><ele>85.33333333333334</ele><time>2026-04-25T10:05:34.589Z</time></trkpt><trkpt lat="40.7740543" lon="14.6970624"><ele>84.66666666666667</ele><time>2026-04-25T10:05:35.589Z</time></trkpt><trkpt lat="40.7739769" lon="14.6968315"><ele>84.0</ele><time>2026-04-25T10:05:36.589Z</time></trkpt><trkpt lat="40.7739184" lon="14.6966011"><ele>84.0</ele><time>2026-04-25T10:05:37.587Z</time></trkpt><trkpt lat="40.7738733" lon="14.6963629"><ele>84.0</ele><time>2026-04-25T10:05:38.589Z</time></trkpt><trkpt lat="40.7738393" lon="14.6961352"><ele>84.0</ele><time>2026-04-25T10:05:39.588Z</time></trkpt><trkpt lat="40.7738071" lon="14.695923"><ele>84.0</ele><time>2026-04-25T10:05:40.588Z</time></trkpt><trkpt lat="40.7737789" lon="14.6957235"><ele>84.0</ele><time>2026-04-25T10:05:41.589Z</time></trkpt><trkpt lat="40.7737571" lon="14.6955416"><ele>84.0</ele><time>2026-04-25T10:05:42.588Z</time></trkpt><trkpt lat="40.7737371" lon="14.6953813"><ele>84.0</ele><time>2026-04-25T10:05:43.588Z</time></trkpt><trkpt lat="40.7737192" lon="14.6952394"><ele>84.0</ele><time>2026-04-25T10:05:44.587Z</time></trkpt><trkpt lat="40.7737037" lon="14.6951149"><ele>84.0</ele><time>2026-04-25T10:05:45.588Z</time></trkpt><trkpt lat="40.7736936" lon="14.6950067"><ele>84.0</ele><time>2026-04-25T10:05:46.589Z</time></trkpt><trkpt lat="40.7736892" lon="14.6949217"><ele>84.0</ele><time>2026-04-25T10:05:47.588Z</time></trkpt><trkpt lat="40.7736736" lon="14.6948166"><ele>84.0</ele><time>2026-04-25T10:05:49.588Z</time></trkpt><trkpt lat="40.7736097" lon="14.6947762"><ele>84.0</ele><time>2026-04-25T10:05:52.588Z</time></trkpt><trkpt lat="40.7735154" lon="14.694803"><ele>84.0</ele><time>2026-04-25T10:05:54.588Z</time></trkpt><trkpt lat="40.7734324" lon="14.6948216"><ele>84.0</ele><time>2026-04-25T10:05:56.589Z</time></trkpt><trkpt lat="40.7733499" lon="14.6948381"><ele>84.0</ele><time>2026-04-25T10:05:59.589Z</time></trkpt><trkpt lat="40.773218" lon="14.6948758"><ele>84.0</ele><time>2026-04-25T10:06:01.589Z</time></trkpt><trkpt lat="40.7731242" lon="14.694924"><ele>84.0</ele><time>2026-04-25T10:06:02.589Z</time></trkpt><trkpt lat="40.7730166" lon="14.694972"><ele>84.0</ele><time>2026-04-25T10:06:03.588Z</time></trkpt><trkpt lat="40.7729072" lon="14.6950079"><ele>84.0</ele><time>2026-04-25T10:06:04.589Z</time></trkpt><trkpt lat="40.7728102" lon="14.6950261"><ele>84.0</ele><time>2026-04-25T10:06:05.589Z</time></trkpt><trkpt lat="40.772725" lon="14.6950392"><ele>84.0</ele><time>2026-04-25T10:06:06.589Z</time></trkpt><trkpt lat="40.7726446" lon="14.6950494"><ele>84.0</ele><time>2026-04-25T10:06:07.589Z</time></trkpt><trkpt lat="40.772569" lon="14.69506"><ele>84.0</ele><time>2026-04-25T10:06:08.588Z</time></trkpt><trkpt lat="40.7724938" lon="14.6950752"><ele>84.0</ele><time>2026-04-25T10:06:09.588Z</time></trkpt><trkpt lat="40.772414" lon="14.6950916"><ele>84.0</ele><time>2026-04-25T10:06:10.588Z</time></trkpt><trkpt lat="40.7723489" lon="14.6951056"><ele>84.0</ele><time>2026-04-25T10:06:11.588Z</time></trkpt><trkpt lat="40.7722805" lon="14.6951196"><ele>84.0</ele><time>2026-04-25T10:06:13.588Z</time></trkpt><trkpt lat="40.7722116" lon="14.6951099"><ele>84.0</ele><time>2026-04-25T10:06:16.588Z</time></trkpt><trkpt lat="40.7721284" lon="14.6950743"><ele>84.0</ele><time>2026-04-25T10:06:19.589Z</time></trkpt><trkpt lat="40.7720953" lon="14.6949866"><ele>84.0</ele><time>2026-04-25T10:06:21.589Z</time></trkpt><trkpt lat="40.7720874" lon="14.6948973"><ele>84.0</ele><time>2026-04-25T10:06:23.589Z</time></trkpt><trkpt lat="40.7720745" lon="14.6948117"><ele>84.0</ele><time>2026-04-25T10:06:25.589Z</time></trkpt><trkpt lat="40.772061" lon="14.6947261"><ele>84.0</ele><time>2026-04-25T10:06:28.589Z</time></trkpt><trkpt lat="40.7720668" lon="14.6946212"><ele>84.0</ele><time>2026-04-25T10:06:30.589Z</time></trkpt><trkpt lat="40.772092" lon="14.6945295"><ele>84.0</ele><time>2026-04-25T10:06:32.589Z</time></trkpt><trkpt lat="40.7720814" lon="14.6944427"><ele>84.0</ele><time>2026-04-25T10:06:34.588Z</time></trkpt><trkpt lat="40.7720474" lon="14.6943353"><ele>82.0</ele><time>2026-04-25T10:06:37.589Z</time></trkpt><trkpt lat="40.7719825" lon="14.6942886"><ele>82.0</ele><time>2026-04-25T10:06:40.588Z</time></trkpt><trkpt lat="40.771916" lon="14.6942716"><ele>82.0</ele><time>2026-04-25T10:06:43.588Z</time></trkpt><trkpt lat="40.7718498" lon="14.6943185"><ele>81.0</ele><time>2026-04-25T10:06:46.588Z</time></trkpt></trkseg></trk></gpx>